<?xml version='1.0' encoding='UTF-8'?><gpx version="1.1" creator="JPX - https://github.com/jenetics/jpx" xmlns="http://www.topografix.com/GPX/1/1"><trk><trkseg><trkpt lat="43.5860219" lon="11.3151017"><ele>228.0</ele><time>2026-03-28T15:43:47.183Z</time></trkpt><trkpt lat="43.5860329" lon="11.3151922"><ele>228.0</ele><time>2026-03-28T15:44:13.182Z</time></trkpt><trkpt lat="43.5861046" lon="11.3151827"><ele>228.0</ele><time>2026-03-28T15:44:17.182Z</time></trkpt><trkpt lat="43.586193" lon="11.3151721"><ele>228.0</ele><time>2026-03-28T15:44:38.182Z</time></trkpt><trkpt lat="43.5862895" lon="11.3151559"><ele>228.0</ele><time>2026-03-28T15:44:40.183Z</time></trkpt><trkpt lat="43.5863684" lon="11.3151392"><ele>228.0</ele><time>2026-03-28T15:44:41.182Z</time></trkpt><trkpt lat="43.5864612" lon="11.3151235"><ele>228.0</ele><time>2026-03-28T15:44:42.182Z</time></trkpt><trkpt lat="43.5865566" lon="11.3151033"><ele>228.0</ele><time>2026-03-28T15:44:43.182Z</time></trkpt><trkpt lat="43.586666" lon="11.3150821"><ele>228.0</ele><time>2026-03-28T15:44:44.183Z</time></trkpt><trkpt lat="43.5867912" lon="11.3150589"><ele>228.0</ele><time>2026-03-28T15:44:45.183Z</time></trkpt><trkpt lat="43.5869072" lon="11.3150388"><ele>228.0</ele><time>2026-03-28T15:44:46.182Z</time></trkpt><trkpt lat="43.5870102" lon="11.315018"><ele>228.0</ele><time>2026-03-28T15:44:47.182Z</time></trkpt><trkpt lat="43.5871105" lon="11.3149983"><ele>228.0</ele><time>2026-03-28T15:44:48.182Z</time></trkpt><trkpt lat="43.5872162" lon="11.3149767"><ele>228.0</ele><time>2026-03-28T15:44:49.183Z</time></trkpt><trkpt lat="43.587313" lon="11.3149604"><ele>228.0</ele><time>2026-03-28T15:44:50.182Z</time></trkpt><trkpt lat="43.5874008" lon="11.3149447"><ele>227.83333333333334</ele><time>2026-03-28T15:44:51.182Z</time></trkpt><trkpt lat="43.5874826" lon="11.3149282"><ele>227.66666666666669</ele><time>2026-03-28T15:44:52.182Z</time></trkpt><trkpt lat="43.5875582" lon="11.3149106"><ele>227.5</ele><time>2026-03-28T15:44:53.182Z</time></trkpt><trkpt lat="43.5876271" lon="11.3148904"><ele>227.33333333333334</ele><time>2026-03-28T15:44:54.183Z</time></trkpt><trkpt lat="43.5876842" lon="11.3148518"><ele>227.16666666666669</ele><time>2026-03-28T15:44:55.182Z</time></trkpt><trkpt lat="43.5877214" lon="11.3147496"><ele>227.0</ele><time>2026-03-28T15:44:57.183Z</time></trkpt><trkpt lat="43.5876616" lon="11.3146892"><ele>227.00000000000003</ele><time>2026-03-28T15:44:59.183Z</time></trkpt><trkpt lat="43.5875702" lon="11.3146522"><ele>227.0</ele><time>2026-03-28T15:45:01.183Z</time></trkpt><trkpt lat="43.5874642" lon="11.3146006"><ele>227.0</ele><time>2026-03-28T15:45:03.182Z</time></trkpt><trkpt lat="43.5874046" lon="11.3145675"><ele>227.0</ele><time>2026-03-28T15:45:04.183Z</time></trkpt><trkpt lat="43.5873433" lon="11.3145271"><ele>227.00000000000003</ele><time>2026-03-28T15:45:05.182Z</time></trkpt><trkpt lat="43.5872869" lon="11.3144848"><ele>227.0</ele><time>2026-03-28T15:45:06.182Z</time></trkpt><trkpt lat="43.5872284" lon="11.3144334"><ele>227.00000000000003</ele><time>2026-03-28T15:45:07.183Z</time></trkpt><trkpt lat="43.5871647" lon="11.3143788"><ele>227.0</ele><time>2026-03-28T15:45:08.183Z</time></trkpt><trkpt lat="43.5870989" lon="11.314322"><ele>227.0</ele><time>2026-03-28T15:45:09.182Z</time></trkpt><trkpt lat="43.5870288" lon="11.3142597"><ele>227.0</ele><time>2026-03-28T15:45:10.183Z</time></trkpt><trkpt lat="43.5869609" lon="11.3141979"><ele>227.00000000000003</ele><time>2026-03-28T15:45:11.182Z</time></trkpt><trkpt lat="43.586896" lon="11.3141376"><ele>227.0</ele><time>2026-03-28T15:45:12.183Z</time></trkpt><trkpt lat="43.5868374" lon="11.3140905"><ele>227.16666666666669</ele><time>2026-03-28T15:45:13.182Z</time></trkpt><trkpt lat="43.5867752" lon="11.3140502"><ele>227.33333333333334</ele><time>2026-03-28T15:45:14.183Z</time></trkpt><trkpt lat="43.5867181" lon="11.3140133"><ele>227.5</ele><time>2026-03-28T15:45:15.182Z</time></trkpt><trkpt lat="43.5866318" lon="11.3139305"><ele>227.66666666666669</ele><time>2026-03-28T15:45:17.182Z</time></trkpt><trkpt lat="43.5865971" lon="11.3138373"><ele>227.83333333333334</ele><time>2026-03-28T15:45:19.182Z</time></trkpt><trkpt lat="43.5866271" lon="11.3137399"><ele>228.0</ele><time>2026-03-28T15:45:21.183Z</time></trkpt><trkpt lat="43.5867392" lon="11.3136744"><ele>228.14285714285714</ele><time>2026-03-28T15:45:23.183Z</time></trkpt><trkpt lat="43.5868086" lon="11.3136847"><ele>228.28571428571428</ele><time>2026-03-28T15:45:24.183Z</time></trkpt><trkpt lat="43.5868807" lon="11.3137061"><ele>228.42857142857142</ele><time>2026-03-28T15:45:25.182Z</time></trkpt><trkpt lat="43.5869522" lon="11.3137285"><ele>228.57142857142856</ele><time>2026-03-28T15:45:26.183Z</time></trkpt><trkpt lat="43.5870245" lon="11.3137423"><ele>228.71428571428572</ele><time>2026-03-28T15:45:27.183Z</time></trkpt><trkpt lat="43.5870984" lon="11.3137526"><ele>228.85714285714283</ele><time>2026-03-28T15:45:28.182Z</time></trkpt><trkpt lat="43.5871724" lon="11.3137588"><ele>229.0</ele><time>2026-03-28T15:45:29.183Z</time></trkpt><trkpt lat="43.5872458" lon="11.3137652"><ele>229.16666666666666</ele><time>2026-03-28T15:45:30.183Z</time></trkpt><trkpt lat="43.587325" lon="11.3137737"><ele>229.33333333333331</ele><time>2026-03-28T15:45:31.182Z</time></trkpt><trkpt lat="43.5874007" lon="11.3137838"><ele>229.5</ele><time>2026-03-28T15:45:32.182Z</time></trkpt><trkpt lat="43.5874796" lon="11.3137991"><ele>229.66666666666669</ele><time>2026-03-28T15:45:33.183Z</time></trkpt><trkpt lat="43.5875703" lon="11.3138143"><ele>229.83333333333334</ele><time>2026-03-28T15:45:34.182Z</time></trkpt><trkpt lat="43.587675" lon="11.3138248"><ele>230.0</ele><time>2026-03-28T15:45:35.182Z</time></trkpt><trkpt lat="43.5877821" lon="11.3138344"><ele>229.25</ele><time>2026-03-28T15:45:36.183Z</time></trkpt><trkpt lat="43.5878977" lon="11.3138479"><ele>228.5</ele><time>2026-03-28T15:45:37.182Z</time></trkpt><trkpt lat="43.5880244" lon="11.3138645"><ele>227.75</ele><time>2026-03-28T15:45:38.183Z</time></trkpt><trkpt lat="43.5881458" lon="11.3138792"><ele>227.0</ele><time>2026-03-28T15:45:39.183Z</time></trkpt><trkpt lat="43.5882697" lon="11.3138913"><ele>226.75</ele><time>2026-03-28T15:45:40.182Z</time></trkpt><trkpt lat="43.5883945" lon="11.3139087"><ele>226.5</ele><time>2026-03-28T15:45:41.183Z</time></trkpt><trkpt lat="43.5885227" lon="11.3139238"><ele>226.25</ele><time>2026-03-28T15:45:42.182Z</time></trkpt><trkpt lat="43.5886516" lon="11.3139405"><ele>226.0</ele><time>2026-03-28T15:45:43.182Z</time></trkpt><trkpt lat="43.5887788" lon="11.3139602"><ele>225.75</ele><time>2026-03-28T15:45:44.182Z</time></trkpt><trkpt lat="43.5889043" lon="11.3139778"><ele>225.5</ele><time>2026-03-28T15:45:45.181Z</time></trkpt><trkpt lat="43.5890296" lon="11.3139951"><ele>225.25</ele><time>2026-03-28T15:45:46.183Z</time></trkpt><trkpt lat="43.5891598" lon="11.314004"><ele>225.0</ele><time>2026-03-28T15:45:47.183Z</time></trkpt><trkpt lat="43.5892938" lon="11.3140165"><ele>225.0</ele><time>2026-03-28T15:45:48.182Z</time></trkpt><trkpt lat="43.5894254" lon="11.3140289"><ele>225.0</ele><time>2026-03-28T15:45:49.182Z</time></trkpt><trkpt lat="43.5895501" lon="11.314039"><ele>225.0</ele><time>2026-03-28T15:45:50.181Z</time></trkpt><trkpt lat="43.5896782" lon="11.3140466"><ele>225.0</ele><time>2026-03-28T15:45:51.182Z</time></trkpt><trkpt lat="43.589799" lon="11.3140542"><ele>224.6</ele><time>2026-03-28T15:45:52.183Z</time></trkpt><trkpt lat="43.5899019" lon="11.314051"><ele>224.2</ele><time>2026-03-28T15:45:53.182Z</time></trkpt><trkpt lat="43.5899916" lon="11.314014"><ele>223.8</ele><time>2026-03-28T15:45:54.183Z</time></trkpt><trkpt lat="43.5900796" lon="11.3139464"><ele>223.4</ele><time>2026-03-28T15:45:55.182Z</time></trkpt><trkpt lat="43.5901589" lon="11.3138643"><ele>223.0</ele><time>2026-03-28T15:45:56.181Z</time></trkpt><trkpt lat="43.5902291" lon="11.3137853"><ele>222.66666666666666</ele><time>2026-03-28T15:45:57.181Z</time></trkpt><trkpt lat="43.5903124" lon="11.3137113"><ele>222.33333333333331</ele><time>2026-03-28T15:45:59.181Z</time></trkpt><trkpt lat="43.5903642" lon="11.3136565"><ele>222.0</ele><time>2026-03-28T15:46:01.182Z</time></trkpt><trkpt lat="43.5902751" lon="11.3136896"><ele>221.66666666666669</ele><time>2026-03-28T15:46:07.181Z</time></trkpt><trkpt lat="43.5902057" lon="11.3137134"><ele>221.33333333333334</ele><time>2026-03-28T15:46:11.182Z</time></trkpt><trkpt lat="43.590183" lon="11.3135519"><ele>221.0</ele><time>2026-03-28T15:46:14.181Z</time></trkpt><trkpt lat="43.590183" lon="11.31345"><ele>221.0</ele><time>2026-03-28T15:46:15.182Z</time></trkpt><trkpt lat="43.5901806" lon="11.3133144"><ele>221.00000000000003</ele><time>2026-03-28T15:46:16.18Z</time></trkpt><trkpt lat="43.5901809" lon="11.3131632"><ele>221.00000000000003</ele><time>2026-03-28T15:46:17.182Z</time></trkpt><trkpt lat="43.5901865" lon="11.3130213"><ele>221.0</ele><time>2026-03-28T15:46:18.181Z</time></trkpt><trkpt lat="43.5901923" lon="11.3128985"><ele>221.0</ele><time>2026-03-28T15:46:19.181Z</time></trkpt><trkpt lat="43.5902002" lon="11.3127864"><ele>221.20000000000002</ele><time>2026-03-28T15:46:20.182Z</time></trkpt><trkpt lat="43.5902113" lon="11.3126708"><ele>221.40000000000003</ele><time>2026-03-28T15:46:21.18Z</time></trkpt><trkpt lat="43.5902246" lon="11.3125519"><ele>221.6</ele><time>2026-03-28T15:46:22.181Z</time></trkpt><trkpt lat="43.5902449" lon="11.3124094"><ele>221.8</ele><time>2026-03-28T15:46:23.182Z</time></trkpt><trkpt lat="43.5902665" lon="11.3122815"><ele>222.0</ele><time>2026-03-28T15:46:24.182Z</time></trkpt><trkpt lat="43.5902842" lon="11.3121623"><ele>222.2</ele><time>2026-03-28T15:46:25.181Z</time></trkpt><trkpt lat="43.5903039" lon="11.3120245"><ele>222.39999999999998</ele><time>2026-03-28T15:46:26.182Z</time></trkpt><trkpt lat="43.5903231" lon="11.3118935"><ele>222.60000000000002</ele><time>2026-03-28T15:46:27.181Z</time></trkpt><trkpt lat="43.5903443" lon="11.3117588"><ele>222.8</ele><time>2026-03-28T15:46:28.181Z</time></trkpt><trkpt lat="43.5903737" lon="11.3116292"><ele>223.0</ele><time>2026-03-28T15:46:29.18Z</time></trkpt><trkpt lat="43.5904128" lon="11.311518"><ele>223.5</ele><time>2026-03-28T15:46:30.181Z</time></trkpt><trkpt lat="43.5904691" lon="11.3113963"><ele>224.0</ele><time>2026-03-28T15:46:31.181Z</time></trkpt><trkpt lat="43.5905404" lon="11.311279"><ele>224.5</ele><time>2026-03-28T15:46:32.181Z</time></trkpt><trkpt lat="43.5906258" lon="11.3111595"><ele>225.0</ele><time>2026-03-28T15:46:33.181Z</time></trkpt><trkpt lat="43.5907166" lon="11.3110464"><ele>225.0</ele><time>2026-03-28T15:46:34.181Z</time></trkpt><trkpt lat="43.5908135" lon="11.3109511"><ele>225.0</ele><time>2026-03-28T15:46:35.181Z</time></trkpt><trkpt lat="43.5909261" lon="11.3108809"><ele>225.0</ele><time>2026-03-28T15:46:36.181Z</time></trkpt><trkpt lat="43.5910548" lon="11.3108455"><ele>225.0</ele><time>2026-03-28T15:46:37.181Z</time></trkpt><trkpt lat="43.5911833" lon="11.3108422"><ele>227.0</ele><time>2026-03-28T15:46:38.181Z</time></trkpt><trkpt lat="43.5913239" lon="11.3108442"><ele>229.0</ele><time>2026-03-28T15:46:39.182Z</time></trkpt><trkpt lat="43.5914625" lon="11.3108467"><ele>231.0</ele><time>2026-03-28T15:46:40.181Z</time></trkpt><trkpt lat="43.5915835" lon="11.3108552"><ele>233.0</ele><time>2026-03-28T15:46:41.182Z</time></trkpt><trkpt lat="43.5916957" lon="11.310863"><ele>233.0</ele><time>2026-03-28T15:46:42.181Z</time></trkpt><trkpt lat="43.591807" lon="11.3108696"><ele>233.0</ele><time>2026-03-28T15:46:43.181Z</time></trkpt><trkpt lat="43.5919242" lon="11.3108705"><ele>233.0</ele><time>2026-03-28T15:46:44.182Z</time></trkpt><trkpt lat="43.5920391" lon="11.3108671"><ele>233.0</ele><time>2026-03-28T15:46:45.182Z</time></trkpt><trkpt lat="43.5921588" lon="11.3108608"><ele>235.60000000000002</ele><time>2026-03-28T15:46:46.182Z</time></trkpt><trkpt lat="43.5922741" lon="11.3108596"><ele>238.20000000000002</ele><time>2026-03-28T15:46:47.181Z</time></trkpt><trkpt lat="43.5923818" lon="11.310866"><ele>240.8</ele><time>2026-03-28T15:46:48.181Z</time></trkpt><trkpt lat="43.5924927" lon="11.3108719"><ele>243.4</ele><time>2026-03-28T15:46:49.182Z</time></trkpt><trkpt lat="43.5926029" lon="11.3108467"><ele>246.0</ele><time>2026-03-28T15:46:50.181Z</time></trkpt><trkpt lat="43.5927063" lon="11.3108081"><ele>246.0</ele><time>2026-03-28T15:46:51.181Z</time></trkpt><trkpt lat="43.5928029" lon="11.3107619"><ele>246.00000000000003</ele><time>2026-03-28T15:46:52.182Z</time></trkpt><trkpt lat="43.5929033" lon="11.3107129"><ele>246.00000000000003</ele><time>2026-03-28T15:46:53.182Z</time></trkpt><trkpt lat="43.5930066" lon="11.3106622"><ele>246.0</ele><time>2026-03-28T15:46:54.181Z</time></trkpt><trkpt lat="43.593115" lon="11.3106056"><ele>246.0</ele><time>2026-03-28T15:46:55.181Z</time></trkpt><trkpt lat="43.593234" lon="11.3105408"><ele>247.5</ele><time>2026-03-28T15:46:56.181Z</time></trkpt><trkpt lat="43.5933499" lon="11.3104813"><ele>249.0</ele><time>2026-03-28T15:46:57.182Z</time></trkpt><trkpt lat="43.5934691" lon="11.3104196"><ele>250.5</ele><time>2026-03-28T15:46:58.181Z</time></trkpt><trkpt lat="43.5935909" lon="11.3103532"><ele>252.0</ele><time>2026-03-28T15:46:59.182Z</time></trkpt><trkpt lat="43.5937018" lon="11.3102953"><ele>253.75</ele><time>2026-03-28T15:47:00.181Z</time></trkpt><trkpt lat="43.5937929" lon="11.3102298"><ele>255.5</ele><time>2026-03-28T15:47:01.181Z</time></trkpt><trkpt lat="43.5938755" lon="11.3101287"><ele>257.25</ele><time>2026-03-28T15:47:02.182Z</time></trkpt><trkpt lat="43.5939369" lon="11.3099934"><ele>259.0</ele><time>2026-03-28T15:47:03.182Z</time></trkpt><trkpt lat="43.5939776" lon="11.3098296"><ele>259.5</ele><time>2026-03-28T15:47:04.181Z</time></trkpt><trkpt lat="43.5940187" lon="11.3096491"><ele>260.0</ele><time>2026-03-28T15:47:05.181Z</time></trkpt><trkpt lat="43.5940603" lon="11.3094708"><ele>260.5</ele><time>2026-03-28T15:47:06.181Z</time></trkpt><trkpt lat="43.5941033" lon="11.3092838"><ele>261.0</ele><time>2026-03-28T15:47:07.181Z</time></trkpt><trkpt lat="43.5941429" lon="11.3091123"><ele>261.0</ele><time>2026-03-28T15:47:08.181Z</time></trkpt><trkpt lat="43.5941798" lon="11.3089464"><ele>261.0</ele><time>2026-03-28T15:47:09.181Z</time></trkpt><trkpt lat="43.5942129" lon="11.3087908"><ele>261.0</ele><time>2026-03-28T15:47:10.181Z</time></trkpt><trkpt lat="43.5942391" lon="11.3086259"><ele>261.0</ele><time>2026-03-28T15:47:11.182Z</time></trkpt><trkpt lat="43.5942609" lon="11.3084425"><ele>261.25</ele><time>2026-03-28T15:47:12.182Z</time></trkpt><trkpt lat="43.594282" lon="11.3082499"><ele>261.5</ele><time>2026-03-28T15:47:13.181Z</time></trkpt><trkpt lat="43.5943045" lon="11.3080539"><ele>261.75</ele><time>2026-03-28T15:47:14.182Z</time></trkpt><trkpt lat="43.5943251" lon="11.3078554"><ele>262.0</ele><time>2026-03-28T15:47:15.181Z</time></trkpt><trkpt lat="43.5943448" lon="11.3076544"><ele>262.75</ele><time>2026-03-28T15:47:16.181Z</time></trkpt><trkpt lat="43.5943647" lon="11.307459"><ele>263.5</ele><time>2026-03-28T15:47:17.181Z</time></trkpt><trkpt lat="43.5943849" lon="11.3072759"><ele>264.25</ele><time>2026-03-28T15:47:18.181Z</time></trkpt><trkpt lat="43.5944055" lon="11.3070899"><ele>265.0</ele><time>2026-03-28T15:47:19.181Z</time></trkpt><trkpt lat="43.5944267" lon="11.3068983"><ele>266.0</ele><time>2026-03-28T15:47:20.181Z</time></trkpt><trkpt lat="43.5944443" lon="11.3067179"><ele>267.0</ele><time>2026-03-28T15:47:21.181Z</time></trkpt><trkpt lat="43.5944614" lon="11.3065439"><ele>268.0</ele><time>2026-03-28T15:47:22.182Z</time></trkpt><trkpt lat="43.5944795" lon="11.3063702"><ele>269.0</ele><time>2026-03-28T15:47:23.181Z</time></trkpt><trkpt lat="43.5944962" lon="11.30619"><ele>269.0</ele><time>2026-03-28T15:47:24.182Z</time></trkpt><trkpt lat="43.5945044" lon="11.3060152"><ele>269.0</ele><time>2026-03-28T15:47:25.182Z</time></trkpt><trkpt lat="43.5945054" lon="11.3058381"><ele>269.0</ele><time>2026-03-28T15:47:26.181Z</time></trkpt><trkpt lat="43.5945017" lon="11.3056579"><ele>269.0</ele><time>2026-03-28T15:47:27.181Z</time></trkpt><trkpt lat="43.5944971" lon="11.3054897"><ele>269.6666666666667</ele><time>2026-03-28T15:47:28.181Z</time></trkpt><trkpt lat="43.5944955" lon="11.3053553"><ele>270.33333333333337</ele><time>2026-03-28T15:47:29.181Z</time></trkpt><trkpt lat="43.5944925" lon="11.3052431"><ele>271.0</ele><time>2026-03-28T15:47:30.181Z</time></trkpt><trkpt lat="43.5944866" lon="11.305123"><ele>271.6666666666667</ele><time>2026-03-28T15:47:31.181Z</time></trkpt><trkpt lat="43.594484" lon="11.3050113"><ele>272.3333333333333</ele><time>2026-03-28T15:47:32.182Z</time></trkpt><trkpt lat="43.5944813" lon="11.3049005"><ele>273.0</ele><time>2026-03-28T15:47:33.182Z</time></trkpt><trkpt lat="43.5944814" lon="11.3047863"><ele>274.1666666666667</ele><time>2026-03-28T15:47:34.182Z</time></trkpt><trkpt lat="43.5944756" lon="11.3046639"><ele>275.3333333333333</ele><time>2026-03-28T15:47:35.181Z</time></trkpt><trkpt lat="43.5944713" lon="11.3045297"><ele>276.5</ele><time>2026-03-28T15:47:36.182Z</time></trkpt><trkpt lat="43.5944643" lon="11.3043993"><ele>277.66666666666663</ele><time>2026-03-28T15:47:37.181Z</time></trkpt><trkpt lat="43.5944596" lon="11.3042772"><ele>278.8333333333333</ele><time>2026-03-28T15:47:38.181Z</time></trkpt><trkpt lat="43.5944553" lon="11.3041727"><ele>280.0</ele><time>2026-03-28T15:47:39.181Z</time></trkpt><trkpt lat="43.5944516" lon="11.3040644"><ele>280.0</ele><time>2026-03-28T15:47:40.181Z</time></trkpt><trkpt lat="43.5944478" lon="11.3039554"><ele>280.0</ele><time>2026-03-28T15:47:41.181Z</time></trkpt><trkpt lat="43.5944435" lon="11.3038331"><ele>280.0</ele><time>2026-03-28T15:47:42.182Z</time></trkpt><trkpt lat="43.5944387" lon="11.3037032"><ele>280.0</ele><time>2026-03-28T15:47:43.181Z</time></trkpt><trkpt lat="43.5944339" lon="11.3035683"><ele>280.0</ele><time>2026-03-28T15:47:44.181Z</time></trkpt><trkpt lat="43.5944299" lon="11.3034297"><ele>281.4</ele><time>2026-03-28T15:47:45.181Z</time></trkpt><trkpt lat="43.5944266" lon="11.3032893"><ele>282.8</ele><time>2026-03-28T15:47:46.182Z</time></trkpt><trkpt lat="43.5944214" lon="11.3031486"><ele>284.2</ele><time>2026-03-28T15:47:47.181Z</time></trkpt><trkpt lat="43.5944172" lon="11.3030091"><ele>285.6</ele><time>2026-03-28T15:47:48.181Z</time></trkpt><trkpt lat="43.5944149" lon="11.3028766"><ele>287.0</ele><time>2026-03-28T15:47:49.182Z</time></trkpt><trkpt lat="43.5944311" lon="11.3027555"><ele>288.1666666666667</ele><time>2026-03-28T15:47:50.181Z</time></trkpt><trkpt lat="43.5944629" lon="11.3026486"><ele>289.33333333333337</ele><time>2026-03-28T15:47:51.182Z</time></trkpt><trkpt lat="43.5945047" lon="11.3025492"><ele>290.5</ele><time>2026-03-28T15:47:52.182Z</time></trkpt><trkpt lat="43.5945439" lon="11.3024529"><ele>291.6666666666667</ele><time>2026-03-28T15:47:53.182Z</time></trkpt><trkpt lat="43.5945783" lon="11.3023596"><ele>292.8333333333333</ele><time>2026-03-28T15:47:54.182Z</time></trkpt><trkpt lat="43.5946117" lon="11.3022646"><ele>294.0</ele><time>2026-03-28T15:47:55.181Z</time></trkpt><trkpt lat="43.5946468" lon="11.3021667"><ele>297.1666666666667</ele><time>2026-03-28T15:47:56.181Z</time></trkpt><trkpt lat="43.5946838" lon="11.3020676"><ele>300.3333333333333</ele><time>2026-03-28T15:47:57.181Z</time></trkpt><trkpt lat="43.5947189" lon="11.3019657"><ele>303.5</ele><time>2026-03-28T15:47:58.181Z</time></trkpt><trkpt lat="43.5947446" lon="11.3018718"><ele>306.66666666666663</ele><time>2026-03-28T15:47:59.181Z</time></trkpt><trkpt lat="43.594755" lon="11.3017816"><ele>309.8333333333333</ele><time>2026-03-28T15:48:00.182Z</time></trkpt><trkpt lat="43.594734" lon="11.301624"><ele>313.0</ele><time>2026-03-28T15:48:02.181Z</time></trkpt><trkpt lat="43.5946799" lon="11.3014543"><ele>313.5</ele><time>2026-03-28T15:48:04.181Z</time></trkpt><trkpt lat="43.5946396" lon="11.3013557"><ele>314.0</ele><time>2026-03-28T15:48:05.182Z</time></trkpt><trkpt lat="43.5946092" lon="11.3012741"><ele>314.5</ele><time>2026-03-28T15:48:06.182Z</time></trkpt><trkpt lat="43.5945829" lon="11.3011933"><ele>315.0</ele><time>2026-03-28T15:48:07.181Z</time></trkpt><trkpt lat="43.5945434" lon="11.3010713"><ele>315.5</ele><time>2026-03-28T15:48:09.182Z</time></trkpt><trkpt lat="43.5945001" lon="11.3009725"><ele>316.0</ele><time>2026-03-28T15:48:23.181Z</time></trkpt><trkpt lat="43.5944563" lon="11.3009019"><ele>316.0</ele><time>2026-03-28T15:48:25.181Z</time></trkpt><trkpt lat="43.5944326" lon="11.3007692"><ele>316.0</ele><time>2026-03-28T15:48:27.181Z</time></trkpt><trkpt lat="43.5943726" lon="11.3005906"><ele>316.0</ele><time>2026-03-28T15:48:29.181Z</time></trkpt><trkpt lat="43.5943295" lon="11.3004791"><ele>316.0</ele><time>2026-03-28T15:48:30.181Z</time></trkpt><trkpt lat="43.5942858" lon="11.3003664"><ele>316.0</ele><time>2026-03-28T15:48:31.182Z</time></trkpt><trkpt lat="43.594242" lon="11.300256"><ele>318.16666666666663</ele><time>2026-03-28T15:48:32.181Z</time></trkpt><trkpt lat="43.59421" lon="11.3001521"><ele>320.3333333333333</ele><time>2026-03-28T15:48:33.181Z</time></trkpt><trkpt lat="43.5941965" lon="11.3000531"><ele>322.5</ele><time>2026-03-28T15:48:34.181Z</time></trkpt><trkpt lat="43.594206" lon="11.2999609"><ele>324.6666666666667</ele><time>2026-03-28T15:48:35.181Z</time></trkpt><trkpt lat="43.5942269" lon="11.2998663"><ele>326.83333333333337</ele><time>2026-03-28T15:48:36.181Z</time></trkpt><trkpt lat="43.5942543" lon="11.2997657"><ele>329.0</ele><time>2026-03-28T15:48:37.182Z</time></trkpt><trkpt lat="43.5942818" lon="11.2996582"><ele>331.0</ele><time>2026-03-28T15:48:38.181Z</time></trkpt><trkpt lat="43.5943082" lon="11.2995481"><ele>333.0</ele><time>2026-03-28T15:48:39.181Z</time></trkpt><trkpt lat="43.5943379" lon="11.299437"><ele>335.0</ele><time>2026-03-28T15:48:40.182Z</time></trkpt><trkpt lat="43.594367" lon="11.2993202"><ele>337.0</ele><time>2026-03-28T15:48:41.18Z</time></trkpt><trkpt lat="43.5943972" lon="11.2991996"><ele>339.0</ele><time>2026-03-28T15:48:42.181Z</time></trkpt><trkpt lat="43.5944247" lon="11.2990806"><ele>341.0</ele><time>2026-03-28T15:48:43.181Z</time></trkpt><trkpt lat="43.5944443" lon="11.2989891"><ele>343.0</ele><time>2026-03-28T15:48:44.181Z</time></trkpt><trkpt lat="43.5944316" lon="11.2988479"><ele>345.0</ele><time>2026-03-28T15:48:46.181Z</time></trkpt><trkpt lat="43.5943505" lon="11.2987885"><ele>347.0</ele><time>2026-03-28T15:48:48.182Z</time></trkpt><trkpt lat="43.5942137" lon="11.2987643"><ele>349.0</ele><time>2026-03-28T15:48:50.182Z</time></trkpt><trkpt lat="43.5941495" lon="11.2987327"><ele>351.0</ele><time>2026-03-28T15:48:51.182Z</time></trkpt><trkpt lat="43.5940994" lon="11.2986772"><ele>351.0</ele><time>2026-03-28T15:48:52.18Z</time></trkpt><trkpt lat="43.5940612" lon="11.2985938"><ele>351.0</ele><time>2026-03-28T15:48:53.181Z</time></trkpt><trkpt lat="43.5940149" lon="11.2985143"><ele>351.0</ele><time>2026-03-28T15:48:54.182Z</time></trkpt><trkpt lat="43.5939692" lon="11.2984233"><ele>351.0</ele><time>2026-03-28T15:48:56.181Z</time></trkpt><trkpt lat="43.5940315" lon="11.2983137"><ele>351.0</ele><time>2026-03-28T15:49:00.181Z</time></trkpt><trkpt lat="43.5941444" lon="11.29822"><ele>351.0</ele><time>2026-03-28T15:49:02.181Z</time></trkpt><trkpt lat="43.5942065" lon="11.2981572"><ele>351.0</ele><time>2026-03-28T15:49:03.181Z</time></trkpt><trkpt lat="43.59428" lon="11.2980942"><ele>351.0</ele><time>2026-03-28T15:49:04.182Z</time></trkpt><trkpt lat="43.5943583" lon="11.2980248"><ele>351.0</ele><time>2026-03-28T15:49:05.182Z</time></trkpt><trkpt lat="43.5944365" lon="11.2979514"><ele>351.0</ele><time>2026-03-28T15:49:06.182Z</time></trkpt><trkpt lat="43.5945093" lon="11.297886"><ele>351.0</ele><time>2026-03-28T15:49:07.182Z</time></trkpt><trkpt lat="43.5945805" lon="11.2978173"><ele>353.1666666666667</ele><time>2026-03-28T15:49:08.181Z</time></trkpt><trkpt lat="43.5946532" lon="11.297749"><ele>355.3333333333333</ele><time>2026-03-28T15:49:09.181Z</time></trkpt><trkpt lat="43.5947224" lon="11.2976806"><ele>357.5</ele><time>2026-03-28T15:49:10.182Z</time></trkpt><trkpt lat="43.5947944" lon="11.2976107"><ele>359.66666666666663</ele><time>2026-03-28T15:49:11.181Z</time></trkpt><trkpt lat="43.5948708" lon="11.2975368"><ele>361.8333333333333</ele><time>2026-03-28T15:49:12.182Z</time></trkpt><trkpt lat="43.5949463" lon="11.2974611"><ele>364.0</ele><time>2026-03-28T15:49:13.182Z</time></trkpt><trkpt lat="43.5950184" lon="11.297393"><ele>364.0</ele><time>2026-03-28T15:49:14.181Z</time></trkpt><trkpt lat="43.5950778" lon="11.2973311"><ele>364.0</ele><time>2026-03-28T15:49:15.181Z</time></trkpt><trkpt lat="43.5951793" lon="11.2972329"><ele>364.0</ele><time>2026-03-28T15:49:17.182Z</time></trkpt><trkpt lat="43.5952387" lon="11.2971005"><ele>364.0</ele><time>2026-03-28T15:49:19.181Z</time></trkpt><trkpt lat="43.5952239" lon="11.2970085"><ele>364.0</ele><time>2026-03-28T15:49:20.181Z</time></trkpt><trkpt lat="43.5952172" lon="11.2968982"><ele>365.66666666666663</ele><time>2026-03-28T15:49:21.181Z</time></trkpt><trkpt lat="43.5951984" lon="11.2967819"><ele>367.3333333333333</ele><time>2026-03-28T15:49:22.181Z</time></trkpt><trkpt lat="43.5951952" lon="11.2966696"><ele>369.0</ele><time>2026-03-28T15:49:23.181Z</time></trkpt><trkpt lat="43.5951965" lon="11.2965491"><ele>370.6666666666667</ele><time>2026-03-28T15:49:24.181Z</time></trkpt><trkpt lat="43.5951915" lon="11.2964238"><ele>372.33333333333337</ele><time>2026-03-28T15:49:25.182Z</time></trkpt><trkpt lat="43.5951893" lon="11.296293"><ele>374.0</ele><time>2026-03-28T15:49:26.181Z</time></trkpt><trkpt lat="43.5951858" lon="11.2961694"><ele>375.83333333333337</ele><time>2026-03-28T15:49:27.181Z</time></trkpt><trkpt lat="43.5951627" lon="11.2960381"><ele>377.6666666666667</ele><time>2026-03-28T15:49:28.182Z</time></trkpt><trkpt lat="43.5951491" lon="11.295918"><ele>379.5</ele><time>2026-03-28T15:49:29.181Z</time></trkpt><trkpt lat="43.5951378" lon="11.2958321"><ele>381.33333333333337</ele><time>2026-03-28T15:49:30.182Z</time></trkpt><trkpt lat="43.5951278" lon="11.2957078"><ele>383.1666666666667</ele><time>2026-03-28T15:49:31.181Z</time></trkpt><trkpt lat="43.595109" lon="11.2956222"><ele>385.0</ele><time>2026-03-28T15:49:32.181Z</time></trkpt><trkpt lat="43.5951014" lon="11.2954802"><ele>386.6</ele><time>2026-03-28T15:49:33.181Z</time></trkpt><trkpt lat="43.5950748" lon="11.2953235"><ele>388.2</ele><time>2026-03-28T15:49:34.18Z</time></trkpt><trkpt lat="43.5950782" lon="11.2952135"><ele>389.79999999999995</ele><time>2026-03-28T15:49:35.181Z</time></trkpt><trkpt lat="43.595089" lon="11.2951008"><ele>391.4</ele><time>2026-03-28T15:49:36.182Z</time></trkpt><trkpt lat="43.5951121" lon="11.2949887"><ele>393.0</ele><time>2026-03-28T15:49:37.181Z</time></trkpt><trkpt lat="43.5951362" lon="11.2948592"><ele>392.8333333333333</ele><time>2026-03-28T15:49:38.181Z</time></trkpt><trkpt lat="43.5951637" lon="11.294728"><ele>392.66666666666663</ele><time>2026-03-28T15:49:39.181Z</time></trkpt><trkpt lat="43.5951857" lon="11.2946178"><ele>392.5</ele><time>2026-03-28T15:49:40.181Z</time></trkpt><trkpt lat="43.5952221" lon="11.2945159"><ele>392.3333333333333</ele><time>2026-03-28T15:49:41.182Z</time></trkpt><trkpt lat="43.595259" lon="11.2944167"><ele>392.16666666666663</ele><time>2026-03-28T15:49:42.182Z</time></trkpt><trkpt lat="43.5953153" lon="11.2943254"><ele>392.0</ele><time>2026-03-28T15:49:43.181Z</time></trkpt><trkpt lat="43.5953768" lon="11.2942501"><ele>394.49999999999994</ele><time>2026-03-28T15:49:44.181Z</time></trkpt><trkpt lat="43.5954301" lon="11.2941765"><ele>397.0</ele><time>2026-03-28T15:49:45.181Z</time></trkpt><trkpt lat="43.5954947" lon="11.2941459"><ele>399.5</ele><time>2026-03-28T15:49:46.182Z</time></trkpt><trkpt lat="43.5955865" lon="11.294017"><ele>402.0</ele><time>2026-03-28T15:49:48.181Z</time></trkpt><trkpt lat="43.5956225" lon="11.293928"><ele>404.49999999999994</ele><time>2026-03-28T15:49:49.181Z</time></trkpt><trkpt lat="43.5956643" lon="11.2938058"><ele>407.0</ele><time>2026-03-28T15:49:50.181Z</time></trkpt><trkpt lat="43.5956959" lon="11.2936804"><ele>408.0</ele><time>2026-03-28T15:49:51.182Z</time></trkpt><trkpt lat="43.5957237" lon="11.29356"><ele>409.0</ele><time>2026-03-28T15:49:52.181Z</time></trkpt><trkpt lat="43.5957466" lon="11.2934383"><ele>410.0</ele><time>2026-03-28T15:49:53.181Z</time></trkpt><trkpt lat="43.5957915" lon="11.2933335"><ele>411.0</ele><time>2026-03-28T15:49:54.181Z</time></trkpt><trkpt lat="43.5958433" lon="11.2932219"><ele>412.0</ele><time>2026-03-28T15:49:55.182Z</time></trkpt><trkpt lat="43.5958822" lon="11.2931123"><ele>412.2857142857143</ele><time>2026-03-28T15:49:56.182Z</time></trkpt><trkpt lat="43.5959238" lon="11.2930156"><ele>412.57142857142856</ele><time>2026-03-28T15:49:57.182Z</time></trkpt><trkpt lat="43.5959585" lon="11.2929266"><ele>412.8571428571429</ele><time>2026-03-28T15:49:58.181Z</time></trkpt><trkpt lat="43.5959947" lon="11.2928355"><ele>413.1428571428571</ele><time>2026-03-28T15:49:59.181Z</time></trkpt><trkpt lat="43.5960299" lon="11.2927491"><ele>413.42857142857144</ele><time>2026-03-28T15:50:00.181Z</time></trkpt><trkpt lat="43.5960719" lon="11.2926756"><ele>413.7142857142857</ele><time>2026-03-28T15:50:01.182Z</time></trkpt><trkpt lat="43.5961122" lon="11.2926002"><ele>414.0</ele><time>2026-03-28T15:50:02.181Z</time></trkpt><trkpt lat="43.5961566" lon="11.2924782"><ele>414.6</ele><time>2026-03-28T15:50:04.182Z</time></trkpt><trkpt lat="43.5961809" lon="11.2923547"><ele>415.2</ele><time>2026-03-28T15:50:06.181Z</time></trkpt><trkpt lat="43.5962266" lon="11.2922156"><ele>415.8</ele><time>2026-03-28T15:50:08.181Z</time></trkpt><trkpt lat="43.5962698" lon="11.2921046"><ele>416.40000000000003</ele><time>2026-03-28T15:50:10.182Z</time></trkpt><trkpt lat="43.5963075" lon="11.2919828"><ele>417.0</ele><time>2026-03-28T15:50:12.181Z</time></trkpt><trkpt lat="43.5963412" lon="11.2918622"><ele>418.3333333333333</ele><time>2026-03-28T15:50:14.181Z</time></trkpt><trkpt lat="43.5963712" lon="11.2917474"><ele>419.66666666666663</ele><time>2026-03-28T15:50:16.181Z</time></trkpt><trkpt lat="43.5963767" lon="11.2916502"><ele>421.0</ele><time>2026-03-28T15:50:18.181Z</time></trkpt><trkpt lat="43.596401" lon="11.2915528"><ele>422.3333333333333</ele><time>2026-03-28T15:50:20.182Z</time></trkpt><trkpt lat="43.596415" lon="11.2914485"><ele>423.66666666666663</ele><time>2026-03-28T15:50:22.181Z</time></trkpt><trkpt lat="43.5964164" lon="11.291343"><ele>425.0</ele><time>2026-03-28T15:50:24.182Z</time></trkpt><trkpt lat="43.5963868" lon="11.2912433"><ele>425.4</ele><time>2026-03-28T15:50:26.182Z</time></trkpt><trkpt lat="43.5963598" lon="11.2911024"><ele>425.8</ele><time>2026-03-28T15:50:28.181Z</time></trkpt><trkpt lat="43.5963272" lon="11.2909592"><ele>426.20000000000005</ele><time>2026-03-28T15:50:30.181Z</time></trkpt><trkpt lat="43.5963011" lon="11.2908213"><ele>426.6</ele><time>2026-03-28T15:50:32.181Z</time></trkpt><trkpt lat="43.5962689" lon="11.2906891"><ele>427.0</ele><time>2026-03-28T15:50:34.181Z</time></trkpt><trkpt lat="43.5962355" lon="11.2905313"><ele>427.00000000000006</ele><time>2026-03-28T15:50:36.181Z</time></trkpt><trkpt lat="43.596195" lon="11.2903634"><ele>427.0</ele><time>2026-03-28T15:50:38.181Z</time></trkpt><trkpt lat="43.5961641" lon="11.2902847"><ele>427.0</ele><time>2026-03-28T15:50:39.181Z</time></trkpt><trkpt lat="43.5961284" lon="11.2902078"><ele>427.0</ele><time>2026-03-28T15:50:40.181Z</time></trkpt><trkpt lat="43.5960929" lon="11.2901253"><ele>427.00000000000006</ele><time>2026-03-28T15:50:41.181Z</time></trkpt><trkpt lat="43.5960689" lon="11.2899927"><ele>427.0</ele><time>2026-03-28T15:50:43.18Z</time></trkpt><trkpt lat="43.5960634" lon="11.2898158"><ele>428.33333333333337</ele><time>2026-03-28T15:50:45.181Z</time></trkpt><trkpt lat="43.5960557" lon="11.2897119"><ele>429.6666666666667</ele><time>2026-03-28T15:50:46.181Z</time></trkpt><trkpt lat="43.5960368" lon="11.2896044"><ele>431.0</ele><time>2026-03-28T15:50:47.181Z</time></trkpt><trkpt lat="43.5960133" lon="11.289504"><ele>432.33333333333337</ele><time>2026-03-28T15:50:48.181Z</time></trkpt><trkpt lat="43.5959868" lon="11.2894067"><ele>433.6666666666667</ele><time>2026-03-28T15:50:49.181Z</time></trkpt><trkpt lat="43.5959598" lon="11.2893133"><ele>435.0</ele><time>2026-03-28T15:50:50.181Z</time></trkpt><trkpt lat="43.5959414" lon="11.2892205"><ele>435.0</ele><time>2026-03-28T15:50:51.181Z</time></trkpt><trkpt lat="43.5959068" lon="11.2890397"><ele>435.0</ele><time>2026-03-28T15:50:53.181Z</time></trkpt><trkpt lat="43.5958513" lon="11.288883"><ele>435.0</ele><time>2026-03-28T15:50:55.181Z</time></trkpt><trkpt lat="43.5957641" lon="11.2887579"><ele>435.0</ele><time>2026-03-28T15:50:57.181Z</time></trkpt><trkpt lat="43.5956988" lon="11.2886381"><ele>436.2</ele><time>2026-03-28T15:50:59.181Z</time></trkpt><trkpt lat="43.5956737" lon="11.2884873"><ele>437.4</ele><time>2026-03-28T15:51:01.181Z</time></trkpt><trkpt lat="43.5956729" lon="11.2883232"><ele>438.6</ele><time>2026-03-28T15:51:03.181Z</time></trkpt><trkpt lat="43.5956544" lon="11.2881645"><ele>439.8</ele><time>2026-03-28T15:51:05.18Z</time></trkpt><trkpt lat="43.5956344" lon="11.2880687"><ele>441.0</ele><time>2026-03-28T15:51:06.181Z</time></trkpt><trkpt lat="43.595619" lon="11.28797"><ele>441.6</ele><time>2026-03-28T15:51:07.181Z</time></trkpt><trkpt lat="43.5956007" lon="11.2878798"><ele>442.20000000000005</ele><time>2026-03-28T15:51:08.181Z</time></trkpt><trkpt lat="43.5956045" lon="11.2877877"><ele>442.79999999999995</ele><time>2026-03-28T15:51:09.181Z</time></trkpt><trkpt lat="43.5956489" lon="11.2876382"><ele>443.4</ele><time>2026-03-28T15:51:11.181Z</time></trkpt><trkpt lat="43.5956992" lon="11.2874987"><ele>444.0</ele><time>2026-03-28T15:51:13.181Z</time></trkpt><trkpt lat="43.5957613" lon="11.2873606"><ele>445.4</ele><time>2026-03-28T15:51:15.182Z</time></trkpt><trkpt lat="43.5958224" lon="11.2872281"><ele>446.79999999999995</ele><time>2026-03-28T15:51:17.181Z</time></trkpt><trkpt lat="43.5958573" lon="11.2870943"><ele>448.20000000000005</ele><time>2026-03-28T15:51:19.181Z</time></trkpt><trkpt lat="43.5958347" lon="11.2869712"><ele>449.6</ele><time>2026-03-28T15:51:21.182Z</time></trkpt><trkpt lat="43.5957545" lon="11.28687"><ele>451.0</ele><time>2026-03-28T15:51:23.182Z</time></trkpt><trkpt lat="43.5956766" lon="11.2867478"><ele>451.0</ele><time>2026-03-28T15:51:25.181Z</time></trkpt><trkpt lat="43.5956531" lon="11.2866558"><ele>451.0</ele><time>2026-03-28T15:51:26.181Z</time></trkpt><trkpt lat="43.5956359" lon="11.2865677"><ele>451.0</ele><time>2026-03-28T15:51:27.181Z</time></trkpt><trkpt lat="43.5956231" lon="11.2864715"><ele>451.0</ele><time>2026-03-28T15:51:28.18Z</time></trkpt><trkpt lat="43.5956145" lon="11.2863795"><ele>451.0</ele><time>2026-03-28T15:51:29.18Z</time></trkpt><trkpt lat="43.5956115" lon="11.2862795"><ele>451.0</ele><time>2026-03-28T15:51:30.182Z</time></trkpt><trkpt lat="43.5955953" lon="11.2861821"><ele>451.0</ele><time>2026-03-28T15:51:31.181Z</time></trkpt><trkpt lat="43.5956166" lon="11.2860171"><ele>451.20000000000005</ele><time>2026-03-28T15:51:33.182Z</time></trkpt><trkpt lat="43.5956228" lon="11.2859282"><ele>451.40000000000003</ele><time>2026-03-28T15:51:34.182Z</time></trkpt><trkpt lat="43.5956399" lon="11.2858014"><ele>451.6</ele><time>2026-03-28T15:51:36.181Z</time></trkpt><trkpt lat="43.5956419" lon="11.2857056"><ele>451.8</ele><time>2026-03-28T15:51:37.18Z</time></trkpt><trkpt lat="43.5956492" lon="11.2855315"><ele>452.0</ele><time>2026-03-28T15:51:39.182Z</time></trkpt><trkpt lat="43.5956539" lon="11.2853677"><ele>450.6</ele><time>2026-03-28T15:51:41.181Z</time></trkpt><trkpt lat="43.5956766" lon="11.285222"><ele>449.20000000000005</ele><time>2026-03-28T15:51:43.181Z</time></trkpt><trkpt lat="43.5957328" lon="11.2851013"><ele>447.8</ele><time>2026-03-28T15:51:45.182Z</time></trkpt><trkpt lat="43.5957689" lon="11.2849756"><ele>446.4</ele><time>2026-03-28T15:51:47.181Z</time></trkpt><trkpt lat="43.5957451" lon="11.2848428"><ele>445.0</ele><time>2026-03-28T15:51:49.182Z</time></trkpt><trkpt lat="43.5957067" lon="11.2846845"><ele>444.33333333333337</ele><time>2026-03-28T15:51:51.181Z</time></trkpt><trkpt lat="43.5956908" lon="11.2845833"><ele>443.6666666666667</ele><time>2026-03-28T15:51:52.182Z</time></trkpt><trkpt lat="43.5956747" lon="11.2844744"><ele>443.0</ele><time>2026-03-28T15:51:53.181Z</time></trkpt><trkpt lat="43.5956582" lon="11.2843617"><ele>442.33333333333337</ele><time>2026-03-28T15:51:54.181Z</time></trkpt><trkpt lat="43.5956399" lon="11.2842376"><ele>441.6666666666667</ele><time>2026-03-28T15:51:55.182Z</time></trkpt><trkpt lat="43.5956226" lon="11.2841092"><ele>441.0</ele><time>2026-03-28T15:51:56.181Z</time></trkpt><trkpt lat="43.5956067" lon="11.2839783"><ele>440.8333333333333</ele><time>2026-03-28T15:51:57.182Z</time></trkpt><trkpt lat="43.5955997" lon="11.2838675"><ele>440.66666666666663</ele><time>2026-03-28T15:51:58.181Z</time></trkpt><trkpt lat="43.5955975" lon="11.283772"><ele>440.5</ele><time>2026-03-28T15:51:59.182Z</time></trkpt><trkpt lat="43.595628" lon="11.283617"><ele>440.3333333333333</ele><time>2026-03-28T15:52:01.181Z</time></trkpt><trkpt lat="43.5956728" lon="11.283527"><ele>440.16666666666663</ele><time>2026-03-28T15:52:03.182Z</time></trkpt><trkpt lat="43.5956686" lon="11.283424"><ele>440.0</ele><time>2026-03-28T15:52:18.18Z</time></trkpt><trkpt lat="43.5956173" lon="11.2833566"><ele>440.0</ele><time>2026-03-28T15:52:20.182Z</time></trkpt><trkpt lat="43.5955702" lon="11.2832902"><ele>440.0</ele><time>2026-03-28T15:52:22.181Z</time></trkpt><trkpt lat="43.5955237" lon="11.2831912"><ele>440.0</ele><time>2026-03-28T15:52:24.182Z</time></trkpt><trkpt lat="43.5954775" lon="11.2830549"><ele>440.0</ele><time>2026-03-28T15:52:26.181Z</time></trkpt><trkpt lat="43.595392" lon="11.282957"><ele>440.0</ele><time>2026-03-28T15:52:28.181Z</time></trkpt><trkpt lat="43.5952897" lon="11.2828517"><ele>441.49999999999994</ele><time>2026-03-28T15:52:30.182Z</time></trkpt><trkpt lat="43.5952409" lon="11.28279"><ele>443.0</ele><time>2026-03-28T15:52:31.181Z</time></trkpt><trkpt lat="43.5951929" lon="11.2827335"><ele>444.5</ele><time>2026-03-28T15:52:32.182Z</time></trkpt><trkpt lat="43.5951442" lon="11.2826765"><ele>446.0</ele><time>2026-03-28T15:52:33.182Z</time></trkpt><trkpt lat="43.5950974" lon="11.2826124"><ele>447.49999999999994</ele><time>2026-03-28T15:52:34.181Z</time></trkpt><trkpt lat="43.5950175" lon="11.2825084"><ele>449.0</ele><time>2026-03-28T15:52:36.182Z</time></trkpt><trkpt lat="43.5949487" lon="11.2824244"><ele>448.99999999999994</ele><time>2026-03-28T15:52:38.181Z</time></trkpt><trkpt lat="43.594872" lon="11.2823382"><ele>449.0</ele><time>2026-03-28T15:52:40.181Z</time></trkpt><trkpt lat="43.5948035" lon="11.2822719"><ele>449.0</ele><time>2026-03-28T15:52:42.182Z</time></trkpt><trkpt lat="43.5947357" lon="11.2821891"><ele>449.0</ele><time>2026-03-28T15:52:44.181Z</time></trkpt><trkpt lat="43.5946953" lon="11.2820976"><ele>448.99999999999994</ele><time>2026-03-28T15:52:46.182Z</time></trkpt><trkpt lat="43.5946488" lon="11.2820259"><ele>449.0</ele><time>2026-03-28T15:52:48.181Z</time></trkpt><trkpt lat="43.5946101" lon="11.2819348"><ele>448.6</ele><time>2026-03-28T15:52:50.182Z</time></trkpt><trkpt lat="43.5945687" lon="11.2818452"><ele>448.2</ele><time>2026-03-28T15:52:52.182Z</time></trkpt><trkpt lat="43.5945012" lon="11.2817123"><ele>447.80000000000007</ele><time>2026-03-28T15:52:54.181Z</time></trkpt><trkpt lat="43.5944669" lon="11.2816165"><ele>447.40000000000003</ele><time>2026-03-28T15:52:55.182Z</time></trkpt><trkpt lat="43.594417" lon="11.2814666"><ele>447.0</ele><time>2026-03-28T15:52:57.181Z</time></trkpt><trkpt lat="43.5943898" lon="11.2813833"><ele>447.85714285714283</ele><time>2026-03-28T15:52:58.181Z</time></trkpt><trkpt lat="43.5943568" lon="11.2812982"><ele>448.71428571428567</ele><time>2026-03-28T15:52:59.182Z</time></trkpt><trkpt lat="43.5943303" lon="11.2812124"><ele>449.57142857142856</ele><time>2026-03-28T15:53:00.181Z</time></trkpt><trkpt lat="43.5943115" lon="11.2811221"><ele>450.4285714285714</ele><time>2026-03-28T15:53:01.181Z</time></trkpt><trkpt lat="43.5942899" lon="11.2810272"><ele>451.2857142857143</ele><time>2026-03-28T15:53:02.181Z</time></trkpt><trkpt lat="43.5942697" lon="11.2809385"><ele>452.14285714285705</ele><time>2026-03-28T15:53:03.181Z</time></trkpt><trkpt lat="43.5942452" lon="11.2808384"><ele>452.99999999999994</ele><time>2026-03-28T15:53:04.181Z</time></trkpt><trkpt lat="43.5942177" lon="11.2807368"><ele>453.0</ele><time>2026-03-28T15:53:05.182Z</time></trkpt><trkpt lat="43.5941987" lon="11.28063"><ele>453.0</ele><time>2026-03-28T15:53:06.181Z</time></trkpt><trkpt lat="43.594173" lon="11.2805292"><ele>453.0</ele><time>2026-03-28T15:53:07.182Z</time></trkpt><trkpt lat="43.5941429" lon="11.280437"><ele>453.0</ele><time>2026-03-28T15:53:08.181Z</time></trkpt><trkpt lat="43.5940618" lon="11.2803"><ele>453.0</ele><time>2026-03-28T15:53:10.182Z</time></trkpt><trkpt lat="43.5940105" lon="11.280247"><ele>453.0</ele><time>2026-03-28T15:53:11.181Z</time></trkpt><trkpt lat="43.5939578" lon="11.2801889"><ele>453.59999999999997</ele><time>2026-03-28T15:53:12.181Z</time></trkpt><trkpt lat="43.5938562" lon="11.2801106"><ele>454.19999999999993</ele><time>2026-03-28T15:53:14.181Z</time></trkpt><trkpt lat="43.5937629" lon="11.2800369"><ele>454.8</ele><time>2026-03-28T15:53:16.181Z</time></trkpt><trkpt lat="43.593708" lon="11.2799237"><ele>455.4</ele><time>2026-03-28T15:53:18.18Z</time></trkpt><trkpt lat="43.5936354" lon="11.2797933"><ele>456.0</ele><time>2026-03-28T15:53:20.182Z</time></trkpt><trkpt lat="43.5935546" lon="11.279689"><ele>458.8</ele><time>2026-03-28T15:53:22.182Z</time></trkpt><trkpt lat="43.5934873" lon="11.2795675"><ele>461.6</ele><time>2026-03-28T15:53:24.182Z</time></trkpt><trkpt lat="43.5934301" lon="11.2794497"><ele>464.4</ele><time>2026-03-28T15:53:26.181Z</time></trkpt><trkpt lat="43.5933866" lon="11.279312"><ele>467.2</ele><time>2026-03-28T15:53:28.181Z</time></trkpt><trkpt lat="43.5933355" lon="11.2791909"><ele>470.0</ele><time>2026-03-28T15:53:30.181Z</time></trkpt><trkpt lat="43.5932911" lon="11.2790717"><ele>470.0</ele><time>2026-03-28T15:53:32.181Z</time></trkpt><trkpt lat="43.5932756" lon="11.2789488"><ele>470.0</ele><time>2026-03-28T15:53:34.182Z</time></trkpt><trkpt lat="43.5932513" lon="11.2788107"><ele>470.0</ele><time>2026-03-28T15:53:36.181Z</time></trkpt><trkpt lat="43.5932152" lon="11.2786881"><ele>470.0</ele><time>2026-03-28T15:53:38.182Z</time></trkpt><trkpt lat="43.5932246" lon="11.2785249"><ele>470.0</ele><time>2026-03-28T15:53:40.181Z</time></trkpt><trkpt lat="43.5932622" lon="11.2783671"><ele>470.8</ele><time>2026-03-28T15:53:42.182Z</time></trkpt><trkpt lat="43.5932982" lon="11.2782031"><ele>471.6</ele><time>2026-03-28T15:53:44.181Z</time></trkpt><trkpt lat="43.5933049" lon="11.2781152"><ele>472.4</ele><time>2026-03-28T15:53:45.181Z</time></trkpt><trkpt lat="43.5933278" lon="11.2779571"><ele>473.2</ele><time>2026-03-28T15:53:47.181Z</time></trkpt><trkpt lat="43.5933381" lon="11.2778112"><ele>474.0</ele><time>2026-03-28T15:53:49.181Z</time></trkpt><trkpt lat="43.5933324" lon="11.2776498"><ele>474.4</ele><time>2026-03-28T15:53:51.181Z</time></trkpt><trkpt lat="43.5933011" lon="11.2774929"><ele>474.79999999999995</ele><time>2026-03-28T15:53:53.181Z</time></trkpt><trkpt lat="43.593269" lon="11.277334"><ele>475.20000000000005</ele><time>2026-03-28T15:53:55.182Z</time></trkpt><trkpt lat="43.5932427" lon="11.2771794"><ele>475.6</ele><time>2026-03-28T15:53:57.181Z</time></trkpt><trkpt lat="43.5932128" lon="11.2770693"><ele>476.0</ele><time>2026-03-28T15:53:59.181Z</time></trkpt><trkpt lat="43.5932092" lon="11.2769618"><ele>475.3333333333333</ele><time>2026-03-28T15:54:01.182Z</time></trkpt><trkpt lat="43.5932167" lon="11.2768699"><ele>474.66666666666663</ele><time>2026-03-28T15:54:02.181Z</time></trkpt><trkpt lat="43.5932185" lon="11.2767816"><ele>474.0</ele><time>2026-03-28T15:54:03.181Z</time></trkpt><trkpt lat="43.5932066" lon="11.2766767"><ele>473.33333333333337</ele><time>2026-03-28T15:54:04.181Z</time></trkpt><trkpt lat="43.5931946" lon="11.2765698"><ele>472.6666666666667</ele><time>2026-03-28T15:54:05.182Z</time></trkpt><trkpt lat="43.5931841" lon="11.2764117"><ele>472.0</ele><time>2026-03-28T15:54:07.181Z</time></trkpt><trkpt lat="43.5931704" lon="11.2762773"><ele>470.8</ele><time>2026-03-28T15:54:09.182Z</time></trkpt><trkpt lat="43.5931392" lon="11.2761181"><ele>469.6</ele><time>2026-03-28T15:54:11.181Z</time></trkpt><trkpt lat="43.5931108" lon="11.275985"><ele>468.40000000000003</ele><time>2026-03-28T15:54:13.181Z</time></trkpt><trkpt lat="43.5931106" lon="11.2758514"><ele>467.20000000000005</ele><time>2026-03-28T15:54:15.181Z</time></trkpt><trkpt lat="43.5931266" lon="11.2757367"><ele>466.0</ele><time>2026-03-28T15:54:17.181Z</time></trkpt><trkpt lat="43.5931111" lon="11.2756437"><ele>464.50000000000006</ele><time>2026-03-28T15:54:19.182Z</time></trkpt><trkpt lat="43.5930712" lon="11.2755534"><ele>463.0</ele><time>2026-03-28T15:54:21.182Z</time></trkpt><trkpt lat="43.5930226" lon="11.2754646"><ele>461.5</ele><time>2026-03-28T15:54:23.182Z</time></trkpt><trkpt lat="43.5929825" lon="11.2753896"><ele>460.0</ele><time>2026-03-28T15:54:25.182Z</time></trkpt><trkpt lat="43.5929553" lon="11.2752999"><ele>458.50000000000006</ele><time>2026-03-28T15:54:27.181Z</time></trkpt><trkpt lat="43.5929203" lon="11.2752115"><ele>457.0</ele><time>2026-03-28T15:54:29.182Z</time></trkpt><trkpt lat="43.5928884" lon="11.2750881"><ele>457.0</ele><time>2026-03-28T15:54:31.181Z</time></trkpt><trkpt lat="43.5928499" lon="11.2749506"><ele>457.00000000000006</ele><time>2026-03-28T15:54:33.181Z</time></trkpt><trkpt lat="43.5928175" lon="11.2748093"><ele>457.00000000000006</ele><time>2026-03-28T15:54:35.182Z</time></trkpt><trkpt lat="43.5927929" lon="11.2746657"><ele>457.0</ele><time>2026-03-28T15:54:37.182Z</time></trkpt><trkpt lat="43.5927658" lon="11.2745428"><ele>457.0</ele><time>2026-03-28T15:54:39.181Z</time></trkpt><trkpt lat="43.5927337" lon="11.2744195"><ele>456.83333333333337</ele><time>2026-03-28T15:54:41.181Z</time></trkpt><trkpt lat="43.5927371" lon="11.2742866"><ele>456.6666666666667</ele><time>2026-03-28T15:54:43.18Z</time></trkpt><trkpt lat="43.5927755" lon="11.2741968"><ele>456.5</ele><time>2026-03-28T15:54:45.181Z</time></trkpt><trkpt lat="43.592834" lon="11.2741261"><ele>456.33333333333337</ele><time>2026-03-28T15:54:49.182Z</time></trkpt><trkpt lat="43.5928829" lon="11.2740163"><ele>456.1666666666667</ele><time>2026-03-28T15:54:53.181Z</time></trkpt><trkpt lat="43.5928976" lon="11.2738779"><ele>456.0</ele><time>2026-03-28T15:54:55.182Z</time></trkpt><trkpt lat="43.5928934" lon="11.2737825"><ele>456.0</ele><time>2026-03-28T15:54:56.181Z</time></trkpt><trkpt lat="43.5929048" lon="11.2736123"><ele>456.0</ele><time>2026-03-28T15:54:58.181Z</time></trkpt><trkpt lat="43.5929314" lon="11.2734441"><ele>456.0</ele><time>2026-03-28T15:55:00.181Z</time></trkpt><trkpt lat="43.5929911" lon="11.2733082"><ele>456.0</ele><time>2026-03-28T15:55:02.181Z</time></trkpt><trkpt lat="43.5930252" lon="11.2731722"><ele>456.20000000000005</ele><time>2026-03-28T15:55:04.181Z</time></trkpt><trkpt lat="43.5930268" lon="11.2730082"><ele>456.40000000000003</ele><time>2026-03-28T15:55:06.181Z</time></trkpt><trkpt lat="43.5930245" lon="11.2728491"><ele>456.6</ele><time>2026-03-28T15:55:08.182Z</time></trkpt><trkpt lat="43.5929985" lon="11.2727673"><ele>456.8</ele><time>2026-03-28T15:55:09.182Z</time></trkpt><trkpt lat="43.5929577" lon="11.2726388"><ele>457.0</ele><time>2026-03-28T15:55:11.182Z</time></trkpt><trkpt lat="43.5929083" lon="11.2725146"><ele>457.0</ele><time>2026-03-28T15:55:13.181Z</time></trkpt><trkpt lat="43.5928685" lon="11.2723763"><ele>457.00000000000006</ele><time>2026-03-28T15:55:15.181Z</time></trkpt><trkpt lat="43.592853" lon="11.2722242"><ele>457.00000000000006</ele><time>2026-03-28T15:55:17.181Z</time></trkpt><trkpt lat="43.5928641" lon="11.2721061"><ele>457.0</ele><time>2026-03-28T15:55:19.181Z</time></trkpt><trkpt lat="43.5929167" lon="11.2719987"><ele>457.0</ele><time>2026-03-28T15:55:21.181Z</time></trkpt><trkpt lat="43.592963" lon="11.2718831"><ele>458.0</ele><time>2026-03-28T15:55:23.181Z</time></trkpt><trkpt lat="43.5929585" lon="11.2717804"><ele>459.00000000000006</ele><time>2026-03-28T15:55:25.181Z</time></trkpt><trkpt lat="43.5929534" lon="11.2716558"><ele>460.00000000000006</ele><time>2026-03-28T15:55:27.181Z</time></trkpt><trkpt lat="43.5929637" lon="11.2715168"><ele>461.0</ele><time>2026-03-28T15:55:29.18Z</time></trkpt><trkpt lat="43.5929814" lon="11.2713723"><ele>462.0</ele><time>2026-03-28T15:55:31.181Z</time></trkpt><trkpt lat="43.5929947" lon="11.2712258"><ele>463.1428571428571</ele><time>2026-03-28T15:55:33.181Z</time></trkpt><trkpt lat="43.5930012" lon="11.2711384"><ele>464.2857142857143</ele><time>2026-03-28T15:55:34.181Z</time></trkpt><trkpt lat="43.5930122" lon="11.27105"><ele>465.42857142857144</ele><time>2026-03-28T15:55:35.182Z</time></trkpt><trkpt lat="43.5930195" lon="11.2709543"><ele>466.57142857142856</ele><time>2026-03-28T15:55:36.181Z</time></trkpt><trkpt lat="43.5930269" lon="11.2708595"><ele>467.71428571428567</ele><time>2026-03-28T15:55:37.181Z</time></trkpt><trkpt lat="43.5930374" lon="11.2707538"><ele>468.85714285714283</ele><time>2026-03-28T15:55:38.182Z</time></trkpt><trkpt lat="43.5930575" lon="11.2706438"><ele>470.0</ele><time>2026-03-28T15:55:39.181Z</time></trkpt><trkpt lat="43.5930845" lon="11.2705493"><ele>471.0</ele><time>2026-03-28T15:55:40.181Z</time></trkpt><trkpt lat="43.5931078" lon="11.2704586"><ele>472.0</ele><time>2026-03-28T15:55:41.181Z</time></trkpt><trkpt lat="43.5931438" lon="11.2702992"><ele>473.0</ele><time>2026-03-28T15:55:43.18Z</time></trkpt><trkpt lat="43.5931379" lon="11.2701377"><ele>474.0</ele><time>2026-03-28T15:55:45.181Z</time></trkpt><trkpt lat="43.5931169" lon="11.2700478"><ele>475.0</ele><time>2026-03-28T15:55:46.18Z</time></trkpt><trkpt lat="43.593095" lon="11.2699087"><ele>475.0</ele><time>2026-03-28T15:55:48.181Z</time></trkpt><trkpt lat="43.5931336" lon="11.2697786"><ele>475.0</ele><time>2026-03-28T15:55:50.181Z</time></trkpt><trkpt lat="43.5931664" lon="11.2696422"><ele>475.0</ele><time>2026-03-28T15:55:52.182Z</time></trkpt><trkpt lat="43.5932163" lon="11.2695129"><ele>475.0</ele><time>2026-03-28T15:55:54.182Z</time></trkpt><trkpt lat="43.593245" lon="11.2694316"><ele>475.0</ele><time>2026-03-28T15:55:55.181Z</time></trkpt><trkpt lat="43.5932884" lon="11.2692764"><ele>475.0</ele><time>2026-03-28T15:55:57.181Z</time></trkpt><trkpt lat="43.5933161" lon="11.2691927"><ele>475.0</ele><time>2026-03-28T15:55:58.181Z</time></trkpt><trkpt lat="43.5933579" lon="11.2690427"><ele>475.0</ele><time>2026-03-28T15:56:00.181Z</time></trkpt><trkpt lat="43.5933778" lon="11.2688975"><ele>475.0</ele><time>2026-03-28T15:56:02.181Z</time></trkpt><trkpt lat="43.5933632" lon="11.2687784"><ele>475.0</ele><time>2026-03-28T15:56:04.182Z</time></trkpt><trkpt lat="43.5933769" lon="11.2686453"><ele>475.4</ele><time>2026-03-28T15:56:06.181Z</time></trkpt><trkpt lat="43.5934151" lon="11.2685202"><ele>475.8</ele><time>2026-03-28T15:56:08.181Z</time></trkpt><trkpt lat="43.5934123" lon="11.2683848"><ele>476.20000000000005</ele><time>2026-03-28T15:56:10.181Z</time></trkpt><trkpt lat="43.5933405" lon="11.2682702"><ele>476.6</ele><time>2026-03-28T15:56:12.181Z</time></trkpt><trkpt lat="43.5932625" lon="11.2681377"><ele>477.0</ele><time>2026-03-28T15:56:14.181Z</time></trkpt><trkpt lat="43.5932347" lon="11.2680503"><ele>478.20000000000005</ele><time>2026-03-28T15:56:15.181Z</time></trkpt><trkpt lat="43.5932024" lon="11.267953"><ele>479.40000000000003</ele><time>2026-03-28T15:56:16.182Z</time></trkpt><trkpt lat="43.5931768" lon="11.2678584"><ele>480.59999999999997</ele><time>2026-03-28T15:56:17.181Z</time></trkpt><trkpt lat="43.5931675" lon="11.2677083"><ele>481.79999999999995</ele><time>2026-03-28T15:56:19.181Z</time></trkpt><trkpt lat="43.5931875" lon="11.2675713"><ele>483.0</ele><time>2026-03-28T15:56:21.182Z</time></trkpt><trkpt lat="43.5931981" lon="11.2674456"><ele>483.0</ele><time>2026-03-28T15:56:23.181Z</time></trkpt><trkpt lat="43.5932062" lon="11.2673057"><ele>482.99999999999994</ele><time>2026-03-28T15:56:25.181Z</time></trkpt><trkpt lat="43.5932518" lon="11.2671464"><ele>482.99999999999994</ele><time>2026-03-28T15:56:27.182Z</time></trkpt><trkpt lat="43.5932853" lon="11.267015"><ele>483.0</ele><time>2026-03-28T15:56:29.182Z</time></trkpt><trkpt lat="43.5933171" lon="11.2668787"><ele>483.0</ele><time>2026-03-28T15:56:31.182Z</time></trkpt><trkpt lat="43.5933334" lon="11.2667735"><ele>484.0</ele><time>2026-03-28T15:56:33.182Z</time></trkpt><trkpt lat="43.5933395" lon="11.2666739"><ele>485.0</ele><time>2026-03-28T15:56:35.182Z</time></trkpt><trkpt lat="43.593341" lon="11.2665684"><ele>486.0</ele><time>2026-03-28T15:56:37.181Z</time></trkpt><trkpt lat="43.5933619" lon="11.2664554"><ele>487.0</ele><time>2026-03-28T15:56:39.181Z</time></trkpt><trkpt lat="43.5934065" lon="11.2663077"><ele>488.0</ele><time>2026-03-28T15:56:41.181Z</time></trkpt><trkpt lat="43.5934275" lon="11.2662248"><ele>489.0</ele><time>2026-03-28T15:56:42.181Z</time></trkpt><trkpt lat="43.5934577" lon="11.26608"><ele>490.4</ele><time>2026-03-28T15:56:44.182Z</time></trkpt><trkpt lat="43.5934746" lon="11.2659576"><ele>491.79999999999995</ele><time>2026-03-28T15:56:46.182Z</time></trkpt><trkpt lat="43.5934967" lon="11.2658136"><ele>493.20000000000005</ele><time>2026-03-28T15:56:48.181Z</time></trkpt><trkpt lat="43.5935124" lon="11.2656542"><ele>494.6</ele><time>2026-03-28T15:56:50.182Z</time></trkpt><trkpt lat="43.5935202" lon="11.2654926"><ele>496.0</ele><time>2026-03-28T15:56:52.181Z</time></trkpt><trkpt lat="43.5935522" lon="11.2653556"><ele>496.33333333333337</ele><time>2026-03-28T15:56:54.182Z</time></trkpt><trkpt lat="43.5935758" lon="11.2652645"><ele>496.6666666666667</ele><time>2026-03-28T15:56:56.181Z</time></trkpt><trkpt lat="43.5935538" lon="11.26513"><ele>497.0</ele><time>2026-03-28T15:57:21.18Z</time></trkpt><trkpt lat="43.5935373" lon="11.2649695"><ele>497.33333333333337</ele><time>2026-03-28T15:57:23.181Z</time></trkpt><trkpt lat="43.5935257" lon="11.2648689"><ele>497.6666666666667</ele><time>2026-03-28T15:57:24.182Z</time></trkpt><trkpt lat="43.5935135" lon="11.2647774"><ele>498.0</ele><time>2026-03-28T15:57:25.181Z</time></trkpt><trkpt lat="43.5934992" lon="11.2646749"><ele>498.6666666666667</ele><time>2026-03-28T15:57:26.181Z</time></trkpt><trkpt lat="43.5934867" lon="11.2645643"><ele>499.33333333333337</ele><time>2026-03-28T15:57:27.182Z</time></trkpt><trkpt lat="43.5934699" lon="11.2644569"><ele>500.0</ele><time>2026-03-28T15:57:28.182Z</time></trkpt><trkpt lat="43.5934543" lon="11.2643464"><ele>500.6666666666667</ele><time>2026-03-28T15:57:29.181Z</time></trkpt><trkpt lat="43.593446" lon="11.2642318"><ele>501.33333333333337</ele><time>2026-03-28T15:57:30.181Z</time></trkpt><trkpt lat="43.5934449" lon="11.2641145"><ele>502.0</ele><time>2026-03-28T15:57:31.182Z</time></trkpt><trkpt lat="43.5934468" lon="11.2639895"><ele>503.0</ele><time>2026-03-28T15:57:32.182Z</time></trkpt><trkpt lat="43.5934501" lon="11.2638731"><ele>504.00000000000006</ele><time>2026-03-28T15:57:33.182Z</time></trkpt><trkpt lat="43.5934767" lon="11.2637101"><ele>505.00000000000006</ele><time>2026-03-28T15:57:35.181Z</time></trkpt><trkpt lat="43.5935598" lon="11.2635856"><ele>506.0</ele><time>2026-03-28T15:57:37.181Z</time></trkpt><trkpt lat="43.5936146" lon="11.2635197"><ele>507.0</ele><time>2026-03-28T15:57:38.181Z</time></trkpt><trkpt lat="43.5936764" lon="11.263448"><ele>507.0</ele><time>2026-03-28T15:57:39.182Z</time></trkpt><trkpt lat="43.5937388" lon="11.2633721"><ele>507.0</ele><time>2026-03-28T15:57:40.182Z</time></trkpt><trkpt lat="43.5938045" lon="11.2632928"><ele>507.0</ele><time>2026-03-28T15:57:41.181Z</time></trkpt><trkpt lat="43.5938672" lon="11.2632171"><ele>507.0</ele><time>2026-03-28T15:57:42.181Z</time></trkpt><trkpt lat="43.5939209" lon="11.2631444"><ele>507.0</ele><time>2026-03-28T15:57:43.181Z</time></trkpt><trkpt lat="43.59397" lon="11.2630644"><ele>507.0</ele><time>2026-03-28T15:57:44.182Z</time></trkpt><trkpt lat="43.5940121" lon="11.2629776"><ele>508.5</ele><time>2026-03-28T15:57:45.181Z</time></trkpt><trkpt lat="43.5940506" lon="11.262886"><ele>510.0</ele><time>2026-03-28T15:57:46.182Z</time></trkpt><trkpt lat="43.5940825" lon="11.2627907"><ele>511.5</ele><time>2026-03-28T15:57:47.181Z</time></trkpt><trkpt lat="43.5941135" lon="11.2626851"><ele>513.0</ele><time>2026-03-28T15:57:48.181Z</time></trkpt><trkpt lat="43.5941451" lon="11.262585"><ele>514.5</ele><time>2026-03-28T15:57:49.181Z</time></trkpt><trkpt lat="43.5941794" lon="11.2624899"><ele>516.0</ele><time>2026-03-28T15:57:50.181Z</time></trkpt><trkpt lat="43.5942077" lon="11.2623861"><ele>516.1666666666666</ele><time>2026-03-28T15:57:51.182Z</time></trkpt><trkpt lat="43.5942285" lon="11.2622685"><ele>516.3333333333334</ele><time>2026-03-28T15:57:52.181Z</time></trkpt><trkpt lat="43.5942407" lon="11.2621621"><ele>516.5</ele><time>2026-03-28T15:57:53.182Z</time></trkpt><trkpt lat="43.5942518" lon="11.2620542"><ele>516.6666666666667</ele><time>2026-03-28T15:57:54.182Z</time></trkpt><trkpt lat="43.5942534" lon="11.2619391"><ele>516.8333333333334</ele><time>2026-03-28T15:57:55.181Z</time></trkpt><trkpt lat="43.5942508" lon="11.261837"><ele>517.0</ele><time>2026-03-28T15:57:56.182Z</time></trkpt><trkpt lat="43.5942472" lon="11.2617355"><ele>517.0</ele><time>2026-03-28T15:57:57.181Z</time></trkpt><trkpt lat="43.5942448" lon="11.2616326"><ele>517.0</ele><time>2026-03-28T15:57:58.182Z</time></trkpt><trkpt lat="43.5942453" lon="11.2615368"><ele>517.0</ele><time>2026-03-28T15:57:59.182Z</time></trkpt><trkpt lat="43.5942427" lon="11.2614393"><ele>517.0</ele><time>2026-03-28T15:58:00.181Z</time></trkpt><trkpt lat="43.5942379" lon="11.2613514"><ele>517.0</ele><time>2026-03-28T15:58:01.182Z</time></trkpt><trkpt lat="43.594254" lon="11.2611667"><ele>517.0</ele><time>2026-03-28T15:58:03.181Z</time></trkpt><trkpt lat="43.5942627" lon="11.2610794"><ele>516.3333333333334</ele><time>2026-03-28T15:58:04.181Z</time></trkpt><trkpt lat="43.594266" lon="11.2609754"><ele>515.6666666666667</ele><time>2026-03-28T15:58:05.181Z</time></trkpt><trkpt lat="43.5942733" lon="11.2608736"><ele>515.0</ele><time>2026-03-28T15:58:06.181Z</time></trkpt><trkpt lat="43.5942822" lon="11.2607816"><ele>514.3333333333334</ele><time>2026-03-28T15:58:07.181Z</time></trkpt><trkpt lat="43.5942945" lon="11.2606707"><ele>513.6666666666666</ele><time>2026-03-28T15:58:08.181Z</time></trkpt><trkpt lat="43.5943075" lon="11.2605506"><ele>513.0</ele><time>2026-03-28T15:58:09.181Z</time></trkpt><trkpt lat="43.5943201" lon="11.2604246"><ele>511.8333333333333</ele><time>2026-03-28T15:58:10.181Z</time></trkpt><trkpt lat="43.5943335" lon="11.2603158"><ele>510.66666666666663</ele><time>2026-03-28T15:58:11.182Z</time></trkpt><trkpt lat="43.5943533" lon="11.2602086"><ele>509.5</ele><time>2026-03-28T15:58:12.181Z</time></trkpt><trkpt lat="43.5943746" lon="11.2601006"><ele>508.3333333333333</ele><time>2026-03-28T15:58:13.182Z</time></trkpt><trkpt lat="43.5943937" lon="11.2599879"><ele>507.16666666666663</ele><time>2026-03-28T15:58:14.18Z</time></trkpt><trkpt lat="43.5944109" lon="11.2598781"><ele>506.0</ele><time>2026-03-28T15:58:15.181Z</time></trkpt><trkpt lat="43.5944267" lon="11.259784"><ele>505.20000000000005</ele><time>2026-03-28T15:58:16.181Z</time></trkpt><trkpt lat="43.5944403" lon="11.2596188"><ele>504.40000000000003</ele><time>2026-03-28T15:58:18.182Z</time></trkpt><trkpt lat="43.5944408" lon="11.2595204"><ele>503.6</ele><time>2026-03-28T15:58:20.182Z</time></trkpt><trkpt lat="43.5944229" lon="11.2594321"><ele>502.8</ele><time>2026-03-28T15:59:09.182Z</time></trkpt><trkpt lat="43.5944526" lon="11.2593156"><ele>502.0</ele><time>2026-03-28T15:59:11.182Z</time></trkpt><trkpt lat="43.5945446" lon="11.2591966"><ele>502.0</ele><time>2026-03-28T15:59:13.181Z</time></trkpt><trkpt lat="43.5946045" lon="11.2591253"><ele>502.00000000000006</ele><time>2026-03-28T15:59:14.182Z</time></trkpt><trkpt lat="43.5946704" lon="11.2590441"><ele>502.00000000000006</ele><time>2026-03-28T15:59:15.181Z</time></trkpt><trkpt lat="43.5947399" lon="11.2589538"><ele>502.0</ele><time>2026-03-28T15:59:16.181Z</time></trkpt><trkpt lat="43.5948125" lon="11.258857"><ele>502.0</ele><time>2026-03-28T15:59:17.182Z</time></trkpt><trkpt lat="43.5948944" lon="11.258753"><ele>502.5</ele><time>2026-03-28T15:59:18.181Z</time></trkpt><trkpt lat="43.5949807" lon="11.2586462"><ele>503.0</ele><time>2026-03-28T15:59:19.181Z</time></trkpt><trkpt lat="43.5950674" lon="11.2585359"><ele>503.5</ele><time>2026-03-28T15:59:20.181Z</time></trkpt><trkpt lat="43.5951571" lon="11.2584245"><ele>504.0</ele><time>2026-03-28T15:59:21.182Z</time></trkpt><trkpt lat="43.5952502" lon="11.2583251"><ele>505.25</ele><time>2026-03-28T15:59:22.181Z</time></trkpt><trkpt lat="43.5953503" lon="11.2582482"><ele>506.5</ele><time>2026-03-28T15:59:23.181Z</time></trkpt><trkpt lat="43.5954566" lon="11.258197"><ele>507.75</ele><time>2026-03-28T15:59:24.181Z</time></trkpt><trkpt lat="43.5955697" lon="11.2581619"><ele>509.0</ele><time>2026-03-28T15:59:25.182Z</time></trkpt><trkpt lat="43.595694" lon="11.2581411"><ele>509.0</ele><time>2026-03-28T15:59:26.181Z</time></trkpt><trkpt lat="43.5958175" lon="11.2581269"><ele>509.0</ele><time>2026-03-28T15:59:27.182Z</time></trkpt><trkpt lat="43.5959349" lon="11.2581161"><ele>509.0</ele><time>2026-03-28T15:59:28.181Z</time></trkpt><trkpt lat="43.5960335" lon="11.2581085"><ele>509.0</ele><time>2026-03-28T15:59:29.181Z</time></trkpt><trkpt lat="43.5961144" lon="11.2581011"><ele>509.0</ele><time>2026-03-28T15:59:30.182Z</time></trkpt><trkpt lat="43.5961881" lon="11.2580942"><ele>506.99999999999994</ele><time>2026-03-28T15:59:31.181Z</time></trkpt><trkpt lat="43.5962648" lon="11.2580887"><ele>505.0</ele><time>2026-03-28T15:59:32.181Z</time></trkpt><trkpt lat="43.5963324" lon="11.2580848"><ele>503.0</ele><time>2026-03-28T15:59:33.181Z</time></trkpt><trkpt lat="43.5964055" lon="11.2580078"><ele>501.0</ele><time>2026-03-28T15:59:35.181Z</time></trkpt><trkpt lat="43.5963734" lon="11.2578684"><ele>498.99999999999994</ele><time>2026-03-28T15:59:37.181Z</time></trkpt><trkpt lat="43.5963262" lon="11.2577954"><ele>497.0</ele><time>2026-03-28T15:59:38.181Z</time></trkpt><trkpt lat="43.59627" lon="11.2577065"><ele>497.0</ele><time>2026-03-28T15:59:39.18Z</time></trkpt><trkpt lat="43.5962131" lon="11.2576115"><ele>497.00000000000006</ele><time>2026-03-28T15:59:40.182Z</time></trkpt><trkpt lat="43.5961484" lon="11.257496"><ele>497.00000000000006</ele><time>2026-03-28T15:59:41.182Z</time></trkpt><trkpt lat="43.5960812" lon="11.2573871"><ele>497.0</ele><time>2026-03-28T15:59:42.181Z</time></trkpt><trkpt lat="43.5960118" lon="11.2572782"><ele>497.0</ele><time>2026-03-28T15:59:43.182Z</time></trkpt><trkpt lat="43.5959394" lon="11.2571735"><ele>495.6</ele><time>2026-03-28T15:59:44.18Z</time></trkpt><trkpt lat="43.5958662" lon="11.2570676"><ele>494.20000000000005</ele><time>2026-03-28T15:59:45.181Z</time></trkpt><trkpt lat="43.5958047" lon="11.2569651"><ele>492.8</ele><time>2026-03-28T15:59:46.181Z</time></trkpt><trkpt lat="43.5957477" lon="11.2568586"><ele>491.4</ele><time>2026-03-28T15:59:47.182Z</time></trkpt><trkpt lat="43.5956847" lon="11.2567426"><ele>490.0</ele><time>2026-03-28T15:59:48.181Z</time></trkpt><trkpt lat="43.5956116" lon="11.2566384"><ele>490.0</ele><time>2026-03-28T15:59:49.181Z</time></trkpt><trkpt lat="43.5955507" lon="11.2565359"><ele>490.0</ele><time>2026-03-28T15:59:50.181Z</time></trkpt><trkpt lat="43.5954853" lon="11.2564281"><ele>490.0</ele><time>2026-03-28T15:59:51.181Z</time></trkpt><trkpt lat="43.5954255" lon="11.2563122"><ele>490.0</ele><time>2026-03-28T15:59:52.181Z</time></trkpt><trkpt lat="43.5953632" lon="11.2561997"><ele>490.0</ele><time>2026-03-28T15:59:53.181Z</time></trkpt><trkpt lat="43.5953038" lon="11.2560978"><ele>488.83333333333337</ele><time>2026-03-28T15:59:54.181Z</time></trkpt><trkpt lat="43.5952474" lon="11.2560075"><ele>487.6666666666667</ele><time>2026-03-28T15:59:55.181Z</time></trkpt><trkpt lat="43.5951975" lon="11.2559282"><ele>486.5</ele><time>2026-03-28T15:59:56.181Z</time></trkpt><trkpt lat="43.5951545" lon="11.2558622"><ele>485.33333333333337</ele><time>2026-03-28T15:59:57.181Z</time></trkpt><trkpt lat="43.5950715" lon="11.2558239"><ele>484.1666666666667</ele><time>2026-03-28T15:59:59.181Z</time></trkpt><trkpt lat="43.595015" lon="11.2558893"><ele>483.0</ele><time>2026-03-28T16:00:01.181Z</time></trkpt><trkpt lat="43.5949657" lon="11.2559928"><ele>483.0</ele><time>2026-03-28T16:00:04.181Z</time></trkpt><trkpt lat="43.5949181" lon="11.2560815"><ele>483.0</ele><time>2026-03-28T16:00:06.181Z</time></trkpt><trkpt lat="43.5948636" lon="11.256152"><ele>483.0</ele><time>2026-03-28T16:00:08.181Z</time></trkpt><trkpt lat="43.5947901" lon="11.2561844"><ele>483.0</ele><time>2026-03-28T16:00:10.181Z</time></trkpt><trkpt lat="43.5947095" lon="11.2561776"><ele>483.0</ele><time>2026-03-28T16:00:12.181Z</time></trkpt><trkpt lat="43.594634" lon="11.2561749"><ele>483.0</ele><time>2026-03-28T16:00:14.182Z</time></trkpt><trkpt lat="43.5945464" lon="11.2561572"><ele>482.0</ele><time>2026-03-28T16:00:16.182Z</time></trkpt><trkpt lat="43.5944688" lon="11.2561143"><ele>481.0</ele><time>2026-03-28T16:00:18.181Z</time></trkpt><trkpt lat="43.5943974" lon="11.2560648"><ele>480.0</ele><time>2026-03-28T16:00:20.181Z</time></trkpt><trkpt lat="43.5943167" lon="11.256031"><ele>479.0</ele><time>2026-03-28T16:00:22.181Z</time></trkpt><trkpt lat="43.5942268" lon="11.2560269"><ele>478.0</ele><time>2026-03-28T16:00:24.181Z</time></trkpt><trkpt lat="43.5941386" lon="11.256032"><ele>477.0</ele><time>2026-03-28T16:00:26.181Z</time></trkpt><trkpt lat="43.5940529" lon="11.2560408"><ele>477.0</ele><time>2026-03-28T16:00:28.182Z</time></trkpt><trkpt lat="43.5939658" lon="11.2560463"><ele>477.00000000000006</ele><time>2026-03-28T16:00:30.18Z</time></trkpt><trkpt lat="43.5938727" lon="11.2560534"><ele>477.00000000000006</ele><time>2026-03-28T16:00:32.18Z</time></trkpt><trkpt lat="43.5937762" lon="11.2560698"><ele>477.0</ele><time>2026-03-28T16:00:34.181Z</time></trkpt><trkpt lat="43.5936926" lon="11.2560449"><ele>477.0</ele><time>2026-03-28T16:00:36.182Z</time></trkpt><trkpt lat="43.5936069" lon="11.2560045"><ele>475.40000000000003</ele><time>2026-03-28T16:00:38.181Z</time></trkpt><trkpt lat="43.5935058" lon="11.255963"><ele>473.80000000000007</ele><time>2026-03-28T16:00:40.181Z</time></trkpt><trkpt lat="43.5934104" lon="11.2559145"><ele>472.2</ele><time>2026-03-28T16:00:42.181Z</time></trkpt><trkpt lat="43.5933265" lon="11.2558231"><ele>470.6</ele><time>2026-03-28T16:00:44.182Z</time></trkpt><trkpt lat="43.593248" lon="11.2557163"><ele>469.0</ele><time>2026-03-28T16:00:46.181Z</time></trkpt><trkpt lat="43.593159" lon="11.2555986"><ele>469.0</ele><time>2026-03-28T16:00:48.181Z</time></trkpt><trkpt lat="43.5930737" lon="11.2554848"><ele>469.0</ele><time>2026-03-28T16:00:50.182Z</time></trkpt><trkpt lat="43.5929963" lon="11.255374"><ele>469.0</ele><time>2026-03-28T16:00:52.181Z</time></trkpt><trkpt lat="43.5929346" lon="11.2552901"><ele>469.0</ele><time>2026-03-28T16:00:54.181Z</time></trkpt><trkpt lat="43.592883" lon="11.2552285"><ele>469.0</ele><time>2026-03-28T16:00:56.182Z</time></trkpt><trkpt lat="43.5928232" lon="11.255146"><ele>465.4</ele><time>2026-03-28T16:00:58.18Z</time></trkpt><trkpt lat="43.5927457" lon="11.2550237"><ele>461.79999999999995</ele><time>2026-03-28T16:01:00.181Z</time></trkpt><trkpt lat="43.5926693" lon="11.2549095"><ele>458.20000000000005</ele><time>2026-03-28T16:01:02.181Z</time></trkpt><trkpt lat="43.5926038" lon="11.2548025"><ele>454.6</ele><time>2026-03-28T16:01:04.181Z</time></trkpt><trkpt lat="43.5925394" lon="11.2547024"><ele>451.0</ele><time>2026-03-28T16:01:06.181Z</time></trkpt><trkpt lat="43.5924704" lon="11.2545981"><ele>451.00000000000006</ele><time>2026-03-28T16:01:08.181Z</time></trkpt><trkpt lat="43.5924218" lon="11.2544394"><ele>451.0</ele><time>2026-03-28T16:01:10.181Z</time></trkpt><trkpt lat="43.5923974" lon="11.2543426"><ele>451.0</ele><time>2026-03-28T16:01:11.181Z</time></trkpt><trkpt lat="43.59237" lon="11.2542441"><ele>451.0</ele><time>2026-03-28T16:01:12.182Z</time></trkpt><trkpt lat="43.5923406" lon="11.2541491"><ele>451.00000000000006</ele><time>2026-03-28T16:01:13.181Z</time></trkpt><trkpt lat="43.5923096" lon="11.2540519"><ele>451.0</ele><time>2026-03-28T16:01:14.181Z</time></trkpt><trkpt lat="43.5922748" lon="11.2539518"><ele>451.50000000000006</ele><time>2026-03-28T16:01:15.181Z</time></trkpt><trkpt lat="43.5922416" lon="11.2538516"><ele>452.0</ele><time>2026-03-28T16:01:16.181Z</time></trkpt><trkpt lat="43.5922067" lon="11.2537488"><ele>452.5</ele><time>2026-03-28T16:01:17.181Z</time></trkpt><trkpt lat="43.5921714" lon="11.2536399"><ele>453.0</ele><time>2026-03-28T16:01:18.182Z</time></trkpt><trkpt lat="43.5921388" lon="11.2535378"><ele>453.50000000000006</ele><time>2026-03-28T16:01:19.182Z</time></trkpt><trkpt lat="43.5921004" lon="11.2534342"><ele>454.0</ele><time>2026-03-28T16:01:20.181Z</time></trkpt><trkpt lat="43.5920623" lon="11.2533281"><ele>454.00000000000006</ele><time>2026-03-28T16:01:21.181Z</time></trkpt><trkpt lat="43.5920272" lon="11.2532193"><ele>454.0</ele><time>2026-03-28T16:01:22.181Z</time></trkpt><trkpt lat="43.5919966" lon="11.2531098"><ele>454.0</ele><time>2026-03-28T16:01:23.181Z</time></trkpt><trkpt lat="43.5919618" lon="11.2529993"><ele>454.0</ele><time>2026-03-28T16:01:24.182Z</time></trkpt><trkpt lat="43.5919247" lon="11.2528895"><ele>454.00000000000006</ele><time>2026-03-28T16:01:25.181Z</time></trkpt><trkpt lat="43.5918859" lon="11.2527805"><ele>454.0</ele><time>2026-03-28T16:01:26.181Z</time></trkpt><trkpt lat="43.5918449" lon="11.252669"><ele>450.33333333333337</ele><time>2026-03-28T16:01:27.182Z</time></trkpt><trkpt lat="43.5918044" lon="11.2525586"><ele>446.6666666666667</ele><time>2026-03-28T16:01:28.181Z</time></trkpt><trkpt lat="43.5917615" lon="11.2524561"><ele>443.0</ele><time>2026-03-28T16:01:29.181Z</time></trkpt><trkpt lat="43.5917171" lon="11.2523537"><ele>439.33333333333337</ele><time>2026-03-28T16:01:30.181Z</time></trkpt><trkpt lat="43.5916762" lon="11.2522589"><ele>435.6666666666667</ele><time>2026-03-28T16:01:31.181Z</time></trkpt><trkpt lat="43.5916367" lon="11.252159"><ele>432.0</ele><time>2026-03-28T16:01:32.181Z</time></trkpt><trkpt lat="43.5916058" lon="11.2520694"><ele>431.6666666666667</ele><time>2026-03-28T16:01:33.181Z</time></trkpt><trkpt lat="43.5915827" lon="11.2519822"><ele>431.33333333333337</ele><time>2026-03-28T16:01:34.181Z</time></trkpt><trkpt lat="43.5915694" lon="11.2518839"><ele>431.0</ele><time>2026-03-28T16:01:35.182Z</time></trkpt><trkpt lat="43.591562" lon="11.2517704"><ele>430.6666666666667</ele><time>2026-03-28T16:01:36.181Z</time></trkpt><trkpt lat="43.5915665" lon="11.2516454"><ele>430.33333333333337</ele><time>2026-03-28T16:01:37.181Z</time></trkpt><trkpt lat="43.591576" lon="11.2515193"><ele>430.0</ele><time>2026-03-28T16:01:38.181Z</time></trkpt><trkpt lat="43.5915861" lon="11.2514008"><ele>429.1666666666667</ele><time>2026-03-28T16:01:39.181Z</time></trkpt><trkpt lat="43.5915967" lon="11.2512841"><ele>428.33333333333337</ele><time>2026-03-28T16:01:40.181Z</time></trkpt><trkpt lat="43.591601" lon="11.2511687"><ele>427.5</ele><time>2026-03-28T16:01:41.181Z</time></trkpt><trkpt lat="43.5916106" lon="11.2510593"><ele>426.66666666666663</ele><time>2026-03-28T16:01:42.182Z</time></trkpt><trkpt lat="43.5916157" lon="11.2509556"><ele>425.8333333333333</ele><time>2026-03-28T16:01:43.18Z</time></trkpt><trkpt lat="43.5916149" lon="11.2508538"><ele>425.0</ele><time>2026-03-28T16:01:44.181Z</time></trkpt><trkpt lat="43.5916032" lon="11.2507482"><ele>422.8</ele><time>2026-03-28T16:01:45.181Z</time></trkpt><trkpt lat="43.5915759" lon="11.2506242"><ele>420.6</ele><time>2026-03-28T16:01:46.181Z</time></trkpt><trkpt lat="43.5915427" lon="11.2505048"><ele>418.4</ele><time>2026-03-28T16:01:47.181Z</time></trkpt><trkpt lat="43.5915045" lon="11.2503793"><ele>416.2</ele><time>2026-03-28T16:01:48.181Z</time></trkpt><trkpt lat="43.5914615" lon="11.2502593"><ele>414.0</ele><time>2026-03-28T16:01:49.181Z</time></trkpt><trkpt lat="43.5914175" lon="11.250142"><ele>414.0</ele><time>2026-03-28T16:01:50.182Z</time></trkpt><trkpt lat="43.5913737" lon="11.2500192"><ele>414.0</ele><time>2026-03-28T16:01:51.181Z</time></trkpt><trkpt lat="43.5913348" lon="11.2499025"><ele>414.0</ele><time>2026-03-28T16:01:52.181Z</time></trkpt><trkpt lat="43.5912941" lon="11.2497889"><ele>414.0</ele><time>2026-03-28T16:01:53.182Z</time></trkpt><trkpt lat="43.5912538" lon="11.2496792"><ele>414.0</ele><time>2026-03-28T16:01:54.181Z</time></trkpt><trkpt lat="43.5912135" lon="11.2495748"><ele>412.14285714285717</ele><time>2026-03-28T16:01:55.181Z</time></trkpt><trkpt lat="43.5911764" lon="11.2494738"><ele>410.2857142857143</ele><time>2026-03-28T16:01:56.181Z</time></trkpt><trkpt lat="43.5911496" lon="11.2493818"><ele>408.42857142857144</ele><time>2026-03-28T16:01:57.181Z</time></trkpt><trkpt lat="43.5911425" lon="11.249291"><ele>406.57142857142856</ele><time>2026-03-28T16:01:58.182Z</time></trkpt><trkpt lat="43.5911591" lon="11.2492052"><ele>404.7142857142857</ele><time>2026-03-28T16:01:59.181Z</time></trkpt><trkpt lat="43.5911982" lon="11.249125"><ele>402.8571428571429</ele><time>2026-03-28T16:02:00.182Z</time></trkpt><trkpt lat="43.5912535" lon="11.2490645"><ele>401.0</ele><time>2026-03-28T16:02:01.182Z</time></trkpt><trkpt lat="43.5913248" lon="11.2490228"><ele>401.0</ele><time>2026-03-28T16:02:02.181Z</time></trkpt><trkpt lat="43.5914089" lon="11.2489983"><ele>401.0</ele><time>2026-03-28T16:02:03.182Z</time></trkpt><trkpt lat="43.5915007" lon="11.2489751"><ele>401.0</ele><time>2026-03-28T16:02:04.181Z</time></trkpt><trkpt lat="43.5916045" lon="11.2489485"><ele>401.0</ele><time>2026-03-28T16:02:05.181Z</time></trkpt><trkpt lat="43.5917138" lon="11.248919"><ele>401.0</ele><time>2026-03-28T16:02:06.182Z</time></trkpt><trkpt lat="43.5918267" lon="11.2488806"><ele>397.25</ele><time>2026-03-28T16:02:07.182Z</time></trkpt><trkpt lat="43.5919416" lon="11.2488331"><ele>393.5</ele><time>2026-03-28T16:02:08.181Z</time></trkpt><trkpt lat="43.592059" lon="11.2487792"><ele>389.75</ele><time>2026-03-28T16:02:09.181Z</time></trkpt><trkpt lat="43.5921788" lon="11.248718"><ele>386.0</ele><time>2026-03-28T16:02:10.181Z</time></trkpt><trkpt lat="43.5922929" lon="11.2486523"><ele>385.0</ele><time>2026-03-28T16:02:11.181Z</time></trkpt><trkpt lat="43.5924064" lon="11.2485835"><ele>384.0</ele><time>2026-03-28T16:02:12.181Z</time></trkpt><trkpt lat="43.5925132" lon="11.2485204"><ele>383.0</ele><time>2026-03-28T16:02:13.182Z</time></trkpt><trkpt lat="43.5926117" lon="11.2484615"><ele>382.0</ele><time>2026-03-28T16:02:14.181Z</time></trkpt><trkpt lat="43.5927094" lon="11.2483944"><ele>382.0</ele><time>2026-03-28T16:02:15.182Z</time></trkpt><trkpt lat="43.592793" lon="11.2483274"><ele>382.0</ele><time>2026-03-28T16:02:16.181Z</time></trkpt><trkpt lat="43.5928754" lon="11.2482564"><ele>382.0</ele><time>2026-03-28T16:02:17.182Z</time></trkpt><trkpt lat="43.5929494" lon="11.2481934"><ele>382.0</ele><time>2026-03-28T16:02:18.181Z</time></trkpt><trkpt lat="43.5930194" lon="11.2481349"><ele>382.0</ele><time>2026-03-28T16:02:19.181Z</time></trkpt><trkpt lat="43.5930843" lon="11.2480756"><ele>382.0</ele><time>2026-03-28T16:02:20.181Z</time></trkpt><trkpt lat="43.5931425" lon="11.2480194"><ele>378.8</ele><time>2026-03-28T16:02:21.181Z</time></trkpt><trkpt lat="43.5931903" lon="11.2479573"><ele>375.6</ele><time>2026-03-28T16:02:22.182Z</time></trkpt><trkpt lat="43.5932377" lon="11.2478178"><ele>372.40000000000003</ele><time>2026-03-28T16:02:24.181Z</time></trkpt><trkpt lat="43.5932164" lon="11.2476705"><ele>369.20000000000005</ele><time>2026-03-28T16:02:26.18Z</time></trkpt><trkpt lat="43.5931476" lon="11.2475419"><ele>366.0</ele><time>2026-03-28T16:02:28.181Z</time></trkpt><trkpt lat="43.5931039" lon="11.2474074"><ele>363.5</ele><time>2026-03-28T16:02:30.181Z</time></trkpt><trkpt lat="43.59314" lon="11.2472577"><ele>361.0</ele><time>2026-03-28T16:02:32.182Z</time></trkpt><trkpt lat="43.5931876" lon="11.2471991"><ele>358.5</ele><time>2026-03-28T16:02:33.182Z</time></trkpt><trkpt lat="43.5932522" lon="11.2471621"><ele>356.0</ele><time>2026-03-28T16:02:34.182Z</time></trkpt><trkpt lat="43.5933213" lon="11.2471534"><ele>353.5</ele><time>2026-03-28T16:02:35.182Z</time></trkpt><trkpt lat="43.5933894" lon="11.2471607"><ele>351.0</ele><time>2026-03-28T16:02:36.182Z</time></trkpt><trkpt lat="43.5934661" lon="11.2471825"><ele>351.0</ele><time>2026-03-28T16:02:37.181Z</time></trkpt><trkpt lat="43.5935392" lon="11.2472097"><ele>351.0</ele><time>2026-03-28T16:02:38.181Z</time></trkpt><trkpt lat="43.593617" lon="11.2472441"><ele>351.0</ele><time>2026-03-28T16:02:39.181Z</time></trkpt><trkpt lat="43.5936866" lon="11.2472802"><ele>351.0</ele><time>2026-03-28T16:02:40.182Z</time></trkpt><trkpt lat="43.5937543" lon="11.2473179"><ele>351.0</ele><time>2026-03-28T16:02:41.181Z</time></trkpt><trkpt lat="43.5938256" lon="11.2473556"><ele>351.0</ele><time>2026-03-28T16:02:42.181Z</time></trkpt><trkpt lat="43.5939043" lon="11.2473942"><ele>353.4</ele><time>2026-03-28T16:02:43.181Z</time></trkpt><trkpt lat="43.5939848" lon="11.2474371"><ele>355.8</ele><time>2026-03-28T16:02:44.181Z</time></trkpt><trkpt lat="43.5940712" lon="11.2474839"><ele>358.2</ele><time>2026-03-28T16:02:45.181Z</time></trkpt><trkpt lat="43.5941708" lon="11.2475411"><ele>360.59999999999997</ele><time>2026-03-28T16:02:46.181Z</time></trkpt><trkpt lat="43.5942798" lon="11.2475966"><ele>363.0</ele><time>2026-03-28T16:02:47.181Z</time></trkpt><trkpt lat="43.5943857" lon="11.2476304"><ele>363.0</ele><time>2026-03-28T16:02:48.182Z</time></trkpt><trkpt lat="43.594485" lon="11.2476371"><ele>363.0</ele><time>2026-03-28T16:02:49.182Z</time></trkpt><trkpt lat="43.5945839" lon="11.2476139"><ele>363.0</ele><time>2026-03-28T16:02:50.182Z</time></trkpt><trkpt lat="43.5946863" lon="11.247567"><ele>363.0</ele><time>2026-03-28T16:02:51.182Z</time></trkpt><trkpt lat="43.5947838" lon="11.2475048"><ele>363.0</ele><time>2026-03-28T16:02:52.181Z</time></trkpt><trkpt lat="43.5948777" lon="11.2474342"><ele>363.0</ele><time>2026-03-28T16:02:53.182Z</time></trkpt><trkpt lat="43.594967" lon="11.2473575"><ele>363.0</ele><time>2026-03-28T16:02:54.181Z</time></trkpt><trkpt lat="43.5950377" lon="11.2472886"><ele>363.0</ele><time>2026-03-28T16:02:55.181Z</time></trkpt><trkpt lat="43.595104" lon="11.2472257"><ele>363.0</ele><time>2026-03-28T16:02:56.181Z</time></trkpt><trkpt lat="43.5951624" lon="11.2471568"><ele>363.0</ele><time>2026-03-28T16:02:57.181Z</time></trkpt><trkpt lat="43.5952281" lon="11.2470504"><ele>362.2</ele><time>2026-03-28T16:02:59.182Z</time></trkpt><trkpt lat="43.5953046" lon="11.2470179"><ele>361.4</ele><time>2026-03-28T16:03:16.182Z</time></trkpt><trkpt lat="43.5953817" lon="11.2470113"><ele>360.59999999999997</ele><time>2026-03-28T16:03:18.181Z</time></trkpt><trkpt lat="43.5955173" lon="11.2469915"><ele>359.79999999999995</ele><time>2026-03-28T16:03:20.181Z</time></trkpt><trkpt lat="43.5956065" lon="11.2469665"><ele>359.0</ele><time>2026-03-28T16:03:21.181Z</time></trkpt><trkpt lat="43.5957045" lon="11.2469359"><ele>359.0</ele><time>2026-03-28T16:03:22.182Z</time></trkpt><trkpt lat="43.5958041" lon="11.2469067"><ele>359.0</ele><time>2026-03-28T16:03:23.181Z</time></trkpt><trkpt lat="43.5959144" lon="11.2468719"><ele>359.0</ele><time>2026-03-28T16:03:24.182Z</time></trkpt><trkpt lat="43.5960284" lon="11.2468364"><ele>359.0</ele><time>2026-03-28T16:03:25.182Z</time></trkpt><trkpt lat="43.5961347" lon="11.246808"><ele>359.0</ele><time>2026-03-28T16:03:26.181Z</time></trkpt><trkpt lat="43.5962503" lon="11.2467787"><ele>358.0</ele><time>2026-03-28T16:03:27.181Z</time></trkpt><trkpt lat="43.5963602" lon="11.2467447"><ele>357.0</ele><time>2026-03-28T16:03:28.182Z</time></trkpt><trkpt lat="43.5964726" lon="11.2467125"><ele>356.0</ele><time>2026-03-28T16:03:29.181Z</time></trkpt><trkpt lat="43.5965858" lon="11.2466756"><ele>355.0</ele><time>2026-03-28T16:03:30.181Z</time></trkpt><trkpt lat="43.5966948" lon="11.2466387"><ele>355.0</ele><time>2026-03-28T16:03:31.181Z</time></trkpt><trkpt lat="43.596804" lon="11.2466044"><ele>355.0</ele><time>2026-03-28T16:03:32.181Z</time></trkpt><trkpt lat="43.5969086" lon="11.2465667"><ele>355.0</ele><time>2026-03-28T16:03:33.181Z</time></trkpt><trkpt lat="43.5970218" lon="11.2465288"><ele>355.0</ele><time>2026-03-28T16:03:34.181Z</time></trkpt><trkpt lat="43.5971404" lon="11.2464977"><ele>354.75</ele><time>2026-03-28T16:03:35.182Z</time></trkpt><trkpt lat="43.5972683" lon="11.2464731"><ele>354.5</ele><time>2026-03-28T16:03:36.181Z</time></trkpt><trkpt lat="43.5973886" lon="11.2464677"><ele>354.25</ele><time>2026-03-28T16:03:37.181Z</time></trkpt><trkpt lat="43.5975013" lon="11.2464844"><ele>354.0</ele><time>2026-03-28T16:03:38.181Z</time></trkpt><trkpt lat="43.5976173" lon="11.2465086"><ele>354.0</ele><time>2026-03-28T16:03:39.18Z</time></trkpt><trkpt lat="43.597733" lon="11.2465414"><ele>354.0</ele><time>2026-03-28T16:03:40.182Z</time></trkpt><trkpt lat="43.597852" lon="11.246573"><ele>354.0</ele><time>2026-03-28T16:03:41.181Z</time></trkpt><trkpt lat="43.5979674" lon="11.2466011"><ele>354.0</ele><time>2026-03-28T16:03:42.181Z</time></trkpt><trkpt lat="43.5980761" lon="11.2466272"><ele>355.2</ele><time>2026-03-28T16:03:43.18Z</time></trkpt><trkpt lat="43.5981794" lon="11.2466465"><ele>356.4</ele><time>2026-03-28T16:03:44.182Z</time></trkpt><trkpt lat="43.5982749" lon="11.2466654"><ele>357.6</ele><time>2026-03-28T16:03:45.18Z</time></trkpt><trkpt lat="43.598361" lon="11.2466907"><ele>358.8</ele><time>2026-03-28T16:03:46.181Z</time></trkpt><trkpt lat="43.5984434" lon="11.2467372"><ele>360.0</ele><time>2026-03-28T16:03:47.181Z</time></trkpt><trkpt lat="43.5985135" lon="11.2468052"><ele>360.0</ele><time>2026-03-28T16:03:48.182Z</time></trkpt><trkpt lat="43.5985691" lon="11.2468848"><ele>360.0</ele><time>2026-03-28T16:03:49.181Z</time></trkpt><trkpt lat="43.5986089" lon="11.2469585"><ele>360.0</ele><time>2026-03-28T16:03:50.182Z</time></trkpt><trkpt lat="43.5986795" lon="11.2470834"><ele>360.0</ele><time>2026-03-28T16:03:52.181Z</time></trkpt><trkpt lat="43.5987761" lon="11.2470996"><ele>360.0</ele><time>2026-03-28T16:03:54.181Z</time></trkpt><trkpt lat="43.5988406" lon="11.2470663"><ele>360.0</ele><time>2026-03-28T16:03:55.181Z</time></trkpt><trkpt lat="43.5989225" lon="11.2470102"><ele>362.4</ele><time>2026-03-28T16:03:56.181Z</time></trkpt><trkpt lat="43.5990128" lon="11.2469359"><ele>364.8</ele><time>2026-03-28T16:03:57.181Z</time></trkpt><trkpt lat="43.5990969" lon="11.2468596"><ele>367.20000000000005</ele><time>2026-03-28T16:03:58.181Z</time></trkpt><trkpt lat="43.5991839" lon="11.2467753"><ele>369.6</ele><time>2026-03-28T16:03:59.182Z</time></trkpt><trkpt lat="43.5992753" lon="11.2466882"><ele>372.0</ele><time>2026-03-28T16:04:00.18Z</time></trkpt><trkpt lat="43.5993729" lon="11.2465997"><ele>372.0</ele><time>2026-03-28T16:04:01.181Z</time></trkpt><trkpt lat="43.5994745" lon="11.2465067"><ele>372.0</ele><time>2026-03-28T16:04:02.182Z</time></trkpt><trkpt lat="43.5995749" lon="11.2464133"><ele>372.0</ele><time>2026-03-28T16:04:03.181Z</time></trkpt><trkpt lat="43.5996732" lon="11.2463214"><ele>372.0</ele><time>2026-03-28T16:04:04.182Z</time></trkpt><trkpt lat="43.59977" lon="11.246224"><ele>377.75</ele><time>2026-03-28T16:04:05.182Z</time></trkpt><trkpt lat="43.5998621" lon="11.2461202"><ele>383.5</ele><time>2026-03-28T16:04:06.182Z</time></trkpt><trkpt lat="43.5999499" lon="11.2460105"><ele>389.25</ele><time>2026-03-28T16:04:07.182Z</time></trkpt><trkpt lat="43.6000338" lon="11.2459131"><ele>395.0</ele><time>2026-03-28T16:04:08.182Z</time></trkpt><trkpt lat="43.6001171" lon="11.2458197"><ele>395.0</ele><time>2026-03-28T16:04:09.181Z</time></trkpt><trkpt lat="43.6001892" lon="11.2457301"><ele>395.0</ele><time>2026-03-28T16:04:10.181Z</time></trkpt><trkpt lat="43.6002555" lon="11.2456397"><ele>395.0</ele><time>2026-03-28T16:04:11.181Z</time></trkpt><trkpt lat="43.6003211" lon="11.2455525"><ele>395.0</ele><time>2026-03-28T16:04:12.181Z</time></trkpt><trkpt lat="43.6003865" lon="11.2454756"><ele>395.0</ele><time>2026-03-28T16:04:13.181Z</time></trkpt><trkpt lat="43.6004804" lon="11.2453858"><ele>395.75</ele><time>2026-03-28T16:04:14.181Z</time></trkpt><trkpt lat="43.6005781" lon="11.2453008"><ele>396.5</ele><time>2026-03-28T16:04:15.182Z</time></trkpt><trkpt lat="43.6006773" lon="11.245216"><ele>397.25</ele><time>2026-03-28T16:04:16.182Z</time></trkpt><trkpt lat="43.6007718" lon="11.2451327"><ele>398.0</ele><time>2026-03-28T16:04:17.181Z</time></trkpt><trkpt lat="43.6008711" lon="11.2450466"><ele>398.0</ele><time>2026-03-28T16:04:18.181Z</time></trkpt><trkpt lat="43.6009708" lon="11.244965"><ele>398.0</ele><time>2026-03-28T16:04:19.181Z</time></trkpt><trkpt lat="43.601067" lon="11.2448857"><ele>398.0</ele><time>2026-03-28T16:04:20.182Z</time></trkpt><trkpt lat="43.6011588" lon="11.24482"><ele>398.0</ele><time>2026-03-28T16:04:21.181Z</time></trkpt><trkpt lat="43.6012397" lon="11.2447536"><ele>398.0</ele><time>2026-03-28T16:04:22.182Z</time></trkpt><trkpt lat="43.6013208" lon="11.2446836"><ele>400.4</ele><time>2026-03-28T16:04:23.182Z</time></trkpt><trkpt lat="43.6014037" lon="11.2446194"><ele>402.79999999999995</ele><time>2026-03-28T16:04:24.181Z</time></trkpt><trkpt lat="43.6014912" lon="11.2445566"><ele>405.2</ele><time>2026-03-28T16:04:25.182Z</time></trkpt><trkpt lat="43.6015811" lon="11.2444921"><ele>407.6</ele><time>2026-03-28T16:04:26.182Z</time></trkpt><trkpt lat="43.60167" lon="11.2444235"><ele>410.0</ele><time>2026-03-28T16:04:27.181Z</time></trkpt><trkpt lat="43.6017319" lon="11.2443607"><ele>410.0</ele><time>2026-03-28T16:04:28.181Z</time></trkpt><trkpt lat="43.601781" lon="11.2443027"><ele>410.0</ele><time>2026-03-28T16:04:29.181Z</time></trkpt><trkpt lat="43.601823" lon="11.2441913"><ele>410.0</ele><time>2026-03-28T16:04:31.182Z</time></trkpt><trkpt lat="43.6018064" lon="11.2440676"><ele>410.0</ele><time>2026-03-28T16:04:33.181Z</time></trkpt><trkpt lat="43.60176" lon="11.2439482"><ele>410.0</ele><time>2026-03-28T16:04:35.181Z</time></trkpt><trkpt lat="43.6016914" lon="11.2438201"><ele>407.75</ele><time>2026-03-28T16:04:37.181Z</time></trkpt><trkpt lat="43.6016126" lon="11.2436985"><ele>405.5</ele><time>2026-03-28T16:04:39.181Z</time></trkpt><trkpt lat="43.601538" lon="11.2435773"><ele>403.25</ele><time>2026-03-28T16:04:41.18Z</time></trkpt><trkpt lat="43.6014802" lon="11.2434529"><ele>401.0</ele><time>2026-03-28T16:04:43.181Z</time></trkpt><trkpt lat="43.6013997" lon="11.2433289"><ele>400.99999999999994</ele><time>2026-03-28T16:04:45.183Z</time></trkpt><trkpt lat="43.6013167" lon="11.2432114"><ele>401.0</ele><time>2026-03-28T16:04:47.182Z</time></trkpt><trkpt lat="43.6012678" lon="11.2431411"><ele>401.0</ele><time>2026-03-28T16:04:48.183Z</time></trkpt><trkpt lat="43.6012243" lon="11.2430731"><ele>401.0</ele><time>2026-03-28T16:04:49.183Z</time></trkpt><trkpt lat="43.6011875" lon="11.2429905"><ele>400.99999999999994</ele><time>2026-03-28T16:04:50.182Z</time></trkpt><trkpt lat="43.6011621" lon="11.2429019"><ele>401.0</ele><time>2026-03-28T16:04:51.182Z</time></trkpt><trkpt lat="43.6011469" lon="11.2428099"><ele>399.8</ele><time>2026-03-28T16:04:52.182Z</time></trkpt><trkpt lat="43.6011499" lon="11.2427011"><ele>398.6</ele><time>2026-03-28T16:04:53.182Z</time></trkpt><trkpt lat="43.6011616" lon="11.2425796"><ele>397.4</ele><time>2026-03-28T16:04:54.183Z</time></trkpt><trkpt lat="43.6011801" lon="11.2424429"><ele>396.2</ele><time>2026-03-28T16:04:55.182Z</time></trkpt><trkpt lat="43.6012075" lon="11.2423122"><ele>395.0</ele><time>2026-03-28T16:04:56.182Z</time></trkpt><trkpt lat="43.6012359" lon="11.242186"><ele>393.66666666666663</ele><time>2026-03-28T16:04:57.182Z</time></trkpt><trkpt lat="43.6012629" lon="11.2420649"><ele>392.3333333333333</ele><time>2026-03-28T16:04:58.183Z</time></trkpt><trkpt lat="43.6012851" lon="11.2419546"><ele>391.0</ele><time>2026-03-28T16:04:59.182Z</time></trkpt><trkpt lat="43.6013126" lon="11.2418491"><ele>389.66666666666663</ele><time>2026-03-28T16:05:00.182Z</time></trkpt><trkpt lat="43.6013508" lon="11.241764"><ele>388.3333333333333</ele><time>2026-03-28T16:05:01.182Z</time></trkpt><trkpt lat="43.6013992" lon="11.2417056"><ele>387.0</ele><time>2026-03-28T16:05:02.183Z</time></trkpt><trkpt lat="43.6015288" lon="11.2416671"><ele>387.0</ele><time>2026-03-28T16:05:04.182Z</time></trkpt><trkpt lat="43.601616" lon="11.2416723"><ele>387.0</ele><time>2026-03-28T16:05:05.183Z</time></trkpt><trkpt lat="43.6017179" lon="11.2416817"><ele>387.0</ele><time>2026-03-28T16:05:06.182Z</time></trkpt><trkpt lat="43.6018345" lon="11.2416971"><ele>387.0</ele><time>2026-03-28T16:05:07.183Z</time></trkpt><trkpt lat="43.6019609" lon="11.2417245"><ele>387.0</ele><time>2026-03-28T16:05:08.182Z</time></trkpt><trkpt lat="43.6020751" lon="11.2417596"><ele>385.75</ele><time>2026-03-28T16:05:09.182Z</time></trkpt><trkpt lat="43.6021961" lon="11.2417963"><ele>384.5</ele><time>2026-03-28T16:05:10.182Z</time></trkpt><trkpt lat="43.6023203" lon="11.2418355"><ele>383.25</ele><time>2026-03-28T16:05:11.183Z</time></trkpt><trkpt lat="43.6024455" lon="11.2418838"><ele>382.0</ele><time>2026-03-28T16:05:12.183Z</time></trkpt><trkpt lat="43.6025688" lon="11.2419348"><ele>382.0</ele><time>2026-03-28T16:05:13.182Z</time></trkpt><trkpt lat="43.6026974" lon="11.2419731"><ele>382.0</ele><time>2026-03-28T16:05:14.182Z</time></trkpt><trkpt lat="43.602823" lon="11.2420142"><ele>382.0</ele><time>2026-03-28T16:05:15.182Z</time></trkpt><trkpt lat="43.6029452" lon="11.2420606"><ele>382.0</ele><time>2026-03-28T16:05:16.182Z</time></trkpt><trkpt lat="43.6030655" lon="11.2421054"><ele>382.40000000000003</ele><time>2026-03-28T16:05:17.182Z</time></trkpt><trkpt lat="43.6031807" lon="11.2421539"><ele>382.8</ele><time>2026-03-28T16:05:18.182Z</time></trkpt><trkpt lat="43.6032915" lon="11.2422031"><ele>383.2</ele><time>2026-03-28T16:05:19.182Z</time></trkpt><trkpt lat="43.6033746" lon="11.2422323"><ele>383.6</ele><time>2026-03-28T16:05:20.183Z</time></trkpt><trkpt lat="43.6034538" lon="11.2422521"><ele>384.0</ele><time>2026-03-28T16:05:21.182Z</time></trkpt><trkpt lat="43.6035488" lon="11.2421507"><ele>384.0</ele><time>2026-03-28T16:05:23.183Z</time></trkpt><trkpt lat="43.6035785" lon="11.2420586"><ele>384.0</ele><time>2026-03-28T16:05:24.183Z</time></trkpt><trkpt lat="43.6035826" lon="11.2419244"><ele>384.0</ele><time>2026-03-28T16:05:25.183Z</time></trkpt><trkpt lat="43.6035876" lon="11.2417638"><ele>384.0</ele><time>2026-03-28T16:05:26.182Z</time></trkpt><trkpt lat="43.6035972" lon="11.2415844"><ele>384.0</ele><time>2026-03-28T16:05:27.182Z</time></trkpt><trkpt lat="43.6036023" lon="11.2413978"><ele>381.25</ele><time>2026-03-28T16:05:28.182Z</time></trkpt><trkpt lat="43.6036106" lon="11.2412167"><ele>378.5</ele><time>2026-03-28T16:05:29.183Z</time></trkpt><trkpt lat="43.6036192" lon="11.2410421"><ele>375.75</ele><time>2026-03-28T16:05:30.183Z</time></trkpt><trkpt lat="43.6036306" lon="11.2408721"><ele>373.0</ele><time>2026-03-28T16:05:31.182Z</time></trkpt><trkpt lat="43.6036388" lon="11.2407085"><ele>371.5</ele><time>2026-03-28T16:05:32.182Z</time></trkpt><trkpt lat="43.6036475" lon="11.2405462"><ele>370.0</ele><time>2026-03-28T16:05:33.182Z</time></trkpt><trkpt lat="43.6036559" lon="11.2403865"><ele>368.5</ele><time>2026-03-28T16:05:34.182Z</time></trkpt><trkpt lat="43.6036643" lon="11.2402348"><ele>367.0</ele><time>2026-03-28T16:05:35.182Z</time></trkpt><trkpt lat="43.603678" lon="11.2400879"><ele>366.8</ele><time>2026-03-28T16:05:36.183Z</time></trkpt><trkpt lat="43.6036912" lon="11.2399389"><ele>366.6</ele><time>2026-03-28T16:05:37.182Z</time></trkpt><trkpt lat="43.6037057" lon="11.2398007"><ele>366.40000000000003</ele><time>2026-03-28T16:05:38.182Z</time></trkpt><trkpt lat="43.6037146" lon="11.2396635"><ele>366.20000000000005</ele><time>2026-03-28T16:05:39.183Z</time></trkpt><trkpt lat="43.6037256" lon="11.2395262"><ele>366.0</ele><time>2026-03-28T16:05:40.182Z</time></trkpt><trkpt lat="43.6037385" lon="11.2393847"><ele>365.20000000000005</ele><time>2026-03-28T16:05:41.182Z</time></trkpt><trkpt lat="43.6037643" lon="11.2392429"><ele>364.40000000000003</ele><time>2026-03-28T16:05:42.182Z</time></trkpt><trkpt lat="43.6037787" lon="11.2391036"><ele>363.6</ele><time>2026-03-28T16:05:43.182Z</time></trkpt><trkpt lat="43.6037954" lon="11.2389779"><ele>362.8</ele><time>2026-03-28T16:05:44.182Z</time></trkpt><trkpt lat="43.6038071" lon="11.2388568"><ele>362.0</ele><time>2026-03-28T16:05:45.182Z</time></trkpt><trkpt lat="43.6038109" lon="11.2387387"><ele>361.0</ele><time>2026-03-28T16:05:46.182Z</time></trkpt><trkpt lat="43.6038165" lon="11.2386164"><ele>360.0</ele><time>2026-03-28T16:05:47.182Z</time></trkpt><trkpt lat="43.6038344" lon="11.2384864"><ele>359.0</ele><time>2026-03-28T16:05:48.182Z</time></trkpt><trkpt lat="43.603849" lon="11.2383661"><ele>358.0</ele><time>2026-03-28T16:05:49.182Z</time></trkpt><trkpt lat="43.6038681" lon="11.2382553"><ele>357.0</ele><time>2026-03-28T16:05:50.182Z</time></trkpt><trkpt lat="43.6038984" lon="11.2381455"><ele>356.0</ele><time>2026-03-28T16:05:51.182Z</time></trkpt><trkpt lat="43.6039267" lon="11.2380385"><ele>354.4</ele><time>2026-03-28T16:05:52.182Z</time></trkpt><trkpt lat="43.6039838" lon="11.2379424"><ele>352.8</ele><time>2026-03-28T16:05:53.183Z</time></trkpt><trkpt lat="43.6040266" lon="11.2378204"><ele>351.2</ele><time>2026-03-28T16:05:54.182Z</time></trkpt><trkpt lat="43.6040733" lon="11.2376958"><ele>349.59999999999997</ele><time>2026-03-28T16:05:55.183Z</time></trkpt><trkpt lat="43.6041203" lon="11.2375675"><ele>348.0</ele><time>2026-03-28T16:05:56.182Z</time></trkpt><trkpt lat="43.6041639" lon="11.2374538"><ele>348.0</ele><time>2026-03-28T16:05:57.182Z</time></trkpt><trkpt lat="43.6042001" lon="11.2373407"><ele>348.0</ele><time>2026-03-28T16:05:58.182Z</time></trkpt><trkpt lat="43.6042354" lon="11.2372331"><ele>348.0</ele><time>2026-03-28T16:05:59.183Z</time></trkpt><trkpt lat="43.6042694" lon="11.2371289"><ele>348.0</ele><time>2026-03-28T16:06:00.183Z</time></trkpt><trkpt lat="43.6043076" lon="11.2370265"><ele>348.0</ele><time>2026-03-28T16:06:01.182Z</time></trkpt><trkpt lat="43.6043448" lon="11.236923"><ele>348.0</ele><time>2026-03-28T16:06:02.182Z</time></trkpt><trkpt lat="43.6043867" lon="11.2368223"><ele>346.79999999999995</ele><time>2026-03-28T16:06:03.183Z</time></trkpt><trkpt lat="43.6044317" lon="11.2367023"><ele>345.6</ele><time>2026-03-28T16:06:04.183Z</time></trkpt><trkpt lat="43.60448" lon="11.2365708"><ele>344.4</ele><time>2026-03-28T16:06:05.182Z</time></trkpt><trkpt lat="43.6045305" lon="11.236434"><ele>343.20000000000005</ele><time>2026-03-28T16:06:06.183Z</time></trkpt><trkpt lat="43.6045735" lon="11.2363062"><ele>342.0</ele><time>2026-03-28T16:06:07.183Z</time></trkpt><trkpt lat="43.6046173" lon="11.236166"><ele>340.6</ele><time>2026-03-28T16:06:08.182Z</time></trkpt><trkpt lat="43.6046625" lon="11.2360301"><ele>339.20000000000005</ele><time>2026-03-28T16:06:09.182Z</time></trkpt><trkpt lat="43.6047114" lon="11.2358932"><ele>337.8</ele><time>2026-03-28T16:06:10.182Z</time></trkpt><trkpt lat="43.6047549" lon="11.2357679"><ele>336.4</ele><time>2026-03-28T16:06:11.182Z</time></trkpt><trkpt lat="43.604791" lon="11.2356622"><ele>335.0</ele><time>2026-03-28T16:06:12.182Z</time></trkpt><trkpt lat="43.6048191" lon="11.2355727"><ele>334.1666666666667</ele><time>2026-03-28T16:06:13.182Z</time></trkpt><trkpt lat="43.6048463" lon="11.2354901"><ele>333.33333333333337</ele><time>2026-03-28T16:06:14.182Z</time></trkpt><trkpt lat="43.6048878" lon="11.2353756"><ele>332.5</ele><time>2026-03-28T16:06:16.182Z</time></trkpt><trkpt lat="43.6049206" lon="11.2352818"><ele>331.6666666666667</ele><time>2026-03-28T16:06:42.182Z</time></trkpt><trkpt lat="43.6049429" lon="11.235197"><ele>330.8333333333333</ele><time>2026-03-28T16:06:45.183Z</time></trkpt><trkpt lat="43.605001" lon="11.2351308"><ele>330.0</ele><time>2026-03-28T16:06:48.182Z</time></trkpt><trkpt lat="43.6050988" lon="11.235127"><ele>330.00000000000006</ele><time>2026-03-28T16:06:50.183Z</time></trkpt><trkpt lat="43.6052008" lon="11.2351477"><ele>330.0</ele><time>2026-03-28T16:06:52.182Z</time></trkpt><trkpt lat="43.6052654" lon="11.2351502"><ele>330.0</ele><time>2026-03-28T16:06:53.182Z</time></trkpt><trkpt lat="43.6053311" lon="11.2351476"><ele>330.0</ele><time>2026-03-28T16:06:54.182Z</time></trkpt><trkpt lat="43.6053984" lon="11.2351499"><ele>330.0</ele><time>2026-03-28T16:06:55.183Z</time></trkpt><trkpt lat="43.6054689" lon="11.2351559"><ele>330.00000000000006</ele><time>2026-03-28T16:06:56.182Z</time></trkpt><trkpt lat="43.6055404" lon="11.2351699"><ele>330.0</ele><time>2026-03-28T16:06:57.182Z</time></trkpt><trkpt lat="43.6056159" lon="11.2352076"><ele>328.1666666666667</ele><time>2026-03-28T16:06:58.182Z</time></trkpt><trkpt lat="43.6056864" lon="11.2352689"><ele>326.3333333333333</ele><time>2026-03-28T16:06:59.183Z</time></trkpt><trkpt lat="43.6057528" lon="11.2353368"><ele>324.5</ele><time>2026-03-28T16:07:00.182Z</time></trkpt><trkpt lat="43.6058144" lon="11.2354143"><ele>322.66666666666663</ele><time>2026-03-28T16:07:01.183Z</time></trkpt><trkpt lat="43.6058676" lon="11.2354933"><ele>320.8333333333333</ele><time>2026-03-28T16:07:02.183Z</time></trkpt><trkpt lat="43.6059141" lon="11.2355712"><ele>319.0</ele><time>2026-03-28T16:07:03.183Z</time></trkpt><trkpt lat="43.605952" lon="11.2356454"><ele>319.0</ele><time>2026-03-28T16:07:04.183Z</time></trkpt><trkpt lat="43.6059895" lon="11.235722"><ele>319.0</ele><time>2026-03-28T16:07:05.182Z</time></trkpt><trkpt lat="43.6060251" lon="11.2357965"><ele>319.0</ele><time>2026-03-28T16:07:06.182Z</time></trkpt><trkpt lat="43.6060821" lon="11.2359153"><ele>319.0</ele><time>2026-03-28T16:07:08.182Z</time></trkpt><trkpt lat="43.6061245" lon="11.2359906"><ele>319.0</ele><time>2026-03-28T16:07:10.183Z</time></trkpt><trkpt lat="43.6061757" lon="11.2360694"><ele>319.0</ele><time>2026-03-28T16:07:20.183Z</time></trkpt><trkpt lat="43.6062199" lon="11.2361319"><ele>319.0</ele><time>2026-03-28T16:07:21.182Z</time></trkpt><trkpt lat="43.6063253" lon="11.2362753"><ele>318.8</ele><time>2026-03-28T16:07:23.182Z</time></trkpt><trkpt lat="43.6063998" lon="11.2363747"><ele>318.59999999999997</ele><time>2026-03-28T16:07:24.182Z</time></trkpt><trkpt lat="43.6064753" lon="11.2364753"><ele>318.4</ele><time>2026-03-28T16:07:25.182Z</time></trkpt><trkpt lat="43.6065596" lon="11.2365856"><ele>318.2</ele><time>2026-03-28T16:07:26.182Z</time></trkpt><trkpt lat="43.6066468" lon="11.2367071"><ele>318.0</ele><time>2026-03-28T16:07:27.182Z</time></trkpt><trkpt lat="43.6067341" lon="11.2368356"><ele>319.0</ele><time>2026-03-28T16:07:28.182Z</time></trkpt><trkpt lat="43.6068208" lon="11.2369667"><ele>320.0</ele><time>2026-03-28T16:07:29.182Z</time></trkpt><trkpt lat="43.6069139" lon="11.2370946"><ele>321.0</ele><time>2026-03-28T16:07:30.183Z</time></trkpt><trkpt lat="43.6070151" lon="11.2372047"><ele>322.0</ele><time>2026-03-28T16:07:31.182Z</time></trkpt><trkpt lat="43.6071198" lon="11.2373109"><ele>325.0</ele><time>2026-03-28T16:07:32.183Z</time></trkpt><trkpt lat="43.6072257" lon="11.2374202"><ele>328.0</ele><time>2026-03-28T16:07:33.182Z</time></trkpt><trkpt lat="43.6073332" lon="11.2375277"><ele>331.0</ele><time>2026-03-28T16:07:34.182Z</time></trkpt><trkpt lat="43.6074348" lon="11.2376344"><ele>334.0</ele><time>2026-03-28T16:07:35.182Z</time></trkpt><trkpt lat="43.6075416" lon="11.2377488"><ele>334.0</ele><time>2026-03-28T16:07:36.182Z</time></trkpt><trkpt lat="43.6076537" lon="11.2378725"><ele>334.0</ele><time>2026-03-28T16:07:37.182Z</time></trkpt><trkpt lat="43.6077649" lon="11.2379993"><ele>334.0</ele><time>2026-03-28T16:07:38.182Z</time></trkpt><trkpt lat="43.6078798" lon="11.2381325"><ele>334.0</ele><time>2026-03-28T16:07:39.182Z</time></trkpt><trkpt lat="43.6079876" lon="11.2382627"><ele>335.79999999999995</ele><time>2026-03-28T16:07:40.182Z</time></trkpt><trkpt lat="43.6080851" lon="11.2383752"><ele>337.59999999999997</ele><time>2026-03-28T16:07:41.182Z</time></trkpt><trkpt lat="43.6081858" lon="11.2384418"><ele>339.4</ele><time>2026-03-28T16:07:42.182Z</time></trkpt><trkpt lat="43.6082832" lon="11.2384804"><ele>341.2</ele><time>2026-03-28T16:07:43.183Z</time></trkpt><trkpt lat="43.6083768" lon="11.2385048"><ele>343.0</ele><time>2026-03-28T16:07:44.183Z</time></trkpt><trkpt lat="43.6084596" lon="11.2385277"><ele>343.0</ele><time>2026-03-28T16:07:45.183Z</time></trkpt><trkpt lat="43.6085585" lon="11.2385507"><ele>343.0</ele><time>2026-03-28T16:07:46.182Z</time></trkpt><trkpt lat="43.608661" lon="11.238579"><ele>343.0</ele><time>2026-03-28T16:07:47.182Z</time></trkpt><trkpt lat="43.6087553" lon="11.2385993"><ele>343.0</ele><time>2026-03-28T16:07:48.182Z</time></trkpt><trkpt lat="43.6088487" lon="11.2386303"><ele>343.0</ele><time>2026-03-28T16:07:49.182Z</time></trkpt><trkpt lat="43.6089552" lon="11.2386976"><ele>342.5</ele><time>2026-03-28T16:07:50.182Z</time></trkpt><trkpt lat="43.6090614" lon="11.2388029"><ele>342.0</ele><time>2026-03-28T16:07:51.182Z</time></trkpt><trkpt lat="43.6091792" lon="11.2388995"><ele>341.5</ele><time>2026-03-28T16:07:52.182Z</time></trkpt><trkpt lat="43.6092973" lon="11.2390002"><ele>341.0</ele><time>2026-03-28T16:07:53.182Z</time></trkpt><trkpt lat="43.6094262" lon="11.2391046"><ele>340.5</ele><time>2026-03-28T16:07:54.183Z</time></trkpt><trkpt lat="43.6095498" lon="11.2391927"><ele>340.0</ele><time>2026-03-28T16:07:55.182Z</time></trkpt><trkpt lat="43.6096784" lon="11.2392555"><ele>339.5</ele><time>2026-03-28T16:07:56.182Z</time></trkpt><trkpt lat="43.6098042" lon="11.2392926"><ele>339.0</ele><time>2026-03-28T16:07:57.182Z</time></trkpt><trkpt lat="43.6099453" lon="11.2393048"><ele>339.0</ele><time>2026-03-28T16:07:58.183Z</time></trkpt><trkpt lat="43.6100819" lon="11.2392845"><ele>339.0</ele><time>2026-03-28T16:07:59.182Z</time></trkpt><trkpt lat="43.6102176" lon="11.2392541"><ele>339.0</ele><time>2026-03-28T16:08:00.182Z</time></trkpt><trkpt lat="43.6103518" lon="11.2392265"><ele>339.0</ele><time>2026-03-28T16:08:01.183Z</time></trkpt><trkpt lat="43.610479" lon="11.2391978"><ele>337.0</ele><time>2026-03-28T16:08:02.182Z</time></trkpt><trkpt lat="43.6106009" lon="11.2391696"><ele>335.0</ele><time>2026-03-28T16:08:03.183Z</time></trkpt><trkpt lat="43.6107184" lon="11.2391443"><ele>333.0</ele><time>2026-03-28T16:08:04.182Z</time></trkpt><trkpt lat="43.6108364" lon="11.2391227"><ele>331.0</ele><time>2026-03-28T16:08:05.183Z</time></trkpt><trkpt lat="43.6109437" lon="11.2390939"><ele>331.0</ele><time>2026-03-28T16:08:06.182Z</time></trkpt><trkpt lat="43.6110521" lon="11.2390616"><ele>331.0</ele><time>2026-03-28T16:08:07.182Z</time></trkpt><trkpt lat="43.611166" lon="11.2390566"><ele>331.0</ele><time>2026-03-28T16:08:08.183Z</time></trkpt><trkpt lat="43.6112815" lon="11.2390958"><ele>331.0</ele><time>2026-03-28T16:08:09.182Z</time></trkpt><trkpt lat="43.6113914" lon="11.2391773"><ele>328.0</ele><time>2026-03-28T16:08:10.182Z</time></trkpt><trkpt lat="43.6114993" lon="11.2392861"><ele>325.0</ele><time>2026-03-28T16:08:11.182Z</time></trkpt><trkpt lat="43.6116115" lon="11.2394065"><ele>322.0</ele><time>2026-03-28T16:08:12.182Z</time></trkpt><trkpt lat="43.6117264" lon="11.2395321"><ele>319.0</ele><time>2026-03-28T16:08:13.183Z</time></trkpt><trkpt lat="43.6118329" lon="11.2396513"><ele>319.0</ele><time>2026-03-28T16:08:14.182Z</time></trkpt><trkpt lat="43.6119366" lon="11.2397728"><ele>319.0</ele><time>2026-03-28T16:08:15.182Z</time></trkpt><trkpt lat="43.6120404" lon="11.2398948"><ele>319.0</ele><time>2026-03-28T16:08:16.183Z</time></trkpt><trkpt lat="43.6121486" lon="11.2400266"><ele>319.0</ele><time>2026-03-28T16:08:17.183Z</time></trkpt><trkpt lat="43.6122593" lon="11.2401545"><ele>320.75</ele><time>2026-03-28T16:08:18.182Z</time></trkpt><trkpt lat="43.6123676" lon="11.2402813"><ele>322.5</ele><time>2026-03-28T16:08:19.183Z</time></trkpt><trkpt lat="43.6124722" lon="11.2404042"><ele>324.25</ele><time>2026-03-28T16:08:20.183Z</time></trkpt><trkpt lat="43.6125702" lon="11.2405081"><ele>326.0</ele><time>2026-03-28T16:08:21.182Z</time></trkpt><trkpt lat="43.612671" lon="11.2405949"><ele>328.0</ele><time>2026-03-28T16:08:22.182Z</time></trkpt><trkpt lat="43.6127762" lon="11.2406532"><ele>330.0</ele><time>2026-03-28T16:08:23.182Z</time></trkpt><trkpt lat="43.6128827" lon="11.2407051"><ele>332.0</ele><time>2026-03-28T16:08:24.182Z</time></trkpt><trkpt lat="43.6129915" lon="11.2407593"><ele>334.0</ele><time>2026-03-28T16:08:25.182Z</time></trkpt><trkpt lat="43.6131087" lon="11.2408281"><ele>334.25</ele><time>2026-03-28T16:08:26.182Z</time></trkpt><trkpt lat="43.6132225" lon="11.2409112"><ele>334.5</ele><time>2026-03-28T16:08:27.182Z</time></trkpt><trkpt lat="43.6133477" lon="11.2410157"><ele>334.75</ele><time>2026-03-28T16:08:28.182Z</time></trkpt><trkpt lat="43.6134779" lon="11.2411276"><ele>335.0</ele><time>2026-03-28T16:08:29.182Z</time></trkpt><trkpt lat="43.6136031" lon="11.2412332"><ele>332.75</ele><time>2026-03-28T16:08:30.183Z</time></trkpt><trkpt lat="43.6137239" lon="11.2413351"><ele>330.5</ele><time>2026-03-28T16:08:31.183Z</time></trkpt><trkpt lat="43.6138463" lon="11.2414346"><ele>328.25</ele><time>2026-03-28T16:08:32.182Z</time></trkpt><trkpt lat="43.6139758" lon="11.2415425"><ele>326.0</ele><time>2026-03-28T16:08:33.182Z</time></trkpt><trkpt lat="43.6141035" lon="11.2416485"><ele>326.0</ele><time>2026-03-28T16:08:34.182Z</time></trkpt><trkpt lat="43.6142314" lon="11.2417547"><ele>326.0</ele><time>2026-03-28T16:08:35.182Z</time></trkpt><trkpt lat="43.6143655" lon="11.2418645"><ele>326.0</ele><time>2026-03-28T16:08:36.182Z</time></trkpt><trkpt lat="43.6144963" lon="11.2419738"><ele>324.0</ele><time>2026-03-28T16:08:37.182Z</time></trkpt><trkpt lat="43.6146343" lon="11.2420898"><ele>322.0</ele><time>2026-03-28T16:08:38.182Z</time></trkpt><trkpt lat="43.6147654" lon="11.2421972"><ele>320.0</ele><time>2026-03-28T16:08:39.182Z</time></trkpt><trkpt lat="43.6148897" lon="11.2423004"><ele>320.0</ele><time>2026-03-28T16:08:40.183Z</time></trkpt><trkpt lat="43.6149998" lon="11.2423861"><ele>320.0</ele><time>2026-03-28T16:08:41.182Z</time></trkpt><trkpt lat="43.6150998" lon="11.2424638"><ele>320.0</ele><time>2026-03-28T16:08:42.183Z</time></trkpt><trkpt lat="43.6151873" lon="11.2425343"><ele>320.0</ele><time>2026-03-28T16:08:43.182Z</time></trkpt><trkpt lat="43.6152586" lon="11.2425967"><ele>320.0</ele><time>2026-03-28T16:08:44.183Z</time></trkpt><trkpt lat="43.6153204" lon="11.2426512"><ele>318.83333333333337</ele><time>2026-03-28T16:08:45.182Z</time></trkpt><trkpt lat="43.6153776" lon="11.2426995"><ele>317.6666666666667</ele><time>2026-03-28T16:08:46.182Z</time></trkpt><trkpt lat="43.6154755" lon="11.2427318"><ele>316.5</ele><time>2026-03-28T16:08:48.183Z</time></trkpt><trkpt lat="43.6155701" lon="11.2426623"><ele>315.3333333333333</ele><time>2026-03-28T16:08:50.183Z</time></trkpt><trkpt lat="43.6156187" lon="11.2425969"><ele>314.16666666666663</ele><time>2026-03-28T16:08:51.182Z</time></trkpt><trkpt lat="43.6156671" lon="11.242511"><ele>313.0</ele><time>2026-03-28T16:08:52.182Z</time></trkpt><trkpt lat="43.6157201" lon="11.2424193"><ele>313.0</ele><time>2026-03-28T16:08:53.182Z</time></trkpt><trkpt lat="43.6157773" lon="11.24232"><ele>313.0</ele><time>2026-03-28T16:08:54.182Z</time></trkpt><trkpt lat="43.6158376" lon="11.2422197"><ele>313.0</ele><time>2026-03-28T16:08:55.182Z</time></trkpt><trkpt lat="43.6159054" lon="11.2421081"><ele>313.0</ele><time>2026-03-28T16:08:56.182Z</time></trkpt><trkpt lat="43.6159762" lon="11.241988"><ele>313.0</ele><time>2026-03-28T16:08:57.182Z</time></trkpt><trkpt lat="43.6160479" lon="11.2418634"><ele>312.75</ele><time>2026-03-28T16:08:58.182Z</time></trkpt><trkpt lat="43.6161221" lon="11.2417335"><ele>312.5</ele><time>2026-03-28T16:08:59.182Z</time></trkpt><trkpt lat="43.6161992" lon="11.2416057"><ele>312.25</ele><time>2026-03-28T16:09:00.183Z</time></trkpt><trkpt lat="43.6162793" lon="11.2414742"><ele>312.0</ele><time>2026-03-28T16:09:01.183Z</time></trkpt><trkpt lat="43.6163572" lon="11.2413388"><ele>311.75</ele><time>2026-03-28T16:09:02.183Z</time></trkpt><trkpt lat="43.616431" lon="11.2411983"><ele>311.5</ele><time>2026-03-28T16:09:03.182Z</time></trkpt><trkpt lat="43.6165086" lon="11.2410663"><ele>311.25</ele><time>2026-03-28T16:09:04.182Z</time></trkpt><trkpt lat="43.6165888" lon="11.2409323"><ele>311.0</ele><time>2026-03-28T16:09:05.183Z</time></trkpt><trkpt lat="43.6166644" lon="11.2407969"><ele>311.0</ele><time>2026-03-28T16:09:06.182Z</time></trkpt><trkpt lat="43.6167409" lon="11.2406697"><ele>311.0</ele><time>2026-03-28T16:09:07.182Z</time></trkpt><trkpt lat="43.6168072" lon="11.240541"><ele>311.0</ele><time>2026-03-28T16:09:08.182Z</time></trkpt><trkpt lat="43.6168617" lon="11.240408"><ele>311.0</ele><time>2026-03-28T16:09:09.182Z</time></trkpt><trkpt lat="43.6169012" lon="11.2402696"><ele>310.75</ele><time>2026-03-28T16:09:10.182Z</time></trkpt><trkpt lat="43.6169342" lon="11.2401202"><ele>310.5</ele><time>2026-03-28T16:09:11.182Z</time></trkpt><trkpt lat="43.6169654" lon="11.2399659"><ele>310.25</ele><time>2026-03-28T16:09:12.182Z</time></trkpt><trkpt lat="43.6169858" lon="11.2398041"><ele>310.0</ele><time>2026-03-28T16:09:13.182Z</time></trkpt><trkpt lat="43.6170072" lon="11.2396408"><ele>309.25</ele><time>2026-03-28T16:09:14.182Z</time></trkpt><trkpt lat="43.6170274" lon="11.2394744"><ele>308.5</ele><time>2026-03-28T16:09:15.183Z</time></trkpt><trkpt lat="43.6170424" lon="11.2393112"><ele>307.75</ele><time>2026-03-28T16:09:16.182Z</time></trkpt><trkpt lat="43.6170589" lon="11.2391459"><ele>307.0</ele><time>2026-03-28T16:09:17.182Z</time></trkpt><trkpt lat="43.6170716" lon="11.2389866"><ele>306.75</ele><time>2026-03-28T16:09:18.182Z</time></trkpt><trkpt lat="43.6170885" lon="11.238826"><ele>306.5</ele><time>2026-03-28T16:09:19.182Z</time></trkpt><trkpt lat="43.617105" lon="11.23866"><ele>306.25</ele><time>2026-03-28T16:09:20.182Z</time></trkpt><trkpt lat="43.6171236" lon="11.238493"><ele>306.0</ele><time>2026-03-28T16:09:21.183Z</time></trkpt><trkpt lat="43.6171422" lon="11.2383191"><ele>306.0</ele><time>2026-03-28T16:09:22.182Z</time></trkpt><trkpt lat="43.6171578" lon="11.2381524"><ele>306.0</ele><time>2026-03-28T16:09:23.183Z</time></trkpt><trkpt lat="43.617175" lon="11.2379903"><ele>306.0</ele><time>2026-03-28T16:09:24.183Z</time></trkpt><trkpt lat="43.6171923" lon="11.2378448"><ele>306.0</ele><time>2026-03-28T16:09:25.182Z</time></trkpt><trkpt lat="43.6172129" lon="11.2377194"><ele>306.0</ele><time>2026-03-28T16:09:26.183Z</time></trkpt><trkpt lat="43.6172416" lon="11.2376163"><ele>305.40000000000003</ele><time>2026-03-28T16:09:27.182Z</time></trkpt><trkpt lat="43.617289" lon="11.2375186"><ele>304.8</ele><time>2026-03-28T16:09:28.182Z</time></trkpt><trkpt lat="43.6173528" lon="11.237419"><ele>304.20000000000005</ele><time>2026-03-28T16:09:29.182Z</time></trkpt><trkpt lat="43.6174159" lon="11.2373022"><ele>303.6</ele><time>2026-03-28T16:09:30.182Z</time></trkpt><trkpt lat="43.6174936" lon="11.2371868"><ele>303.0</ele><time>2026-03-28T16:09:31.183Z</time></trkpt><trkpt lat="43.6175699" lon="11.2370809"><ele>302.8</ele><time>2026-03-28T16:09:32.182Z</time></trkpt><trkpt lat="43.6176363" lon="11.236979"><ele>302.6</ele><time>2026-03-28T16:09:33.182Z</time></trkpt><trkpt lat="43.6177023" lon="11.2368765"><ele>302.4</ele><time>2026-03-28T16:09:34.182Z</time></trkpt><trkpt lat="43.6177638" lon="11.2367759"><ele>302.2</ele><time>2026-03-28T16:09:35.183Z</time></trkpt><trkpt lat="43.6178275" lon="11.236673"><ele>302.0</ele><time>2026-03-28T16:09:36.183Z</time></trkpt><trkpt lat="43.6178851" lon="11.2365784"><ele>301.5</ele><time>2026-03-28T16:09:37.182Z</time></trkpt><trkpt lat="43.6179353" lon="11.2364896"><ele>301.0</ele><time>2026-03-28T16:09:38.182Z</time></trkpt><trkpt lat="43.6179778" lon="11.2363974"><ele>300.5</ele><time>2026-03-28T16:09:39.183Z</time></trkpt><trkpt lat="43.6180186" lon="11.2362896"><ele>300.0</ele><time>2026-03-28T16:09:40.181Z</time></trkpt><trkpt lat="43.6180525" lon="11.2361626"><ele>299.5</ele><time>2026-03-28T16:09:41.183Z</time></trkpt><trkpt lat="43.6180726" lon="11.2360411"><ele>299.0</ele><time>2026-03-28T16:09:42.183Z</time></trkpt><trkpt lat="43.6180899" lon="11.235911"><ele>298.4</ele><time>2026-03-28T16:09:43.182Z</time></trkpt><trkpt lat="43.6181084" lon="11.2357773"><ele>297.79999999999995</ele><time>2026-03-28T16:09:44.182Z</time></trkpt><trkpt lat="43.6181228" lon="11.2356401"><ele>297.20000000000005</ele><time>2026-03-28T16:09:45.182Z</time></trkpt><trkpt lat="43.6181355" lon="11.2354962"><ele>296.6</ele><time>2026-03-28T16:09:46.183Z</time></trkpt><trkpt lat="43.6181482" lon="11.2353488"><ele>296.0</ele><time>2026-03-28T16:09:47.182Z</time></trkpt><trkpt lat="43.6181609" lon="11.2351912"><ele>296.0</ele><time>2026-03-28T16:09:48.182Z</time></trkpt><trkpt lat="43.6181751" lon="11.2350334"><ele>296.0</ele><time>2026-03-28T16:09:49.183Z</time></trkpt><trkpt lat="43.6181938" lon="11.2348788"><ele>296.0</ele><time>2026-03-28T16:09:50.182Z</time></trkpt><trkpt lat="43.6182231" lon="11.234729"><ele>296.0</ele><time>2026-03-28T16:09:51.182Z</time></trkpt><trkpt lat="43.6182625" lon="11.2345937"><ele>296.0</ele><time>2026-03-28T16:09:52.182Z</time></trkpt><trkpt lat="43.6182914" lon="11.2344718"><ele>297.0</ele><time>2026-03-28T16:09:53.183Z</time></trkpt><trkpt lat="43.6183064" lon="11.2343548"><ele>298.0</ele><time>2026-03-28T16:09:54.183Z</time></trkpt><trkpt lat="43.6183051" lon="11.2342582"><ele>299.0</ele><time>2026-03-28T16:09:55.182Z</time></trkpt><trkpt lat="43.6182922" lon="11.2341676"><ele>300.0</ele><time>2026-03-28T16:09:56.182Z</time></trkpt><trkpt lat="43.6182658" lon="11.234062"><ele>301.0</ele><time>2026-03-28T16:09:57.182Z</time></trkpt><trkpt lat="43.618233" lon="11.2339557"><ele>302.0</ele><time>2026-03-28T16:09:58.183Z</time></trkpt><trkpt lat="43.6182077" lon="11.2338645"><ele>302.14285714285717</ele><time>2026-03-28T16:09:59.182Z</time></trkpt><trkpt lat="43.6181896" lon="11.23377"><ele>302.2857142857143</ele><time>2026-03-28T16:10:00.182Z</time></trkpt><trkpt lat="43.6181811" lon="11.2336747"><ele>302.42857142857144</ele><time>2026-03-28T16:10:01.182Z</time></trkpt><trkpt lat="43.618187" lon="11.233583"><ele>302.57142857142856</ele><time>2026-03-28T16:10:02.183Z</time></trkpt><trkpt lat="43.6181973" lon="11.233484"><ele>302.7142857142857</ele><time>2026-03-28T16:10:03.182Z</time></trkpt><trkpt lat="43.6182079" lon="11.2333761"><ele>302.8571428571429</ele><time>2026-03-28T16:10:04.182Z</time></trkpt><trkpt lat="43.618224" lon="11.2332733"><ele>303.0</ele><time>2026-03-28T16:10:05.182Z</time></trkpt><trkpt lat="43.6182467" lon="11.2331681"><ele>302.8</ele><time>2026-03-28T16:10:06.182Z</time></trkpt><trkpt lat="43.6182709" lon="11.2330682"><ele>302.6</ele><time>2026-03-28T16:10:07.182Z</time></trkpt><trkpt lat="43.6183158" lon="11.2329709"><ele>302.4</ele><time>2026-03-28T16:10:08.182Z</time></trkpt><trkpt lat="43.6184297" lon="11.2328326"><ele>302.2</ele><time>2026-03-28T16:10:10.182Z</time></trkpt><trkpt lat="43.6184979" lon="11.2327355"><ele>302.0</ele><time>2026-03-28T16:10:11.182Z</time></trkpt><trkpt lat="43.6185817" lon="11.2326349"><ele>302.0</ele><time>2026-03-28T16:10:12.182Z</time></trkpt><trkpt lat="43.6186504" lon="11.232542"><ele>302.0</ele><time>2026-03-28T16:10:13.183Z</time></trkpt><trkpt lat="43.6187152" lon="11.2324498"><ele>302.0</ele><time>2026-03-28T16:10:14.182Z</time></trkpt><trkpt lat="43.6187987" lon="11.232347"><ele>302.0</ele><time>2026-03-28T16:10:15.181Z</time></trkpt><trkpt lat="43.6188802" lon="11.2322432"><ele>302.0</ele><time>2026-03-28T16:10:16.182Z</time></trkpt><trkpt lat="43.6189623" lon="11.232133"><ele>301.0</ele><time>2026-03-28T16:10:17.182Z</time></trkpt><trkpt lat="43.6190497" lon="11.2320287"><ele>300.0</ele><time>2026-03-28T16:10:18.182Z</time></trkpt><trkpt lat="43.6191459" lon="11.2319128"><ele>299.0</ele><time>2026-03-28T16:10:19.181Z</time></trkpt><trkpt lat="43.6192363" lon="11.2318063"><ele>298.0</ele><time>2026-03-28T16:10:20.182Z</time></trkpt><trkpt lat="43.6193164" lon="11.231715"><ele>298.0</ele><time>2026-03-28T16:10:21.182Z</time></trkpt><trkpt lat="43.619393" lon="11.2316149"><ele>298.0</ele><time>2026-03-28T16:10:22.182Z</time></trkpt><trkpt lat="43.619479" lon="11.2315133"><ele>298.0</ele><time>2026-03-28T16:10:23.182Z</time></trkpt><trkpt lat="43.6195614" lon="11.2314164"><ele>298.0</ele><time>2026-03-28T16:10:24.182Z</time></trkpt><trkpt lat="43.6196491" lon="11.2312992"><ele>298.0</ele><time>2026-03-28T16:10:25.182Z</time></trkpt><trkpt lat="43.6197312" lon="11.2311822"><ele>296.25</ele><time>2026-03-28T16:10:26.183Z</time></trkpt><trkpt lat="43.6198143" lon="11.2310705"><ele>294.5</ele><time>2026-03-28T16:10:27.183Z</time></trkpt><trkpt lat="43.6199029" lon="11.2309631"><ele>292.75</ele><time>2026-03-28T16:10:28.182Z</time></trkpt><trkpt lat="43.6199958" lon="11.2308593"><ele>291.0</ele><time>2026-03-28T16:10:29.182Z</time></trkpt><trkpt lat="43.6200912" lon="11.2307405"><ele>290.75</ele><time>2026-03-28T16:10:30.183Z</time></trkpt><trkpt lat="43.6201877" lon="11.2306284"><ele>290.5</ele><time>2026-03-28T16:10:31.183Z</time></trkpt><trkpt lat="43.6202846" lon="11.2305126"><ele>290.25</ele><time>2026-03-28T16:10:32.182Z</time></trkpt><trkpt lat="43.6203809" lon="11.2303917"><ele>290.0</ele><time>2026-03-28T16:10:33.182Z</time></trkpt><trkpt lat="43.6204756" lon="11.2302718"><ele>290.0</ele><time>2026-03-28T16:10:34.182Z</time></trkpt><trkpt lat="43.6205649" lon="11.2301544"><ele>290.0</ele><time>2026-03-28T16:10:35.183Z</time></trkpt><trkpt lat="43.6206553" lon="11.2300399"><ele>290.0</ele><time>2026-03-28T16:10:36.182Z</time></trkpt><trkpt lat="43.6207469" lon="11.229923"><ele>290.0</ele><time>2026-03-28T16:10:37.182Z</time></trkpt><trkpt lat="43.6208342" lon="11.2298071"><ele>290.25</ele><time>2026-03-28T16:10:38.182Z</time></trkpt><trkpt lat="43.6209212" lon="11.2296892"><ele>290.5</ele><time>2026-03-28T16:10:39.183Z</time></trkpt><trkpt lat="43.6210149" lon="11.2295758"><ele>290.75</ele><time>2026-03-28T16:10:40.183Z</time></trkpt><trkpt lat="43.6211063" lon="11.2294619"><ele>291.0</ele><time>2026-03-28T16:10:41.183Z</time></trkpt><trkpt lat="43.6211976" lon="11.2293463"><ele>291.8</ele><time>2026-03-28T16:10:42.182Z</time></trkpt><trkpt lat="43.6212828" lon="11.2292386"><ele>292.6</ele><time>2026-03-28T16:10:43.181Z</time></trkpt><trkpt lat="43.6213663" lon="11.2291393"><ele>293.4</ele><time>2026-03-28T16:10:44.182Z</time></trkpt><trkpt lat="43.6214592" lon="11.2290468"><ele>294.2</ele><time>2026-03-28T16:10:45.182Z</time></trkpt><trkpt lat="43.6215408" lon="11.2289835"><ele>295.0</ele><time>2026-03-28T16:10:46.182Z</time></trkpt><trkpt lat="43.6216126" lon="11.2289289"><ele>295.0</ele><time>2026-03-28T16:10:47.182Z</time></trkpt><trkpt lat="43.6216627" lon="11.2288631"><ele>295.0</ele><time>2026-03-28T16:10:48.182Z</time></trkpt><trkpt lat="43.6217008" lon="11.2287866"><ele>295.0</ele><time>2026-03-28T16:10:49.182Z</time></trkpt><trkpt lat="43.6217226" lon="11.2286723"><ele>295.0</ele><time>2026-03-28T16:10:50.182Z</time></trkpt><trkpt lat="43.62175" lon="11.2285514"><ele>295.0</ele><time>2026-03-28T16:10:51.182Z</time></trkpt><trkpt lat="43.621777" lon="11.2284017"><ele>295.0</ele><time>2026-03-28T16:10:52.182Z</time></trkpt><trkpt lat="43.6218059" lon="11.228236"><ele>294.0</ele><time>2026-03-28T16:10:53.182Z</time></trkpt><trkpt lat="43.6218331" lon="11.2280707"><ele>293.0</ele><time>2026-03-28T16:10:54.183Z</time></trkpt><trkpt lat="43.6218669" lon="11.2278982"><ele>292.0</ele><time>2026-03-28T16:10:55.182Z</time></trkpt><trkpt lat="43.6219024" lon="11.2277225"><ele>291.0</ele><time>2026-03-28T16:10:56.182Z</time></trkpt><trkpt lat="43.6219366" lon="11.2275524"><ele>291.0</ele><time>2026-03-28T16:10:57.182Z</time></trkpt><trkpt lat="43.621971" lon="11.2273793"><ele>291.0</ele><time>2026-03-28T16:10:58.183Z</time></trkpt><trkpt lat="43.6220054" lon="11.2272031"><ele>291.0</ele><time>2026-03-28T16:10:59.182Z</time></trkpt><trkpt lat="43.6220403" lon="11.2270223"><ele>291.0</ele><time>2026-03-28T16:11:00.182Z</time></trkpt><trkpt lat="43.6220785" lon="11.2268417"><ele>291.5</ele><time>2026-03-28T16:11:01.182Z</time></trkpt><trkpt lat="43.6221176" lon="11.2266606"><ele>292.0</ele><time>2026-03-28T16:11:02.182Z</time></trkpt><trkpt lat="43.6221573" lon="11.2264811"><ele>292.5</ele><time>2026-03-28T16:11:03.183Z</time></trkpt><trkpt lat="43.6221971" lon="11.2263023"><ele>293.0</ele><time>2026-03-28T16:11:04.183Z</time></trkpt><trkpt lat="43.6222367" lon="11.2261235"><ele>293.0</ele><time>2026-03-28T16:11:05.182Z</time></trkpt><trkpt lat="43.6222777" lon="11.2259495"><ele>293.0</ele><time>2026-03-28T16:11:06.183Z</time></trkpt><trkpt lat="43.622317" lon="11.2257755"><ele>293.0</ele><time>2026-03-28T16:11:07.182Z</time></trkpt><trkpt lat="43.6223524" lon="11.2256081"><ele>293.0</ele><time>2026-03-28T16:11:08.181Z</time></trkpt><trkpt lat="43.6223758" lon="11.2254528"><ele>293.0</ele><time>2026-03-28T16:11:09.182Z</time></trkpt><trkpt lat="43.6223799" lon="11.2252966"><ele>293.0</ele><time>2026-03-28T16:11:10.182Z</time></trkpt><trkpt lat="43.6223684" lon="11.2251564"><ele>293.0</ele><time>2026-03-28T16:11:11.183Z</time></trkpt><trkpt lat="43.6223568" lon="11.2250329"><ele>293.0</ele><time>2026-03-28T16:11:12.183Z</time></trkpt><trkpt lat="43.6223596" lon="11.2249052"><ele>293.0</ele><time>2026-03-28T16:11:13.182Z</time></trkpt><trkpt lat="43.6223846" lon="11.2247845"><ele>292.33333333333337</ele><time>2026-03-28T16:11:14.182Z</time></trkpt><trkpt lat="43.6224217" lon="11.2246652"><ele>291.6666666666667</ele><time>2026-03-28T16:11:15.183Z</time></trkpt><trkpt lat="43.6224582" lon="11.2245689"><ele>291.0</ele><time>2026-03-28T16:11:16.182Z</time></trkpt><trkpt lat="43.6224998" lon="11.224487"><ele>290.3333333333333</ele><time>2026-03-28T16:11:17.182Z</time></trkpt><trkpt lat="43.6225549" lon="11.2244287"><ele>289.66666666666663</ele><time>2026-03-28T16:11:18.182Z</time></trkpt><trkpt lat="43.6226258" lon="11.2243863"><ele>289.0</ele><time>2026-03-28T16:11:19.182Z</time></trkpt><trkpt lat="43.6227087" lon="11.2243463"><ele>289.0</ele><time>2026-03-28T16:11:20.183Z</time></trkpt><trkpt lat="43.6227998" lon="11.2243064"><ele>289.0</ele><time>2026-03-28T16:11:21.183Z</time></trkpt><trkpt lat="43.6229" lon="11.2242616"><ele>289.0</ele><time>2026-03-28T16:11:22.182Z</time></trkpt><trkpt lat="43.6230052" lon="11.2242131"><ele>289.0</ele><time>2026-03-28T16:11:23.183Z</time></trkpt><trkpt lat="43.6231142" lon="11.2241616"><ele>289.0</ele><time>2026-03-28T16:11:24.183Z</time></trkpt><trkpt lat="43.6232282" lon="11.2241115"><ele>289.0</ele><time>2026-03-28T16:11:25.182Z</time></trkpt><trkpt lat="43.6233377" lon="11.2240677"><ele>289.0</ele><time>2026-03-28T16:11:26.183Z</time></trkpt><trkpt lat="43.623456" lon="11.2240208"><ele>289.0</ele><time>2026-03-28T16:11:27.182Z</time></trkpt><trkpt lat="43.6235629" lon="11.2239758"><ele>289.0</ele><time>2026-03-28T16:11:28.182Z</time></trkpt><trkpt lat="43.6236746" lon="11.2239371"><ele>286.8</ele><time>2026-03-28T16:11:29.182Z</time></trkpt><trkpt lat="43.6237828" lon="11.223888"><ele>284.59999999999997</ele><time>2026-03-28T16:11:30.183Z</time></trkpt><trkpt lat="43.6238856" lon="11.2238291"><ele>282.4</ele><time>2026-03-28T16:11:31.183Z</time></trkpt><trkpt lat="43.623978" lon="11.2237693"><ele>280.2</ele><time>2026-03-28T16:11:32.182Z</time></trkpt><trkpt lat="43.624063" lon="11.2237165"><ele>278.0</ele><time>2026-03-28T16:11:33.182Z</time></trkpt><trkpt lat="43.6241399" lon="11.2236645"><ele>278.0</ele><time>2026-03-28T16:11:34.182Z</time></trkpt><trkpt lat="43.6242105" lon="11.2236105"><ele>278.0</ele><time>2026-03-28T16:11:35.183Z</time></trkpt><trkpt lat="43.6242883" lon="11.2235608"><ele>278.0</ele><time>2026-03-28T16:11:36.182Z</time></trkpt><trkpt lat="43.6243596" lon="11.223539"><ele>278.0</ele><time>2026-03-28T16:11:37.182Z</time></trkpt><trkpt lat="43.6244214" lon="11.2235047"><ele>278.0</ele><time>2026-03-28T16:11:38.182Z</time></trkpt><trkpt lat="43.6245136" lon="11.2234204"><ele>278.0</ele><time>2026-03-28T16:11:40.183Z</time></trkpt><trkpt lat="43.6245842" lon="11.2233198"><ele>276.6</ele><time>2026-03-28T16:11:42.183Z</time></trkpt><trkpt lat="43.624676" lon="11.2232566"><ele>275.20000000000005</ele><time>2026-03-28T16:11:44.183Z</time></trkpt><trkpt lat="43.6247799" lon="11.223214"><ele>273.8</ele><time>2026-03-28T16:11:46.182Z</time></trkpt><trkpt lat="43.624892" lon="11.2231314"><ele>272.40000000000003</ele><time>2026-03-28T16:11:48.182Z</time></trkpt><trkpt lat="43.6249368" lon="11.2230652"><ele>271.0</ele><time>2026-03-28T16:11:49.183Z</time></trkpt><trkpt lat="43.6249812" lon="11.2229932"><ele>270.6</ele><time>2026-03-28T16:11:50.183Z</time></trkpt><trkpt lat="43.625024" lon="11.2229204"><ele>270.20000000000005</ele><time>2026-03-28T16:11:51.182Z</time></trkpt><trkpt lat="43.6250603" lon="11.2228493"><ele>269.79999999999995</ele><time>2026-03-28T16:11:52.182Z</time></trkpt><trkpt lat="43.6251241" lon="11.2227084"><ele>269.4</ele><time>2026-03-28T16:11:54.183Z</time></trkpt><trkpt lat="43.625185" lon="11.2225725"><ele>269.0</ele><time>2026-03-28T16:11:56.183Z</time></trkpt><trkpt lat="43.625241" lon="11.2224393"><ele>269.0</ele><time>2026-03-28T16:11:58.182Z</time></trkpt><trkpt lat="43.6252722" lon="11.2223622"><ele>269.0</ele><time>2026-03-28T16:11:59.182Z</time></trkpt><trkpt lat="43.625342" lon="11.2222231"><ele>269.0</ele><time>2026-03-28T16:12:01.182Z</time></trkpt><trkpt lat="43.6254027" lon="11.2220857"><ele>269.0</ele><time>2026-03-28T16:12:03.183Z</time></trkpt><trkpt lat="43.6254565" lon="11.221954"><ele>269.0</ele><time>2026-03-28T16:12:05.181Z</time></trkpt><trkpt lat="43.6255092" lon="11.2218407"><ele>264.4</ele><time>2026-03-28T16:12:07.183Z</time></trkpt><trkpt lat="43.6255634" lon="11.2217426"><ele>259.79999999999995</ele><time>2026-03-28T16:12:09.182Z</time></trkpt><trkpt lat="43.6256166" lon="11.2216365"><ele>255.20000000000002</ele><time>2026-03-28T16:12:11.182Z</time></trkpt><trkpt lat="43.6256762" lon="11.2215432"><ele>250.60000000000002</ele><time>2026-03-28T16:12:13.182Z</time></trkpt><trkpt lat="43.6257447" lon="11.2214622"><ele>246.0</ele><time>2026-03-28T16:12:15.183Z</time></trkpt><trkpt lat="43.6258224" lon="11.221391"><ele>242.8</ele><time>2026-03-28T16:12:17.182Z</time></trkpt><trkpt lat="43.6259123" lon="11.2213286"><ele>239.60000000000002</ele><time>2026-03-28T16:12:19.181Z</time></trkpt><trkpt lat="43.6260056" lon="11.2212595"><ele>236.4</ele><time>2026-03-28T16:12:21.183Z</time></trkpt><trkpt lat="43.6261014" lon="11.2211936"><ele>233.2</ele><time>2026-03-28T16:12:23.182Z</time></trkpt><trkpt lat="43.6261991" lon="11.2211304"><ele>230.0</ele><time>2026-03-28T16:12:25.183Z</time></trkpt><trkpt lat="43.6262984" lon="11.2210691"><ele>229.0</ele><time>2026-03-28T16:12:27.182Z</time></trkpt><trkpt lat="43.6263961" lon="11.2210083"><ele>228.0</ele><time>2026-03-28T16:12:29.182Z</time></trkpt><trkpt lat="43.6265026" lon="11.220952"><ele>227.0</ele><time>2026-03-28T16:12:31.182Z</time></trkpt><trkpt lat="43.6266087" lon="11.2209106"><ele>226.0</ele><time>2026-03-28T16:12:33.182Z</time></trkpt><trkpt lat="43.6267083" lon="11.2208906"><ele>225.0</ele><time>2026-03-28T16:12:35.182Z</time></trkpt><trkpt lat="43.626795" lon="11.2208646"><ele>225.0</ele><time>2026-03-28T16:12:37.182Z</time></trkpt><trkpt lat="43.6268504" lon="11.2207926"><ele>225.0</ele><time>2026-03-28T16:12:39.183Z</time></trkpt><trkpt lat="43.6269008" lon="11.2207131"><ele>225.0</ele><time>2026-03-28T16:12:41.183Z</time></trkpt><trkpt lat="43.6269349" lon="11.2206285"><ele>225.0</ele><time>2026-03-28T16:12:43.182Z</time></trkpt><trkpt lat="43.6269743" lon="11.2205499"><ele>225.0</ele><time>2026-03-28T16:12:46.182Z</time></trkpt><trkpt lat="43.6270345" lon="11.2204655"><ele>225.0</ele><time>2026-03-28T16:12:49.182Z</time></trkpt><trkpt lat="43.6270913" lon="11.2204045"><ele>222.16666666666666</ele><time>2026-03-28T16:12:51.181Z</time></trkpt><trkpt lat="43.6271116" lon="11.2202919"><ele>219.33333333333331</ele><time>2026-03-28T16:12:54.182Z</time></trkpt><trkpt lat="43.6270642" lon="11.2202285"><ele>216.5</ele><time>2026-03-28T16:12:56.182Z</time></trkpt><trkpt lat="43.6269953" lon="11.2201946"><ele>213.66666666666666</ele><time>2026-03-28T16:12:58.182Z</time></trkpt><trkpt lat="43.6269214" lon="11.2201789"><ele>210.83333333333331</ele><time>2026-03-28T16:13:00.183Z</time></trkpt><trkpt lat="43.6268276" lon="11.220168"><ele>208.0</ele><time>2026-03-28T16:13:02.182Z</time></trkpt><trkpt lat="43.6267149" lon="11.2201478"><ele>208.0</ele><time>2026-03-28T16:13:04.182Z</time></trkpt><trkpt lat="43.6266008" lon="11.2201221"><ele>208.0</ele><time>2026-03-28T16:13:06.182Z</time></trkpt><trkpt lat="43.6264797" lon="11.2200703"><ele>208.0</ele><time>2026-03-28T16:13:08.183Z</time></trkpt><trkpt lat="43.6263666" lon="11.2200056"><ele>208.0</ele><time>2026-03-28T16:13:10.183Z</time></trkpt><trkpt lat="43.6262828" lon="11.2199264"><ele>207.99999999999997</ele><time>2026-03-28T16:13:12.183Z</time></trkpt><trkpt lat="43.6262241" lon="11.2198717"><ele>208.0</ele><time>2026-03-28T16:13:14.182Z</time></trkpt><trkpt lat="43.6261821" lon="11.2198043"><ele>208.0</ele><time>2026-03-28T16:13:18.182Z</time></trkpt><trkpt lat="43.6261988" lon="11.2197046"><ele>208.0</ele><time>2026-03-28T16:13:21.182Z</time></trkpt><trkpt lat="43.6262959" lon="11.2197031"><ele>207.99999999999997</ele><time>2026-03-28T16:13:23.183Z</time></trkpt><trkpt lat="43.6264233" lon="11.2197091"><ele>208.0</ele><time>2026-03-28T16:13:25.183Z</time></trkpt><trkpt lat="43.6264991" lon="11.2197041"><ele>206.16666666666666</ele><time>2026-03-28T16:13:26.183Z</time></trkpt><trkpt lat="43.6265746" lon="11.2196963"><ele>204.33333333333331</ele><time>2026-03-28T16:13:27.181Z</time></trkpt><trkpt lat="43.6266498" lon="11.2196899"><ele>202.5</ele><time>2026-03-28T16:13:28.183Z</time></trkpt><trkpt lat="43.6267252" lon="11.2196858"><ele>200.66666666666669</ele><time>2026-03-28T16:13:29.183Z</time></trkpt><trkpt lat="43.626807" lon="11.2196816"><ele>198.83333333333334</ele><time>2026-03-28T16:13:30.182Z</time></trkpt><trkpt lat="43.6268881" lon="11.2196784"><ele>197.0</ele><time>2026-03-28T16:13:31.183Z</time></trkpt><trkpt lat="43.6269701" lon="11.2196771"><ele>196.83333333333334</ele><time>2026-03-28T16:13:32.182Z</time></trkpt><trkpt lat="43.6270497" lon="11.2196899"><ele>196.66666666666669</ele><time>2026-03-28T16:13:33.183Z</time></trkpt><trkpt lat="43.6271225" lon="11.2197032"><ele>196.5</ele><time>2026-03-28T16:13:34.182Z</time></trkpt><trkpt lat="43.6271998" lon="11.2197197"><ele>196.33333333333331</ele><time>2026-03-28T16:13:35.182Z</time></trkpt><trkpt lat="43.6272795" lon="11.2197389"><ele>196.16666666666666</ele><time>2026-03-28T16:13:36.183Z</time></trkpt><trkpt lat="43.6273532" lon="11.2197586"><ele>196.0</ele><time>2026-03-28T16:13:37.182Z</time></trkpt><trkpt lat="43.6274284" lon="11.2197846"><ele>195.99999999999997</ele><time>2026-03-28T16:13:38.183Z</time></trkpt><trkpt lat="43.6275034" lon="11.2198038"><ele>196.0</ele><time>2026-03-28T16:13:39.182Z</time></trkpt><trkpt lat="43.6275923" lon="11.2198353"><ele>196.0</ele><time>2026-03-28T16:13:40.183Z</time></trkpt><trkpt lat="43.6276636" lon="11.2198539"><ele>196.0</ele><time>2026-03-28T16:13:41.182Z</time></trkpt><trkpt lat="43.6277592" lon="11.2198326"><ele>195.99999999999997</ele><time>2026-03-28T16:13:43.182Z</time></trkpt><trkpt lat="43.6277771" lon="11.2197347"><ele>196.0</ele><time>2026-03-28T16:13:45.183Z</time></trkpt><trkpt lat="43.6277548" lon="11.2195552"><ele>195.99999999999997</ele><time>2026-03-28T16:13:47.182Z</time></trkpt><trkpt lat="43.6277414" lon="11.2194465"><ele>196.0</ele><time>2026-03-28T16:13:48.182Z</time></trkpt><trkpt lat="43.6277317" lon="11.2193402"><ele>196.0</ele><time>2026-03-28T16:13:49.183Z</time></trkpt><trkpt lat="43.6277187" lon="11.2192242"><ele>196.0</ele><time>2026-03-28T16:13:50.182Z</time></trkpt><trkpt lat="43.6277022" lon="11.2191104"><ele>195.99999999999997</ele><time>2026-03-28T16:13:51.182Z</time></trkpt><trkpt lat="43.6276756" lon="11.2189856"><ele>196.0</ele><time>2026-03-28T16:13:52.183Z</time></trkpt><trkpt lat="43.6276597" lon="11.2188655"><ele>195.83333333333331</ele><time>2026-03-28T16:13:53.182Z</time></trkpt><trkpt lat="43.6276647" lon="11.2187537"><ele>195.66666666666666</ele><time>2026-03-28T16:13:54.182Z</time></trkpt><trkpt lat="43.6276839" lon="11.218635"><ele>195.5</ele><time>2026-03-28T16:13:55.182Z</time></trkpt><trkpt lat="43.6277199" lon="11.2185216"><ele>195.33333333333331</ele><time>2026-03-28T16:13:56.182Z</time></trkpt><trkpt lat="43.6277623" lon="11.2184182"><ele>195.16666666666666</ele><time>2026-03-28T16:13:57.183Z</time></trkpt><trkpt lat="43.6278202" lon="11.2183063"><ele>195.0</ele><time>2026-03-28T16:13:58.182Z</time></trkpt><trkpt lat="43.6278716" lon="11.2181966"><ele>194.4</ele><time>2026-03-28T16:13:59.181Z</time></trkpt><trkpt lat="43.627925" lon="11.2180744"><ele>193.8</ele><time>2026-03-28T16:14:00.182Z</time></trkpt><trkpt lat="43.6279828" lon="11.2179654"><ele>193.2</ele><time>2026-03-28T16:14:01.182Z</time></trkpt><trkpt lat="43.6280426" lon="11.2178464"><ele>192.6</ele><time>2026-03-28T16:14:02.183Z</time></trkpt><trkpt lat="43.6281024" lon="11.2177271"><ele>192.0</ele><time>2026-03-28T16:14:03.182Z</time></trkpt><trkpt lat="43.6281702" lon="11.2176093"><ele>192.0</ele><time>2026-03-28T16:14:04.182Z</time></trkpt><trkpt lat="43.6282379" lon="11.2175059"><ele>192.0</ele><time>2026-03-28T16:14:05.182Z</time></trkpt><trkpt lat="43.6283015" lon="11.2173989"><ele>192.0</ele><time>2026-03-28T16:14:06.183Z</time></trkpt><trkpt lat="43.6283687" lon="11.2172811"><ele>192.0</ele><time>2026-03-28T16:14:07.182Z</time></trkpt><trkpt lat="43.6284385" lon="11.2171664"><ele>192.0</ele><time>2026-03-28T16:14:08.182Z</time></trkpt><trkpt lat="43.6285048" lon="11.2170541"><ele>191.8</ele><time>2026-03-28T16:14:09.183Z</time></trkpt><trkpt lat="43.6285722" lon="11.216939"><ele>191.6</ele><time>2026-03-28T16:14:10.181Z</time></trkpt><trkpt lat="43.6286381" lon="11.2168202"><ele>191.4</ele><time>2026-03-28T16:14:11.183Z</time></trkpt><trkpt lat="43.6287065" lon="11.2167071"><ele>191.20000000000002</ele><time>2026-03-28T16:14:12.183Z</time></trkpt><trkpt lat="43.6287719" lon="11.2165921"><ele>191.0</ele><time>2026-03-28T16:14:13.182Z</time></trkpt><trkpt lat="43.6288397" lon="11.2164647"><ele>191.0</ele><time>2026-03-28T16:14:14.183Z</time></trkpt><trkpt lat="43.6289138" lon="11.2163413"><ele>191.0</ele><time>2026-03-28T16:14:15.183Z</time></trkpt><trkpt lat="43.6290001" lon="11.2162433"><ele>191.0</ele><time>2026-03-28T16:14:16.182Z</time></trkpt><trkpt lat="43.6290907" lon="11.2161509"><ele>191.0</ele><time>2026-03-28T16:14:17.182Z</time></trkpt><trkpt lat="43.6291728" lon="11.2160833"><ele>191.0</ele><time>2026-03-28T16:14:18.183Z</time></trkpt><trkpt lat="43.6292558" lon="11.21602"><ele>191.0</ele><time>2026-03-28T16:14:19.182Z</time></trkpt><trkpt lat="43.6293401" lon="11.2159486"><ele>191.0</ele><time>2026-03-28T16:14:20.182Z</time></trkpt><trkpt lat="43.6294275" lon="11.2158979"><ele>191.0</ele><time>2026-03-28T16:14:21.183Z</time></trkpt><trkpt lat="43.6295008" lon="11.2158293"><ele>191.0</ele><time>2026-03-28T16:14:22.182Z</time></trkpt><trkpt lat="43.629569" lon="11.2157323"><ele>191.0</ele><time>2026-03-28T16:14:23.183Z</time></trkpt><trkpt lat="43.6296399" lon="11.2156285"><ele>190.4</ele><time>2026-03-28T16:14:24.182Z</time></trkpt><trkpt lat="43.6296916" lon="11.2155161"><ele>189.8</ele><time>2026-03-28T16:14:25.183Z</time></trkpt><trkpt lat="43.6297435" lon="11.2154122"><ele>189.20000000000002</ele><time>2026-03-28T16:14:26.182Z</time></trkpt><trkpt lat="43.6298032" lon="11.2153152"><ele>188.60000000000002</ele><time>2026-03-28T16:14:27.182Z</time></trkpt><trkpt lat="43.6298672" lon="11.2152089"><ele>188.0</ele><time>2026-03-28T16:14:28.183Z</time></trkpt><trkpt lat="43.629935" lon="11.2151009"><ele>188.0</ele><time>2026-03-28T16:14:29.182Z</time></trkpt><trkpt lat="43.6300067" lon="11.2149969"><ele>188.0</ele><time>2026-03-28T16:14:30.183Z</time></trkpt><trkpt lat="43.6300741" lon="11.2148968"><ele>188.0</ele><time>2026-03-28T16:14:31.182Z</time></trkpt><trkpt lat="43.6301433" lon="11.2147925"><ele>188.0</ele><time>2026-03-28T16:14:32.182Z</time></trkpt><trkpt lat="43.6302" lon="11.2146818"><ele>188.0</ele><time>2026-03-28T16:14:33.182Z</time></trkpt><trkpt lat="43.6302592" lon="11.2145609"><ele>188.0</ele><time>2026-03-28T16:14:34.182Z</time></trkpt><trkpt lat="43.6303198" lon="11.2144482"><ele>188.0</ele><time>2026-03-28T16:14:35.183Z</time></trkpt><trkpt lat="43.6303745" lon="11.2143021"><ele>188.0</ele><time>2026-03-28T16:14:36.181Z</time></trkpt><trkpt lat="43.6304194" lon="11.2141728"><ele>188.0</ele><time>2026-03-28T16:14:37.182Z</time></trkpt><trkpt lat="43.6304537" lon="11.2140446"><ele>188.0</ele><time>2026-03-28T16:14:38.182Z</time></trkpt><trkpt lat="43.6304718" lon="11.2138986"><ele>188.0</ele><time>2026-03-28T16:14:39.183Z</time></trkpt><trkpt lat="43.63049" lon="11.2137639"><ele>188.0</ele><time>2026-03-28T16:14:40.182Z</time></trkpt><trkpt lat="43.6305219" lon="11.2136215"><ele>188.0</ele><time>2026-03-28T16:14:41.182Z</time></trkpt><trkpt lat="43.630557" lon="11.2134871"><ele>188.0</ele><time>2026-03-28T16:14:42.183Z</time></trkpt><trkpt lat="43.6306015" lon="11.2133599"><ele>188.0</ele><time>2026-03-28T16:14:43.183Z</time></trkpt><trkpt lat="43.6306536" lon="11.213269"><ele>188.0</ele><time>2026-03-28T16:14:44.182Z</time></trkpt><trkpt lat="43.6307237" lon="11.2131905"><ele>188.0</ele><time>2026-03-28T16:14:45.183Z</time></trkpt><trkpt lat="43.6308016" lon="11.2131054"><ele>188.0</ele><time>2026-03-28T16:14:46.183Z</time></trkpt><trkpt lat="43.6308959" lon="11.2130346"><ele>188.0</ele><time>2026-03-28T16:14:47.181Z</time></trkpt><trkpt lat="43.6309926" lon="11.2129563"><ele>188.0</ele><time>2026-03-28T16:14:48.182Z</time></trkpt><trkpt lat="43.6310912" lon="11.2128857"><ele>188.0</ele><time>2026-03-28T16:14:49.183Z</time></trkpt><trkpt lat="43.6311838" lon="11.2128373"><ele>188.0</ele><time>2026-03-28T16:14:50.182Z</time></trkpt><trkpt lat="43.6312663" lon="11.2127844"><ele>188.0</ele><time>2026-03-28T16:14:51.181Z</time></trkpt><trkpt lat="43.6313349" lon="11.2127156"><ele>188.0</ele><time>2026-03-28T16:14:52.182Z</time></trkpt><trkpt lat="43.63138" lon="11.2126384"><ele>188.0</ele><time>2026-03-28T16:14:53.183Z</time></trkpt><trkpt lat="43.6314014" lon="11.2125503"><ele>188.0</ele><time>2026-03-28T16:14:54.182Z</time></trkpt><trkpt lat="43.6313736" lon="11.2124071"><ele>188.0</ele><time>2026-03-28T16:14:56.182Z</time></trkpt><trkpt lat="43.631325" lon="11.2123488"><ele>188.0</ele><time>2026-03-28T16:14:57.183Z</time></trkpt><trkpt lat="43.6312608" lon="11.2122987"><ele>188.0</ele><time>2026-03-28T16:14:58.183Z</time></trkpt><trkpt lat="43.6311924" lon="11.2122395"><ele>188.0</ele><time>2026-03-28T16:14:59.182Z</time></trkpt><trkpt lat="43.6311489" lon="11.2121592"><ele>188.0</ele><time>2026-03-28T16:15:00.183Z</time></trkpt><trkpt lat="43.6311325" lon="11.2120009"><ele>188.0</ele><time>2026-03-28T16:15:02.183Z</time></trkpt><trkpt lat="43.6311678" lon="11.2118334"><ele>187.33333333333331</ele><time>2026-03-28T16:15:04.182Z</time></trkpt><trkpt lat="43.6312006" lon="11.2117432"><ele>186.66666666666666</ele><time>2026-03-28T16:15:05.182Z</time></trkpt><trkpt lat="43.6312362" lon="11.2116441"><ele>186.0</ele><time>2026-03-28T16:15:06.182Z</time></trkpt><trkpt lat="43.6312838" lon="11.2115337"><ele>185.33333333333334</ele><time>2026-03-28T16:15:07.183Z</time></trkpt><trkpt lat="43.6313374" lon="11.2114227"><ele>184.66666666666669</ele><time>2026-03-28T16:15:08.182Z</time></trkpt><trkpt lat="43.631392" lon="11.2113013"><ele>184.0</ele><time>2026-03-28T16:15:09.182Z</time></trkpt><trkpt lat="43.6314593" lon="11.2111779"><ele>183.75</ele><time>2026-03-28T16:15:10.182Z</time></trkpt><trkpt lat="43.6315298" lon="11.2110539"><ele>183.5</ele><time>2026-03-28T16:15:11.183Z</time></trkpt><trkpt lat="43.6316046" lon="11.2109401"><ele>183.25</ele><time>2026-03-28T16:15:12.182Z</time></trkpt><trkpt lat="43.6316851" lon="11.2108211"><ele>183.0</ele><time>2026-03-28T16:15:13.182Z</time></trkpt><trkpt lat="43.6317618" lon="11.2107112"><ele>182.2</ele><time>2026-03-28T16:15:14.183Z</time></trkpt><trkpt lat="43.6318389" lon="11.2106236"><ele>181.4</ele><time>2026-03-28T16:15:15.182Z</time></trkpt><trkpt lat="43.6319056" lon="11.2105175"><ele>180.6</ele><time>2026-03-28T16:15:16.182Z</time></trkpt><trkpt lat="43.6319741" lon="11.2104031"><ele>179.79999999999998</ele><time>2026-03-28T16:15:17.183Z</time></trkpt><trkpt lat="43.6320497" lon="11.2103047"><ele>179.0</ele><time>2026-03-28T16:15:18.181Z</time></trkpt><trkpt lat="43.6321144" lon="11.210218"><ele>179.0</ele><time>2026-03-28T16:15:19.182Z</time></trkpt><trkpt lat="43.6321774" lon="11.210127"><ele>179.0</ele><time>2026-03-28T16:15:20.183Z</time></trkpt><trkpt lat="43.6322207" lon="11.2100519"><ele>179.0</ele><time>2026-03-28T16:15:21.182Z</time></trkpt><trkpt lat="43.6322581" lon="11.2099763"><ele>179.0</ele><time>2026-03-28T16:15:22.182Z</time></trkpt><trkpt lat="43.6322467" lon="11.2098225"><ele>179.0</ele><time>2026-03-28T16:15:24.182Z</time></trkpt><trkpt lat="43.6321943" lon="11.2097445"><ele>179.0</ele><time>2026-03-28T16:15:25.183Z</time></trkpt><trkpt lat="43.6321281" lon="11.2096704"><ele>178.2</ele><time>2026-03-28T16:15:26.182Z</time></trkpt><trkpt lat="43.6320475" lon="11.2095979"><ele>177.39999999999998</ele><time>2026-03-28T16:15:27.182Z</time></trkpt><trkpt lat="43.6319658" lon="11.209517"><ele>176.6</ele><time>2026-03-28T16:15:28.182Z</time></trkpt><trkpt lat="43.6318951" lon="11.209448"><ele>175.8</ele><time>2026-03-28T16:15:29.182Z</time></trkpt><trkpt lat="43.6318438" lon="11.2093806"><ele>175.0</ele><time>2026-03-28T16:15:30.182Z</time></trkpt><trkpt lat="43.631821" lon="11.2092316"><ele>175.5</ele><time>2026-03-28T16:15:32.182Z</time></trkpt><trkpt lat="43.6318515" lon="11.2091487"><ele>176.0</ele><time>2026-03-28T16:15:33.183Z</time></trkpt><trkpt lat="43.6319014" lon="11.2090722"><ele>176.5</ele><time>2026-03-28T16:15:34.183Z</time></trkpt><trkpt lat="43.6319673" lon="11.2089846"><ele>177.0</ele><time>2026-03-28T16:15:35.183Z</time></trkpt><trkpt lat="43.6320406" lon="11.2088856"><ele>177.5</ele><time>2026-03-28T16:15:36.182Z</time></trkpt><trkpt lat="43.6321118" lon="11.2087938"><ele>178.0</ele><time>2026-03-28T16:15:37.182Z</time></trkpt><trkpt lat="43.6321867" lon="11.2087174"><ele>178.0</ele><time>2026-03-28T16:15:38.182Z</time></trkpt><trkpt lat="43.6322706" lon="11.2086633"><ele>178.0</ele><time>2026-03-28T16:15:39.182Z</time></trkpt><trkpt lat="43.632359" lon="11.2086126"><ele>178.0</ele><time>2026-03-28T16:15:40.182Z</time></trkpt><trkpt lat="43.6324483" lon="11.2085435"><ele>178.0</ele><time>2026-03-28T16:15:41.183Z</time></trkpt><trkpt lat="43.6325397" lon="11.2084564"><ele>178.0</ele><time>2026-03-28T16:15:42.183Z</time></trkpt><trkpt lat="43.632631" lon="11.2083572"><ele>178.0</ele><time>2026-03-28T16:15:43.182Z</time></trkpt><trkpt lat="43.6327191" lon="11.2082548"><ele>178.0</ele><time>2026-03-28T16:15:44.182Z</time></trkpt><trkpt lat="43.6327936" lon="11.2081586"><ele>178.0</ele><time>2026-03-28T16:15:45.182Z</time></trkpt><trkpt lat="43.6328581" lon="11.2080647"><ele>178.0</ele><time>2026-03-28T16:15:46.183Z</time></trkpt><trkpt lat="43.6329011" lon="11.2079712"><ele>178.0</ele><time>2026-03-28T16:15:47.183Z</time></trkpt><trkpt lat="43.6329218" lon="11.2078667"><ele>177.66666666666669</ele><time>2026-03-28T16:15:48.182Z</time></trkpt><trkpt lat="43.6329249" lon="11.207748"><ele>177.33333333333334</ele><time>2026-03-28T16:15:49.182Z</time></trkpt><trkpt lat="43.6329073" lon="11.2076368"><ele>177.0</ele><time>2026-03-28T16:15:50.183Z</time></trkpt><trkpt lat="43.6328721" lon="11.2075203"><ele>176.66666666666666</ele><time>2026-03-28T16:15:51.182Z</time></trkpt><trkpt lat="43.6328279" lon="11.2073994"><ele>176.33333333333331</ele><time>2026-03-28T16:15:52.183Z</time></trkpt><trkpt lat="43.6328062" lon="11.2072763"><ele>176.0</ele><time>2026-03-28T16:15:53.182Z</time></trkpt><trkpt lat="43.632802" lon="11.2071442"><ele>175.60000000000002</ele><time>2026-03-28T16:15:54.182Z</time></trkpt><trkpt lat="43.6328191" lon="11.2070157"><ele>175.2</ele><time>2026-03-28T16:15:55.182Z</time></trkpt><trkpt lat="43.6328528" lon="11.2068736"><ele>174.8</ele><time>2026-03-28T16:15:56.183Z</time></trkpt><trkpt lat="43.6328998" lon="11.206737"><ele>174.39999999999998</ele><time>2026-03-28T16:15:57.182Z</time></trkpt><trkpt lat="43.6329578" lon="11.206609"><ele>174.0</ele><time>2026-03-28T16:15:58.182Z</time></trkpt><trkpt lat="43.6330186" lon="11.2064722"><ele>173.25</ele><time>2026-03-28T16:15:59.183Z</time></trkpt><trkpt lat="43.6330717" lon="11.2063254"><ele>172.5</ele><time>2026-03-28T16:16:00.182Z</time></trkpt><trkpt lat="43.6331136" lon="11.2061648"><ele>171.75</ele><time>2026-03-28T16:16:01.183Z</time></trkpt><trkpt lat="43.6331505" lon="11.2059946"><ele>171.0</ele><time>2026-03-28T16:16:02.182Z</time></trkpt><trkpt lat="43.6331931" lon="11.20582"><ele>171.0</ele><time>2026-03-28T16:16:03.181Z</time></trkpt><trkpt lat="43.6332355" lon="11.2056635"><ele>171.0</ele><time>2026-03-28T16:16:04.183Z</time></trkpt><trkpt lat="43.6332745" lon="11.2055193"><ele>171.0</ele><time>2026-03-28T16:16:05.182Z</time></trkpt><trkpt lat="43.6333248" lon="11.2053783"><ele>171.0</ele><time>2026-03-28T16:16:06.183Z</time></trkpt><trkpt lat="43.6333819" lon="11.2052496"><ele>171.60000000000002</ele><time>2026-03-28T16:16:07.182Z</time></trkpt><trkpt lat="43.6334459" lon="11.2051329"><ele>172.2</ele><time>2026-03-28T16:16:08.182Z</time></trkpt><trkpt lat="43.6335074" lon="11.2050199"><ele>172.8</ele><time>2026-03-28T16:16:09.181Z</time></trkpt><trkpt lat="43.6335624" lon="11.204905"><ele>173.39999999999998</ele><time>2026-03-28T16:16:10.183Z</time></trkpt><trkpt lat="43.6336087" lon="11.2047781"><ele>174.0</ele><time>2026-03-28T16:16:11.183Z</time></trkpt><trkpt lat="43.6336511" lon="11.2046416"><ele>172.5</ele><time>2026-03-28T16:16:12.183Z</time></trkpt><trkpt lat="43.6336942" lon="11.2044885"><ele>171.0</ele><time>2026-03-28T16:16:13.183Z</time></trkpt><trkpt lat="43.633739" lon="11.2043319"><ele>169.5</ele><time>2026-03-28T16:16:14.182Z</time></trkpt><trkpt lat="43.6337791" lon="11.2041844"><ele>168.0</ele><time>2026-03-28T16:16:15.182Z</time></trkpt><trkpt lat="43.6338144" lon="11.204048"><ele>168.0</ele><time>2026-03-28T16:16:16.183Z</time></trkpt><trkpt lat="43.6338479" lon="11.2039238"><ele>168.0</ele><time>2026-03-28T16:16:17.183Z</time></trkpt><trkpt lat="43.633883" lon="11.2038077"><ele>168.0</ele><time>2026-03-28T16:16:18.182Z</time></trkpt><trkpt lat="43.63392" lon="11.2036964"><ele>168.0</ele><time>2026-03-28T16:16:19.182Z</time></trkpt><trkpt lat="43.6339543" lon="11.2035875"><ele>168.0</ele><time>2026-03-28T16:16:20.183Z</time></trkpt><trkpt lat="43.6339962" lon="11.2034811"><ele>168.0</ele><time>2026-03-28T16:16:21.182Z</time></trkpt><trkpt lat="43.6340438" lon="11.2033884"><ele>168.0</ele><time>2026-03-28T16:16:22.183Z</time></trkpt><trkpt lat="43.6340926" lon="11.2033139"><ele>168.0</ele><time>2026-03-28T16:16:23.182Z</time></trkpt><trkpt lat="43.6341504" lon="11.2032401"><ele>168.0</ele><time>2026-03-28T16:16:24.183Z</time></trkpt><trkpt lat="43.6342015" lon="11.2031681"><ele>168.0</ele><time>2026-03-28T16:16:25.183Z</time></trkpt><trkpt lat="43.6342319" lon="11.2030834"><ele>168.0</ele><time>2026-03-28T16:16:26.182Z</time></trkpt><trkpt lat="43.6342541" lon="11.2029897"><ele>168.0</ele><time>2026-03-28T16:16:27.182Z</time></trkpt><trkpt lat="43.6342578" lon="11.2028987"><ele>168.0</ele><time>2026-03-28T16:16:28.183Z</time></trkpt><trkpt lat="43.6342394" lon="11.2028067"><ele>168.0</ele><time>2026-03-28T16:16:29.183Z</time></trkpt><trkpt lat="43.6342007" lon="11.2027158"><ele>168.0</ele><time>2026-03-28T16:16:30.183Z</time></trkpt><trkpt lat="43.6341482" lon="11.2026286"><ele>168.0</ele><time>2026-03-28T16:16:31.182Z</time></trkpt><trkpt lat="43.6341016" lon="11.2025422"><ele>168.0</ele><time>2026-03-28T16:16:32.182Z</time></trkpt><trkpt lat="43.6340729" lon="11.2024545"><ele>168.0</ele><time>2026-03-28T16:16:33.183Z</time></trkpt><trkpt lat="43.634062" lon="11.2023574"><ele>168.0</ele><time>2026-03-28T16:16:34.183Z</time></trkpt><trkpt lat="43.6340786" lon="11.2022597"><ele>167.60000000000002</ele><time>2026-03-28T16:16:35.182Z</time></trkpt><trkpt lat="43.6341129" lon="11.2021565"><ele>167.20000000000002</ele><time>2026-03-28T16:16:36.182Z</time></trkpt><trkpt lat="43.6341519" lon="11.2020458"><ele>166.8</ele><time>2026-03-28T16:16:37.181Z</time></trkpt><trkpt lat="43.6341951" lon="11.2019254"><ele>166.4</ele><time>2026-03-28T16:16:38.182Z</time></trkpt><trkpt lat="43.6342397" lon="11.2017986"><ele>166.0</ele><time>2026-03-28T16:16:39.182Z</time></trkpt><trkpt lat="43.6342863" lon="11.2016713"><ele>166.0</ele><time>2026-03-28T16:16:40.184Z</time></trkpt><trkpt lat="43.6343399" lon="11.2015478"><ele>166.0</ele><time>2026-03-28T16:16:41.183Z</time></trkpt><trkpt lat="43.6343979" lon="11.2014273"><ele>166.0</ele><time>2026-03-28T16:16:42.182Z</time></trkpt><trkpt lat="43.6344545" lon="11.201312"><ele>166.0</ele><time>2026-03-28T16:16:43.181Z</time></trkpt><trkpt lat="43.634512" lon="11.2011992"><ele>166.0</ele><time>2026-03-28T16:16:44.181Z</time></trkpt><trkpt lat="43.6345727" lon="11.2010832"><ele>165.20000000000002</ele><time>2026-03-28T16:16:45.181Z</time></trkpt><trkpt lat="43.6346245" lon="11.2009613"><ele>164.4</ele><time>2026-03-28T16:16:46.182Z</time></trkpt><trkpt lat="43.6346645" lon="11.2008267"><ele>163.6</ele><time>2026-03-28T16:16:47.183Z</time></trkpt><trkpt lat="43.634692" lon="11.2006856"><ele>162.8</ele><time>2026-03-28T16:16:48.182Z</time></trkpt><trkpt lat="43.6347066" lon="11.2005316"><ele>162.0</ele><time>2026-03-28T16:16:49.181Z</time></trkpt><trkpt lat="43.6347029" lon="11.2003908"><ele>162.0</ele><time>2026-03-28T16:16:50.181Z</time></trkpt><trkpt lat="43.6346818" lon="11.2002667"><ele>162.0</ele><time>2026-03-28T16:16:51.183Z</time></trkpt><trkpt lat="43.634641" lon="11.2001477"><ele>162.0</ele><time>2026-03-28T16:16:52.183Z</time></trkpt><trkpt lat="43.6345928" lon="11.2000527"><ele>162.0</ele><time>2026-03-28T16:16:53.181Z</time></trkpt><trkpt lat="43.634547" lon="11.1999583"><ele>162.0</ele><time>2026-03-28T16:16:54.181Z</time></trkpt><trkpt lat="43.6345219" lon="11.1998662"><ele>162.0</ele><time>2026-03-28T16:16:55.182Z</time></trkpt><trkpt lat="43.6345071" lon="11.1997777"><ele>161.6</ele><time>2026-03-28T16:16:56.182Z</time></trkpt><trkpt lat="43.6345037" lon="11.19962"><ele>161.2</ele><time>2026-03-28T16:16:58.183Z</time></trkpt><trkpt lat="43.6344897" lon="11.1994416"><ele>160.8</ele><time>2026-03-28T16:17:00.181Z</time></trkpt><trkpt lat="43.6344823" lon="11.1993465"><ele>160.4</ele><time>2026-03-28T16:17:01.182Z</time></trkpt><trkpt lat="43.634474" lon="11.1992432"><ele>160.0</ele><time>2026-03-28T16:17:02.181Z</time></trkpt><trkpt lat="43.6344692" lon="11.1991325"><ele>159.6</ele><time>2026-03-28T16:17:03.183Z</time></trkpt><trkpt lat="43.6344643" lon="11.1990112"><ele>159.2</ele><time>2026-03-28T16:17:04.182Z</time></trkpt><trkpt lat="43.6344682" lon="11.1988999"><ele>158.8</ele><time>2026-03-28T16:17:05.182Z</time></trkpt><trkpt lat="43.6344811" lon="11.1987777"><ele>158.4</ele><time>2026-03-28T16:17:06.183Z</time></trkpt><trkpt lat="43.6345024" lon="11.1986467"><ele>158.0</ele><time>2026-03-28T16:17:07.182Z</time></trkpt><trkpt lat="43.6345315" lon="11.1985071"><ele>158.0</ele><time>2026-03-28T16:17:08.182Z</time></trkpt><trkpt lat="43.6345607" lon="11.1983655"><ele>158.0</ele><time>2026-03-28T16:17:09.182Z</time></trkpt><trkpt lat="43.6345951" lon="11.1982175"><ele>158.0</ele><time>2026-03-28T16:17:10.182Z</time></trkpt><trkpt lat="43.6346306" lon="11.1980727"><ele>158.0</ele><time>2026-03-28T16:17:11.182Z</time></trkpt><trkpt lat="43.6346661" lon="11.1979338"><ele>158.0</ele><time>2026-03-28T16:17:12.182Z</time></trkpt><trkpt lat="43.6347013" lon="11.1977882"><ele>158.0</ele><time>2026-03-28T16:17:13.182Z</time></trkpt><trkpt lat="43.6347396" lon="11.197643"><ele>158.0</ele><time>2026-03-28T16:17:14.182Z</time></trkpt><trkpt lat="43.6347753" lon="11.1975"><ele>158.0</ele><time>2026-03-28T16:17:15.182Z</time></trkpt><trkpt lat="43.6348112" lon="11.1973569"><ele>158.0</ele><time>2026-03-28T16:17:16.183Z</time></trkpt><trkpt lat="43.6348495" lon="11.1972023"><ele>158.0</ele><time>2026-03-28T16:17:17.182Z</time></trkpt><trkpt lat="43.6348873" lon="11.1970443"><ele>158.0</ele><time>2026-03-28T16:17:18.182Z</time></trkpt><trkpt lat="43.6349204" lon="11.1968892"><ele>158.0</ele><time>2026-03-28T16:17:19.182Z</time></trkpt><trkpt lat="43.6349547" lon="11.1967381"><ele>158.0</ele><time>2026-03-28T16:17:20.182Z</time></trkpt><trkpt lat="43.6349879" lon="11.1965897"><ele>158.0</ele><time>2026-03-28T16:17:21.183Z</time></trkpt><trkpt lat="43.6350192" lon="11.1964455"><ele>158.8</ele><time>2026-03-28T16:17:22.183Z</time></trkpt><trkpt lat="43.6350519" lon="11.196303"><ele>159.60000000000002</ele><time>2026-03-28T16:17:23.182Z</time></trkpt><trkpt lat="43.6350854" lon="11.196162"><ele>160.39999999999998</ele><time>2026-03-28T16:17:24.183Z</time></trkpt><trkpt lat="43.6351229" lon="11.196028"><ele>161.2</ele><time>2026-03-28T16:17:25.182Z</time></trkpt><trkpt lat="43.6351642" lon="11.1958844"><ele>162.0</ele><time>2026-03-28T16:17:26.182Z</time></trkpt><trkpt lat="43.6351991" lon="11.1957313"><ele>163.75</ele><time>2026-03-28T16:17:27.182Z</time></trkpt><trkpt lat="43.6352339" lon="11.1955816"><ele>165.5</ele><time>2026-03-28T16:17:28.182Z</time></trkpt><trkpt lat="43.6352643" lon="11.1954217"><ele>167.25</ele><time>2026-03-28T16:17:29.183Z</time></trkpt><trkpt lat="43.6352915" lon="11.195252"><ele>169.0</ele><time>2026-03-28T16:17:30.182Z</time></trkpt><trkpt lat="43.6353161" lon="11.1950824"><ele>165.0</ele><time>2026-03-28T16:17:31.184Z</time></trkpt><trkpt lat="43.6353453" lon="11.1949011"><ele>161.0</ele><time>2026-03-28T16:17:32.183Z</time></trkpt><trkpt lat="43.635376" lon="11.1947136"><ele>157.0</ele><time>2026-03-28T16:17:33.182Z</time></trkpt><trkpt lat="43.6354074" lon="11.1945266"><ele>153.0</ele><time>2026-03-28T16:17:34.182Z</time></trkpt><trkpt lat="43.6354381" lon="11.1943542"><ele>152.75</ele><time>2026-03-28T16:17:35.182Z</time></trkpt><trkpt lat="43.6354721" lon="11.1941744"><ele>152.5</ele><time>2026-03-28T16:17:36.182Z</time></trkpt><trkpt lat="43.6355105" lon="11.1939993"><ele>152.25</ele><time>2026-03-28T16:17:37.183Z</time></trkpt><trkpt lat="43.6355398" lon="11.1938258"><ele>152.0</ele><time>2026-03-28T16:17:38.182Z</time></trkpt><trkpt lat="43.6355706" lon="11.1936931"><ele>152.0</ele><time>2026-03-28T16:17:39.182Z</time></trkpt><trkpt lat="43.6355874" lon="11.1935321"><ele>152.0</ele><time>2026-03-28T16:17:40.182Z</time></trkpt><trkpt lat="43.6356006" lon="11.1933673"><ele>152.0</ele><time>2026-03-28T16:17:41.183Z</time></trkpt><trkpt lat="43.6356285" lon="11.1932042"><ele>152.0</ele><time>2026-03-28T16:17:42.183Z</time></trkpt><trkpt lat="43.6356545" lon="11.1930542"><ele>152.0</ele><time>2026-03-28T16:17:43.183Z</time></trkpt><trkpt lat="43.6356714" lon="11.1928896"><ele>152.0</ele><time>2026-03-28T16:17:44.182Z</time></trkpt><trkpt lat="43.6356812" lon="11.1927233"><ele>152.0</ele><time>2026-03-28T16:17:45.182Z</time></trkpt><trkpt lat="43.6356978" lon="11.1925596"><ele>152.0</ele><time>2026-03-28T16:17:46.183Z</time></trkpt><trkpt lat="43.6357259" lon="11.1923961"><ele>151.75</ele><time>2026-03-28T16:17:47.182Z</time></trkpt><trkpt lat="43.6357603" lon="11.1922378"><ele>151.5</ele><time>2026-03-28T16:17:48.183Z</time></trkpt><trkpt lat="43.6357991" lon="11.1920728"><ele>151.25</ele><time>2026-03-28T16:17:49.182Z</time></trkpt><trkpt lat="43.6358344" lon="11.1919068"><ele>151.0</ele><time>2026-03-28T16:17:50.183Z</time></trkpt><trkpt lat="43.6358652" lon="11.1917412"><ele>151.0</ele><time>2026-03-28T16:17:51.182Z</time></trkpt><trkpt lat="43.6358935" lon="11.19158"><ele>151.0</ele><time>2026-03-28T16:17:52.183Z</time></trkpt><trkpt lat="43.6359212" lon="11.1914278"><ele>151.0</ele><time>2026-03-28T16:17:53.182Z</time></trkpt><trkpt lat="43.6359457" lon="11.1912737"><ele>151.0</ele><time>2026-03-28T16:17:54.182Z</time></trkpt><trkpt lat="43.6359648" lon="11.1911176"><ele>150.6</ele><time>2026-03-28T16:17:55.182Z</time></trkpt><trkpt lat="43.6359783" lon="11.1909665"><ele>150.2</ele><time>2026-03-28T16:17:56.183Z</time></trkpt><trkpt lat="43.6359807" lon="11.1908171"><ele>149.8</ele><time>2026-03-28T16:17:57.182Z</time></trkpt><trkpt lat="43.635977" lon="11.1906804"><ele>149.4</ele><time>2026-03-28T16:17:58.183Z</time></trkpt><trkpt lat="43.6359673" lon="11.1905406"><ele>149.0</ele><time>2026-03-28T16:17:59.182Z</time></trkpt><trkpt lat="43.6359584" lon="11.1904127"><ele>148.66666666666666</ele><time>2026-03-28T16:18:00.183Z</time></trkpt><trkpt lat="43.6359541" lon="11.1902994"><ele>148.33333333333331</ele><time>2026-03-28T16:18:01.182Z</time></trkpt><trkpt lat="43.6359478" lon="11.1901931"><ele>148.0</ele><time>2026-03-28T16:18:02.182Z</time></trkpt><trkpt lat="43.6359383" lon="11.1900852"><ele>147.66666666666666</ele><time>2026-03-28T16:18:03.183Z</time></trkpt><trkpt lat="43.6359233" lon="11.1899782"><ele>147.33333333333334</ele><time>2026-03-28T16:18:04.182Z</time></trkpt><trkpt lat="43.6358992" lon="11.1898605"><ele>147.0</ele><time>2026-03-28T16:18:05.182Z</time></trkpt><trkpt lat="43.6358689" lon="11.1897403"><ele>146.66666666666666</ele><time>2026-03-28T16:18:06.182Z</time></trkpt><trkpt lat="43.6358353" lon="11.1896183"><ele>146.33333333333334</ele><time>2026-03-28T16:18:07.182Z</time></trkpt><trkpt lat="43.6358119" lon="11.1895123"><ele>146.0</ele><time>2026-03-28T16:18:08.182Z</time></trkpt><trkpt lat="43.6357953" lon="11.1894137"><ele>145.66666666666669</ele><time>2026-03-28T16:18:09.183Z</time></trkpt><trkpt lat="43.6357787" lon="11.1893067"><ele>145.33333333333334</ele><time>2026-03-28T16:18:10.182Z</time></trkpt><trkpt lat="43.6357619" lon="11.1892071"><ele>145.0</ele><time>2026-03-28T16:18:11.182Z</time></trkpt><trkpt lat="43.635743" lon="11.189103"><ele>145.0</ele><time>2026-03-28T16:18:12.182Z</time></trkpt><trkpt lat="43.6357253" lon="11.1890159"><ele>145.0</ele><time>2026-03-28T16:18:13.182Z</time></trkpt><trkpt lat="43.6357103" lon="11.1889244"><ele>145.0</ele><time>2026-03-28T16:18:14.182Z</time></trkpt><trkpt lat="43.6357" lon="11.188835"><ele>145.0</ele><time>2026-03-28T16:18:15.183Z</time></trkpt><trkpt lat="43.6356947" lon="11.1886547"><ele>145.0</ele><time>2026-03-28T16:18:17.182Z</time></trkpt><trkpt lat="43.6356887" lon="11.1885469"><ele>145.0</ele><time>2026-03-28T16:18:18.182Z</time></trkpt><trkpt lat="43.6356713" lon="11.1884445"><ele>145.0</ele><time>2026-03-28T16:18:19.182Z</time></trkpt><trkpt lat="43.6356477" lon="11.1883451"><ele>145.0</ele><time>2026-03-28T16:18:20.182Z</time></trkpt><trkpt lat="43.63562" lon="11.1882496"><ele>145.0</ele><time>2026-03-28T16:18:21.183Z</time></trkpt><trkpt lat="43.6355877" lon="11.188163"><ele>145.0</ele><time>2026-03-28T16:18:22.183Z</time></trkpt><trkpt lat="43.6355555" lon="11.1880749"><ele>145.0</ele><time>2026-03-28T16:18:23.182Z</time></trkpt><trkpt lat="43.6355265" lon="11.1879759"><ele>145.0</ele><time>2026-03-28T16:18:24.182Z</time></trkpt><trkpt lat="43.6354888" lon="11.1878791"><ele>145.0</ele><time>2026-03-28T16:18:25.182Z</time></trkpt><trkpt lat="43.6354499" lon="11.187783"><ele>144.66666666666669</ele><time>2026-03-28T16:18:26.183Z</time></trkpt><trkpt lat="43.635409" lon="11.187688"><ele>144.33333333333334</ele><time>2026-03-28T16:18:27.182Z</time></trkpt><trkpt lat="43.6353782" lon="11.1875931"><ele>144.0</ele><time>2026-03-28T16:18:28.183Z</time></trkpt><trkpt lat="43.6353569" lon="11.1874983"><ele>143.66666666666666</ele><time>2026-03-28T16:18:29.183Z</time></trkpt><trkpt lat="43.635341" lon="11.1873987"><ele>143.33333333333331</ele><time>2026-03-28T16:18:30.182Z</time></trkpt><trkpt lat="43.6353306" lon="11.18729"><ele>143.0</ele><time>2026-03-28T16:18:31.182Z</time></trkpt><trkpt lat="43.6353333" lon="11.1871796"><ele>142.83333333333331</ele><time>2026-03-28T16:18:32.183Z</time></trkpt><trkpt lat="43.6353502" lon="11.1870851"><ele>142.66666666666666</ele><time>2026-03-28T16:18:33.182Z</time></trkpt><trkpt lat="43.6353949" lon="11.1869384"><ele>142.5</ele><time>2026-03-28T16:18:35.182Z</time></trkpt><trkpt lat="43.6354412" lon="11.1868372"><ele>142.33333333333334</ele><time>2026-03-28T16:18:37.183Z</time></trkpt><trkpt lat="43.6354903" lon="11.1867528"><ele>142.16666666666669</ele><time>2026-03-28T16:18:40.183Z</time></trkpt><trkpt lat="43.6355234" lon="11.1866751"><ele>142.0</ele><time>2026-03-28T16:20:40.181Z</time></trkpt><trkpt lat="43.6355368" lon="11.1865725"><ele>141.83333333333334</ele><time>2026-03-28T16:20:51.183Z</time></trkpt><trkpt lat="43.6354997" lon="11.186462"><ele>141.66666666666669</ele><time>2026-03-28T16:20:54.183Z</time></trkpt><trkpt lat="43.635445" lon="11.1863698"><ele>141.5</ele><time>2026-03-28T16:20:56.183Z</time></trkpt><trkpt lat="43.6354138" lon="11.1862553"><ele>141.33333333333334</ele><time>2026-03-28T16:20:58.182Z</time></trkpt><trkpt lat="43.6354382" lon="11.1861229"><ele>141.16666666666666</ele><time>2026-03-28T16:21:00.182Z</time></trkpt><trkpt lat="43.6354617" lon="11.1860236"><ele>141.0</ele><time>2026-03-28T16:21:02.183Z</time></trkpt><trkpt lat="43.6354787" lon="11.1859084"><ele>141.0</ele><time>2026-03-28T16:21:20.182Z</time></trkpt><trkpt lat="43.6354909" lon="11.1857394"><ele>141.0</ele><time>2026-03-28T16:21:22.183Z</time></trkpt><trkpt lat="43.6354964" lon="11.1856379"><ele>141.0</ele><time>2026-03-28T16:21:23.182Z</time></trkpt><trkpt lat="43.6355001" lon="11.1855247"><ele>141.0</ele><time>2026-03-28T16:21:24.182Z</time></trkpt><trkpt lat="43.6355092" lon="11.1854104"><ele>141.0</ele><time>2026-03-28T16:21:25.182Z</time></trkpt><trkpt lat="43.6355241" lon="11.1852839"><ele>140.6</ele><time>2026-03-28T16:21:26.182Z</time></trkpt><trkpt lat="43.635537" lon="11.1851459"><ele>140.2</ele><time>2026-03-28T16:21:27.183Z</time></trkpt><trkpt lat="43.6355492" lon="11.1849992"><ele>139.8</ele><time>2026-03-28T16:21:28.182Z</time></trkpt><trkpt lat="43.6355617" lon="11.1848481"><ele>139.4</ele><time>2026-03-28T16:21:29.182Z</time></trkpt><trkpt lat="43.6355733" lon="11.1846941"><ele>139.0</ele><time>2026-03-28T16:21:30.182Z</time></trkpt><trkpt lat="43.635586" lon="11.1845611"><ele>139.0</ele><time>2026-03-28T16:21:31.182Z</time></trkpt><trkpt lat="43.6355925" lon="11.1844457"><ele>139.0</ele><time>2026-03-28T16:21:32.182Z</time></trkpt><trkpt lat="43.6355859" lon="11.1843459"><ele>139.0</ele><time>2026-03-28T16:21:33.182Z</time></trkpt><trkpt lat="43.6355384" lon="11.1841872"><ele>139.0</ele><time>2026-03-28T16:21:35.182Z</time></trkpt><trkpt lat="43.6355008" lon="11.1841058"><ele>139.0</ele><time>2026-03-28T16:21:36.182Z</time></trkpt><trkpt lat="43.6354574" lon="11.1840141"><ele>139.0</ele><time>2026-03-28T16:21:37.183Z</time></trkpt><trkpt lat="43.635405" lon="11.1839214"><ele>139.0</ele><time>2026-03-28T16:21:38.183Z</time></trkpt><trkpt lat="43.635348" lon="11.1838179"><ele>139.0</ele><time>2026-03-28T16:21:39.182Z</time></trkpt><trkpt lat="43.6352855" lon="11.1837135"><ele>139.0</ele><time>2026-03-28T16:21:40.183Z</time></trkpt><trkpt lat="43.6352217" lon="11.1836104"><ele>139.0</ele><time>2026-03-28T16:21:41.182Z</time></trkpt><trkpt lat="43.6351597" lon="11.1835137"><ele>139.0</ele><time>2026-03-28T16:21:42.182Z</time></trkpt><trkpt lat="43.6350985" lon="11.1834253"><ele>138.33333333333334</ele><time>2026-03-28T16:21:43.183Z</time></trkpt><trkpt lat="43.635036" lon="11.1833479"><ele>137.66666666666669</ele><time>2026-03-28T16:21:44.182Z</time></trkpt><trkpt lat="43.6349692" lon="11.1832733"><ele>137.0</ele><time>2026-03-28T16:21:45.182Z</time></trkpt><trkpt lat="43.6349004" lon="11.1831924"><ele>136.33333333333334</ele><time>2026-03-28T16:21:46.182Z</time></trkpt><trkpt lat="43.6348521" lon="11.1831108"><ele>135.66666666666666</ele><time>2026-03-28T16:21:47.182Z</time></trkpt><trkpt lat="43.6348139" lon="11.1830236"><ele>135.0</ele><time>2026-03-28T16:21:48.182Z</time></trkpt><trkpt lat="43.6347749" lon="11.1829404"><ele>135.0</ele><time>2026-03-28T16:21:49.182Z</time></trkpt><trkpt lat="43.6347313" lon="11.182872"><ele>135.0</ele><time>2026-03-28T16:21:50.182Z</time></trkpt><trkpt lat="43.6346744" lon="11.1827981"><ele>135.0</ele><time>2026-03-28T16:21:51.182Z</time></trkpt><trkpt lat="43.6346193" lon="11.1827328"><ele>135.0</ele><time>2026-03-28T16:21:52.183Z</time></trkpt><trkpt lat="43.6345556" lon="11.1826595"><ele>135.0</ele><time>2026-03-28T16:21:53.182Z</time></trkpt><trkpt lat="43.6344945" lon="11.1825822"><ele>135.0</ele><time>2026-03-28T16:21:54.182Z</time></trkpt><trkpt lat="43.6344385" lon="11.182505"><ele>135.16666666666666</ele><time>2026-03-28T16:21:55.182Z</time></trkpt><trkpt lat="43.6343761" lon="11.182434"><ele>135.33333333333334</ele><time>2026-03-28T16:21:56.181Z</time></trkpt><trkpt lat="43.6343089" lon="11.1823738"><ele>135.5</ele><time>2026-03-28T16:21:57.183Z</time></trkpt><trkpt lat="43.6342322" lon="11.1823272"><ele>135.66666666666669</ele><time>2026-03-28T16:21:58.182Z</time></trkpt><trkpt lat="43.6341622" lon="11.1822942"><ele>135.83333333333334</ele><time>2026-03-28T16:21:59.182Z</time></trkpt><trkpt lat="43.6340951" lon="11.1822669"><ele>136.0</ele><time>2026-03-28T16:22:00.182Z</time></trkpt><trkpt lat="43.6339932" lon="11.1822084"><ele>135.99999999999997</ele><time>2026-03-28T16:22:02.182Z</time></trkpt><trkpt lat="43.6339418" lon="11.1821446"><ele>136.0</ele><time>2026-03-28T16:22:04.182Z</time></trkpt><trkpt lat="43.6339255" lon="11.1820406"><ele>136.0</ele><time>2026-03-28T16:22:22.183Z</time></trkpt><trkpt lat="43.6339391" lon="11.1819458"><ele>136.0</ele><time>2026-03-28T16:22:24.183Z</time></trkpt><trkpt lat="43.6339291" lon="11.1818563"><ele>136.0</ele><time>2026-03-28T16:22:27.183Z</time></trkpt><trkpt lat="43.6338898" lon="11.181773"><ele>135.99999999999997</ele><time>2026-03-28T16:22:38.182Z</time></trkpt><trkpt lat="43.6338353" lon="11.1816873"><ele>136.0</ele><time>2026-03-28T16:22:40.182Z</time></trkpt><trkpt lat="43.6337444" lon="11.1816291"><ele>136.0</ele><time>2026-03-28T16:22:42.182Z</time></trkpt><trkpt lat="43.6336524" lon="11.1816301"><ele>136.0</ele><time>2026-03-28T16:22:44.183Z</time></trkpt><trkpt lat="43.6335637" lon="11.18167"><ele>136.0</ele><time>2026-03-28T16:22:46.183Z</time></trkpt><trkpt lat="43.6334831" lon="11.1817284"><ele>136.0</ele><time>2026-03-28T16:22:48.182Z</time></trkpt><trkpt lat="43.6334249" lon="11.1816877"><ele>136.0</ele><time>2026-03-28T16:22:50.183Z</time></trkpt><trkpt lat="43.6334148" lon="11.1815589"><ele>136.0</ele><time>2026-03-28T16:22:52.182Z</time></trkpt><trkpt lat="43.6334315" lon="11.1814212"><ele>135.4</ele><time>2026-03-28T16:22:54.183Z</time></trkpt><trkpt lat="43.6334321" lon="11.1812909"><ele>134.8</ele><time>2026-03-28T16:22:56.183Z</time></trkpt><trkpt lat="43.6334087" lon="11.1811517"><ele>134.20000000000002</ele><time>2026-03-28T16:22:58.182Z</time></trkpt><trkpt lat="43.6333696" lon="11.1810045"><ele>133.6</ele><time>2026-03-28T16:23:00.182Z</time></trkpt><trkpt lat="43.6333367" lon="11.1808453"><ele>133.0</ele><time>2026-03-28T16:23:02.183Z</time></trkpt><trkpt lat="43.6333157" lon="11.1807572"><ele>132.57142857142858</ele><time>2026-03-28T16:23:03.183Z</time></trkpt><trkpt lat="43.6332841" lon="11.1806682"><ele>132.14285714285714</ele><time>2026-03-28T16:23:04.183Z</time></trkpt><trkpt lat="43.6332486" lon="11.1805795"><ele>131.71428571428572</ele><time>2026-03-28T16:23:05.182Z</time></trkpt><trkpt lat="43.6332121" lon="11.1804949"><ele>131.28571428571428</ele><time>2026-03-28T16:23:06.182Z</time></trkpt><trkpt lat="43.6331736" lon="11.1804106"><ele>130.85714285714286</ele><time>2026-03-28T16:23:07.182Z</time></trkpt><trkpt lat="43.6331392" lon="11.1803365"><ele>130.42857142857144</ele><time>2026-03-28T16:23:08.182Z</time></trkpt><trkpt lat="43.6330842" lon="11.1802261"><ele>130.0</ele><time>2026-03-28T16:23:10.182Z</time></trkpt><trkpt lat="43.6330561" lon="11.180145"><ele>130.0</ele><time>2026-03-28T16:23:12.182Z</time></trkpt><trkpt lat="43.6330604" lon="11.1800536"><ele>130.0</ele><time>2026-03-28T16:23:15.182Z</time></trkpt><trkpt lat="43.6331398" lon="11.1799513"><ele>130.0</ele><time>2026-03-28T16:23:17.182Z</time></trkpt><trkpt lat="43.6332047" lon="11.1798894"><ele>130.0</ele><time>2026-03-28T16:23:18.183Z</time></trkpt><trkpt lat="43.6332824" lon="11.1798097"><ele>130.0</ele><time>2026-03-28T16:23:19.182Z</time></trkpt><trkpt lat="43.6333627" lon="11.1797194"><ele>130.0</ele><time>2026-03-28T16:23:20.183Z</time></trkpt><trkpt lat="43.6334558" lon="11.1796086"><ele>130.0</ele><time>2026-03-28T16:23:21.182Z</time></trkpt><trkpt lat="43.6335505" lon="11.1795004"><ele>130.0</ele><time>2026-03-28T16:23:22.183Z</time></trkpt><trkpt lat="43.6336386" lon="11.1794081"><ele>130.0</ele><time>2026-03-28T16:23:23.182Z</time></trkpt><trkpt lat="43.6337197" lon="11.1793216"><ele>130.0</ele><time>2026-03-28T16:23:24.183Z</time></trkpt><trkpt lat="43.6338139" lon="11.1792398"><ele>130.0</ele><time>2026-03-28T16:23:25.182Z</time></trkpt><trkpt lat="43.6339238" lon="11.1791653"><ele>130.0</ele><time>2026-03-28T16:23:26.183Z</time></trkpt><trkpt lat="43.6340362" lon="11.179092"><ele>130.0</ele><time>2026-03-28T16:23:27.182Z</time></trkpt><trkpt lat="43.6341636" lon="11.1790162"><ele>129.66666666666669</ele><time>2026-03-28T16:23:28.183Z</time></trkpt><trkpt lat="43.6343019" lon="11.1789322"><ele>129.33333333333334</ele><time>2026-03-28T16:23:29.182Z</time></trkpt><trkpt lat="43.6344512" lon="11.1788458"><ele>129.0</ele><time>2026-03-28T16:23:30.182Z</time></trkpt><trkpt lat="43.6345991" lon="11.1787689"><ele>128.66666666666666</ele><time>2026-03-28T16:23:31.182Z</time></trkpt><trkpt lat="43.634744" lon="11.1787242"><ele>128.33333333333331</ele><time>2026-03-28T16:23:32.182Z</time></trkpt><trkpt lat="43.6348966" lon="11.1787069"><ele>128.0</ele><time>2026-03-28T16:23:33.182Z</time></trkpt><trkpt lat="43.6350486" lon="11.1787012"><ele>128.0</ele><time>2026-03-28T16:23:34.183Z</time></trkpt><trkpt lat="43.6351911" lon="11.1787108"><ele>128.0</ele><time>2026-03-28T16:23:35.182Z</time></trkpt><trkpt lat="43.6353312" lon="11.178733"><ele>128.0</ele><time>2026-03-28T16:23:36.181Z</time></trkpt><trkpt lat="43.6354697" lon="11.1787736"><ele>128.0</ele><time>2026-03-28T16:23:37.182Z</time></trkpt><trkpt lat="43.635604" lon="11.1788234"><ele>128.5</ele><time>2026-03-28T16:23:38.182Z</time></trkpt><trkpt lat="43.6357415" lon="11.1788763"><ele>129.0</ele><time>2026-03-28T16:23:39.182Z</time></trkpt><trkpt lat="43.6358859" lon="11.178924"><ele>129.5</ele><time>2026-03-28T16:23:40.182Z</time></trkpt><trkpt lat="43.6360371" lon="11.1789516"><ele>130.0</ele><time>2026-03-28T16:23:41.183Z</time></trkpt><trkpt lat="43.6361953" lon="11.1789472"><ele>132.33333333333334</ele><time>2026-03-28T16:23:42.182Z</time></trkpt><trkpt lat="43.6363537" lon="11.1789013"><ele>134.66666666666666</ele><time>2026-03-28T16:23:43.182Z</time></trkpt><trkpt lat="43.6365011" lon="11.1788156"><ele>137.0</ele><time>2026-03-28T16:23:44.183Z</time></trkpt><trkpt lat="43.6366322" lon="11.1787045"><ele>137.0</ele><time>2026-03-28T16:23:45.182Z</time></trkpt><trkpt lat="43.6367495" lon="11.1785902"><ele>137.0</ele><time>2026-03-28T16:23:46.181Z</time></trkpt><trkpt lat="43.6368541" lon="11.1784841"><ele>137.0</ele><time>2026-03-28T16:23:47.183Z</time></trkpt><trkpt lat="43.6369486" lon="11.1783874"><ele>137.0</ele><time>2026-03-28T16:23:48.182Z</time></trkpt><trkpt lat="43.6370316" lon="11.1783022"><ele>137.83333333333331</ele><time>2026-03-28T16:23:49.182Z</time></trkpt><trkpt lat="43.6371014" lon="11.1782213"><ele>138.66666666666666</ele><time>2026-03-28T16:23:50.182Z</time></trkpt><trkpt lat="43.6371646" lon="11.1781425"><ele>139.5</ele><time>2026-03-28T16:23:51.183Z</time></trkpt><trkpt lat="43.6372247" lon="11.1780717"><ele>140.33333333333334</ele><time>2026-03-28T16:23:52.181Z</time></trkpt><trkpt lat="43.6373245" lon="11.1780364"><ele>141.16666666666669</ele><time>2026-03-28T16:23:54.183Z</time></trkpt><trkpt lat="43.6374091" lon="11.1780788"><ele>142.0</ele><time>2026-03-28T16:23:56.182Z</time></trkpt><trkpt lat="43.6374985" lon="11.178201"><ele>143.2</ele><time>2026-03-28T16:23:58.183Z</time></trkpt><trkpt lat="43.6375441" lon="11.1782714"><ele>144.39999999999998</ele><time>2026-03-28T16:23:59.182Z</time></trkpt><trkpt lat="43.637625" lon="11.1783953"><ele>145.60000000000002</ele><time>2026-03-28T16:24:01.183Z</time></trkpt><trkpt lat="43.6376919" lon="11.178498"><ele>146.8</ele><time>2026-03-28T16:24:03.182Z</time></trkpt><trkpt lat="43.6377342" lon="11.1786262"><ele>148.0</ele><time>2026-03-28T16:24:05.183Z</time></trkpt><trkpt lat="43.6377194" lon="11.1787305"><ele>148.0</ele><time>2026-03-28T16:24:07.182Z</time></trkpt><trkpt lat="43.6376259" lon="11.1788233"><ele>148.0</ele><time>2026-03-28T16:24:09.182Z</time></trkpt><trkpt lat="43.6375528" lon="11.1788539"><ele>148.0</ele><time>2026-03-28T16:24:10.182Z</time></trkpt><trkpt lat="43.6374891" lon="11.1788672"><ele>148.0</ele><time>2026-03-28T16:24:11.182Z</time></trkpt><trkpt lat="43.6374203" lon="11.1788911"><ele>148.0</ele><time>2026-03-28T16:24:12.183Z</time></trkpt><trkpt lat="43.637364" lon="11.178935"><ele>148.0</ele><time>2026-03-28T16:24:13.182Z</time></trkpt><trkpt lat="43.6373296" lon="11.1790556"><ele>149.83333333333334</ele><time>2026-03-28T16:24:15.183Z</time></trkpt><trkpt lat="43.6373926" lon="11.1791331"><ele>151.66666666666669</ele><time>2026-03-28T16:24:17.182Z</time></trkpt><trkpt lat="43.6374534" lon="11.1791564"><ele>153.5</ele><time>2026-03-28T16:24:18.182Z</time></trkpt><trkpt lat="43.6375817" lon="11.1791608"><ele>155.33333333333334</ele><time>2026-03-28T16:24:20.183Z</time></trkpt><trkpt lat="43.6376467" lon="11.1791773"><ele>157.16666666666666</ele><time>2026-03-28T16:24:21.182Z</time></trkpt><trkpt lat="43.6377072" lon="11.1792156"><ele>159.0</ele><time>2026-03-28T16:24:22.182Z</time></trkpt><trkpt lat="43.637757" lon="11.1792751"><ele>159.0</ele><time>2026-03-28T16:24:23.183Z</time></trkpt><trkpt lat="43.6377937" lon="11.1793485"><ele>159.0</ele><time>2026-03-28T16:24:24.182Z</time></trkpt><trkpt lat="43.6378337" lon="11.179522"><ele>159.0</ele><time>2026-03-28T16:24:26.182Z</time></trkpt><trkpt lat="43.6378563" lon="11.1796366"><ele>159.0</ele><time>2026-03-28T16:24:27.182Z</time></trkpt><trkpt lat="43.6378775" lon="11.1797472"><ele>159.0</ele><time>2026-03-28T16:24:28.183Z</time></trkpt><trkpt lat="43.637904" lon="11.1798663"><ele>162.2</ele><time>2026-03-28T16:24:29.182Z</time></trkpt><trkpt lat="43.6379462" lon="11.1799732"><ele>165.4</ele><time>2026-03-28T16:24:30.182Z</time></trkpt><trkpt lat="43.6379956" lon="11.1800649"><ele>168.6</ele><time>2026-03-28T16:24:31.183Z</time></trkpt><trkpt lat="43.6380638" lon="11.1801553"><ele>171.8</ele><time>2026-03-28T16:24:32.183Z</time></trkpt><trkpt lat="43.6381446" lon="11.1802357"><ele>175.0</ele><time>2026-03-28T16:24:33.182Z</time></trkpt><trkpt lat="43.6382315" lon="11.1803226"><ele>175.0</ele><time>2026-03-28T16:24:34.182Z</time></trkpt><trkpt lat="43.638307" lon="11.1804007"><ele>175.0</ele><time>2026-03-28T16:24:35.181Z</time></trkpt><trkpt lat="43.6383727" lon="11.1804808"><ele>175.0</ele><time>2026-03-28T16:24:36.182Z</time></trkpt><trkpt lat="43.6384281" lon="11.1805605"><ele>175.0</ele><time>2026-03-28T16:24:37.183Z</time></trkpt><trkpt lat="43.6384645" lon="11.1806481"><ele>175.0</ele><time>2026-03-28T16:24:38.183Z</time></trkpt><trkpt lat="43.6384769" lon="11.1807389"><ele>175.0</ele><time>2026-03-28T16:24:39.182Z</time></trkpt><trkpt lat="43.6384707" lon="11.1808327"><ele>176.33333333333334</ele><time>2026-03-28T16:24:40.183Z</time></trkpt><trkpt lat="43.6384477" lon="11.1809234"><ele>177.66666666666669</ele><time>2026-03-28T16:24:41.182Z</time></trkpt><trkpt lat="43.6384281" lon="11.1810224"><ele>179.0</ele><time>2026-03-28T16:24:42.181Z</time></trkpt><trkpt lat="43.6384288" lon="11.1811129"><ele>180.33333333333334</ele><time>2026-03-28T16:24:43.182Z</time></trkpt><trkpt lat="43.6384841" lon="11.181249"><ele>181.66666666666666</ele><time>2026-03-28T16:24:45.183Z</time></trkpt><trkpt lat="43.6385298" lon="11.1813094"><ele>183.0</ele><time>2026-03-28T16:24:46.183Z</time></trkpt><trkpt lat="43.6385764" lon="11.1813769"><ele>183.0</ele><time>2026-03-28T16:24:47.183Z</time></trkpt><trkpt lat="43.6386233" lon="11.1814472"><ele>183.0</ele><time>2026-03-28T16:24:48.182Z</time></trkpt><trkpt lat="43.6386805" lon="11.1815288"><ele>183.0</ele><time>2026-03-28T16:24:49.183Z</time></trkpt><trkpt lat="43.6387414" lon="11.181611"><ele>183.0</ele><time>2026-03-28T16:24:50.182Z</time></trkpt><trkpt lat="43.6388033" lon="11.1816987"><ele>183.0</ele><time>2026-03-28T16:24:51.182Z</time></trkpt><trkpt lat="43.6388681" lon="11.1817885"><ele>183.0</ele><time>2026-03-28T16:24:52.182Z</time></trkpt><trkpt lat="43.6389347" lon="11.1818798"><ele>185.8</ele><time>2026-03-28T16:24:53.183Z</time></trkpt><trkpt lat="43.6390009" lon="11.1819726"><ele>188.60000000000002</ele><time>2026-03-28T16:24:54.182Z</time></trkpt><trkpt lat="43.63907" lon="11.1820702"><ele>191.39999999999998</ele><time>2026-03-28T16:24:55.183Z</time></trkpt><trkpt lat="43.6391379" lon="11.1821689"><ele>194.2</ele><time>2026-03-28T16:24:56.182Z</time></trkpt><trkpt lat="43.6392064" lon="11.1822653"><ele>197.0</ele><time>2026-03-28T16:24:57.183Z</time></trkpt><trkpt lat="43.6392768" lon="11.1823667"><ele>197.6</ele><time>2026-03-28T16:24:58.183Z</time></trkpt><trkpt lat="43.6393472" lon="11.1824652"><ele>198.2</ele><time>2026-03-28T16:24:59.182Z</time></trkpt><trkpt lat="43.6394311" lon="11.1825765"><ele>198.8</ele><time>2026-03-28T16:25:00.183Z</time></trkpt><trkpt lat="43.6395201" lon="11.1826944"><ele>199.4</ele><time>2026-03-28T16:25:01.182Z</time></trkpt><trkpt lat="43.6395877" lon="11.182794"><ele>200.0</ele><time>2026-03-28T16:25:02.182Z</time></trkpt><trkpt lat="43.6396498" lon="11.1828827"><ele>202.50000000000003</ele><time>2026-03-28T16:25:03.182Z</time></trkpt><trkpt lat="43.6397128" lon="11.1829678"><ele>205.0</ele><time>2026-03-28T16:25:04.182Z</time></trkpt><trkpt lat="43.6397721" lon="11.1830488"><ele>207.5</ele><time>2026-03-28T16:25:05.183Z</time></trkpt><trkpt lat="43.639825" lon="11.1831237"><ele>210.0</ele><time>2026-03-28T16:25:06.182Z</time></trkpt><trkpt lat="43.6398728" lon="11.1831952"><ele>212.50000000000003</ele><time>2026-03-28T16:25:07.183Z</time></trkpt><trkpt lat="43.6399237" lon="11.1832652"><ele>215.0</ele><time>2026-03-28T16:25:08.183Z</time></trkpt><trkpt lat="43.6399714" lon="11.1833339"><ele>215.50000000000003</ele><time>2026-03-28T16:25:09.183Z</time></trkpt><trkpt lat="43.6400224" lon="11.1834053"><ele>216.0</ele><time>2026-03-28T16:25:10.183Z</time></trkpt><trkpt lat="43.6400761" lon="11.183484"><ele>216.5</ele><time>2026-03-28T16:25:11.183Z</time></trkpt><trkpt lat="43.6401287" lon="11.1835611"><ele>217.0</ele><time>2026-03-28T16:25:12.182Z</time></trkpt><trkpt lat="43.6401726" lon="11.1836251"><ele>217.50000000000003</ele><time>2026-03-28T16:25:13.182Z</time></trkpt><trkpt lat="43.6402588" lon="11.1837013"><ele>218.0</ele><time>2026-03-28T16:25:15.182Z</time></trkpt><trkpt lat="43.6403333" lon="11.1836862"><ele>219.57142857142858</ele><time>2026-03-28T16:25:17.182Z</time></trkpt><trkpt lat="43.6403958" lon="11.1835794"><ele>221.14285714285717</ele><time>2026-03-28T16:25:19.182Z</time></trkpt><trkpt lat="43.6404349" lon="11.1835067"><ele>222.71428571428572</ele><time>2026-03-28T16:25:20.182Z</time></trkpt><trkpt lat="43.6404821" lon="11.1834381"><ele>224.28571428571428</ele><time>2026-03-28T16:25:21.182Z</time></trkpt><trkpt lat="43.6405276" lon="11.1833761"><ele>225.85714285714286</ele><time>2026-03-28T16:25:22.182Z</time></trkpt><trkpt lat="43.640581" lon="11.1833189"><ele>227.42857142857142</ele><time>2026-03-28T16:25:23.182Z</time></trkpt><trkpt lat="43.6406361" lon="11.1832624"><ele>229.0</ele><time>2026-03-28T16:25:24.183Z</time></trkpt><trkpt lat="43.6407272" lon="11.1831816"><ele>228.99999999999997</ele><time>2026-03-28T16:25:26.183Z</time></trkpt><trkpt lat="43.6408205" lon="11.183202"><ele>229.0</ele><time>2026-03-28T16:25:28.182Z</time></trkpt><trkpt lat="43.6409172" lon="11.1832907"><ele>229.0</ele><time>2026-03-28T16:25:30.183Z</time></trkpt><trkpt lat="43.6409735" lon="11.1833328"><ele>229.0</ele><time>2026-03-28T16:25:31.183Z</time></trkpt><trkpt lat="43.641044" lon="11.1833762"><ele>228.99999999999997</ele><time>2026-03-28T16:25:32.182Z</time></trkpt><trkpt lat="43.6411201" lon="11.1834321"><ele>229.0</ele><time>2026-03-28T16:25:33.182Z</time></trkpt><trkpt lat="43.6411933" lon="11.183483"><ele>228.85714285714283</ele><time>2026-03-28T16:25:34.182Z</time></trkpt><trkpt lat="43.6412507" lon="11.1835211"><ele>228.71428571428572</ele><time>2026-03-28T16:25:35.182Z</time></trkpt><trkpt lat="43.6413172" lon="11.1835521"><ele>228.57142857142856</ele><time>2026-03-28T16:25:36.182Z</time></trkpt><trkpt lat="43.641385" lon="11.1835808"><ele>228.42857142857142</ele><time>2026-03-28T16:25:37.182Z</time></trkpt><trkpt lat="43.6414567" lon="11.1836002"><ele>228.28571428571428</ele><time>2026-03-28T16:25:38.182Z</time></trkpt><trkpt lat="43.6415232" lon="11.1836229"><ele>228.14285714285714</ele><time>2026-03-28T16:25:39.183Z</time></trkpt><trkpt lat="43.6415966" lon="11.1836668"><ele>228.0</ele><time>2026-03-28T16:25:40.182Z</time></trkpt><trkpt lat="43.641677" lon="11.1837287"><ele>228.0</ele><time>2026-03-28T16:25:41.182Z</time></trkpt><trkpt lat="43.6417511" lon="11.1837833"><ele>228.0</ele><time>2026-03-28T16:25:42.183Z</time></trkpt><trkpt lat="43.64183" lon="11.1838511"><ele>228.0</ele><time>2026-03-28T16:25:43.182Z</time></trkpt><trkpt lat="43.6419157" lon="11.1839168"><ele>228.0</ele><time>2026-03-28T16:25:44.182Z</time></trkpt><trkpt lat="43.6420082" lon="11.1839771"><ele>228.0</ele><time>2026-03-28T16:25:45.183Z</time></trkpt><trkpt lat="43.6420995" lon="11.1840386"><ele>228.4</ele><time>2026-03-28T16:25:46.182Z</time></trkpt><trkpt lat="43.6421925" lon="11.1840998"><ele>228.8</ele><time>2026-03-28T16:25:47.183Z</time></trkpt><trkpt lat="43.6422892" lon="11.1841587"><ele>229.2</ele><time>2026-03-28T16:25:48.182Z</time></trkpt><trkpt lat="43.642384" lon="11.1842141"><ele>229.6</ele><time>2026-03-28T16:25:49.182Z</time></trkpt><trkpt lat="43.6424791" lon="11.1842731"><ele>230.0</ele><time>2026-03-28T16:25:50.182Z</time></trkpt><trkpt lat="43.6425748" lon="11.1843388"><ele>230.0</ele><time>2026-03-28T16:25:51.182Z</time></trkpt><trkpt lat="43.6426704" lon="11.1844045"><ele>230.0</ele><time>2026-03-28T16:25:52.182Z</time></trkpt><trkpt lat="43.6427734" lon="11.1844711"><ele>230.0</ele><time>2026-03-28T16:25:53.182Z</time></trkpt><trkpt lat="43.6428826" lon="11.1845407"><ele>230.0</ele><time>2026-03-28T16:25:54.182Z</time></trkpt><trkpt lat="43.642985" lon="11.1846109"><ele>229.4</ele><time>2026-03-28T16:25:55.182Z</time></trkpt><trkpt lat="43.6430812" lon="11.1846706"><ele>228.8</ele><time>2026-03-28T16:25:56.182Z</time></trkpt><trkpt lat="43.6431812" lon="11.1847245"><ele>228.2</ele><time>2026-03-28T16:25:57.182Z</time></trkpt><trkpt lat="43.6432861" lon="11.1847727"><ele>227.6</ele><time>2026-03-28T16:25:58.182Z</time></trkpt><trkpt lat="43.6433882" lon="11.1848058"><ele>227.0</ele><time>2026-03-28T16:25:59.182Z</time></trkpt><trkpt lat="43.6434896" lon="11.1848282"><ele>227.00000000000003</ele><time>2026-03-28T16:26:00.182Z</time></trkpt><trkpt lat="43.6435864" lon="11.1848444"><ele>227.0</ele><time>2026-03-28T16:26:01.183Z</time></trkpt><trkpt lat="43.6436725" lon="11.1848512"><ele>227.0</ele><time>2026-03-28T16:26:02.182Z</time></trkpt><trkpt lat="43.6437486" lon="11.1848509"><ele>227.0</ele><time>2026-03-28T16:26:03.182Z</time></trkpt><trkpt lat="43.6438209" lon="11.1848636"><ele>227.00000000000003</ele><time>2026-03-28T16:26:04.182Z</time></trkpt><trkpt lat="43.6438899" lon="11.1848768"><ele>227.0</ele><time>2026-03-28T16:26:05.182Z</time></trkpt><trkpt lat="43.6439645" lon="11.1848889"><ele>229.66666666666669</ele><time>2026-03-28T16:26:06.182Z</time></trkpt><trkpt lat="43.6440434" lon="11.1849078"><ele>232.33333333333334</ele><time>2026-03-28T16:26:07.182Z</time></trkpt><trkpt lat="43.6441219" lon="11.1849306"><ele>235.0</ele><time>2026-03-28T16:26:08.182Z</time></trkpt><trkpt lat="43.6442029" lon="11.1849669"><ele>237.66666666666669</ele><time>2026-03-28T16:26:09.182Z</time></trkpt><trkpt lat="43.6442713" lon="11.1850068"><ele>240.33333333333334</ele><time>2026-03-28T16:26:10.182Z</time></trkpt><trkpt lat="43.6443346" lon="11.1850541"><ele>243.0</ele><time>2026-03-28T16:26:11.183Z</time></trkpt><trkpt lat="43.6444013" lon="11.1851268"><ele>242.5</ele><time>2026-03-28T16:26:12.182Z</time></trkpt><trkpt lat="43.6444745" lon="11.1851975"><ele>242.0</ele><time>2026-03-28T16:26:13.182Z</time></trkpt><trkpt lat="43.6445456" lon="11.1852513"><ele>241.5</ele><time>2026-03-28T16:26:14.182Z</time></trkpt><trkpt lat="43.6446214" lon="11.1853026"><ele>241.0</ele><time>2026-03-28T16:26:15.183Z</time></trkpt><trkpt lat="43.6446973" lon="11.1853637"><ele>240.5</ele><time>2026-03-28T16:26:16.182Z</time></trkpt><trkpt lat="43.6447736" lon="11.1854236"><ele>240.0</ele><time>2026-03-28T16:26:17.182Z</time></trkpt><trkpt lat="43.6448534" lon="11.1854883"><ele>240.0</ele><time>2026-03-28T16:26:18.182Z</time></trkpt><trkpt lat="43.644925" lon="11.1855608"><ele>240.0</ele><time>2026-03-28T16:26:19.183Z</time></trkpt><trkpt lat="43.6449956" lon="11.1856317"><ele>240.0</ele><time>2026-03-28T16:26:20.182Z</time></trkpt><trkpt lat="43.6450709" lon="11.1857023"><ele>240.0</ele><time>2026-03-28T16:26:21.183Z</time></trkpt><trkpt lat="43.6451464" lon="11.1857669"><ele>240.0</ele><time>2026-03-28T16:26:22.183Z</time></trkpt><trkpt lat="43.6452165" lon="11.1858319"><ele>240.0</ele><time>2026-03-28T16:26:23.183Z</time></trkpt><trkpt lat="43.6452791" lon="11.1858963"><ele>242.16666666666666</ele><time>2026-03-28T16:26:24.183Z</time></trkpt><trkpt lat="43.6453393" lon="11.185961"><ele>244.33333333333331</ele><time>2026-03-28T16:26:25.183Z</time></trkpt><trkpt lat="43.6453881" lon="11.1860271"><ele>246.5</ele><time>2026-03-28T16:26:26.181Z</time></trkpt><trkpt lat="43.6454401" lon="11.1860946"><ele>248.66666666666666</ele><time>2026-03-28T16:26:27.182Z</time></trkpt><trkpt lat="43.6454953" lon="11.1861464"><ele>250.83333333333331</ele><time>2026-03-28T16:26:28.182Z</time></trkpt><trkpt lat="43.6456127" lon="11.186209"><ele>253.0</ele><time>2026-03-28T16:26:30.182Z</time></trkpt><trkpt lat="43.6456846" lon="11.1862293"><ele>253.00000000000003</ele><time>2026-03-28T16:26:31.182Z</time></trkpt><trkpt lat="43.6457566" lon="11.1862604"><ele>253.0</ele><time>2026-03-28T16:26:32.182Z</time></trkpt><trkpt lat="43.6458246" lon="11.1862997"><ele>253.00000000000003</ele><time>2026-03-28T16:26:33.182Z</time></trkpt><trkpt lat="43.6458917" lon="11.1863357"><ele>253.00000000000003</ele><time>2026-03-28T16:26:34.183Z</time></trkpt><trkpt lat="43.6459637" lon="11.1863726"><ele>253.0</ele><time>2026-03-28T16:26:35.183Z</time></trkpt><trkpt lat="43.6460325" lon="11.186406"><ele>253.00000000000003</ele><time>2026-03-28T16:26:36.181Z</time></trkpt><trkpt lat="43.6461025" lon="11.1864427"><ele>253.00000000000003</ele><time>2026-03-28T16:26:37.182Z</time></trkpt><trkpt lat="43.646175" lon="11.1864824"><ele>255.16666666666666</ele><time>2026-03-28T16:26:38.182Z</time></trkpt><trkpt lat="43.6462487" lon="11.186521"><ele>257.3333333333333</ele><time>2026-03-28T16:26:39.182Z</time></trkpt><trkpt lat="43.6463269" lon="11.1865597"><ele>259.5</ele><time>2026-03-28T16:26:40.182Z</time></trkpt><trkpt lat="43.6464003" lon="11.1866003"><ele>261.6666666666667</ele><time>2026-03-28T16:26:41.182Z</time></trkpt><trkpt lat="43.6464711" lon="11.1866422"><ele>263.83333333333337</ele><time>2026-03-28T16:26:42.182Z</time></trkpt><trkpt lat="43.6465399" lon="11.1866921"><ele>266.0</ele><time>2026-03-28T16:26:43.182Z</time></trkpt><trkpt lat="43.6466033" lon="11.1867552"><ele>266.0</ele><time>2026-03-28T16:26:44.182Z</time></trkpt><trkpt lat="43.6466639" lon="11.1868266"><ele>266.0</ele><time>2026-03-28T16:26:45.182Z</time></trkpt><trkpt lat="43.6467223" lon="11.186903"><ele>266.0</ele><time>2026-03-28T16:26:46.182Z</time></trkpt><trkpt lat="43.6467834" lon="11.186983"><ele>266.0</ele><time>2026-03-28T16:26:47.182Z</time></trkpt><trkpt lat="43.6468403" lon="11.187057"><ele>266.0</ele><time>2026-03-28T16:26:48.182Z</time></trkpt><trkpt lat="43.6468951" lon="11.1871355"><ele>266.0</ele><time>2026-03-28T16:26:49.183Z</time></trkpt><trkpt lat="43.6469534" lon="11.1872104"><ele>266.33333333333337</ele><time>2026-03-28T16:26:50.182Z</time></trkpt><trkpt lat="43.6470082" lon="11.1872969"><ele>266.6666666666667</ele><time>2026-03-28T16:26:51.183Z</time></trkpt><trkpt lat="43.6470663" lon="11.1873851"><ele>267.0</ele><time>2026-03-28T16:26:52.183Z</time></trkpt><trkpt lat="43.6471226" lon="11.1874694"><ele>267.3333333333333</ele><time>2026-03-28T16:26:53.182Z</time></trkpt><trkpt lat="43.6471767" lon="11.1875507"><ele>267.66666666666663</ele><time>2026-03-28T16:26:54.182Z</time></trkpt><trkpt lat="43.6472391" lon="11.1876252"><ele>268.0</ele><time>2026-03-28T16:26:55.183Z</time></trkpt><trkpt lat="43.647307" lon="11.187693"><ele>270.0</ele><time>2026-03-28T16:26:56.182Z</time></trkpt><trkpt lat="43.6473776" lon="11.1877625"><ele>272.0</ele><time>2026-03-28T16:26:57.183Z</time></trkpt><trkpt lat="43.6474556" lon="11.1878274"><ele>274.0</ele><time>2026-03-28T16:26:58.182Z</time></trkpt><trkpt lat="43.6475269" lon="11.1878886"><ele>276.0</ele><time>2026-03-28T16:26:59.182Z</time></trkpt><trkpt lat="43.6476021" lon="11.1879559"><ele>278.0</ele><time>2026-03-28T16:27:00.182Z</time></trkpt><trkpt lat="43.6476745" lon="11.1880302"><ele>280.0</ele><time>2026-03-28T16:27:01.183Z</time></trkpt><trkpt lat="43.6477431" lon="11.1881075"><ele>280.16666666666663</ele><time>2026-03-28T16:27:02.182Z</time></trkpt><trkpt lat="43.6478156" lon="11.1881877"><ele>280.3333333333333</ele><time>2026-03-28T16:27:03.182Z</time></trkpt><trkpt lat="43.6478864" lon="11.1882663"><ele>280.5</ele><time>2026-03-28T16:27:04.183Z</time></trkpt><trkpt lat="43.6479504" lon="11.1883531"><ele>280.6666666666667</ele><time>2026-03-28T16:27:05.182Z</time></trkpt><trkpt lat="43.6479983" lon="11.188413"><ele>280.83333333333337</ele><time>2026-03-28T16:27:06.182Z</time></trkpt><trkpt lat="43.648061" lon="11.1885267"><ele>281.0</ele><time>2026-03-28T16:27:08.183Z</time></trkpt><trkpt lat="43.6481066" lon="11.188671"><ele>281.0</ele><time>2026-03-28T16:27:10.181Z</time></trkpt><trkpt lat="43.6481386" lon="11.1888311"><ele>281.0</ele><time>2026-03-28T16:27:12.182Z</time></trkpt><trkpt lat="43.6481527" lon="11.1889231"><ele>281.0</ele><time>2026-03-28T16:27:13.182Z</time></trkpt><trkpt lat="43.6481723" lon="11.1890173"><ele>281.0</ele><time>2026-03-28T16:27:14.182Z</time></trkpt><trkpt lat="43.6481898" lon="11.1891099"><ele>281.0</ele><time>2026-03-28T16:27:15.182Z</time></trkpt><trkpt lat="43.6482054" lon="11.1892116"><ele>281.0</ele><time>2026-03-28T16:27:16.183Z</time></trkpt><trkpt lat="43.648223" lon="11.1893079"><ele>282.6666666666667</ele><time>2026-03-28T16:27:17.183Z</time></trkpt><trkpt lat="43.6482416" lon="11.1894061"><ele>284.33333333333337</ele><time>2026-03-28T16:27:18.183Z</time></trkpt><trkpt lat="43.6482583" lon="11.1895104"><ele>286.0</ele><time>2026-03-28T16:27:19.182Z</time></trkpt><trkpt lat="43.6482793" lon="11.1896207"><ele>287.6666666666667</ele><time>2026-03-28T16:27:20.183Z</time></trkpt><trkpt lat="43.6483078" lon="11.1897307"><ele>289.3333333333333</ele><time>2026-03-28T16:27:21.182Z</time></trkpt><trkpt lat="43.6483346" lon="11.1898272"><ele>291.0</ele><time>2026-03-28T16:27:22.183Z</time></trkpt><trkpt lat="43.6483502" lon="11.1899214"><ele>291.8333333333333</ele><time>2026-03-28T16:27:23.183Z</time></trkpt><trkpt lat="43.6483668" lon="11.190029"><ele>292.6666666666667</ele><time>2026-03-28T16:27:24.182Z</time></trkpt><trkpt lat="43.6483847" lon="11.1901332"><ele>293.5</ele><time>2026-03-28T16:27:25.182Z</time></trkpt><trkpt lat="43.6484001" lon="11.1902415"><ele>294.33333333333337</ele><time>2026-03-28T16:27:26.182Z</time></trkpt><trkpt lat="43.6484078" lon="11.1903534"><ele>295.1666666666667</ele><time>2026-03-28T16:27:27.183Z</time></trkpt><trkpt lat="43.6484102" lon="11.1904697"><ele>296.0</ele><time>2026-03-28T16:27:28.182Z</time></trkpt><trkpt lat="43.648407" lon="11.1905865"><ele>295.83333333333337</ele><time>2026-03-28T16:27:29.182Z</time></trkpt><trkpt lat="43.6483969" lon="11.1907"><ele>295.6666666666667</ele><time>2026-03-28T16:27:30.182Z</time></trkpt><trkpt lat="43.6483867" lon="11.1908099"><ele>295.5</ele><time>2026-03-28T16:27:31.182Z</time></trkpt><trkpt lat="43.648375" lon="11.1909189"><ele>295.3333333333333</ele><time>2026-03-28T16:27:32.182Z</time></trkpt><trkpt lat="43.6483649" lon="11.1910313"><ele>295.16666666666663</ele><time>2026-03-28T16:27:33.182Z</time></trkpt><trkpt lat="43.648359" lon="11.1911457"><ele>295.0</ele><time>2026-03-28T16:27:34.182Z</time></trkpt><trkpt lat="43.6483509" lon="11.1912608"><ele>295.0</ele><time>2026-03-28T16:27:35.183Z</time></trkpt><trkpt lat="43.6483416" lon="11.1913844"><ele>295.0</ele><time>2026-03-28T16:27:36.182Z</time></trkpt><trkpt lat="43.6483316" lon="11.1915127"><ele>295.0</ele><time>2026-03-28T16:27:37.182Z</time></trkpt><trkpt lat="43.6483219" lon="11.1916461"><ele>295.0</ele><time>2026-03-28T16:27:38.182Z</time></trkpt><trkpt lat="43.6483166" lon="11.1917866"><ele>295.0</ele><time>2026-03-28T16:27:39.183Z</time></trkpt><trkpt lat="43.6483171" lon="11.1919294"><ele>294.8</ele><time>2026-03-28T16:27:40.182Z</time></trkpt><trkpt lat="43.6483359" lon="11.1920626"><ele>294.6</ele><time>2026-03-28T16:27:41.182Z</time></trkpt><trkpt lat="43.6483728" lon="11.1921849"><ele>294.4</ele><time>2026-03-28T16:27:42.182Z</time></trkpt><trkpt lat="43.6484199" lon="11.1923017"><ele>294.2</ele><time>2026-03-28T16:27:43.182Z</time></trkpt><trkpt lat="43.6484685" lon="11.1924208"><ele>294.0</ele><time>2026-03-28T16:27:44.183Z</time></trkpt><trkpt lat="43.6485138" lon="11.192532"><ele>293.8</ele><time>2026-03-28T16:27:45.183Z</time></trkpt><trkpt lat="43.6485632" lon="11.1926384"><ele>293.59999999999997</ele><time>2026-03-28T16:27:46.183Z</time></trkpt><trkpt lat="43.6486144" lon="11.1927555"><ele>293.4</ele><time>2026-03-28T16:27:47.183Z</time></trkpt><trkpt lat="43.6486693" lon="11.1928746"><ele>293.2</ele><time>2026-03-28T16:27:48.183Z</time></trkpt><trkpt lat="43.6487221" lon="11.1929908"><ele>293.0</ele><time>2026-03-28T16:27:49.182Z</time></trkpt><trkpt lat="43.6487722" lon="11.1931016"><ele>291.83333333333337</ele><time>2026-03-28T16:27:50.183Z</time></trkpt><trkpt lat="43.6488196" lon="11.1932039"><ele>290.6666666666667</ele><time>2026-03-28T16:27:51.182Z</time></trkpt><trkpt lat="43.6488659" lon="11.1932964"><ele>289.5</ele><time>2026-03-28T16:27:52.182Z</time></trkpt><trkpt lat="43.6489078" lon="11.1933832"><ele>288.3333333333333</ele><time>2026-03-28T16:27:53.182Z</time></trkpt><trkpt lat="43.6489472" lon="11.1934749"><ele>287.16666666666663</ele><time>2026-03-28T16:27:54.182Z</time></trkpt><trkpt lat="43.6489877" lon="11.1935539"><ele>286.0</ele><time>2026-03-28T16:27:55.182Z</time></trkpt><trkpt lat="43.6490954" lon="11.1936621"><ele>286.0</ele><time>2026-03-28T16:27:57.183Z</time></trkpt><trkpt lat="43.6491624" lon="11.1937087"><ele>286.0</ele><time>2026-03-28T16:27:58.183Z</time></trkpt><trkpt lat="43.6492392" lon="11.1937613"><ele>286.0</ele><time>2026-03-28T16:27:59.182Z</time></trkpt><trkpt lat="43.6493183" lon="11.193813"><ele>286.0</ele><time>2026-03-28T16:28:00.182Z</time></trkpt><trkpt lat="43.6494009" lon="11.1938709"><ele>286.0</ele><time>2026-03-28T16:28:01.183Z</time></trkpt><trkpt lat="43.6494977" lon="11.1939494"><ele>286.0</ele><time>2026-03-28T16:28:02.182Z</time></trkpt><trkpt lat="43.6495989" lon="11.1940561"><ele>286.0</ele><time>2026-03-28T16:28:03.182Z</time></trkpt><trkpt lat="43.6497057" lon="11.1941847"><ele>286.0</ele><time>2026-03-28T16:28:04.182Z</time></trkpt><trkpt lat="43.6498168" lon="11.1943136"><ele>286.0</ele><time>2026-03-28T16:28:05.183Z</time></trkpt><trkpt lat="43.649918" lon="11.1944231"><ele>286.0</ele><time>2026-03-28T16:28:06.182Z</time></trkpt><trkpt lat="43.6500172" lon="11.1945476"><ele>286.0</ele><time>2026-03-28T16:28:07.182Z</time></trkpt><trkpt lat="43.6501096" lon="11.1946783"><ele>286.0</ele><time>2026-03-28T16:28:08.182Z</time></trkpt><trkpt lat="43.6501985" lon="11.1948138"><ele>286.0</ele><time>2026-03-28T16:28:09.182Z</time></trkpt><trkpt lat="43.6502746" lon="11.1949451"><ele>289.25</ele><time>2026-03-28T16:28:10.182Z</time></trkpt><trkpt lat="43.6503503" lon="11.1950725"><ele>292.5</ele><time>2026-03-28T16:28:11.182Z</time></trkpt><trkpt lat="43.6504257" lon="11.1951919"><ele>295.75</ele><time>2026-03-28T16:28:12.182Z</time></trkpt><trkpt lat="43.6505015" lon="11.1953041"><ele>299.0</ele><time>2026-03-28T16:28:13.182Z</time></trkpt><trkpt lat="43.6505774" lon="11.195411"><ele>299.0</ele><time>2026-03-28T16:28:14.182Z</time></trkpt><trkpt lat="43.6506551" lon="11.1955078"><ele>299.0</ele><time>2026-03-28T16:28:15.182Z</time></trkpt><trkpt lat="43.6507502" lon="11.1955985"><ele>299.0</ele><time>2026-03-28T16:28:16.182Z</time></trkpt><trkpt lat="43.6508719" lon="11.195645"><ele>299.0</ele><time>2026-03-28T16:28:17.183Z</time></trkpt><trkpt lat="43.6509916" lon="11.1957046"><ele>299.4</ele><time>2026-03-28T16:28:18.182Z</time></trkpt><trkpt lat="43.6511026" lon="11.1957567"><ele>299.79999999999995</ele><time>2026-03-28T16:28:19.182Z</time></trkpt><trkpt lat="43.6512093" lon="11.1958058"><ele>300.20000000000005</ele><time>2026-03-28T16:28:20.182Z</time></trkpt><trkpt lat="43.6513012" lon="11.1958483"><ele>300.6</ele><time>2026-03-28T16:28:21.182Z</time></trkpt><trkpt lat="43.6513804" lon="11.1958846"><ele>301.0</ele><time>2026-03-28T16:28:22.182Z</time></trkpt><trkpt lat="43.6514404" lon="11.1959135"><ele>301.0</ele><time>2026-03-28T16:28:23.183Z</time></trkpt><trkpt lat="43.6515476" lon="11.1959582"><ele>301.0</ele><time>2026-03-28T16:28:25.183Z</time></trkpt><trkpt lat="43.651636" lon="11.1959912"><ele>301.0</ele><time>2026-03-28T16:28:27.182Z</time></trkpt><trkpt lat="43.6517115" lon="11.1960283"><ele>301.0</ele><time>2026-03-28T16:28:29.183Z</time></trkpt><trkpt lat="43.6517752" lon="11.1960566"><ele>301.0</ele><time>2026-03-28T16:28:31.182Z</time></trkpt><trkpt lat="43.651841" lon="11.196087"><ele>301.0</ele><time>2026-03-28T16:28:48.183Z</time></trkpt><trkpt lat="43.6519081" lon="11.1961298"><ele>299.40000000000003</ele><time>2026-03-28T16:29:06.183Z</time></trkpt><trkpt lat="43.651977" lon="11.1961696"><ele>297.8</ele><time>2026-03-28T16:29:12.182Z</time></trkpt><trkpt lat="43.6520719" lon="11.1961087"><ele>296.20000000000005</ele><time>2026-03-28T16:29:14.182Z</time></trkpt><trkpt lat="43.6521353" lon="11.1960397"><ele>294.6</ele><time>2026-03-28T16:29:15.182Z</time></trkpt><trkpt lat="43.6522115" lon="11.1959522"><ele>293.0</ele><time>2026-03-28T16:29:16.182Z</time></trkpt><trkpt lat="43.6523015" lon="11.1958625"><ele>293.0</ele><time>2026-03-28T16:29:17.182Z</time></trkpt><trkpt lat="43.6524114" lon="11.1957663"><ele>293.0</ele><time>2026-03-28T16:29:18.183Z</time></trkpt><trkpt lat="43.6525322" lon="11.1956711"><ele>293.0</ele><time>2026-03-28T16:29:19.182Z</time></trkpt><trkpt lat="43.6526575" lon="11.1955866"><ele>293.0</ele><time>2026-03-28T16:29:20.183Z</time></trkpt><trkpt lat="43.6527793" lon="11.1955195"><ele>291.25</ele><time>2026-03-28T16:29:21.182Z</time></trkpt><trkpt lat="43.6528977" lon="11.1954636"><ele>289.5</ele><time>2026-03-28T16:29:22.182Z</time></trkpt><trkpt lat="43.6530149" lon="11.1953923"><ele>287.75</ele><time>2026-03-28T16:29:23.181Z</time></trkpt><trkpt lat="43.6531277" lon="11.1952972"><ele>286.0</ele><time>2026-03-28T16:29:24.182Z</time></trkpt><trkpt lat="43.653232" lon="11.195199"><ele>286.0</ele><time>2026-03-28T16:29:25.183Z</time></trkpt><trkpt lat="43.6533277" lon="11.1951061"><ele>286.0</ele><time>2026-03-28T16:29:26.182Z</time></trkpt><trkpt lat="43.6534297" lon="11.1950093"><ele>286.0</ele><time>2026-03-28T16:29:27.183Z</time></trkpt><trkpt lat="43.6535283" lon="11.1949189"><ele>286.0</ele><time>2026-03-28T16:29:28.182Z</time></trkpt><trkpt lat="43.6536267" lon="11.1948237"><ele>286.0</ele><time>2026-03-28T16:29:29.182Z</time></trkpt><trkpt lat="43.6537329" lon="11.1947121"><ele>286.0</ele><time>2026-03-28T16:29:30.183Z</time></trkpt><trkpt lat="43.6538467" lon="11.1945942"><ele>286.0</ele><time>2026-03-28T16:29:31.183Z</time></trkpt><trkpt lat="43.6539628" lon="11.1944746"><ele>286.0</ele><time>2026-03-28T16:29:32.182Z</time></trkpt><trkpt lat="43.6540773" lon="11.194348"><ele>286.0</ele><time>2026-03-28T16:29:33.182Z</time></trkpt><trkpt lat="43.6541914" lon="11.1942222"><ele>286.0</ele><time>2026-03-28T16:29:34.182Z</time></trkpt><trkpt lat="43.654306" lon="11.1940881"><ele>286.0</ele><time>2026-03-28T16:29:35.182Z</time></trkpt><trkpt lat="43.6544188" lon="11.1939492"><ele>286.0</ele><time>2026-03-28T16:29:36.183Z</time></trkpt><trkpt lat="43.6545311" lon="11.1938118"><ele>288.0</ele><time>2026-03-28T16:29:37.183Z</time></trkpt><trkpt lat="43.6546362" lon="11.193687"><ele>290.0</ele><time>2026-03-28T16:29:38.183Z</time></trkpt><trkpt lat="43.6547317" lon="11.1935739"><ele>292.0</ele><time>2026-03-28T16:29:39.183Z</time></trkpt><trkpt lat="43.6548276" lon="11.1934554"><ele>294.0</ele><time>2026-03-28T16:29:40.182Z</time></trkpt><trkpt lat="43.6549272" lon="11.1933366"><ele>294.0</ele><time>2026-03-28T16:29:41.183Z</time></trkpt><trkpt lat="43.6550257" lon="11.1932013"><ele>294.0</ele><time>2026-03-28T16:29:42.183Z</time></trkpt><trkpt lat="43.6551247" lon="11.1930507"><ele>294.0</ele><time>2026-03-28T16:29:43.183Z</time></trkpt><trkpt lat="43.6551831" lon="11.1928911"><ele>294.0</ele><time>2026-03-28T16:29:44.183Z</time></trkpt><trkpt lat="43.6552589" lon="11.1927364"><ele>294.0</ele><time>2026-03-28T16:29:45.182Z</time></trkpt><trkpt lat="43.6553285" lon="11.1925705"><ele>294.0</ele><time>2026-03-28T16:29:46.183Z</time></trkpt><trkpt lat="43.655388" lon="11.1924131"><ele>294.0</ele><time>2026-03-28T16:29:47.182Z</time></trkpt><trkpt lat="43.6554401" lon="11.1922698"><ele>294.0</ele><time>2026-03-28T16:29:48.183Z</time></trkpt><trkpt lat="43.6554969" lon="11.1921138"><ele>294.2</ele><time>2026-03-28T16:29:49.182Z</time></trkpt><trkpt lat="43.6555543" lon="11.1919558"><ele>294.4</ele><time>2026-03-28T16:29:50.182Z</time></trkpt><trkpt lat="43.655603" lon="11.1918171"><ele>294.6</ele><time>2026-03-28T16:29:51.181Z</time></trkpt><trkpt lat="43.6556477" lon="11.1916915"><ele>294.8</ele><time>2026-03-28T16:29:52.182Z</time></trkpt><trkpt lat="43.6556899" lon="11.1915545"><ele>295.0</ele><time>2026-03-28T16:29:53.182Z</time></trkpt><trkpt lat="43.6557223" lon="11.1914108"><ele>295.0</ele><time>2026-03-28T16:29:54.182Z</time></trkpt><trkpt lat="43.6557331" lon="11.1912637"><ele>295.0</ele><time>2026-03-28T16:29:55.182Z</time></trkpt><trkpt lat="43.6557222" lon="11.191111"><ele>295.0</ele><time>2026-03-28T16:29:56.182Z</time></trkpt><trkpt lat="43.6556981" lon="11.1909522"><ele>295.0</ele><time>2026-03-28T16:29:57.183Z</time></trkpt><trkpt lat="43.6556582" lon="11.1907911"><ele>294.5</ele><time>2026-03-28T16:29:58.182Z</time></trkpt><trkpt lat="43.6556206" lon="11.1906385"><ele>294.0</ele><time>2026-03-28T16:29:59.182Z</time></trkpt><trkpt lat="43.655585" lon="11.1904757"><ele>293.5</ele><time>2026-03-28T16:30:00.183Z</time></trkpt><trkpt lat="43.6555466" lon="11.1903139"><ele>293.0</ele><time>2026-03-28T16:30:01.182Z</time></trkpt><trkpt lat="43.6555063" lon="11.1901505"><ele>293.0</ele><time>2026-03-28T16:30:02.182Z</time></trkpt><trkpt lat="43.6554634" lon="11.1899796"><ele>293.0</ele><time>2026-03-28T16:30:03.182Z</time></trkpt><trkpt lat="43.6554254" lon="11.1898197"><ele>293.0</ele><time>2026-03-28T16:30:04.182Z</time></trkpt><trkpt lat="43.65539" lon="11.1896552"><ele>293.0</ele><time>2026-03-28T16:30:05.182Z</time></trkpt><trkpt lat="43.6553629" lon="11.1894886"><ele>293.25</ele><time>2026-03-28T16:30:06.182Z</time></trkpt><trkpt lat="43.6553445" lon="11.1893307"><ele>293.5</ele><time>2026-03-28T16:30:07.182Z</time></trkpt><trkpt lat="43.6553301" lon="11.1891624"><ele>293.75</ele><time>2026-03-28T16:30:08.183Z</time></trkpt><trkpt lat="43.6553217" lon="11.188988"><ele>294.0</ele><time>2026-03-28T16:30:09.182Z</time></trkpt><trkpt lat="43.6553232" lon="11.1888312"><ele>294.75</ele><time>2026-03-28T16:30:10.183Z</time></trkpt><trkpt lat="43.6553319" lon="11.1886633"><ele>295.5</ele><time>2026-03-28T16:30:11.181Z</time></trkpt><trkpt lat="43.6553426" lon="11.1884924"><ele>296.25</ele><time>2026-03-28T16:30:12.182Z</time></trkpt><trkpt lat="43.6553596" lon="11.188335"><ele>297.0</ele><time>2026-03-28T16:30:13.182Z</time></trkpt><trkpt lat="43.6553863" lon="11.1881922"><ele>298.0</ele><time>2026-03-28T16:30:14.181Z</time></trkpt><trkpt lat="43.6554137" lon="11.1880741"><ele>299.0</ele><time>2026-03-28T16:30:15.182Z</time></trkpt><trkpt lat="43.6554438" lon="11.1879733"><ele>300.0</ele><time>2026-03-28T16:30:16.182Z</time></trkpt><trkpt lat="43.6554782" lon="11.1878803"><ele>301.0</ele><time>2026-03-28T16:30:17.183Z</time></trkpt><trkpt lat="43.6555216" lon="11.1877959"><ele>302.0</ele><time>2026-03-28T16:30:18.182Z</time></trkpt><trkpt lat="43.6556109" lon="11.187679"><ele>303.0</ele><time>2026-03-28T16:30:20.183Z</time></trkpt><trkpt lat="43.6556778" lon="11.1876191"><ele>303.0</ele><time>2026-03-28T16:30:21.182Z</time></trkpt><trkpt lat="43.6557656" lon="11.1875543"><ele>303.0</ele><time>2026-03-28T16:30:22.182Z</time></trkpt><trkpt lat="43.6558699" lon="11.1875019"><ele>303.0</ele><time>2026-03-28T16:30:23.182Z</time></trkpt><trkpt lat="43.6559861" lon="11.1874796"><ele>303.0</ele><time>2026-03-28T16:30:24.183Z</time></trkpt><trkpt lat="43.6561031" lon="11.1874812"><ele>303.0</ele><time>2026-03-28T16:30:25.182Z</time></trkpt><trkpt lat="43.6562147" lon="11.1875012"><ele>303.6</ele><time>2026-03-28T16:30:26.183Z</time></trkpt><trkpt lat="43.6563181" lon="11.187532"><ele>304.20000000000005</ele><time>2026-03-28T16:30:27.182Z</time></trkpt><trkpt lat="43.6564234" lon="11.1875635"><ele>304.8</ele><time>2026-03-28T16:30:28.183Z</time></trkpt><trkpt lat="43.6565311" lon="11.1876"><ele>305.40000000000003</ele><time>2026-03-28T16:30:29.182Z</time></trkpt><trkpt lat="43.6566442" lon="11.1876462"><ele>306.0</ele><time>2026-03-28T16:30:30.182Z</time></trkpt><trkpt lat="43.6567595" lon="11.1876933"><ele>306.0</ele><time>2026-03-28T16:30:31.183Z</time></trkpt><trkpt lat="43.6568663" lon="11.1877433"><ele>306.0</ele><time>2026-03-28T16:30:32.182Z</time></trkpt><trkpt lat="43.6569526" lon="11.1877911"><ele>306.0</ele><time>2026-03-28T16:30:33.182Z</time></trkpt><trkpt lat="43.6570366" lon="11.1878338"><ele>306.0</ele><time>2026-03-28T16:30:34.182Z</time></trkpt><trkpt lat="43.6571201" lon="11.1878723"><ele>306.0</ele><time>2026-03-28T16:30:35.182Z</time></trkpt><trkpt lat="43.6571997" lon="11.1879119"><ele>306.5</ele><time>2026-03-28T16:30:36.182Z</time></trkpt><trkpt lat="43.6572807" lon="11.187956"><ele>307.0</ele><time>2026-03-28T16:30:37.182Z</time></trkpt><trkpt lat="43.6573617" lon="11.1879986"><ele>307.5</ele><time>2026-03-28T16:30:38.183Z</time></trkpt><trkpt lat="43.6574466" lon="11.1880421"><ele>308.0</ele><time>2026-03-28T16:30:39.182Z</time></trkpt><trkpt lat="43.6575299" lon="11.1880855"><ele>308.5</ele><time>2026-03-28T16:30:40.182Z</time></trkpt><trkpt lat="43.6576076" lon="11.1881278"><ele>309.0</ele><time>2026-03-28T16:30:41.183Z</time></trkpt><trkpt lat="43.657692" lon="11.1881733"><ele>308.3333333333333</ele><time>2026-03-28T16:30:42.182Z</time></trkpt><trkpt lat="43.6577713" lon="11.1882136"><ele>307.6666666666667</ele><time>2026-03-28T16:30:43.183Z</time></trkpt><trkpt lat="43.6578433" lon="11.1882458"><ele>307.0</ele><time>2026-03-28T16:30:44.182Z</time></trkpt><trkpt lat="43.6579166" lon="11.1882829"><ele>306.33333333333337</ele><time>2026-03-28T16:30:45.182Z</time></trkpt><trkpt lat="43.6579821" lon="11.1883162"><ele>305.6666666666667</ele><time>2026-03-28T16:30:46.182Z</time></trkpt><trkpt lat="43.6580891" lon="11.1883778"><ele>305.0</ele><time>2026-03-28T16:30:48.183Z</time></trkpt><trkpt lat="43.6581757" lon="11.1884535"><ele>305.0</ele><time>2026-03-28T16:30:50.182Z</time></trkpt><trkpt lat="43.6582528" lon="11.1885331"><ele>305.0</ele><time>2026-03-28T16:30:52.183Z</time></trkpt><trkpt lat="43.6583317" lon="11.1886056"><ele>305.0</ele><time>2026-03-28T16:30:54.183Z</time></trkpt><trkpt lat="43.6583833" lon="11.1886621"><ele>305.0</ele><time>2026-03-28T16:30:56.183Z</time></trkpt><trkpt lat="43.6584406" lon="11.1887441"><ele>305.0</ele><time>2026-03-28T16:31:01.182Z</time></trkpt><trkpt lat="43.6585197" lon="11.1888101"><ele>305.0</ele><time>2026-03-28T16:31:03.182Z</time></trkpt><trkpt lat="43.6585712" lon="11.1888624"><ele>304.6</ele><time>2026-03-28T16:31:06.182Z</time></trkpt><trkpt lat="43.6586493" lon="11.1889089"><ele>304.2</ele><time>2026-03-28T16:34:30.174Z</time></trkpt><trkpt lat="43.6587333" lon="11.188995"><ele>303.8</ele><time>2026-03-28T16:34:32.183Z</time></trkpt><trkpt lat="43.6588174" lon="11.189096"><ele>303.4</ele><time>2026-03-28T16:34:34.182Z</time></trkpt><trkpt lat="43.658894" lon="11.1891811"><ele>303.0</ele><time>2026-03-28T16:34:36.183Z</time></trkpt><trkpt lat="43.6589779" lon="11.189257"><ele>303.0</ele><time>2026-03-28T16:34:38.182Z</time></trkpt><trkpt lat="43.6590459" lon="11.1893231"><ele>303.0</ele><time>2026-03-28T16:34:40.182Z</time></trkpt><trkpt lat="43.65912" lon="11.189375"><ele>303.0</ele><time>2026-03-28T16:34:42.182Z</time></trkpt><trkpt lat="43.6592107" lon="11.1894322"><ele>303.0</ele><time>2026-03-28T16:34:44.182Z</time></trkpt><trkpt lat="43.6593014" lon="11.1894826"><ele>303.0</ele><time>2026-03-28T16:34:46.183Z</time></trkpt><trkpt lat="43.6593832" lon="11.1895249"><ele>301.6</ele><time>2026-03-28T16:34:48.182Z</time></trkpt><trkpt lat="43.6594883" lon="11.1895814"><ele>300.20000000000005</ele><time>2026-03-28T16:34:50.183Z</time></trkpt><trkpt lat="43.6595629" lon="11.1896363"><ele>298.8</ele><time>2026-03-28T16:34:51.183Z</time></trkpt><trkpt lat="43.6596429" lon="11.1896985"><ele>297.40000000000003</ele><time>2026-03-28T16:34:52.183Z</time></trkpt><trkpt lat="43.6597229" lon="11.1897637"><ele>296.0</ele><time>2026-03-28T16:34:53.182Z</time></trkpt><trkpt lat="43.6597967" lon="11.1898242"><ele>296.6666666666667</ele><time>2026-03-28T16:34:54.182Z</time></trkpt><trkpt lat="43.659864" lon="11.1898837"><ele>297.33333333333337</ele><time>2026-03-28T16:34:55.182Z</time></trkpt><trkpt lat="43.659929" lon="11.1899366"><ele>298.0</ele><time>2026-03-28T16:34:56.182Z</time></trkpt><trkpt lat="43.6600079" lon="11.1900031"><ele>298.6666666666667</ele><time>2026-03-28T16:34:57.182Z</time></trkpt><trkpt lat="43.6600827" lon="11.1900667"><ele>299.3333333333333</ele><time>2026-03-28T16:34:58.182Z</time></trkpt><trkpt lat="43.6601587" lon="11.1901278"><ele>300.0</ele><time>2026-03-28T16:34:59.182Z</time></trkpt><trkpt lat="43.6602265" lon="11.1901877"><ele>298.2</ele><time>2026-03-28T16:35:00.183Z</time></trkpt><trkpt lat="43.6602929" lon="11.1902411"><ele>296.4</ele><time>2026-03-28T16:35:01.182Z</time></trkpt><trkpt lat="43.6603651" lon="11.1903004"><ele>294.6</ele><time>2026-03-28T16:35:02.183Z</time></trkpt><trkpt lat="43.6604444" lon="11.1903619"><ele>292.8</ele><time>2026-03-28T16:35:03.182Z</time></trkpt><trkpt lat="43.6605294" lon="11.1904154"><ele>291.0</ele><time>2026-03-28T16:35:04.182Z</time></trkpt><trkpt lat="43.6606349" lon="11.1904561"><ele>291.0</ele><time>2026-03-28T16:35:05.183Z</time></trkpt><trkpt lat="43.6607641" lon="11.1904893"><ele>291.0</ele><time>2026-03-28T16:35:06.183Z</time></trkpt><trkpt lat="43.6608872" lon="11.1905251"><ele>291.0</ele><time>2026-03-28T16:35:07.182Z</time></trkpt><trkpt lat="43.6610076" lon="11.1905553"><ele>291.0</ele><time>2026-03-28T16:35:08.182Z</time></trkpt><trkpt lat="43.6611428" lon="11.1905901"><ele>291.25</ele><time>2026-03-28T16:35:09.183Z</time></trkpt><trkpt lat="43.6612736" lon="11.1906319"><ele>291.5</ele><time>2026-03-28T16:35:10.183Z</time></trkpt><trkpt lat="43.6613904" lon="11.1906673"><ele>291.75</ele><time>2026-03-28T16:35:11.183Z</time></trkpt><trkpt lat="43.661496" lon="11.1906868"><ele>292.0</ele><time>2026-03-28T16:35:12.183Z</time></trkpt><trkpt lat="43.6616044" lon="11.1907134"><ele>292.0</ele><time>2026-03-28T16:35:13.182Z</time></trkpt><trkpt lat="43.6617121" lon="11.1907518"><ele>292.0</ele><time>2026-03-28T16:35:14.183Z</time></trkpt><trkpt lat="43.6618096" lon="11.1907958"><ele>292.0</ele><time>2026-03-28T16:35:15.182Z</time></trkpt><trkpt lat="43.6618935" lon="11.1908478"><ele>292.0</ele><time>2026-03-28T16:35:16.182Z</time></trkpt><trkpt lat="43.6619617" lon="11.190895"><ele>292.0</ele><time>2026-03-28T16:35:17.183Z</time></trkpt><trkpt lat="43.6620431" lon="11.1909781"><ele>290.8333333333333</ele><time>2026-03-28T16:35:19.183Z</time></trkpt><trkpt lat="43.6620859" lon="11.1911324"><ele>289.66666666666663</ele><time>2026-03-28T16:35:22.183Z</time></trkpt><trkpt lat="43.6621116" lon="11.1912146"><ele>288.5</ele><time>2026-03-28T16:35:23.182Z</time></trkpt><trkpt lat="43.6621571" lon="11.1913095"><ele>287.3333333333333</ele><time>2026-03-28T16:35:24.182Z</time></trkpt><trkpt lat="43.6622021" lon="11.191373"><ele>286.1666666666667</ele><time>2026-03-28T16:35:25.182Z</time></trkpt><trkpt lat="43.6622993" lon="11.1913951"><ele>285.0</ele><time>2026-03-28T16:35:27.182Z</time></trkpt><trkpt lat="43.6623813" lon="11.1913174"><ele>285.0</ele><time>2026-03-28T16:35:29.182Z</time></trkpt><trkpt lat="43.6624321" lon="11.1912509"><ele>285.0</ele><time>2026-03-28T16:35:31.183Z</time></trkpt><trkpt lat="43.6625207" lon="11.1912062"><ele>285.0</ele><time>2026-03-28T16:35:33.182Z</time></trkpt><trkpt lat="43.66259" lon="11.1912115"><ele>285.0</ele><time>2026-03-28T16:35:34.183Z</time></trkpt><trkpt lat="43.6626668" lon="11.1912283"><ele>285.0</ele><time>2026-03-28T16:35:35.182Z</time></trkpt><trkpt lat="43.6627497" lon="11.1912483"><ele>285.0</ele><time>2026-03-28T16:35:36.182Z</time></trkpt><trkpt lat="43.6628427" lon="11.191269"><ele>284.2</ele><time>2026-03-28T16:35:37.183Z</time></trkpt><trkpt lat="43.6629433" lon="11.1912887"><ele>283.4</ele><time>2026-03-28T16:35:38.182Z</time></trkpt><trkpt lat="43.6630498" lon="11.1913061"><ele>282.6</ele><time>2026-03-28T16:35:39.182Z</time></trkpt><trkpt lat="43.6631627" lon="11.1913282"><ele>281.8</ele><time>2026-03-28T16:35:40.182Z</time></trkpt><trkpt lat="43.663282" lon="11.1913498"><ele>281.0</ele><time>2026-03-28T16:35:41.183Z</time></trkpt><trkpt lat="43.6633969" lon="11.1913679"><ele>281.0</ele><time>2026-03-28T16:35:42.182Z</time></trkpt><trkpt lat="43.6635152" lon="11.1913902"><ele>281.0</ele><time>2026-03-28T16:35:43.183Z</time></trkpt><trkpt lat="43.6636299" lon="11.1914159"><ele>281.0</ele><time>2026-03-28T16:35:44.182Z</time></trkpt><trkpt lat="43.6637423" lon="11.1914503"><ele>281.0</ele><time>2026-03-28T16:35:45.183Z</time></trkpt><trkpt lat="43.6638541" lon="11.1915023"><ele>281.25</ele><time>2026-03-28T16:35:46.182Z</time></trkpt><trkpt lat="43.663962" lon="11.1915711"><ele>281.5</ele><time>2026-03-28T16:35:47.182Z</time></trkpt><trkpt lat="43.6640698" lon="11.1916534"><ele>281.75</ele><time>2026-03-28T16:35:48.182Z</time></trkpt><trkpt lat="43.6641784" lon="11.1917475"><ele>282.0</ele><time>2026-03-28T16:35:49.182Z</time></trkpt><trkpt lat="43.6642862" lon="11.1918386"><ele>282.0</ele><time>2026-03-28T16:35:50.182Z</time></trkpt><trkpt lat="43.6643982" lon="11.1919343"><ele>282.0</ele><time>2026-03-28T16:35:51.183Z</time></trkpt><trkpt lat="43.6645064" lon="11.192037"><ele>282.0</ele><time>2026-03-28T16:35:52.182Z</time></trkpt><trkpt lat="43.6646019" lon="11.192138"><ele>282.0</ele><time>2026-03-28T16:35:53.181Z</time></trkpt><trkpt lat="43.6646892" lon="11.192239"><ele>282.0</ele><time>2026-03-28T16:35:54.182Z</time></trkpt><trkpt lat="43.6647777" lon="11.192341"><ele>282.0</ele><time>2026-03-28T16:35:55.183Z</time></trkpt><trkpt lat="43.6648727" lon="11.1924486"><ele>282.0</ele><time>2026-03-28T16:35:56.183Z</time></trkpt><trkpt lat="43.6649781" lon="11.1925643"><ele>282.0</ele><time>2026-03-28T16:35:57.182Z</time></trkpt><trkpt lat="43.665085" lon="11.1926864"><ele>282.0</ele><time>2026-03-28T16:35:58.182Z</time></trkpt><trkpt lat="43.6651844" lon="11.1928017"><ele>282.0</ele><time>2026-03-28T16:35:59.183Z</time></trkpt><trkpt lat="43.6652776" lon="11.1929127"><ele>282.0</ele><time>2026-03-28T16:36:00.182Z</time></trkpt><trkpt lat="43.6653647" lon="11.1930268"><ele>282.0</ele><time>2026-03-28T16:36:01.182Z</time></trkpt><trkpt lat="43.665444" lon="11.1931552"><ele>283.25</ele><time>2026-03-28T16:36:02.182Z</time></trkpt><trkpt lat="43.6655265" lon="11.1932851"><ele>284.5</ele><time>2026-03-28T16:36:03.183Z</time></trkpt><trkpt lat="43.6656144" lon="11.1934106"><ele>285.75</ele><time>2026-03-28T16:36:04.182Z</time></trkpt><trkpt lat="43.6657053" lon="11.1935304"><ele>287.0</ele><time>2026-03-28T16:36:05.182Z</time></trkpt><trkpt lat="43.6657961" lon="11.1936418"><ele>287.0</ele><time>2026-03-28T16:36:06.182Z</time></trkpt><trkpt lat="43.6658788" lon="11.1937493"><ele>287.0</ele><time>2026-03-28T16:36:07.182Z</time></trkpt><trkpt lat="43.6659618" lon="11.1938578"><ele>287.0</ele><time>2026-03-28T16:36:08.182Z</time></trkpt><trkpt lat="43.6660424" lon="11.1939597"><ele>287.0</ele><time>2026-03-28T16:36:09.183Z</time></trkpt><trkpt lat="43.6661181" lon="11.1940561"><ele>287.0</ele><time>2026-03-28T16:36:10.182Z</time></trkpt><trkpt lat="43.6661906" lon="11.1941501"><ele>285.0</ele><time>2026-03-28T16:36:11.183Z</time></trkpt><trkpt lat="43.6662647" lon="11.1942526"><ele>283.0</ele><time>2026-03-28T16:36:12.182Z</time></trkpt><trkpt lat="43.6663379" lon="11.1943613"><ele>281.0</ele><time>2026-03-28T16:36:13.182Z</time></trkpt><trkpt lat="43.666412" lon="11.1944727"><ele>279.0</ele><time>2026-03-28T16:36:14.182Z</time></trkpt><trkpt lat="43.6664979" lon="11.1945922"><ele>277.0</ele><time>2026-03-28T16:36:15.182Z</time></trkpt><trkpt lat="43.6665911" lon="11.1947189"><ele>277.75</ele><time>2026-03-28T16:36:16.182Z</time></trkpt><trkpt lat="43.6666921" lon="11.194849"><ele>278.5</ele><time>2026-03-28T16:36:17.182Z</time></trkpt><trkpt lat="43.6667939" lon="11.1949784"><ele>279.25</ele><time>2026-03-28T16:36:18.182Z</time></trkpt><trkpt lat="43.6668985" lon="11.1951128"><ele>280.0</ele><time>2026-03-28T16:36:19.183Z</time></trkpt><trkpt lat="43.6670039" lon="11.1952474"><ele>278.5</ele><time>2026-03-28T16:36:20.182Z</time></trkpt><trkpt lat="43.6671068" lon="11.1953721"><ele>277.0</ele><time>2026-03-28T16:36:21.182Z</time></trkpt><trkpt lat="43.6672163" lon="11.1954998"><ele>275.5</ele><time>2026-03-28T16:36:22.183Z</time></trkpt><trkpt lat="43.6673354" lon="11.1956206"><ele>274.0</ele><time>2026-03-28T16:36:23.182Z</time></trkpt><trkpt lat="43.6674716" lon="11.1957411"><ele>274.0</ele><time>2026-03-28T16:36:24.182Z</time></trkpt><trkpt lat="43.6676187" lon="11.1958616"><ele>274.0</ele><time>2026-03-28T16:36:25.182Z</time></trkpt><trkpt lat="43.6677713" lon="11.1959837"><ele>274.0</ele><time>2026-03-28T16:36:26.182Z</time></trkpt><trkpt lat="43.6679188" lon="11.1961045"><ele>270.3333333333333</ele><time>2026-03-28T16:36:27.182Z</time></trkpt><trkpt lat="43.6680691" lon="11.196229"><ele>266.6666666666667</ele><time>2026-03-28T16:36:28.183Z</time></trkpt><trkpt lat="43.6682183" lon="11.196351"><ele>263.0</ele><time>2026-03-28T16:36:29.183Z</time></trkpt><trkpt lat="43.6683624" lon="11.1964625"><ele>263.6666666666667</ele><time>2026-03-28T16:36:30.182Z</time></trkpt><trkpt lat="43.6685051" lon="11.1965639"><ele>264.3333333333333</ele><time>2026-03-28T16:36:31.183Z</time></trkpt><trkpt lat="43.6686413" lon="11.1966488"><ele>265.0</ele><time>2026-03-28T16:36:32.182Z</time></trkpt><trkpt lat="43.6687729" lon="11.1967214"><ele>265.0</ele><time>2026-03-28T16:36:33.182Z</time></trkpt><trkpt lat="43.6689095" lon="11.1967666"><ele>265.0</ele><time>2026-03-28T16:36:34.182Z</time></trkpt><trkpt lat="43.6690586" lon="11.1967687"><ele>265.0</ele><time>2026-03-28T16:36:35.182Z</time></trkpt><trkpt lat="43.6692083" lon="11.1967521"><ele>265.0</ele><time>2026-03-28T16:36:36.182Z</time></trkpt><trkpt lat="43.6693487" lon="11.1967177"><ele>265.0</ele><time>2026-03-28T16:36:37.182Z</time></trkpt><trkpt lat="43.6694905" lon="11.1966765"><ele>265.0</ele><time>2026-03-28T16:36:38.183Z</time></trkpt><trkpt lat="43.6696277" lon="11.1966419"><ele>265.0</ele><time>2026-03-28T16:36:39.182Z</time></trkpt><trkpt lat="43.6697602" lon="11.1966089"><ele>265.0</ele><time>2026-03-28T16:36:40.181Z</time></trkpt><trkpt lat="43.6698834" lon="11.1965623"><ele>264.5</ele><time>2026-03-28T16:36:41.182Z</time></trkpt><trkpt lat="43.67001" lon="11.1965004"><ele>264.0</ele><time>2026-03-28T16:36:42.183Z</time></trkpt><trkpt lat="43.6701361" lon="11.1964362"><ele>263.5</ele><time>2026-03-28T16:36:43.182Z</time></trkpt><trkpt lat="43.6702612" lon="11.1963681"><ele>263.0</ele><time>2026-03-28T16:36:44.182Z</time></trkpt><trkpt lat="43.6703859" lon="11.1963017"><ele>263.0</ele><time>2026-03-28T16:36:45.182Z</time></trkpt><trkpt lat="43.6705055" lon="11.196244"><ele>263.0</ele><time>2026-03-28T16:36:46.182Z</time></trkpt><trkpt lat="43.6706238" lon="11.1961903"><ele>263.0</ele><time>2026-03-28T16:36:47.182Z</time></trkpt><trkpt lat="43.6707427" lon="11.1961346"><ele>263.0</ele><time>2026-03-28T16:36:48.182Z</time></trkpt><trkpt lat="43.6708507" lon="11.1960843"><ele>263.0</ele><time>2026-03-28T16:36:49.182Z</time></trkpt><trkpt lat="43.6709513" lon="11.1960352"><ele>263.0</ele><time>2026-03-28T16:36:50.182Z</time></trkpt><trkpt lat="43.671053" lon="11.19598"><ele>263.0</ele><time>2026-03-28T16:36:51.183Z</time></trkpt><trkpt lat="43.6711597" lon="11.1959087"><ele>263.0</ele><time>2026-03-28T16:36:52.183Z</time></trkpt><trkpt lat="43.6712652" lon="11.1958135"><ele>262.75</ele><time>2026-03-28T16:36:53.183Z</time></trkpt><trkpt lat="43.671375" lon="11.1957065"><ele>262.5</ele><time>2026-03-28T16:36:54.182Z</time></trkpt><trkpt lat="43.6714872" lon="11.195593"><ele>262.25</ele><time>2026-03-28T16:36:55.182Z</time></trkpt><trkpt lat="43.671601" lon="11.1954728"><ele>262.0</ele><time>2026-03-28T16:36:56.182Z</time></trkpt><trkpt lat="43.6717081" lon="11.195359"><ele>262.0</ele><time>2026-03-28T16:36:57.183Z</time></trkpt><trkpt lat="43.6718051" lon="11.195245"><ele>262.0</ele><time>2026-03-28T16:36:58.183Z</time></trkpt><trkpt lat="43.6718964" lon="11.1951318"><ele>262.0</ele><time>2026-03-28T16:36:59.183Z</time></trkpt><trkpt lat="43.6719884" lon="11.1950278"><ele>262.0</ele><time>2026-03-28T16:37:00.183Z</time></trkpt><trkpt lat="43.6720894" lon="11.1949425"><ele>262.75</ele><time>2026-03-28T16:37:01.182Z</time></trkpt><trkpt lat="43.6722041" lon="11.194871"><ele>263.5</ele><time>2026-03-28T16:37:02.182Z</time></trkpt><trkpt lat="43.6723247" lon="11.1948141"><ele>264.25</ele><time>2026-03-28T16:37:03.182Z</time></trkpt><trkpt lat="43.6724533" lon="11.1947717"><ele>265.0</ele><time>2026-03-28T16:37:04.183Z</time></trkpt><trkpt lat="43.6725864" lon="11.1947397"><ele>265.0</ele><time>2026-03-28T16:37:05.183Z</time></trkpt><trkpt lat="43.6727106" lon="11.1947095"><ele>265.0</ele><time>2026-03-28T16:37:06.182Z</time></trkpt><trkpt lat="43.6728396" lon="11.1946758"><ele>265.0</ele><time>2026-03-28T16:37:07.182Z</time></trkpt><trkpt lat="43.6729631" lon="11.1946396"><ele>265.0</ele><time>2026-03-28T16:37:08.182Z</time></trkpt><trkpt lat="43.6730804" lon="11.1946026"><ele>264.8</ele><time>2026-03-28T16:37:09.183Z</time></trkpt><trkpt lat="43.6731918" lon="11.1945569"><ele>264.6</ele><time>2026-03-28T16:37:10.182Z</time></trkpt><trkpt lat="43.6732866" lon="11.1945101"><ele>264.4</ele><time>2026-03-28T16:37:11.183Z</time></trkpt><trkpt lat="43.6733825" lon="11.1944543"><ele>264.2</ele><time>2026-03-28T16:37:12.182Z</time></trkpt><trkpt lat="43.6734824" lon="11.194402"><ele>264.0</ele><time>2026-03-28T16:37:13.183Z</time></trkpt><trkpt lat="43.673589" lon="11.1943548"><ele>262.2</ele><time>2026-03-28T16:37:14.183Z</time></trkpt><trkpt lat="43.6736952" lon="11.1943127"><ele>260.4</ele><time>2026-03-28T16:37:15.182Z</time></trkpt><trkpt lat="43.6737988" lon="11.1942746"><ele>258.6</ele><time>2026-03-28T16:37:16.182Z</time></trkpt><trkpt lat="43.673903" lon="11.1942464"><ele>256.8</ele><time>2026-03-28T16:37:17.182Z</time></trkpt><trkpt lat="43.6740103" lon="11.1942278"><ele>255.0</ele><time>2026-03-28T16:37:18.182Z</time></trkpt><trkpt lat="43.6741122" lon="11.1942222"><ele>255.0</ele><time>2026-03-28T16:37:19.182Z</time></trkpt><trkpt lat="43.6742112" lon="11.1942193"><ele>255.0</ele><time>2026-03-28T16:37:20.181Z</time></trkpt><trkpt lat="43.6743064" lon="11.1942201"><ele>255.0</ele><time>2026-03-28T16:37:21.183Z</time></trkpt><trkpt lat="43.6743958" lon="11.1942259"><ele>255.0</ele><time>2026-03-28T16:37:22.182Z</time></trkpt><trkpt lat="43.6744831" lon="11.1942323"><ele>255.0</ele><time>2026-03-28T16:37:23.183Z</time></trkpt><trkpt lat="43.6745666" lon="11.1942365"><ele>254.0</ele><time>2026-03-28T16:37:24.181Z</time></trkpt><trkpt lat="43.6746506" lon="11.1942368"><ele>253.0</ele><time>2026-03-28T16:37:25.183Z</time></trkpt><trkpt lat="43.6747337" lon="11.1942376"><ele>252.0</ele><time>2026-03-28T16:37:26.183Z</time></trkpt><trkpt lat="43.6748146" lon="11.1942385"><ele>251.0</ele><time>2026-03-28T16:37:27.183Z</time></trkpt><trkpt lat="43.6748978" lon="11.1942338"><ele>250.0</ele><time>2026-03-28T16:37:28.182Z</time></trkpt><trkpt lat="43.6749803" lon="11.1942286"><ele>249.0</ele><time>2026-03-28T16:37:29.182Z</time></trkpt><trkpt lat="43.6750639" lon="11.1942203"><ele>249.0</ele><time>2026-03-28T16:37:30.183Z</time></trkpt><trkpt lat="43.6751468" lon="11.194212"><ele>249.0</ele><time>2026-03-28T16:37:31.182Z</time></trkpt><trkpt lat="43.6752299" lon="11.1942049"><ele>249.0</ele><time>2026-03-28T16:37:32.182Z</time></trkpt><trkpt lat="43.6753192" lon="11.1941988"><ele>249.0</ele><time>2026-03-28T16:37:33.182Z</time></trkpt><trkpt lat="43.6754128" lon="11.1941867"><ele>249.0</ele><time>2026-03-28T16:37:34.182Z</time></trkpt><trkpt lat="43.675506" lon="11.1941686"><ele>249.0</ele><time>2026-03-28T16:37:35.183Z</time></trkpt><trkpt lat="43.6756012" lon="11.1941448"><ele>250.25</ele><time>2026-03-28T16:37:36.182Z</time></trkpt><trkpt lat="43.6757058" lon="11.1941106"><ele>251.5</ele><time>2026-03-28T16:37:37.182Z</time></trkpt><trkpt lat="43.6758125" lon="11.1940596"><ele>252.75</ele><time>2026-03-28T16:37:38.182Z</time></trkpt><trkpt lat="43.675917" lon="11.1940008"><ele>254.0</ele><time>2026-03-28T16:37:39.183Z</time></trkpt><trkpt lat="43.6760332" lon="11.1939277"><ele>255.6</ele><time>2026-03-28T16:37:40.183Z</time></trkpt><trkpt lat="43.6761414" lon="11.1938585"><ele>257.2</ele><time>2026-03-28T16:37:41.182Z</time></trkpt><trkpt lat="43.6762391" lon="11.1937994"><ele>258.79999999999995</ele><time>2026-03-28T16:37:42.182Z</time></trkpt><trkpt lat="43.6763344" lon="11.1937396"><ele>260.4</ele><time>2026-03-28T16:37:43.182Z</time></trkpt><trkpt lat="43.6764209" lon="11.1936795"><ele>262.0</ele><time>2026-03-28T16:37:44.183Z</time></trkpt><trkpt lat="43.6765029" lon="11.1936252"><ele>262.0</ele><time>2026-03-28T16:37:45.182Z</time></trkpt><trkpt lat="43.6765871" lon="11.1935701"><ele>262.0</ele><time>2026-03-28T16:37:46.183Z</time></trkpt><trkpt lat="43.6766699" lon="11.1935128"><ele>262.0</ele><time>2026-03-28T16:37:47.182Z</time></trkpt><trkpt lat="43.6767501" lon="11.1934614"><ele>262.0</ele><time>2026-03-28T16:37:48.183Z</time></trkpt><trkpt lat="43.6768281" lon="11.1934084"><ele>262.0</ele><time>2026-03-28T16:37:49.183Z</time></trkpt><trkpt lat="43.6768987" lon="11.1933602"><ele>262.0</ele><time>2026-03-28T16:37:50.182Z</time></trkpt><trkpt lat="43.6769628" lon="11.1933043"><ele>261.7142857142857</ele><time>2026-03-28T16:37:51.183Z</time></trkpt><trkpt lat="43.6770204" lon="11.1932475"><ele>261.42857142857144</ele><time>2026-03-28T16:37:52.182Z</time></trkpt><trkpt lat="43.6770788" lon="11.1931873"><ele>261.14285714285717</ele><time>2026-03-28T16:37:53.183Z</time></trkpt><trkpt lat="43.6771331" lon="11.193127"><ele>260.8571428571429</ele><time>2026-03-28T16:37:54.182Z</time></trkpt><trkpt lat="43.6771875" lon="11.1930659"><ele>260.57142857142856</ele><time>2026-03-28T16:37:55.183Z</time></trkpt><trkpt lat="43.6772397" lon="11.193003"><ele>260.28571428571433</ele><time>2026-03-28T16:37:56.182Z</time></trkpt><trkpt lat="43.6772875" lon="11.1929375"><ele>260.0</ele><time>2026-03-28T16:37:57.182Z</time></trkpt><trkpt lat="43.6773407" lon="11.1928751"><ele>260.0</ele><time>2026-03-28T16:37:58.183Z</time></trkpt><trkpt lat="43.677403" lon="11.1928045"><ele>260.0</ele><time>2026-03-28T16:37:59.182Z</time></trkpt><trkpt lat="43.6774762" lon="11.1927277"><ele>260.0</ele><time>2026-03-28T16:38:00.182Z</time></trkpt><trkpt lat="43.6775633" lon="11.1926552"><ele>260.0</ele><time>2026-03-28T16:38:01.183Z</time></trkpt><trkpt lat="43.6776591" lon="11.192585"><ele>260.0</ele><time>2026-03-28T16:38:02.183Z</time></trkpt><trkpt lat="43.6777672" lon="11.1925156"><ele>260.25</ele><time>2026-03-28T16:38:03.183Z</time></trkpt><trkpt lat="43.6778896" lon="11.1924503"><ele>260.5</ele><time>2026-03-28T16:38:04.182Z</time></trkpt><trkpt lat="43.6780141" lon="11.1923934"><ele>260.75</ele><time>2026-03-28T16:38:05.183Z</time></trkpt><trkpt lat="43.6781261" lon="11.1923454"><ele>261.0</ele><time>2026-03-28T16:38:06.182Z</time></trkpt><trkpt lat="43.6782284" lon="11.1923112"><ele>261.0</ele><time>2026-03-28T16:38:07.182Z</time></trkpt><trkpt lat="43.6783249" lon="11.1922844"><ele>261.0</ele><time>2026-03-28T16:38:08.183Z</time></trkpt><trkpt lat="43.6784248" lon="11.1922735"><ele>261.0</ele><time>2026-03-28T16:38:09.182Z</time></trkpt><trkpt lat="43.6785335" lon="11.1922781"><ele>261.0</ele><time>2026-03-28T16:38:10.182Z</time></trkpt><trkpt lat="43.6786544" lon="11.192287"><ele>261.0</ele><time>2026-03-28T16:38:11.182Z</time></trkpt><trkpt lat="43.678785" lon="11.1922934"><ele>262.0</ele><time>2026-03-28T16:38:12.182Z</time></trkpt><trkpt lat="43.6789127" lon="11.1922949"><ele>263.0</ele><time>2026-03-28T16:38:13.182Z</time></trkpt><trkpt lat="43.679033" lon="11.1922921"><ele>264.0</ele><time>2026-03-28T16:38:14.183Z</time></trkpt><trkpt lat="43.679143" lon="11.1922874"><ele>265.0</ele><time>2026-03-28T16:38:15.182Z</time></trkpt><trkpt lat="43.6792447" lon="11.1922752"><ele>265.0</ele><time>2026-03-28T16:38:16.183Z</time></trkpt><trkpt lat="43.6793491" lon="11.1922721"><ele>265.0</ele><time>2026-03-28T16:38:17.182Z</time></trkpt><trkpt lat="43.679458" lon="11.1922913"><ele>265.0</ele><time>2026-03-28T16:38:18.182Z</time></trkpt><trkpt lat="43.6795612" lon="11.1923322"><ele>265.0</ele><time>2026-03-28T16:38:19.182Z</time></trkpt><trkpt lat="43.6796674" lon="11.192393"><ele>265.0</ele><time>2026-03-28T16:38:20.182Z</time></trkpt><trkpt lat="43.679774" lon="11.192464"><ele>264.5</ele><time>2026-03-28T16:38:21.182Z</time></trkpt><trkpt lat="43.6798828" lon="11.1925451"><ele>264.0</ele><time>2026-03-28T16:38:22.183Z</time></trkpt><trkpt lat="43.6799868" lon="11.1926384"><ele>263.5</ele><time>2026-03-28T16:38:23.182Z</time></trkpt><trkpt lat="43.6800819" lon="11.1927292"><ele>263.0</ele><time>2026-03-28T16:38:24.182Z</time></trkpt><trkpt lat="43.6801769" lon="11.1928229"><ele>263.5</ele><time>2026-03-28T16:38:25.182Z</time></trkpt><trkpt lat="43.6802742" lon="11.1929261"><ele>264.0</ele><time>2026-03-28T16:38:26.182Z</time></trkpt><trkpt lat="43.6803712" lon="11.1930339"><ele>264.5</ele><time>2026-03-28T16:38:27.183Z</time></trkpt><trkpt lat="43.680466" lon="11.1931425"><ele>265.0</ele><time>2026-03-28T16:38:28.182Z</time></trkpt><trkpt lat="43.6805414" lon="11.1932354"><ele>265.4285714285714</ele><time>2026-03-28T16:38:29.182Z</time></trkpt><trkpt lat="43.6806005" lon="11.193312"><ele>265.85714285714283</ele><time>2026-03-28T16:38:30.182Z</time></trkpt><trkpt lat="43.6806455" lon="11.1933751"><ele>266.2857142857143</ele><time>2026-03-28T16:38:31.183Z</time></trkpt><trkpt lat="43.6806905" lon="11.1934382"><ele>266.71428571428567</ele><time>2026-03-28T16:38:32.183Z</time></trkpt><trkpt lat="43.6807404" lon="11.1935034"><ele>267.1428571428571</ele><time>2026-03-28T16:38:33.182Z</time></trkpt><trkpt lat="43.6808088" lon="11.1935619"><ele>267.57142857142856</ele><time>2026-03-28T16:38:34.183Z</time></trkpt><trkpt lat="43.6808889" lon="11.1935924"><ele>268.0</ele><time>2026-03-28T16:38:35.182Z</time></trkpt><trkpt lat="43.6809657" lon="11.1935862"><ele>268.0</ele><time>2026-03-28T16:38:36.182Z</time></trkpt><trkpt lat="43.6810452" lon="11.1935455"><ele>268.0</ele><time>2026-03-28T16:38:37.183Z</time></trkpt><trkpt lat="43.6811366" lon="11.1934855"><ele>268.0</ele><time>2026-03-28T16:38:38.181Z</time></trkpt><trkpt lat="43.6812498" lon="11.1934161"><ele>268.0</ele><time>2026-03-28T16:38:39.182Z</time></trkpt><trkpt lat="43.6813772" lon="11.1933488"><ele>268.0</ele><time>2026-03-28T16:38:40.182Z</time></trkpt><trkpt lat="43.681514" lon="11.1932857"><ele>268.0</ele><time>2026-03-28T16:38:41.182Z</time></trkpt><trkpt lat="43.6816556" lon="11.1932161"><ele>268.0</ele><time>2026-03-28T16:38:42.183Z</time></trkpt><trkpt lat="43.6818021" lon="11.193145"><ele>268.0</ele><time>2026-03-28T16:38:43.182Z</time></trkpt><trkpt lat="43.6819342" lon="11.1930684"><ele>268.0</ele><time>2026-03-28T16:38:44.182Z</time></trkpt><trkpt lat="43.6820669" lon="11.1930033"><ele>269.0</ele><time>2026-03-28T16:38:45.182Z</time></trkpt><trkpt lat="43.6822126" lon="11.1930014"><ele>270.0</ele><time>2026-03-28T16:38:46.182Z</time></trkpt><trkpt lat="43.6823538" lon="11.1929804"><ele>271.0</ele><time>2026-03-28T16:38:47.183Z</time></trkpt><trkpt lat="43.6825072" lon="11.1929592"><ele>272.0</ele><time>2026-03-28T16:38:48.182Z</time></trkpt><trkpt lat="43.6826632" lon="11.192938"><ele>271.0</ele><time>2026-03-28T16:38:49.182Z</time></trkpt><trkpt lat="43.6828226" lon="11.1928979"><ele>270.0</ele><time>2026-03-28T16:38:50.182Z</time></trkpt><trkpt lat="43.6829726" lon="11.1928514"><ele>269.0</ele><time>2026-03-28T16:38:51.182Z</time></trkpt><trkpt lat="43.6831152" lon="11.1928081"><ele>269.0</ele><time>2026-03-28T16:38:52.182Z</time></trkpt><trkpt lat="43.6832537" lon="11.1927625"><ele>269.0</ele><time>2026-03-28T16:38:53.183Z</time></trkpt><trkpt lat="43.6833973" lon="11.1927138"><ele>269.0</ele><time>2026-03-28T16:38:54.182Z</time></trkpt><trkpt lat="43.6835451" lon="11.19266"><ele>269.0</ele><time>2026-03-28T16:38:55.183Z</time></trkpt><trkpt lat="43.6837005" lon="11.1926044"><ele>266.6666666666667</ele><time>2026-03-28T16:38:56.182Z</time></trkpt><trkpt lat="43.6838651" lon="11.1925464"><ele>264.3333333333333</ele><time>2026-03-28T16:38:57.183Z</time></trkpt><trkpt lat="43.6840364" lon="11.1924906"><ele>262.0</ele><time>2026-03-28T16:38:58.182Z</time></trkpt><trkpt lat="43.6842195" lon="11.1924277"><ele>262.0</ele><time>2026-03-28T16:38:59.182Z</time></trkpt><trkpt lat="43.6844075" lon="11.1923585"><ele>262.0</ele><time>2026-03-28T16:39:00.182Z</time></trkpt><trkpt lat="43.6845848" lon="11.1922864"><ele>262.0</ele><time>2026-03-28T16:39:01.183Z</time></trkpt><trkpt lat="43.6847534" lon="11.1922114"><ele>260.66666666666663</ele><time>2026-03-28T16:39:02.181Z</time></trkpt><trkpt lat="43.6849182" lon="11.1921386"><ele>259.3333333333333</ele><time>2026-03-28T16:39:03.182Z</time></trkpt><trkpt lat="43.6850664" lon="11.1920699"><ele>258.0</ele><time>2026-03-28T16:39:04.182Z</time></trkpt><trkpt lat="43.685206" lon="11.1920061"><ele>259.3333333333333</ele><time>2026-03-28T16:39:05.182Z</time></trkpt><trkpt lat="43.6853522" lon="11.1919427"><ele>260.66666666666663</ele><time>2026-03-28T16:39:06.182Z</time></trkpt><trkpt lat="43.6855052" lon="11.1918792"><ele>262.0</ele><time>2026-03-28T16:39:07.182Z</time></trkpt><trkpt lat="43.6856572" lon="11.1918149"><ele>262.0</ele><time>2026-03-28T16:39:08.182Z</time></trkpt><trkpt lat="43.6857967" lon="11.191756"><ele>262.0</ele><time>2026-03-28T16:39:09.182Z</time></trkpt><trkpt lat="43.6859252" lon="11.1916982"><ele>262.0</ele><time>2026-03-28T16:39:10.183Z</time></trkpt><trkpt lat="43.6860387" lon="11.1916281"><ele>262.0</ele><time>2026-03-28T16:39:11.182Z</time></trkpt><trkpt lat="43.686141" lon="11.191546"><ele>261.8</ele><time>2026-03-28T16:39:12.182Z</time></trkpt><trkpt lat="43.6862247" lon="11.191456"><ele>261.6</ele><time>2026-03-28T16:39:13.182Z</time></trkpt><trkpt lat="43.6862939" lon="11.1913541"><ele>261.40000000000003</ele><time>2026-03-28T16:39:14.183Z</time></trkpt><trkpt lat="43.6863469" lon="11.1912369"><ele>261.2</ele><time>2026-03-28T16:39:15.182Z</time></trkpt><trkpt lat="43.6863819" lon="11.191109"><ele>261.0</ele><time>2026-03-28T16:39:16.183Z</time></trkpt><trkpt lat="43.6864056" lon="11.1909675"><ele>261.0</ele><time>2026-03-28T16:39:17.182Z</time></trkpt><trkpt lat="43.6864068" lon="11.190816"><ele>261.0</ele><time>2026-03-28T16:39:18.182Z</time></trkpt><trkpt lat="43.6863917" lon="11.1906577"><ele>261.0</ele><time>2026-03-28T16:39:19.183Z</time></trkpt><trkpt lat="43.6863788" lon="11.1904952"><ele>261.0</ele><time>2026-03-28T16:39:20.182Z</time></trkpt><trkpt lat="43.6863591" lon="11.1903182"><ele>261.25</ele><time>2026-03-28T16:39:21.182Z</time></trkpt><trkpt lat="43.6863405" lon="11.1901289"><ele>261.5</ele><time>2026-03-28T16:39:22.182Z</time></trkpt><trkpt lat="43.6863201" lon="11.1899323"><ele>261.75</ele><time>2026-03-28T16:39:23.182Z</time></trkpt><trkpt lat="43.6862993" lon="11.1897267"><ele>262.0</ele><time>2026-03-28T16:39:24.182Z</time></trkpt><trkpt lat="43.6862782" lon="11.1895112"><ele>262.0</ele><time>2026-03-28T16:39:25.182Z</time></trkpt><trkpt lat="43.6862565" lon="11.189295"><ele>262.0</ele><time>2026-03-28T16:39:26.183Z</time></trkpt><trkpt lat="43.6862372" lon="11.1890824"><ele>262.0</ele><time>2026-03-28T16:39:27.182Z</time></trkpt><trkpt lat="43.6862156" lon="11.188853"><ele>262.0</ele><time>2026-03-28T16:39:28.183Z</time></trkpt><trkpt lat="43.686195" lon="11.1886185"><ele>262.0</ele><time>2026-03-28T16:39:29.183Z</time></trkpt><trkpt lat="43.6861733" lon="11.1883876"><ele>262.0</ele><time>2026-03-28T16:39:30.183Z</time></trkpt><trkpt lat="43.6861506" lon="11.1881563"><ele>262.66666666666663</ele><time>2026-03-28T16:39:31.182Z</time></trkpt><trkpt lat="43.6861279" lon="11.1879267"><ele>263.3333333333333</ele><time>2026-03-28T16:39:32.183Z</time></trkpt><trkpt lat="43.6860998" lon="11.1876929"><ele>264.0</ele><time>2026-03-28T16:39:33.182Z</time></trkpt><trkpt lat="43.6860698" lon="11.1874629"><ele>264.3333333333333</ele><time>2026-03-28T16:39:34.182Z</time></trkpt><trkpt lat="43.6860414" lon="11.187234"><ele>264.66666666666663</ele><time>2026-03-28T16:39:35.183Z</time></trkpt><trkpt lat="43.6860136" lon="11.1870026"><ele>265.0</ele><time>2026-03-28T16:39:36.183Z</time></trkpt><trkpt lat="43.6859815" lon="11.1867733"><ele>265.0</ele><time>2026-03-28T16:39:37.182Z</time></trkpt><trkpt lat="43.6859493" lon="11.1865448"><ele>265.0</ele><time>2026-03-28T16:39:38.182Z</time></trkpt><trkpt lat="43.6859198" lon="11.1863262"><ele>265.0</ele><time>2026-03-28T16:39:39.182Z</time></trkpt><trkpt lat="43.68589" lon="11.1861104"><ele>265.0</ele><time>2026-03-28T16:39:40.183Z</time></trkpt><trkpt lat="43.6858674" lon="11.1859095"><ele>265.0</ele><time>2026-03-28T16:39:41.181Z</time></trkpt><trkpt lat="43.6858589" lon="11.1857193"><ele>265.0</ele><time>2026-03-28T16:39:42.182Z</time></trkpt><trkpt lat="43.6858759" lon="11.1855413"><ele>265.0</ele><time>2026-03-28T16:39:43.183Z</time></trkpt><trkpt lat="43.685927" lon="11.1853708"><ele>265.0</ele><time>2026-03-28T16:39:44.182Z</time></trkpt><trkpt lat="43.6859979" lon="11.1851989"><ele>265.0</ele><time>2026-03-28T16:39:45.182Z</time></trkpt><trkpt lat="43.6860687" lon="11.1850389"><ele>265.0</ele><time>2026-03-28T16:39:46.182Z</time></trkpt><trkpt lat="43.6861359" lon="11.1849011"><ele>265.0</ele><time>2026-03-28T16:39:47.183Z</time></trkpt><trkpt lat="43.6862301" lon="11.1847987"><ele>265.0</ele><time>2026-03-28T16:39:48.182Z</time></trkpt><trkpt lat="43.6863449" lon="11.1847302"><ele>265.0</ele><time>2026-03-28T16:39:49.182Z</time></trkpt><trkpt lat="43.6864775" lon="11.1846949"><ele>265.0</ele><time>2026-03-28T16:39:50.183Z</time></trkpt><trkpt lat="43.6866228" lon="11.1846862"><ele>265.0</ele><time>2026-03-28T16:39:51.181Z</time></trkpt><trkpt lat="43.6867843" lon="11.1846839"><ele>265.66666666666663</ele><time>2026-03-28T16:39:52.183Z</time></trkpt><trkpt lat="43.6869423" lon="11.1846787"><ele>266.3333333333333</ele><time>2026-03-28T16:39:53.182Z</time></trkpt><trkpt lat="43.6870885" lon="11.1846739"><ele>267.0</ele><time>2026-03-28T16:39:54.183Z</time></trkpt><trkpt lat="43.6872361" lon="11.1846597"><ele>267.0</ele><time>2026-03-28T16:39:55.183Z</time></trkpt><trkpt lat="43.6873789" lon="11.1846308"><ele>267.0</ele><time>2026-03-28T16:39:56.182Z</time></trkpt><trkpt lat="43.6875087" lon="11.184598"><ele>267.0</ele><time>2026-03-28T16:39:57.182Z</time></trkpt><trkpt lat="43.6876316" lon="11.1845526"><ele>267.0</ele><time>2026-03-28T16:39:58.182Z</time></trkpt><trkpt lat="43.6877348" lon="11.1844937"><ele>267.0</ele><time>2026-03-28T16:39:59.182Z</time></trkpt><trkpt lat="43.6878274" lon="11.184401"><ele>267.0</ele><time>2026-03-28T16:40:00.182Z</time></trkpt><trkpt lat="43.687907" lon="11.1842675"><ele>267.0</ele><time>2026-03-28T16:40:01.182Z</time></trkpt><trkpt lat="43.6879687" lon="11.184129"><ele>267.0</ele><time>2026-03-28T16:40:02.182Z</time></trkpt><trkpt lat="43.6880142" lon="11.1839626"><ele>267.75</ele><time>2026-03-28T16:40:03.182Z</time></trkpt><trkpt lat="43.6880418" lon="11.1837947"><ele>268.5</ele><time>2026-03-28T16:40:04.183Z</time></trkpt><trkpt lat="43.688058" lon="11.1836163"><ele>269.25</ele><time>2026-03-28T16:40:05.183Z</time></trkpt><trkpt lat="43.688075" lon="11.1834485"><ele>270.0</ele><time>2026-03-28T16:40:06.182Z</time></trkpt><trkpt lat="43.6881042" lon="11.1832797"><ele>270.0</ele><time>2026-03-28T16:40:07.183Z</time></trkpt><trkpt lat="43.688144" lon="11.1830981"><ele>270.0</ele><time>2026-03-28T16:40:08.182Z</time></trkpt><trkpt lat="43.688205" lon="11.1829226"><ele>270.0</ele><time>2026-03-28T16:40:09.183Z</time></trkpt><trkpt lat="43.68828" lon="11.1827493"><ele>270.0</ele><time>2026-03-28T16:40:10.182Z</time></trkpt><trkpt lat="43.6883665" lon="11.1825727"><ele>270.0</ele><time>2026-03-28T16:40:11.181Z</time></trkpt><trkpt lat="43.6884463" lon="11.1824012"><ele>270.0</ele><time>2026-03-28T16:40:12.182Z</time></trkpt><trkpt lat="43.688542" lon="11.1822289"><ele>270.0</ele><time>2026-03-28T16:40:13.182Z</time></trkpt><trkpt lat="43.6886334" lon="11.1820686"><ele>267.75</ele><time>2026-03-28T16:40:14.182Z</time></trkpt><trkpt lat="43.6887235" lon="11.1819104"><ele>265.5</ele><time>2026-03-28T16:40:15.183Z</time></trkpt><trkpt lat="43.6888145" lon="11.181761"><ele>263.25</ele><time>2026-03-28T16:40:16.182Z</time></trkpt><trkpt lat="43.6889121" lon="11.181632"><ele>261.0</ele><time>2026-03-28T16:40:17.182Z</time></trkpt><trkpt lat="43.6890262" lon="11.181534"><ele>260.5</ele><time>2026-03-28T16:40:18.183Z</time></trkpt><trkpt lat="43.6891533" lon="11.1814574"><ele>260.0</ele><time>2026-03-28T16:40:19.181Z</time></trkpt><trkpt lat="43.6892739" lon="11.1813874"><ele>259.5</ele><time>2026-03-28T16:40:20.182Z</time></trkpt><trkpt lat="43.6893919" lon="11.1813224"><ele>259.0</ele><time>2026-03-28T16:40:21.183Z</time></trkpt><trkpt lat="43.6895179" lon="11.1812781"><ele>258.25</ele><time>2026-03-28T16:40:22.183Z</time></trkpt><trkpt lat="43.6896517" lon="11.1812682"><ele>257.5</ele><time>2026-03-28T16:40:23.182Z</time></trkpt><trkpt lat="43.6897885" lon="11.181263"><ele>256.75</ele><time>2026-03-28T16:40:24.183Z</time></trkpt><trkpt lat="43.6899133" lon="11.1813178"><ele>256.0</ele><time>2026-03-28T16:40:25.182Z</time></trkpt><trkpt lat="43.6900571" lon="11.1813459"><ele>256.0</ele><time>2026-03-28T16:40:26.182Z</time></trkpt><trkpt lat="43.6901875" lon="11.1813808"><ele>256.0</ele><time>2026-03-28T16:40:27.182Z</time></trkpt><trkpt lat="43.6903201" lon="11.1814238"><ele>256.0</ele><time>2026-03-28T16:40:28.182Z</time></trkpt><trkpt lat="43.6904556" lon="11.1814532"><ele>256.0</ele><time>2026-03-28T16:40:29.183Z</time></trkpt><trkpt lat="43.6905848" lon="11.181483"><ele>254.5</ele><time>2026-03-28T16:40:30.183Z</time></trkpt><trkpt lat="43.6907121" lon="11.1814874"><ele>253.0</ele><time>2026-03-28T16:40:31.182Z</time></trkpt><trkpt lat="43.6908324" lon="11.1814977"><ele>251.5</ele><time>2026-03-28T16:40:32.182Z</time></trkpt><trkpt lat="43.6909537" lon="11.1815279"><ele>250.0</ele><time>2026-03-28T16:40:33.183Z</time></trkpt><trkpt lat="43.6910779" lon="11.1815993"><ele>247.0</ele><time>2026-03-28T16:40:34.182Z</time></trkpt><trkpt lat="43.6911931" lon="11.1817111"><ele>244.0</ele><time>2026-03-28T16:40:35.183Z</time></trkpt><trkpt lat="43.6913102" lon="11.1818389"><ele>241.0</ele><time>2026-03-28T16:40:36.182Z</time></trkpt><trkpt lat="43.691424" lon="11.1819609"><ele>238.0</ele><time>2026-03-28T16:40:37.182Z</time></trkpt><trkpt lat="43.6915418" lon="11.182086"><ele>238.0</ele><time>2026-03-28T16:40:38.182Z</time></trkpt><trkpt lat="43.6916649" lon="11.1821919"><ele>238.0</ele><time>2026-03-28T16:40:39.183Z</time></trkpt><trkpt lat="43.6918032" lon="11.1822884"><ele>238.0</ele><time>2026-03-28T16:40:40.182Z</time></trkpt><trkpt lat="43.6919553" lon="11.182379"><ele>239.33333333333331</ele><time>2026-03-28T16:40:41.183Z</time></trkpt><trkpt lat="43.6921082" lon="11.1824806"><ele>240.66666666666669</ele><time>2026-03-28T16:40:42.182Z</time></trkpt><trkpt lat="43.6922597" lon="11.182599"><ele>242.0</ele><time>2026-03-28T16:40:43.182Z</time></trkpt><trkpt lat="43.6924104" lon="11.18273"><ele>242.0</ele><time>2026-03-28T16:40:44.182Z</time></trkpt><trkpt lat="43.6925538" lon="11.18286"><ele>242.0</ele><time>2026-03-28T16:40:45.183Z</time></trkpt><trkpt lat="43.692698" lon="11.1829908"><ele>242.0</ele><time>2026-03-28T16:40:46.182Z</time></trkpt><trkpt lat="43.6928438" lon="11.1831254"><ele>241.66666666666669</ele><time>2026-03-28T16:40:47.182Z</time></trkpt><trkpt lat="43.6929869" lon="11.1832593"><ele>241.33333333333331</ele><time>2026-03-28T16:40:48.182Z</time></trkpt><trkpt lat="43.6931188" lon="11.1833835"><ele>241.0</ele><time>2026-03-28T16:40:49.181Z</time></trkpt><trkpt lat="43.6932369" lon="11.1835136"><ele>241.0</ele><time>2026-03-28T16:40:50.183Z</time></trkpt><trkpt lat="43.6933489" lon="11.1836501"><ele>241.0</ele><time>2026-03-28T16:40:51.183Z</time></trkpt><trkpt lat="43.6934637" lon="11.1837957"><ele>241.0</ele><time>2026-03-28T16:40:52.182Z</time></trkpt><trkpt lat="43.6935803" lon="11.1839374"><ele>240.5</ele><time>2026-03-28T16:40:53.182Z</time></trkpt><trkpt lat="43.6936945" lon="11.184056"><ele>240.0</ele><time>2026-03-28T16:40:54.183Z</time></trkpt><trkpt lat="43.6938154" lon="11.1841661"><ele>239.5</ele><time>2026-03-28T16:40:55.182Z</time></trkpt><trkpt lat="43.6939471" lon="11.1842594"><ele>239.0</ele><time>2026-03-28T16:40:56.183Z</time></trkpt><trkpt lat="43.6940885" lon="11.1843157"><ele>239.0</ele><time>2026-03-28T16:40:57.182Z</time></trkpt><trkpt lat="43.6942434" lon="11.1843346"><ele>239.0</ele><time>2026-03-28T16:40:58.182Z</time></trkpt><trkpt lat="43.6943988" lon="11.1843139"><ele>239.0</ele><time>2026-03-28T16:40:59.183Z</time></trkpt><trkpt lat="43.6945534" lon="11.1842666"><ele>238.66666666666669</ele><time>2026-03-28T16:41:00.182Z</time></trkpt><trkpt lat="43.6947056" lon="11.1842199"><ele>238.33333333333331</ele><time>2026-03-28T16:41:01.181Z</time></trkpt><trkpt lat="43.6948593" lon="11.1841728"><ele>238.0</ele><time>2026-03-28T16:41:02.182Z</time></trkpt><trkpt lat="43.6950014" lon="11.1841319"><ele>238.0</ele><time>2026-03-28T16:41:03.183Z</time></trkpt><trkpt lat="43.695138" lon="11.1840908"><ele>238.0</ele><time>2026-03-28T16:41:04.182Z</time></trkpt><trkpt lat="43.695278" lon="11.1840489"><ele>238.0</ele><time>2026-03-28T16:41:05.183Z</time></trkpt><trkpt lat="43.6954204" lon="11.1840202"><ele>238.0</ele><time>2026-03-28T16:41:06.183Z</time></trkpt><trkpt lat="43.6955663" lon="11.1840135"><ele>238.75</ele><time>2026-03-28T16:41:07.183Z</time></trkpt><trkpt lat="43.6957172" lon="11.1840215"><ele>239.5</ele><time>2026-03-28T16:41:08.183Z</time></trkpt><trkpt lat="43.6958627" lon="11.1840303"><ele>240.25</ele><time>2026-03-28T16:41:09.183Z</time></trkpt><trkpt lat="43.6960045" lon="11.1840354"><ele>241.0</ele><time>2026-03-28T16:41:10.182Z</time></trkpt><trkpt lat="43.696151" lon="11.1840335"><ele>241.25</ele><time>2026-03-28T16:41:11.182Z</time></trkpt><trkpt lat="43.6962944" lon="11.1840182"><ele>241.5</ele><time>2026-03-28T16:41:12.182Z</time></trkpt><trkpt lat="43.6964292" lon="11.183998"><ele>241.75</ele><time>2026-03-28T16:41:13.182Z</time></trkpt><trkpt lat="43.6965654" lon="11.1839808"><ele>242.0</ele><time>2026-03-28T16:41:14.182Z</time></trkpt><trkpt lat="43.696701" lon="11.1839655"><ele>240.5</ele><time>2026-03-28T16:41:15.182Z</time></trkpt><trkpt lat="43.69684" lon="11.1839535"><ele>239.0</ele><time>2026-03-28T16:41:16.183Z</time></trkpt><trkpt lat="43.6969772" lon="11.1839542"><ele>237.5</ele><time>2026-03-28T16:41:17.183Z</time></trkpt><trkpt lat="43.6971009" lon="11.1839718"><ele>236.0</ele><time>2026-03-28T16:41:18.182Z</time></trkpt><trkpt lat="43.6972163" lon="11.1839965"><ele>236.4</ele><time>2026-03-28T16:41:19.183Z</time></trkpt><trkpt lat="43.697333" lon="11.1840163"><ele>236.8</ele><time>2026-03-28T16:41:20.183Z</time></trkpt><trkpt lat="43.6974434" lon="11.184036"><ele>237.20000000000002</ele><time>2026-03-28T16:41:21.183Z</time></trkpt><trkpt lat="43.6975439" lon="11.184065"><ele>237.60000000000002</ele><time>2026-03-28T16:41:22.182Z</time></trkpt><trkpt lat="43.6976475" lon="11.1840995"><ele>238.0</ele><time>2026-03-28T16:41:23.183Z</time></trkpt><trkpt lat="43.697755" lon="11.1841384"><ele>238.2</ele><time>2026-03-28T16:41:24.182Z</time></trkpt><trkpt lat="43.6978551" lon="11.184184"><ele>238.4</ele><time>2026-03-28T16:41:25.182Z</time></trkpt><trkpt lat="43.6979523" lon="11.1842383"><ele>238.59999999999997</ele><time>2026-03-28T16:41:26.183Z</time></trkpt><trkpt lat="43.6980536" lon="11.1843028"><ele>238.79999999999998</ele><time>2026-03-28T16:41:27.182Z</time></trkpt><trkpt lat="43.6981542" lon="11.1843696"><ele>239.0</ele><time>2026-03-28T16:41:28.183Z</time></trkpt><trkpt lat="43.6982528" lon="11.1844427"><ele>239.0</ele><time>2026-03-28T16:41:29.182Z</time></trkpt><trkpt lat="43.698345" lon="11.184536"><ele>238.99999999999997</ele><time>2026-03-28T16:41:30.183Z</time></trkpt><trkpt lat="43.6984256" lon="11.1846448"><ele>238.99999999999997</ele><time>2026-03-28T16:41:31.182Z</time></trkpt><trkpt lat="43.6984911" lon="11.1847541"><ele>239.0</ele><time>2026-03-28T16:41:32.182Z</time></trkpt><trkpt lat="43.6985514" lon="11.1848567"><ele>239.0</ele><time>2026-03-28T16:41:33.182Z</time></trkpt><trkpt lat="43.6986133" lon="11.184942"><ele>238.16666666666669</ele><time>2026-03-28T16:41:34.182Z</time></trkpt><trkpt lat="43.6986801" lon="11.1850156"><ele>237.33333333333334</ele><time>2026-03-28T16:41:35.182Z</time></trkpt><trkpt lat="43.6987483" lon="11.1850717"><ele>236.5</ele><time>2026-03-28T16:41:36.182Z</time></trkpt><trkpt lat="43.69882" lon="11.1851008"><ele>235.66666666666669</ele><time>2026-03-28T16:41:37.182Z</time></trkpt><trkpt lat="43.6988923" lon="11.1851105"><ele>234.83333333333334</ele><time>2026-03-28T16:41:38.181Z</time></trkpt><trkpt lat="43.6989625" lon="11.185108"><ele>234.0</ele><time>2026-03-28T16:41:39.182Z</time></trkpt><trkpt lat="43.6990325" lon="11.1851064"><ele>234.0</ele><time>2026-03-28T16:41:40.182Z</time></trkpt><trkpt lat="43.6990941" lon="11.1850876"><ele>234.0</ele><time>2026-03-28T16:41:41.182Z</time></trkpt><trkpt lat="43.6991528" lon="11.1850556"><ele>234.0</ele><time>2026-03-28T16:41:42.182Z</time></trkpt><trkpt lat="43.6992505" lon="11.1849994"><ele>234.0</ele><time>2026-03-28T16:41:44.182Z</time></trkpt><trkpt lat="43.6993302" lon="11.1849645"><ele>234.0</ele><time>2026-03-28T16:41:46.182Z</time></trkpt><trkpt lat="43.6994094" lon="11.1849285"><ele>234.0</ele><time>2026-03-28T16:41:48.183Z</time></trkpt><trkpt lat="43.6995479" lon="11.1848919"><ele>234.0</ele><time>2026-03-28T16:41:50.182Z</time></trkpt><trkpt lat="43.6996421" lon="11.1848798"><ele>233.99999999999997</ele><time>2026-03-28T16:41:51.183Z</time></trkpt><trkpt lat="43.6997422" lon="11.1848842"><ele>233.99999999999997</ele><time>2026-03-28T16:41:52.182Z</time></trkpt><trkpt lat="43.6998525" lon="11.1848941"><ele>234.0</ele><time>2026-03-28T16:41:53.183Z</time></trkpt><trkpt lat="43.6999751" lon="11.1849035"><ele>234.0</ele><time>2026-03-28T16:41:54.182Z</time></trkpt><trkpt lat="43.7000954" lon="11.1849195"><ele>234.0</ele><time>2026-03-28T16:41:55.181Z</time></trkpt><trkpt lat="43.700218" lon="11.1849425"><ele>234.0</ele><time>2026-03-28T16:41:56.182Z</time></trkpt><trkpt lat="43.7003469" lon="11.1849816"><ele>234.0</ele><time>2026-03-28T16:41:57.183Z</time></trkpt><trkpt lat="43.7004799" lon="11.1850317"><ele>234.0</ele><time>2026-03-28T16:41:58.183Z</time></trkpt><trkpt lat="43.7006059" lon="11.1850873"><ele>234.0</ele><time>2026-03-28T16:41:59.182Z</time></trkpt><trkpt lat="43.700729" lon="11.1851483"><ele>234.0</ele><time>2026-03-28T16:42:00.182Z</time></trkpt><trkpt lat="43.700852" lon="11.1852152"><ele>234.0</ele><time>2026-03-28T16:42:01.182Z</time></trkpt><trkpt lat="43.7009747" lon="11.1852861"><ele>234.0</ele><time>2026-03-28T16:42:02.182Z</time></trkpt><trkpt lat="43.7010991" lon="11.1853611"><ele>234.0</ele><time>2026-03-28T16:42:03.182Z</time></trkpt><trkpt lat="43.70122" lon="11.1854384"><ele>234.0</ele><time>2026-03-28T16:42:04.182Z</time></trkpt><trkpt lat="43.701334" lon="11.1855144"><ele>234.0</ele><time>2026-03-28T16:42:05.182Z</time></trkpt><trkpt lat="43.7014502" lon="11.1855924"><ele>234.0</ele><time>2026-03-28T16:42:06.182Z</time></trkpt><trkpt lat="43.7015666" lon="11.1856674"><ele>234.0</ele><time>2026-03-28T16:42:07.183Z</time></trkpt><trkpt lat="43.7016808" lon="11.1857379"><ele>234.0</ele><time>2026-03-28T16:42:08.182Z</time></trkpt><trkpt lat="43.701797" lon="11.1858031"><ele>234.0</ele><time>2026-03-28T16:42:09.182Z</time></trkpt><trkpt lat="43.7019113" lon="11.1858603"><ele>234.0</ele><time>2026-03-28T16:42:10.182Z</time></trkpt><trkpt lat="43.7020293" lon="11.1858945"><ele>233.5</ele><time>2026-03-28T16:42:11.182Z</time></trkpt><trkpt lat="43.7021484" lon="11.1859011"><ele>233.0</ele><time>2026-03-28T16:42:12.182Z</time></trkpt><trkpt lat="43.7022654" lon="11.1858876"><ele>232.5</ele><time>2026-03-28T16:42:13.182Z</time></trkpt><trkpt lat="43.7023826" lon="11.1858604"><ele>232.0</ele><time>2026-03-28T16:42:14.183Z</time></trkpt><trkpt lat="43.7024936" lon="11.185826"><ele>232.0</ele><time>2026-03-28T16:42:15.183Z</time></trkpt><trkpt lat="43.7026071" lon="11.1857825"><ele>232.0</ele><time>2026-03-28T16:42:16.182Z</time></trkpt><trkpt lat="43.7027249" lon="11.1857402"><ele>232.0</ele><time>2026-03-28T16:42:17.182Z</time></trkpt><trkpt lat="43.7028425" lon="11.1857084"><ele>232.0</ele><time>2026-03-28T16:42:18.183Z</time></trkpt><trkpt lat="43.7029556" lon="11.1856872"><ele>232.39999999999998</ele><time>2026-03-28T16:42:19.183Z</time></trkpt><trkpt lat="43.7030673" lon="11.1856774"><ele>232.79999999999998</ele><time>2026-03-28T16:42:20.183Z</time></trkpt><trkpt lat="43.703176" lon="11.1856674"><ele>233.2</ele><time>2026-03-28T16:42:21.183Z</time></trkpt><trkpt lat="43.7032839" lon="11.1856698"><ele>233.6</ele><time>2026-03-28T16:42:22.182Z</time></trkpt><trkpt lat="43.7033899" lon="11.1856809"><ele>234.0</ele><time>2026-03-28T16:42:23.182Z</time></trkpt><trkpt lat="43.7034996" lon="11.1856894"><ele>234.0</ele><time>2026-03-28T16:42:24.181Z</time></trkpt><trkpt lat="43.7036137" lon="11.1856904"><ele>233.99999999999997</ele><time>2026-03-28T16:42:25.182Z</time></trkpt><trkpt lat="43.7037284" lon="11.1856963"><ele>233.99999999999997</ele><time>2026-03-28T16:42:26.182Z</time></trkpt><trkpt lat="43.7038357" lon="11.185702"><ele>234.0</ele><time>2026-03-28T16:42:27.182Z</time></trkpt><trkpt lat="43.7039445" lon="11.1857122"><ele>234.0</ele><time>2026-03-28T16:42:28.183Z</time></trkpt><trkpt lat="43.7040566" lon="11.1857234"><ele>234.0</ele><time>2026-03-28T16:42:29.183Z</time></trkpt><trkpt lat="43.7041669" lon="11.1857318"><ele>233.99999999999997</ele><time>2026-03-28T16:42:30.183Z</time></trkpt><trkpt lat="43.704275" lon="11.185745"><ele>233.99999999999997</ele><time>2026-03-28T16:42:31.183Z</time></trkpt><trkpt lat="43.7043774" lon="11.1857606"><ele>234.0</ele><time>2026-03-28T16:42:32.182Z</time></trkpt><trkpt lat="43.7044741" lon="11.1857834"><ele>234.0</ele><time>2026-03-28T16:42:33.182Z</time></trkpt><trkpt lat="43.7045637" lon="11.1858124"><ele>233.6</ele><time>2026-03-28T16:42:34.182Z</time></trkpt><trkpt lat="43.7046397" lon="11.1858415"><ele>233.2</ele><time>2026-03-28T16:42:35.183Z</time></trkpt><trkpt lat="43.7047083" lon="11.1858619"><ele>232.79999999999998</ele><time>2026-03-28T16:42:36.183Z</time></trkpt><trkpt lat="43.7048236" lon="11.1858951"><ele>232.39999999999998</ele><time>2026-03-28T16:42:38.182Z</time></trkpt><trkpt lat="43.7049082" lon="11.1859212"><ele>232.0</ele><time>2026-03-28T16:42:40.183Z</time></trkpt><trkpt lat="43.7050232" lon="11.1859855"><ele>232.0</ele><time>2026-03-28T16:42:42.183Z</time></trkpt><trkpt lat="43.7050993" lon="11.1860339"><ele>232.0</ele><time>2026-03-28T16:42:43.182Z</time></trkpt><trkpt lat="43.7051789" lon="11.1860776"><ele>232.0</ele><time>2026-03-28T16:42:44.182Z</time></trkpt><trkpt lat="43.7052776" lon="11.1861286"><ele>232.0</ele><time>2026-03-28T16:42:45.182Z</time></trkpt><trkpt lat="43.705387" lon="11.1861833"><ele>232.0</ele><time>2026-03-28T16:42:46.182Z</time></trkpt><trkpt lat="43.7055056" lon="11.1862324"><ele>231.75</ele><time>2026-03-28T16:42:47.182Z</time></trkpt><trkpt lat="43.7056426" lon="11.1862733"><ele>231.5</ele><time>2026-03-28T16:42:48.182Z</time></trkpt><trkpt lat="43.7057901" lon="11.1863075"><ele>231.25</ele><time>2026-03-28T16:42:49.182Z</time></trkpt><trkpt lat="43.7059388" lon="11.18633"><ele>231.0</ele><time>2026-03-28T16:42:50.182Z</time></trkpt><trkpt lat="43.7060815" lon="11.186353"><ele>231.0</ele><time>2026-03-28T16:42:51.183Z</time></trkpt><trkpt lat="43.7062257" lon="11.1863762"><ele>231.0</ele><time>2026-03-28T16:42:52.182Z</time></trkpt><trkpt lat="43.7063799" lon="11.1864067"><ele>231.0</ele><time>2026-03-28T16:42:53.181Z</time></trkpt><trkpt lat="43.7065237" lon="11.1864813"><ele>229.66666666666669</ele><time>2026-03-28T16:42:54.182Z</time></trkpt><trkpt lat="43.7066806" lon="11.1865631"><ele>228.33333333333334</ele><time>2026-03-28T16:42:55.183Z</time></trkpt><trkpt lat="43.7068052" lon="11.1866744"><ele>227.0</ele><time>2026-03-28T16:42:56.183Z</time></trkpt><trkpt lat="43.7069456" lon="11.1867516"><ele>225.66666666666669</ele><time>2026-03-28T16:42:57.182Z</time></trkpt><trkpt lat="43.7070995" lon="11.1868131"><ele>224.33333333333331</ele><time>2026-03-28T16:42:58.182Z</time></trkpt><trkpt lat="43.707259" lon="11.1868621"><ele>223.0</ele><time>2026-03-28T16:42:59.183Z</time></trkpt><trkpt lat="43.7074115" lon="11.1869038"><ele>223.0</ele><time>2026-03-28T16:43:00.182Z</time></trkpt><trkpt lat="43.7075595" lon="11.1869361"><ele>223.0</ele><time>2026-03-28T16:43:01.182Z</time></trkpt><trkpt lat="43.7076911" lon="11.1869689"><ele>223.0</ele><time>2026-03-28T16:43:02.182Z</time></trkpt><trkpt lat="43.707818" lon="11.186998"><ele>223.0</ele><time>2026-03-28T16:43:03.183Z</time></trkpt><trkpt lat="43.7079448" lon="11.187025"><ele>221.5</ele><time>2026-03-28T16:43:04.183Z</time></trkpt><trkpt lat="43.7080675" lon="11.1870545"><ele>220.0</ele><time>2026-03-28T16:43:05.181Z</time></trkpt><trkpt lat="43.7081979" lon="11.1870943"><ele>218.5</ele><time>2026-03-28T16:43:06.182Z</time></trkpt><trkpt lat="43.7083296" lon="11.1871492"><ele>217.0</ele><time>2026-03-28T16:43:07.182Z</time></trkpt><trkpt lat="43.7084622" lon="11.187239"><ele>216.0</ele><time>2026-03-28T16:43:08.182Z</time></trkpt><trkpt lat="43.7085849" lon="11.1873446"><ele>215.0</ele><time>2026-03-28T16:43:09.182Z</time></trkpt><trkpt lat="43.7087077" lon="11.1874556"><ele>214.0</ele><time>2026-03-28T16:43:10.183Z</time></trkpt><trkpt lat="43.7088285" lon="11.1875736"><ele>213.0</ele><time>2026-03-28T16:43:11.182Z</time></trkpt><trkpt lat="43.7089492" lon="11.1876903"><ele>213.0</ele><time>2026-03-28T16:43:12.183Z</time></trkpt><trkpt lat="43.7090772" lon="11.187807"><ele>213.0</ele><time>2026-03-28T16:43:13.182Z</time></trkpt><trkpt lat="43.7092082" lon="11.1879343"><ele>213.0</ele><time>2026-03-28T16:43:14.183Z</time></trkpt><trkpt lat="43.7093447" lon="11.1880613"><ele>213.0</ele><time>2026-03-28T16:43:15.183Z</time></trkpt><trkpt lat="43.7094757" lon="11.1881812"><ele>213.0</ele><time>2026-03-28T16:43:16.182Z</time></trkpt><trkpt lat="43.7096024" lon="11.1882902"><ele>213.0</ele><time>2026-03-28T16:43:17.183Z</time></trkpt><trkpt lat="43.7097254" lon="11.188387"><ele>213.0</ele><time>2026-03-28T16:43:18.182Z</time></trkpt><trkpt lat="43.7098442" lon="11.1884769"><ele>213.0</ele><time>2026-03-28T16:43:19.182Z</time></trkpt><trkpt lat="43.7099746" lon="11.1885801"><ele>213.0</ele><time>2026-03-28T16:43:20.182Z</time></trkpt><trkpt lat="43.7101099" lon="11.1886861"><ele>213.0</ele><time>2026-03-28T16:43:21.182Z</time></trkpt><trkpt lat="43.7102526" lon="11.1887885"><ele>211.66666666666669</ele><time>2026-03-28T16:43:22.182Z</time></trkpt><trkpt lat="43.7104029" lon="11.1888778"><ele>210.33333333333334</ele><time>2026-03-28T16:43:23.182Z</time></trkpt><trkpt lat="43.7105629" lon="11.188949"><ele>209.0</ele><time>2026-03-28T16:43:24.182Z</time></trkpt><trkpt lat="43.7107176" lon="11.1890038"><ele>210.25</ele><time>2026-03-28T16:43:25.182Z</time></trkpt><trkpt lat="43.7108608" lon="11.1890456"><ele>211.5</ele><time>2026-03-28T16:43:26.183Z</time></trkpt><trkpt lat="43.7109942" lon="11.1890873"><ele>212.75</ele><time>2026-03-28T16:43:27.182Z</time></trkpt><trkpt lat="43.7111164" lon="11.1891289"><ele>214.0</ele><time>2026-03-28T16:43:28.183Z</time></trkpt><trkpt lat="43.7112386" lon="11.1891594"><ele>214.5</ele><time>2026-03-28T16:43:29.183Z</time></trkpt><trkpt lat="43.711373" lon="11.1891782"><ele>215.0</ele><time>2026-03-28T16:43:30.183Z</time></trkpt><trkpt lat="43.7115143" lon="11.189182"><ele>215.5</ele><time>2026-03-28T16:43:31.183Z</time></trkpt><trkpt lat="43.7116501" lon="11.1891766"><ele>216.0</ele><time>2026-03-28T16:43:32.182Z</time></trkpt><trkpt lat="43.7117777" lon="11.1891686"><ele>216.0</ele><time>2026-03-28T16:43:33.182Z</time></trkpt><trkpt lat="43.7119001" lon="11.1891568"><ele>216.0</ele><time>2026-03-28T16:43:34.182Z</time></trkpt><trkpt lat="43.7120168" lon="11.1891408"><ele>216.0</ele><time>2026-03-28T16:43:35.182Z</time></trkpt><trkpt lat="43.7121329" lon="11.1891181"><ele>216.0</ele><time>2026-03-28T16:43:36.183Z</time></trkpt><trkpt lat="43.7122603" lon="11.1890715"><ele>215.5</ele><time>2026-03-28T16:43:37.183Z</time></trkpt><trkpt lat="43.7123851" lon="11.1889723"><ele>215.0</ele><time>2026-03-28T16:43:38.183Z</time></trkpt><trkpt lat="43.7124809" lon="11.1888465"><ele>214.5</ele><time>2026-03-28T16:43:39.182Z</time></trkpt><trkpt lat="43.7125528" lon="11.1887019"><ele>214.0</ele><time>2026-03-28T16:43:40.183Z</time></trkpt><trkpt lat="43.7126006" lon="11.1885518"><ele>214.0</ele><time>2026-03-28T16:43:41.182Z</time></trkpt><trkpt lat="43.7126418" lon="11.1883952"><ele>214.0</ele><time>2026-03-28T16:43:42.183Z</time></trkpt><trkpt lat="43.7126827" lon="11.188248"><ele>214.0</ele><time>2026-03-28T16:43:43.183Z</time></trkpt><trkpt lat="43.7127212" lon="11.1881078"><ele>214.0</ele><time>2026-03-28T16:43:44.182Z</time></trkpt><trkpt lat="43.7127786" lon="11.1879673"><ele>213.75</ele><time>2026-03-28T16:43:45.183Z</time></trkpt><trkpt lat="43.7128608" lon="11.1878361"><ele>213.5</ele><time>2026-03-28T16:43:46.183Z</time></trkpt><trkpt lat="43.7129603" lon="11.1877159"><ele>213.25</ele><time>2026-03-28T16:43:47.182Z</time></trkpt><trkpt lat="43.7130704" lon="11.1876127"><ele>213.0</ele><time>2026-03-28T16:43:48.182Z</time></trkpt><trkpt lat="43.7131919" lon="11.187538"><ele>213.0</ele><time>2026-03-28T16:43:49.182Z</time></trkpt><trkpt lat="43.7133205" lon="11.1874866"><ele>213.0</ele><time>2026-03-28T16:43:50.182Z</time></trkpt><trkpt lat="43.713443" lon="11.187447"><ele>213.0</ele><time>2026-03-28T16:43:51.183Z</time></trkpt><trkpt lat="43.7135656" lon="11.187414"><ele>213.0</ele><time>2026-03-28T16:43:52.182Z</time></trkpt><trkpt lat="43.7136958" lon="11.1873846"><ele>212.0</ele><time>2026-03-28T16:43:53.183Z</time></trkpt><trkpt lat="43.7138292" lon="11.1873656"><ele>211.0</ele><time>2026-03-28T16:43:54.182Z</time></trkpt><trkpt lat="43.7139715" lon="11.1873634"><ele>210.0</ele><time>2026-03-28T16:43:55.183Z</time></trkpt><trkpt lat="43.7141232" lon="11.1873654"><ele>209.0</ele><time>2026-03-28T16:43:56.181Z</time></trkpt><trkpt lat="43.7142785" lon="11.187372"><ele>204.0</ele><time>2026-03-28T16:43:57.182Z</time></trkpt><trkpt lat="43.7144261" lon="11.1874037"><ele>199.0</ele><time>2026-03-28T16:43:58.182Z</time></trkpt><trkpt lat="43.7145646" lon="11.1874748"><ele>194.0</ele><time>2026-03-28T16:43:59.183Z</time></trkpt><trkpt lat="43.7147038" lon="11.1875982"><ele>194.0</ele><time>2026-03-28T16:44:00.183Z</time></trkpt><trkpt lat="43.7148308" lon="11.1877077"><ele>194.0</ele><time>2026-03-28T16:44:01.182Z</time></trkpt><trkpt lat="43.7149653" lon="11.187824"><ele>194.0</ele><time>2026-03-28T16:44:02.182Z</time></trkpt><trkpt lat="43.7151053" lon="11.1879338"><ele>193.0</ele><time>2026-03-28T16:44:03.182Z</time></trkpt><trkpt lat="43.7152399" lon="11.1880392"><ele>192.0</ele><time>2026-03-28T16:44:04.182Z</time></trkpt><trkpt lat="43.7153724" lon="11.1881387"><ele>191.0</ele><time>2026-03-28T16:44:05.182Z</time></trkpt><trkpt lat="43.7154971" lon="11.188252"><ele>191.0</ele><time>2026-03-28T16:44:06.183Z</time></trkpt><trkpt lat="43.7156153" lon="11.1883639"><ele>191.0</ele><time>2026-03-28T16:44:07.183Z</time></trkpt><trkpt lat="43.7157319" lon="11.1884883"><ele>191.0</ele><time>2026-03-28T16:44:08.183Z</time></trkpt><trkpt lat="43.7158362" lon="11.1886302"><ele>191.0</ele><time>2026-03-28T16:44:09.182Z</time></trkpt><trkpt lat="43.7159271" lon="11.1887792"><ele>191.0</ele><time>2026-03-28T16:44:10.182Z</time></trkpt><trkpt lat="43.7160183" lon="11.1889201"><ele>191.0</ele><time>2026-03-28T16:44:11.183Z</time></trkpt><trkpt lat="43.7161175" lon="11.1890467"><ele>191.0</ele><time>2026-03-28T16:44:12.182Z</time></trkpt><trkpt lat="43.7162215" lon="11.1891546"><ele>191.0</ele><time>2026-03-28T16:44:13.182Z</time></trkpt><trkpt lat="43.7163115" lon="11.1892745"><ele>188.0</ele><time>2026-03-28T16:44:14.183Z</time></trkpt><trkpt lat="43.7163788" lon="11.1894324"><ele>185.0</ele><time>2026-03-28T16:44:15.183Z</time></trkpt><trkpt lat="43.7164259" lon="11.1896178"><ele>182.0</ele><time>2026-03-28T16:44:16.183Z</time></trkpt><trkpt lat="43.716453" lon="11.1898183"><ele>179.0</ele><time>2026-03-28T16:44:17.182Z</time></trkpt><trkpt lat="43.7164741" lon="11.1900265"><ele>179.0</ele><time>2026-03-28T16:44:18.183Z</time></trkpt><trkpt lat="43.7164927" lon="11.1902237"><ele>179.0</ele><time>2026-03-28T16:44:19.183Z</time></trkpt><trkpt lat="43.716494" lon="11.1904168"><ele>179.0</ele><time>2026-03-28T16:44:20.182Z</time></trkpt><trkpt lat="43.7164737" lon="11.1906144"><ele>179.0</ele><time>2026-03-28T16:44:21.182Z</time></trkpt><trkpt lat="43.7164349" lon="11.1908055"><ele>179.0</ele><time>2026-03-28T16:44:22.183Z</time></trkpt><trkpt lat="43.7163771" lon="11.1909864"><ele>179.0</ele><time>2026-03-28T16:44:23.183Z</time></trkpt><trkpt lat="43.7163107" lon="11.1911662"><ele>179.0</ele><time>2026-03-28T16:44:24.183Z</time></trkpt><trkpt lat="43.7162502" lon="11.19135"><ele>179.0</ele><time>2026-03-28T16:44:25.182Z</time></trkpt><trkpt lat="43.7162201" lon="11.1915243"><ele>179.0</ele><time>2026-03-28T16:44:26.183Z</time></trkpt><trkpt lat="43.7162232" lon="11.1916966"><ele>179.0</ele><time>2026-03-28T16:44:27.183Z</time></trkpt><trkpt lat="43.7162597" lon="11.1918701"><ele>179.0</ele><time>2026-03-28T16:44:28.182Z</time></trkpt><trkpt lat="43.716334" lon="11.1920345"><ele>179.0</ele><time>2026-03-28T16:44:29.182Z</time></trkpt><trkpt lat="43.7164169" lon="11.1922034"><ele>178.0</ele><time>2026-03-28T16:44:30.182Z</time></trkpt><trkpt lat="43.7165142" lon="11.192359"><ele>177.0</ele><time>2026-03-28T16:44:31.183Z</time></trkpt><trkpt lat="43.7166131" lon="11.1925362"><ele>176.0</ele><time>2026-03-28T16:44:32.182Z</time></trkpt><trkpt lat="43.7167199" lon="11.1927053"><ele>176.0</ele><time>2026-03-28T16:44:33.182Z</time></trkpt><trkpt lat="43.7168435" lon="11.1928644"><ele>176.0</ele><time>2026-03-28T16:44:34.182Z</time></trkpt><trkpt lat="43.7169685" lon="11.1930194"><ele>176.0</ele><time>2026-03-28T16:44:35.183Z</time></trkpt><trkpt lat="43.7170913" lon="11.1931628"><ele>177.33333333333331</ele><time>2026-03-28T16:44:36.182Z</time></trkpt><trkpt lat="43.7172182" lon="11.1932937"><ele>178.66666666666666</ele><time>2026-03-28T16:44:37.182Z</time></trkpt><trkpt lat="43.7173476" lon="11.1934095"><ele>180.0</ele><time>2026-03-28T16:44:38.182Z</time></trkpt><trkpt lat="43.7174811" lon="11.1935158"><ele>180.0</ele><time>2026-03-28T16:44:39.183Z</time></trkpt><trkpt lat="43.7176075" lon="11.1936053"><ele>180.0</ele><time>2026-03-28T16:44:40.182Z</time></trkpt><trkpt lat="43.7177314" lon="11.1936924"><ele>180.0</ele><time>2026-03-28T16:44:41.183Z</time></trkpt><trkpt lat="43.7178439" lon="11.1937731"><ele>180.0</ele><time>2026-03-28T16:44:42.183Z</time></trkpt><trkpt lat="43.7179532" lon="11.1938509"><ele>180.25</ele><time>2026-03-28T16:44:43.183Z</time></trkpt><trkpt lat="43.7180601" lon="11.1939258"><ele>180.5</ele><time>2026-03-28T16:44:44.182Z</time></trkpt><trkpt lat="43.7181708" lon="11.1940013"><ele>180.75</ele><time>2026-03-28T16:44:45.183Z</time></trkpt><trkpt lat="43.718288" lon="11.1940782"><ele>181.0</ele><time>2026-03-28T16:44:46.183Z</time></trkpt><trkpt lat="43.7184009" lon="11.1941444"><ele>181.0</ele><time>2026-03-28T16:44:47.182Z</time></trkpt><trkpt lat="43.7185092" lon="11.1941642"><ele>181.0</ele><time>2026-03-28T16:44:48.182Z</time></trkpt><trkpt lat="43.7186133" lon="11.1941353"><ele>181.0</ele><time>2026-03-28T16:44:49.183Z</time></trkpt><trkpt lat="43.7187052" lon="11.1940794"><ele>181.0</ele><time>2026-03-28T16:44:50.182Z</time></trkpt><trkpt lat="43.7188014" lon="11.193998"><ele>181.0</ele><time>2026-03-28T16:44:51.182Z</time></trkpt><trkpt lat="43.7189001" lon="11.1939134"><ele>180.75</ele><time>2026-03-28T16:44:52.183Z</time></trkpt><trkpt lat="43.7190063" lon="11.1938232"><ele>180.5</ele><time>2026-03-28T16:44:53.182Z</time></trkpt><trkpt lat="43.7191204" lon="11.1937278"><ele>180.25</ele><time>2026-03-28T16:44:54.182Z</time></trkpt><trkpt lat="43.7192319" lon="11.1936352"><ele>180.0</ele><time>2026-03-28T16:44:55.182Z</time></trkpt><trkpt lat="43.7193474" lon="11.1935436"><ele>179.5</ele><time>2026-03-28T16:44:56.182Z</time></trkpt><trkpt lat="43.7194705" lon="11.1934457"><ele>179.0</ele><time>2026-03-28T16:44:57.182Z</time></trkpt><trkpt lat="43.7195932" lon="11.1933471"><ele>178.5</ele><time>2026-03-28T16:44:58.182Z</time></trkpt><trkpt lat="43.7197095" lon="11.1932513"><ele>178.0</ele><time>2026-03-28T16:44:59.182Z</time></trkpt><trkpt lat="43.7198188" lon="11.1931568"><ele>178.0</ele><time>2026-03-28T16:45:00.182Z</time></trkpt><trkpt lat="43.7199209" lon="11.1930719"><ele>178.0</ele><time>2026-03-28T16:45:01.182Z</time></trkpt><trkpt lat="43.7200138" lon="11.1929988"><ele>178.0</ele><time>2026-03-28T16:45:02.182Z</time></trkpt><trkpt lat="43.7201052" lon="11.1929269"><ele>178.0</ele><time>2026-03-28T16:45:03.182Z</time></trkpt><trkpt lat="43.7201971" lon="11.1928554"><ele>178.0</ele><time>2026-03-28T16:45:04.182Z</time></trkpt><trkpt lat="43.720286" lon="11.1927967"><ele>179.2</ele><time>2026-03-28T16:45:05.182Z</time></trkpt><trkpt lat="43.7203768" lon="11.1927627"><ele>180.4</ele><time>2026-03-28T16:45:06.182Z</time></trkpt><trkpt lat="43.720477" lon="11.1927633"><ele>181.6</ele><time>2026-03-28T16:45:07.182Z</time></trkpt><trkpt lat="43.7205723" lon="11.192793"><ele>182.79999999999998</ele><time>2026-03-28T16:45:08.182Z</time></trkpt><trkpt lat="43.7206557" lon="11.192847"><ele>184.0</ele><time>2026-03-28T16:45:09.182Z</time></trkpt><trkpt lat="43.7207263" lon="11.1929362"><ele>184.0</ele><time>2026-03-28T16:45:10.183Z</time></trkpt><trkpt lat="43.7207761" lon="11.193056"><ele>184.0</ele><time>2026-03-28T16:45:11.182Z</time></trkpt><trkpt lat="43.720801" lon="11.19319"><ele>184.0</ele><time>2026-03-28T16:45:12.183Z</time></trkpt><trkpt lat="43.7208057" lon="11.1933388"><ele>184.0</ele><time>2026-03-28T16:45:13.182Z</time></trkpt><trkpt lat="43.7207877" lon="11.1934965"><ele>184.0</ele><time>2026-03-28T16:45:14.182Z</time></trkpt><trkpt lat="43.7207457" lon="11.1936585"><ele>184.0</ele><time>2026-03-28T16:45:15.183Z</time></trkpt><trkpt lat="43.7206912" lon="11.1938248"><ele>184.0</ele><time>2026-03-28T16:45:16.182Z</time></trkpt><trkpt lat="43.7206337" lon="11.1939937"><ele>184.0</ele><time>2026-03-28T16:45:17.183Z</time></trkpt><trkpt lat="43.7205755" lon="11.1941731"><ele>184.0</ele><time>2026-03-28T16:45:18.182Z</time></trkpt><trkpt lat="43.7205277" lon="11.1943524"><ele>182.5</ele><time>2026-03-28T16:45:19.182Z</time></trkpt><trkpt lat="43.7204963" lon="11.1945361"><ele>181.0</ele><time>2026-03-28T16:45:20.182Z</time></trkpt><trkpt lat="43.7204819" lon="11.1947221"><ele>179.5</ele><time>2026-03-28T16:45:21.183Z</time></trkpt><trkpt lat="43.7204829" lon="11.1949036"><ele>178.0</ele><time>2026-03-28T16:45:22.183Z</time></trkpt><trkpt lat="43.7204976" lon="11.1950963"><ele>177.0</ele><time>2026-03-28T16:45:23.183Z</time></trkpt><trkpt lat="43.720523" lon="11.1952974"><ele>176.0</ele><time>2026-03-28T16:45:24.182Z</time></trkpt><trkpt lat="43.7205602" lon="11.1955068"><ele>175.0</ele><time>2026-03-28T16:45:25.182Z</time></trkpt><trkpt lat="43.7206044" lon="11.1957221"><ele>175.0</ele><time>2026-03-28T16:45:26.182Z</time></trkpt><trkpt lat="43.7206522" lon="11.1959432"><ele>175.0</ele><time>2026-03-28T16:45:27.183Z</time></trkpt><trkpt lat="43.7207014" lon="11.1961722"><ele>175.0</ele><time>2026-03-28T16:45:28.182Z</time></trkpt><trkpt lat="43.7207535" lon="11.1964011"><ele>176.0</ele><time>2026-03-28T16:45:29.182Z</time></trkpt><trkpt lat="43.7208014" lon="11.1966188"><ele>177.0</ele><time>2026-03-28T16:45:30.182Z</time></trkpt><trkpt lat="43.720844" lon="11.1968277"><ele>178.0</ele><time>2026-03-28T16:45:31.183Z</time></trkpt><trkpt lat="43.7208898" lon="11.1970245"><ele>178.0</ele><time>2026-03-28T16:45:32.183Z</time></trkpt><trkpt lat="43.7209342" lon="11.1972161"><ele>178.0</ele><time>2026-03-28T16:45:33.183Z</time></trkpt><trkpt lat="43.7209763" lon="11.1974116"><ele>178.0</ele><time>2026-03-28T16:45:34.182Z</time></trkpt><trkpt lat="43.7210165" lon="11.1976035"><ele>178.0</ele><time>2026-03-28T16:45:35.182Z</time></trkpt><trkpt lat="43.7210532" lon="11.1977839"><ele>177.0</ele><time>2026-03-28T16:45:36.183Z</time></trkpt><trkpt lat="43.7210938" lon="11.1979611"><ele>176.0</ele><time>2026-03-28T16:45:37.182Z</time></trkpt><trkpt lat="43.7211258" lon="11.1981411"><ele>175.0</ele><time>2026-03-28T16:45:38.182Z</time></trkpt><trkpt lat="43.7211641" lon="11.198328"><ele>174.0</ele><time>2026-03-28T16:45:39.182Z</time></trkpt><trkpt lat="43.7212083" lon="11.1985188"><ele>174.0</ele><time>2026-03-28T16:45:40.182Z</time></trkpt><trkpt lat="43.7212639" lon="11.1986997"><ele>174.0</ele><time>2026-03-28T16:45:41.182Z</time></trkpt><trkpt lat="43.7213378" lon="11.1988695"><ele>174.0</ele><time>2026-03-28T16:45:42.182Z</time></trkpt><trkpt lat="43.7214377" lon="11.1990222"><ele>174.0</ele><time>2026-03-28T16:45:43.182Z</time></trkpt><trkpt lat="43.7215563" lon="11.1991347"><ele>173.5</ele><time>2026-03-28T16:45:44.182Z</time></trkpt><trkpt lat="43.7216877" lon="11.1992087"><ele>173.0</ele><time>2026-03-28T16:45:45.182Z</time></trkpt><trkpt lat="43.7218162" lon="11.1992494"><ele>172.5</ele><time>2026-03-28T16:45:46.182Z</time></trkpt><trkpt lat="43.7219468" lon="11.1992624"><ele>172.0</ele><time>2026-03-28T16:45:47.182Z</time></trkpt><trkpt lat="43.7220862" lon="11.1992637"><ele>171.5</ele><time>2026-03-28T16:45:48.182Z</time></trkpt><trkpt lat="43.7222295" lon="11.1992668"><ele>171.0</ele><time>2026-03-28T16:45:49.182Z</time></trkpt><trkpt lat="43.7223752" lon="11.1992794"><ele>170.5</ele><time>2026-03-28T16:45:50.182Z</time></trkpt><trkpt lat="43.7225221" lon="11.1992853"><ele>170.0</ele><time>2026-03-28T16:45:51.182Z</time></trkpt><trkpt lat="43.7226719" lon="11.1992749"><ele>171.5</ele><time>2026-03-28T16:45:52.182Z</time></trkpt><trkpt lat="43.722817" lon="11.1992439"><ele>173.0</ele><time>2026-03-28T16:45:53.182Z</time></trkpt><trkpt lat="43.7229545" lon="11.1991934"><ele>174.5</ele><time>2026-03-28T16:45:54.182Z</time></trkpt><trkpt lat="43.723075" lon="11.1991289"><ele>176.0</ele><time>2026-03-28T16:45:55.182Z</time></trkpt><trkpt lat="43.7231827" lon="11.1990646"><ele>176.0</ele><time>2026-03-28T16:45:56.182Z</time></trkpt><trkpt lat="43.72328" lon="11.1990126"><ele>176.0</ele><time>2026-03-28T16:45:57.182Z</time></trkpt><trkpt lat="43.7233664" lon="11.1989663"><ele>176.0</ele><time>2026-03-28T16:45:58.182Z</time></trkpt><trkpt lat="43.7234527" lon="11.1989188"><ele>176.0</ele><time>2026-03-28T16:45:59.183Z</time></trkpt><trkpt lat="43.7235311" lon="11.1988758"><ele>176.0</ele><time>2026-03-28T16:46:00.182Z</time></trkpt><trkpt lat="43.7236132" lon="11.1988377"><ele>177.4</ele><time>2026-03-28T16:46:01.182Z</time></trkpt><trkpt lat="43.7236962" lon="11.1988042"><ele>178.8</ele><time>2026-03-28T16:46:02.183Z</time></trkpt><trkpt lat="43.7237843" lon="11.1987858"><ele>180.20000000000002</ele><time>2026-03-28T16:46:03.182Z</time></trkpt><trkpt lat="43.7238808" lon="11.1987733"><ele>181.60000000000002</ele><time>2026-03-28T16:46:04.182Z</time></trkpt><trkpt lat="43.7239869" lon="11.1987566"><ele>183.0</ele><time>2026-03-28T16:46:05.183Z</time></trkpt><trkpt lat="43.7241026" lon="11.1987421"><ele>183.0</ele><time>2026-03-28T16:46:06.182Z</time></trkpt><trkpt lat="43.7242293" lon="11.1987293"><ele>183.0</ele><time>2026-03-28T16:46:07.182Z</time></trkpt><trkpt lat="43.7243616" lon="11.1987376"><ele>183.0</ele><time>2026-03-28T16:46:08.182Z</time></trkpt><trkpt lat="43.7244966" lon="11.1987861"><ele>183.0</ele><time>2026-03-28T16:46:09.183Z</time></trkpt><trkpt lat="43.7246248" lon="11.1988862"><ele>181.33333333333334</ele><time>2026-03-28T16:46:10.183Z</time></trkpt><trkpt lat="43.7247481" lon="11.1990234"><ele>179.66666666666669</ele><time>2026-03-28T16:46:11.183Z</time></trkpt><trkpt lat="43.7248782" lon="11.1991693"><ele>178.0</ele><time>2026-03-28T16:46:12.183Z</time></trkpt><trkpt lat="43.7250191" lon="11.1993159"><ele>178.0</ele><time>2026-03-28T16:46:13.182Z</time></trkpt><trkpt lat="43.72516" lon="11.1994613"><ele>178.0</ele><time>2026-03-28T16:46:14.182Z</time></trkpt><trkpt lat="43.7252998" lon="11.1996105"><ele>178.0</ele><time>2026-03-28T16:46:15.182Z</time></trkpt><trkpt lat="43.7254324" lon="11.1997559"><ele>178.0</ele><time>2026-03-28T16:46:16.183Z</time></trkpt><trkpt lat="43.7255576" lon="11.1998922"><ele>178.0</ele><time>2026-03-28T16:46:17.182Z</time></trkpt><trkpt lat="43.7256753" lon="11.2000235"><ele>178.0</ele><time>2026-03-28T16:46:18.183Z</time></trkpt><trkpt lat="43.7257937" lon="11.2001473"><ele>178.0</ele><time>2026-03-28T16:46:19.182Z</time></trkpt><trkpt lat="43.7259117" lon="11.2002671"><ele>178.0</ele><time>2026-03-28T16:46:20.183Z</time></trkpt><trkpt lat="43.7260281" lon="11.2003744"><ele>178.0</ele><time>2026-03-28T16:46:21.182Z</time></trkpt><trkpt lat="43.7261519" lon="11.2004632"><ele>178.0</ele><time>2026-03-28T16:46:22.183Z</time></trkpt><trkpt lat="43.7262808" lon="11.2005366"><ele>178.25</ele><time>2026-03-28T16:46:23.182Z</time></trkpt><trkpt lat="43.726417" lon="11.2006035"><ele>178.5</ele><time>2026-03-28T16:46:24.182Z</time></trkpt><trkpt lat="43.726554" lon="11.2006708"><ele>178.75</ele><time>2026-03-28T16:46:25.182Z</time></trkpt><trkpt lat="43.7266884" lon="11.2007574"><ele>179.0</ele><time>2026-03-28T16:46:26.183Z</time></trkpt><trkpt lat="43.7268197" lon="11.200862"><ele>179.0</ele><time>2026-03-28T16:46:27.182Z</time></trkpt><trkpt lat="43.7269484" lon="11.200973"><ele>179.0</ele><time>2026-03-28T16:46:28.183Z</time></trkpt><trkpt lat="43.7270781" lon="11.2010942"><ele>179.0</ele><time>2026-03-28T16:46:29.182Z</time></trkpt><trkpt lat="43.727204" lon="11.2012246"><ele>179.0</ele><time>2026-03-28T16:46:30.182Z</time></trkpt><trkpt lat="43.7273248" lon="11.2013644"><ele>179.0</ele><time>2026-03-28T16:46:31.182Z</time></trkpt><trkpt lat="43.7274417" lon="11.2015074"><ele>179.0</ele><time>2026-03-28T16:46:32.182Z</time></trkpt><trkpt lat="43.7275551" lon="11.2016516"><ele>174.66666666666666</ele><time>2026-03-28T16:46:33.183Z</time></trkpt><trkpt lat="43.7276755" lon="11.2017957"><ele>170.33333333333334</ele><time>2026-03-28T16:46:34.182Z</time></trkpt><trkpt lat="43.7277986" lon="11.2019489"><ele>166.0</ele><time>2026-03-28T16:46:35.183Z</time></trkpt><trkpt lat="43.7279247" lon="11.202099"><ele>164.66666666666669</ele><time>2026-03-28T16:46:36.182Z</time></trkpt><trkpt lat="43.7280474" lon="11.2022376"><ele>163.33333333333334</ele><time>2026-03-28T16:46:37.183Z</time></trkpt><trkpt lat="43.7281659" lon="11.2023771"><ele>162.0</ele><time>2026-03-28T16:46:38.182Z</time></trkpt><trkpt lat="43.7282893" lon="11.2025164"><ele>162.0</ele><time>2026-03-28T16:46:39.182Z</time></trkpt><trkpt lat="43.7284184" lon="11.2026445"><ele>162.0</ele><time>2026-03-28T16:46:40.182Z</time></trkpt><trkpt lat="43.728544" lon="11.2027722"><ele>162.0</ele><time>2026-03-28T16:46:41.182Z</time></trkpt><trkpt lat="43.7286713" lon="11.2028903"><ele>161.0</ele><time>2026-03-28T16:46:42.183Z</time></trkpt><trkpt lat="43.7287963" lon="11.2030152"><ele>160.0</ele><time>2026-03-28T16:46:43.183Z</time></trkpt><trkpt lat="43.7289124" lon="11.2031455"><ele>159.0</ele><time>2026-03-28T16:46:44.182Z</time></trkpt><trkpt lat="43.7290154" lon="11.2032705"><ele>158.0</ele><time>2026-03-28T16:46:45.182Z</time></trkpt><trkpt lat="43.7291034" lon="11.2033961"><ele>158.8</ele><time>2026-03-28T16:46:46.183Z</time></trkpt><trkpt lat="43.7291839" lon="11.2035188"><ele>159.60000000000002</ele><time>2026-03-28T16:46:47.182Z</time></trkpt><trkpt lat="43.7292572" lon="11.2036315"><ele>160.39999999999998</ele><time>2026-03-28T16:46:48.182Z</time></trkpt><trkpt lat="43.7293296" lon="11.2037431"><ele>161.2</ele><time>2026-03-28T16:46:49.183Z</time></trkpt><trkpt lat="43.7294016" lon="11.2038601"><ele>162.0</ele><time>2026-03-28T16:46:50.183Z</time></trkpt><trkpt lat="43.7294716" lon="11.2039612"><ele>162.0</ele><time>2026-03-28T16:46:51.182Z</time></trkpt><trkpt lat="43.7295378" lon="11.2040391"><ele>162.0</ele><time>2026-03-28T16:46:52.183Z</time></trkpt><trkpt lat="43.7296188" lon="11.2040681"><ele>162.0</ele><time>2026-03-28T16:46:53.182Z</time></trkpt><trkpt lat="43.7297011" lon="11.2040603"><ele>162.0</ele><time>2026-03-28T16:46:54.182Z</time></trkpt><trkpt lat="43.729778" lon="11.2040249"><ele>162.0</ele><time>2026-03-28T16:46:55.183Z</time></trkpt><trkpt lat="43.7298642" lon="11.2039863"><ele>162.0</ele><time>2026-03-28T16:46:56.182Z</time></trkpt><trkpt lat="43.7299553" lon="11.2039398"><ele>162.0</ele><time>2026-03-28T16:46:57.183Z</time></trkpt><trkpt lat="43.7300551" lon="11.2038923"><ele>162.0</ele><time>2026-03-28T16:46:58.183Z</time></trkpt><trkpt lat="43.7301586" lon="11.2038419"><ele>162.0</ele><time>2026-03-28T16:46:59.182Z</time></trkpt><trkpt lat="43.7302672" lon="11.2037843"><ele>162.0</ele><time>2026-03-28T16:47:00.183Z</time></trkpt><trkpt lat="43.7303871" lon="11.203742"><ele>161.5</ele><time>2026-03-28T16:47:01.183Z</time></trkpt><trkpt lat="43.7305175" lon="11.2037262"><ele>161.0</ele><time>2026-03-28T16:47:02.183Z</time></trkpt><trkpt lat="43.7306581" lon="11.2037204"><ele>160.5</ele><time>2026-03-28T16:47:03.182Z</time></trkpt><trkpt lat="43.7308063" lon="11.2037113"><ele>160.0</ele><time>2026-03-28T16:47:04.183Z</time></trkpt><trkpt lat="43.7309495" lon="11.2037049"><ele>159.25</ele><time>2026-03-28T16:47:05.182Z</time></trkpt><trkpt lat="43.7310893" lon="11.2036995"><ele>158.5</ele><time>2026-03-28T16:47:06.182Z</time></trkpt><trkpt lat="43.7312278" lon="11.2036908"><ele>157.75</ele><time>2026-03-28T16:47:07.183Z</time></trkpt><trkpt lat="43.7313582" lon="11.2036645"><ele>157.0</ele><time>2026-03-28T16:47:08.182Z</time></trkpt><trkpt lat="43.7314836" lon="11.2036424"><ele>157.0</ele><time>2026-03-28T16:47:09.182Z</time></trkpt><trkpt lat="43.731606" lon="11.2036305"><ele>157.0</ele><time>2026-03-28T16:47:10.182Z</time></trkpt><trkpt lat="43.7317258" lon="11.2036288"><ele>157.0</ele><time>2026-03-28T16:47:11.182Z</time></trkpt><trkpt lat="43.7318402" lon="11.2036262"><ele>157.0</ele><time>2026-03-28T16:47:12.183Z</time></trkpt><trkpt lat="43.7319455" lon="11.2035972"><ele>157.8</ele><time>2026-03-28T16:47:13.182Z</time></trkpt><trkpt lat="43.7320273" lon="11.2035332"><ele>158.6</ele><time>2026-03-28T16:47:14.182Z</time></trkpt><trkpt lat="43.7320816" lon="11.2034317"><ele>159.4</ele><time>2026-03-28T16:47:15.183Z</time></trkpt><trkpt lat="43.7321188" lon="11.2032878"><ele>160.20000000000002</ele><time>2026-03-28T16:47:16.182Z</time></trkpt><trkpt lat="43.7321557" lon="11.2031246"><ele>161.0</ele><time>2026-03-28T16:47:17.182Z</time></trkpt><trkpt lat="43.7321925" lon="11.2029467"><ele>161.0</ele><time>2026-03-28T16:47:18.182Z</time></trkpt><trkpt lat="43.7322253" lon="11.2027549"><ele>161.0</ele><time>2026-03-28T16:47:19.182Z</time></trkpt><trkpt lat="43.732264" lon="11.202567"><ele>161.0</ele><time>2026-03-28T16:47:20.182Z</time></trkpt><trkpt lat="43.7322967" lon="11.2024011"><ele>161.0</ele><time>2026-03-28T16:47:21.182Z</time></trkpt><trkpt lat="43.7323279" lon="11.2022395"><ele>160.4</ele><time>2026-03-28T16:47:22.183Z</time></trkpt><trkpt lat="43.732358" lon="11.2020839"><ele>159.8</ele><time>2026-03-28T16:47:23.183Z</time></trkpt><trkpt lat="43.7323852" lon="11.2019548"><ele>159.20000000000002</ele><time>2026-03-28T16:47:24.182Z</time></trkpt><trkpt lat="43.7324117" lon="11.2018334"><ele>158.60000000000002</ele><time>2026-03-28T16:47:25.183Z</time></trkpt><trkpt lat="43.7324231" lon="11.2017162"><ele>158.0</ele><time>2026-03-28T16:47:26.182Z</time></trkpt><trkpt lat="43.7324175" lon="11.2015912"><ele>157.20000000000002</ele><time>2026-03-28T16:47:27.183Z</time></trkpt><trkpt lat="43.732398" lon="11.2014634"><ele>156.4</ele><time>2026-03-28T16:47:28.182Z</time></trkpt><trkpt lat="43.7323764" lon="11.2013262"><ele>155.60000000000002</ele><time>2026-03-28T16:47:29.183Z</time></trkpt><trkpt lat="43.7323526" lon="11.201164"><ele>154.8</ele><time>2026-03-28T16:47:30.182Z</time></trkpt><trkpt lat="43.7323216" lon="11.2009846"><ele>154.0</ele><time>2026-03-28T16:47:31.184Z</time></trkpt><trkpt lat="43.7322874" lon="11.2007897"><ele>151.75</ele><time>2026-03-28T16:47:32.183Z</time></trkpt><trkpt lat="43.7322491" lon="11.2005876"><ele>149.5</ele><time>2026-03-28T16:47:33.183Z</time></trkpt><trkpt lat="43.732213" lon="11.2003914"><ele>147.25</ele><time>2026-03-28T16:47:34.183Z</time></trkpt><trkpt lat="43.7321795" lon="11.2001951"><ele>145.0</ele><time>2026-03-28T16:47:35.183Z</time></trkpt><trkpt lat="43.7321439" lon="11.2000001"><ele>142.75</ele><time>2026-03-28T16:47:36.183Z</time></trkpt><trkpt lat="43.7321079" lon="11.1998106"><ele>140.5</ele><time>2026-03-28T16:47:37.184Z</time></trkpt><trkpt lat="43.7320706" lon="11.199627"><ele>138.25</ele><time>2026-03-28T16:47:38.183Z</time></trkpt><trkpt lat="43.7320386" lon="11.1994444"><ele>136.0</ele><time>2026-03-28T16:47:39.183Z</time></trkpt><trkpt lat="43.732021" lon="11.1992633"><ele>136.0</ele><time>2026-03-28T16:47:40.184Z</time></trkpt><trkpt lat="43.7320192" lon="11.1990863"><ele>136.0</ele><time>2026-03-28T16:47:41.183Z</time></trkpt><trkpt lat="43.7320416" lon="11.1989086"><ele>136.0</ele><time>2026-03-28T16:47:42.184Z</time></trkpt><trkpt lat="43.7320858" lon="11.1987349"><ele>136.0</ele><time>2026-03-28T16:47:43.183Z</time></trkpt><trkpt lat="43.7321378" lon="11.1985678"><ele>135.25</ele><time>2026-03-28T16:47:44.182Z</time></trkpt><trkpt lat="43.7321893" lon="11.1983989"><ele>134.5</ele><time>2026-03-28T16:47:45.183Z</time></trkpt><trkpt lat="43.732241" lon="11.1982387"><ele>133.75</ele><time>2026-03-28T16:47:46.184Z</time></trkpt><trkpt lat="43.7322979" lon="11.1980849"><ele>133.0</ele><time>2026-03-28T16:47:47.184Z</time></trkpt><trkpt lat="43.7323644" lon="11.1979348"><ele>132.25</ele><time>2026-03-28T16:47:48.183Z</time></trkpt><trkpt lat="43.7324454" lon="11.197793"><ele>131.5</ele><time>2026-03-28T16:47:49.183Z</time></trkpt><trkpt lat="43.7325387" lon="11.1976661"><ele>130.75</ele><time>2026-03-28T16:47:50.184Z</time></trkpt><trkpt lat="43.7326402" lon="11.1975446"><ele>130.0</ele><time>2026-03-28T16:47:51.184Z</time></trkpt><trkpt lat="43.7327478" lon="11.1974146"><ele>128.0</ele><time>2026-03-28T16:47:52.183Z</time></trkpt><trkpt lat="43.7328461" lon="11.1972802"><ele>126.0</ele><time>2026-03-28T16:47:53.184Z</time></trkpt><trkpt lat="43.7329272" lon="11.1971358"><ele>124.0</ele><time>2026-03-28T16:47:54.184Z</time></trkpt><trkpt lat="43.732969" lon="11.1969787"><ele>122.0</ele><time>2026-03-28T16:47:55.184Z</time></trkpt><trkpt lat="43.7329845" lon="11.1968209"><ele>122.0</ele><time>2026-03-28T16:47:56.183Z</time></trkpt><trkpt lat="43.7329776" lon="11.1966719"><ele>122.0</ele><time>2026-03-28T16:47:57.183Z</time></trkpt><trkpt lat="43.7329563" lon="11.1965183"><ele>122.0</ele><time>2026-03-28T16:47:58.184Z</time></trkpt><trkpt lat="43.7329321" lon="11.196352"><ele>122.0</ele><time>2026-03-28T16:47:59.183Z</time></trkpt><trkpt lat="43.7329031" lon="11.1961802"><ele>121.5</ele><time>2026-03-28T16:48:00.183Z</time></trkpt><trkpt lat="43.7328732" lon="11.1960028"><ele>121.0</ele><time>2026-03-28T16:48:01.184Z</time></trkpt><trkpt lat="43.7328401" lon="11.1958225"><ele>120.5</ele><time>2026-03-28T16:48:02.183Z</time></trkpt><trkpt lat="43.7328119" lon="11.195644"><ele>120.0</ele><time>2026-03-28T16:48:03.184Z</time></trkpt><trkpt lat="43.7327941" lon="11.1954602"><ele>120.0</ele><time>2026-03-28T16:48:04.184Z</time></trkpt><trkpt lat="43.7327952" lon="11.1952777"><ele>120.0</ele><time>2026-03-28T16:48:05.183Z</time></trkpt><trkpt lat="43.7328286" lon="11.1951119"><ele>120.0</ele><time>2026-03-28T16:48:06.183Z</time></trkpt><trkpt lat="43.7328856" lon="11.1949747"><ele>120.0</ele><time>2026-03-28T16:48:07.183Z</time></trkpt><trkpt lat="43.7329676" lon="11.1948484"><ele>122.25</ele><time>2026-03-28T16:48:08.184Z</time></trkpt><trkpt lat="43.7330675" lon="11.1947402"><ele>124.5</ele><time>2026-03-28T16:48:09.183Z</time></trkpt><trkpt lat="43.7331799" lon="11.1946352"><ele>126.75</ele><time>2026-03-28T16:48:10.184Z</time></trkpt><trkpt lat="43.7333002" lon="11.1945235"><ele>129.0</ele><time>2026-03-28T16:48:11.183Z</time></trkpt><trkpt lat="43.7334279" lon="11.1944054"><ele>126.33333333333334</ele><time>2026-03-28T16:48:12.184Z</time></trkpt><trkpt lat="43.7335616" lon="11.1942894"><ele>123.66666666666667</ele><time>2026-03-28T16:48:13.182Z</time></trkpt><trkpt lat="43.7336947" lon="11.1941795"><ele>121.0</ele><time>2026-03-28T16:48:14.183Z</time></trkpt><trkpt lat="43.7338241" lon="11.1940807"><ele>123.0</ele><time>2026-03-28T16:48:15.183Z</time></trkpt><trkpt lat="43.7339628" lon="11.1939876"><ele>125.0</ele><time>2026-03-28T16:48:16.183Z</time></trkpt><trkpt lat="43.7341043" lon="11.1939063"><ele>127.0</ele><time>2026-03-28T16:48:17.184Z</time></trkpt><trkpt lat="43.7342398" lon="11.1938379"><ele>127.0</ele><time>2026-03-28T16:48:18.183Z</time></trkpt><trkpt lat="43.7343701" lon="11.1937838"><ele>127.0</ele><time>2026-03-28T16:48:19.184Z</time></trkpt><trkpt lat="43.7344942" lon="11.1937387"><ele>127.0</ele><time>2026-03-28T16:48:20.184Z</time></trkpt><trkpt lat="43.7346124" lon="11.1936985"><ele>127.0</ele><time>2026-03-28T16:48:21.182Z</time></trkpt><trkpt lat="43.7347379" lon="11.1936542"><ele>125.75</ele><time>2026-03-28T16:48:22.183Z</time></trkpt><trkpt lat="43.7348717" lon="11.1936106"><ele>124.5</ele><time>2026-03-28T16:48:23.184Z</time></trkpt><trkpt lat="43.7350106" lon="11.1935666"><ele>123.25</ele><time>2026-03-28T16:48:24.183Z</time></trkpt><trkpt lat="43.7351512" lon="11.1935147"><ele>122.0</ele><time>2026-03-28T16:48:25.183Z</time></trkpt><trkpt lat="43.7352839" lon="11.1934673"><ele>121.39999999999999</ele><time>2026-03-28T16:48:26.183Z</time></trkpt><trkpt lat="43.7354046" lon="11.1934183"><ele>120.79999999999998</ele><time>2026-03-28T16:48:27.183Z</time></trkpt><trkpt lat="43.7355071" lon="11.1933499"><ele>120.2</ele><time>2026-03-28T16:48:28.183Z</time></trkpt><trkpt lat="43.735592" lon="11.1932581"><ele>119.6</ele><time>2026-03-28T16:48:29.184Z</time></trkpt><trkpt lat="43.7356542" lon="11.1931597"><ele>119.0</ele><time>2026-03-28T16:48:30.183Z</time></trkpt><trkpt lat="43.7356974" lon="11.1930692"><ele>119.0</ele><time>2026-03-28T16:48:31.183Z</time></trkpt><trkpt lat="43.7357311" lon="11.1929818"><ele>119.0</ele><time>2026-03-28T16:48:32.184Z</time></trkpt><trkpt lat="43.7357642" lon="11.1928984"><ele>119.0</ele><time>2026-03-28T16:48:33.183Z</time></trkpt><trkpt lat="43.7357994" lon="11.1928137"><ele>119.0</ele><time>2026-03-28T16:48:34.183Z</time></trkpt><trkpt lat="43.7358509" lon="11.1927329"><ele>119.0</ele><time>2026-03-28T16:48:35.184Z</time></trkpt><trkpt lat="43.7359172" lon="11.1926763"><ele>119.0</ele><time>2026-03-28T16:48:36.183Z</time></trkpt><trkpt lat="43.7359902" lon="11.1926248"><ele>119.0</ele><time>2026-03-28T16:48:37.183Z</time></trkpt><trkpt lat="43.7360745" lon="11.1925704"><ele>118.0</ele><time>2026-03-28T16:48:38.183Z</time></trkpt><trkpt lat="43.7361661" lon="11.1925095"><ele>117.0</ele><time>2026-03-28T16:48:39.183Z</time></trkpt><trkpt lat="43.736258" lon="11.1924516"><ele>116.0</ele><time>2026-03-28T16:48:40.183Z</time></trkpt><trkpt lat="43.7363483" lon="11.1923985"><ele>115.0</ele><time>2026-03-28T16:48:41.183Z</time></trkpt><trkpt lat="43.7364381" lon="11.1923475"><ele>114.0</ele><time>2026-03-28T16:48:42.183Z</time></trkpt><trkpt lat="43.7365312" lon="11.1922901"><ele>113.2</ele><time>2026-03-28T16:48:43.184Z</time></trkpt><trkpt lat="43.7366214" lon="11.1922329"><ele>112.4</ele><time>2026-03-28T16:48:44.184Z</time></trkpt><trkpt lat="43.7367178" lon="11.1921683"><ele>111.6</ele><time>2026-03-28T16:48:45.183Z</time></trkpt><trkpt lat="43.7368167" lon="11.1921079"><ele>110.8</ele><time>2026-03-28T16:48:46.184Z</time></trkpt><trkpt lat="43.7369116" lon="11.1920465"><ele>110.0</ele><time>2026-03-28T16:48:47.183Z</time></trkpt><trkpt lat="43.7370028" lon="11.1919844"><ele>109.2</ele><time>2026-03-28T16:48:48.183Z</time></trkpt><trkpt lat="43.7370916" lon="11.1919256"><ele>108.4</ele><time>2026-03-28T16:48:49.183Z</time></trkpt><trkpt lat="43.7371874" lon="11.1918621"><ele>107.6</ele><time>2026-03-28T16:48:50.183Z</time></trkpt><trkpt lat="43.7372826" lon="11.1917893"><ele>106.8</ele><time>2026-03-28T16:48:51.183Z</time></trkpt><trkpt lat="43.7373746" lon="11.1917251"><ele>106.0</ele><time>2026-03-28T16:48:52.183Z</time></trkpt><trkpt lat="43.7374705" lon="11.1916631"><ele>106.0</ele><time>2026-03-28T16:48:53.183Z</time></trkpt><trkpt lat="43.7375631" lon="11.1915984"><ele>106.0</ele><time>2026-03-28T16:48:54.184Z</time></trkpt><trkpt lat="43.7376492" lon="11.1915391"><ele>106.0</ele><time>2026-03-28T16:48:55.183Z</time></trkpt><trkpt lat="43.7377349" lon="11.1914793"><ele>106.0</ele><time>2026-03-28T16:48:56.183Z</time></trkpt><trkpt lat="43.7378223" lon="11.1914184"><ele>106.0</ele><time>2026-03-28T16:48:57.184Z</time></trkpt><trkpt lat="43.7379191" lon="11.1913513"><ele>105.0</ele><time>2026-03-28T16:48:58.183Z</time></trkpt><trkpt lat="43.7380107" lon="11.191286"><ele>104.0</ele><time>2026-03-28T16:48:59.184Z</time></trkpt><trkpt lat="43.7380969" lon="11.1912064"><ele>103.0</ele><time>2026-03-28T16:49:00.184Z</time></trkpt><trkpt lat="43.7381853" lon="11.1911081"><ele>102.0</ele><time>2026-03-28T16:49:01.183Z</time></trkpt><trkpt lat="43.7382644" lon="11.1910058"><ele>101.0</ele><time>2026-03-28T16:49:02.183Z</time></trkpt><trkpt lat="43.7383389" lon="11.1908993"><ele>101.0</ele><time>2026-03-28T16:49:03.183Z</time></trkpt><trkpt lat="43.7384053" lon="11.190795"><ele>101.0</ele><time>2026-03-28T16:49:04.183Z</time></trkpt><trkpt lat="43.7384704" lon="11.1906947"><ele>101.0</ele><time>2026-03-28T16:49:05.183Z</time></trkpt><trkpt lat="43.738532" lon="11.1906008"><ele>101.0</ele><time>2026-03-28T16:49:06.183Z</time></trkpt><trkpt lat="43.7385855" lon="11.1905094"><ele>101.0</ele><time>2026-03-28T16:49:07.183Z</time></trkpt><trkpt lat="43.7386355" lon="11.1904198"><ele>99.83333333333333</ele><time>2026-03-28T16:49:08.183Z</time></trkpt><trkpt lat="43.7386815" lon="11.1903321"><ele>98.66666666666666</ele><time>2026-03-28T16:49:09.183Z</time></trkpt><trkpt lat="43.7387333" lon="11.1902385"><ele>97.5</ele><time>2026-03-28T16:49:10.184Z</time></trkpt><trkpt lat="43.7387911" lon="11.1901438"><ele>96.33333333333333</ele><time>2026-03-28T16:49:11.184Z</time></trkpt><trkpt lat="43.7388512" lon="11.190043"><ele>95.16666666666666</ele><time>2026-03-28T16:49:12.183Z</time></trkpt><trkpt lat="43.7389153" lon="11.1899379"><ele>94.0</ele><time>2026-03-28T16:49:13.183Z</time></trkpt><trkpt lat="43.7389785" lon="11.1898285"><ele>93.2</ele><time>2026-03-28T16:49:14.184Z</time></trkpt><trkpt lat="43.7390355" lon="11.1897241"><ele>92.4</ele><time>2026-03-28T16:49:15.184Z</time></trkpt><trkpt lat="43.7390928" lon="11.1896214"><ele>91.6</ele><time>2026-03-28T16:49:16.184Z</time></trkpt><trkpt lat="43.7391486" lon="11.1895174"><ele>90.8</ele><time>2026-03-28T16:49:17.183Z</time></trkpt><trkpt lat="43.7392046" lon="11.1894138"><ele>90.0</ele><time>2026-03-28T16:49:18.182Z</time></trkpt><trkpt lat="43.7392551" lon="11.1893119"><ele>90.0</ele><time>2026-03-28T16:49:19.184Z</time></trkpt><trkpt lat="43.739303" lon="11.1892077"><ele>90.0</ele><time>2026-03-28T16:49:20.184Z</time></trkpt><trkpt lat="43.7393528" lon="11.189102"><ele>90.0</ele><time>2026-03-28T16:49:21.183Z</time></trkpt><trkpt lat="43.7394016" lon="11.1889987"><ele>90.0</ele><time>2026-03-28T16:49:22.183Z</time></trkpt><trkpt lat="43.7394511" lon="11.1888941"><ele>90.0</ele><time>2026-03-28T16:49:23.183Z</time></trkpt><trkpt lat="43.739504" lon="11.1887829"><ele>88.2</ele><time>2026-03-28T16:49:24.183Z</time></trkpt><trkpt lat="43.7395551" lon="11.1886772"><ele>86.4</ele><time>2026-03-28T16:49:25.182Z</time></trkpt><trkpt lat="43.7396031" lon="11.1885699"><ele>84.6</ele><time>2026-03-28T16:49:26.182Z</time></trkpt><trkpt lat="43.7396505" lon="11.1884624"><ele>82.8</ele><time>2026-03-28T16:49:27.182Z</time></trkpt><trkpt lat="43.7397" lon="11.1883573"><ele>81.0</ele><time>2026-03-28T16:49:28.183Z</time></trkpt><trkpt lat="43.7397466" lon="11.1882536"><ele>81.0</ele><time>2026-03-28T16:49:29.183Z</time></trkpt><trkpt lat="43.7397905" lon="11.1881491"><ele>81.0</ele><time>2026-03-28T16:49:30.183Z</time></trkpt><trkpt lat="43.7398342" lon="11.1880476"><ele>81.0</ele><time>2026-03-28T16:49:31.184Z</time></trkpt><trkpt lat="43.7398776" lon="11.1879491"><ele>81.0</ele><time>2026-03-28T16:49:32.183Z</time></trkpt><trkpt lat="43.7399213" lon="11.1878486"><ele>81.0</ele><time>2026-03-28T16:49:33.183Z</time></trkpt><trkpt lat="43.7399667" lon="11.1877485"><ele>81.0</ele><time>2026-03-28T16:49:34.183Z</time></trkpt><trkpt lat="43.740011" lon="11.1876481"><ele>81.0</ele><time>2026-03-28T16:49:35.184Z</time></trkpt><trkpt lat="43.7400594" lon="11.1875466"><ele>81.0</ele><time>2026-03-28T16:49:36.183Z</time></trkpt><trkpt lat="43.7401103" lon="11.1874434"><ele>81.0</ele><time>2026-03-28T16:49:37.183Z</time></trkpt><trkpt lat="43.740163" lon="11.1873376"><ele>81.0</ele><time>2026-03-28T16:49:38.184Z</time></trkpt><trkpt lat="43.7402155" lon="11.187221"><ele>81.0</ele><time>2026-03-28T16:49:39.183Z</time></trkpt><trkpt lat="43.7402618" lon="11.1870844"><ele>79.0</ele><time>2026-03-28T16:49:40.183Z</time></trkpt><trkpt lat="43.7403073" lon="11.1869558"><ele>77.0</ele><time>2026-03-28T16:49:41.183Z</time></trkpt><trkpt lat="43.7403531" lon="11.1868151"><ele>75.0</ele><time>2026-03-28T16:49:42.183Z</time></trkpt><trkpt lat="43.740402" lon="11.1866827"><ele>73.0</ele><time>2026-03-28T16:49:43.183Z</time></trkpt><trkpt lat="43.7404561" lon="11.1865547"><ele>71.0</ele><time>2026-03-28T16:49:44.183Z</time></trkpt><trkpt lat="43.7405105" lon="11.1864216"><ele>70.2</ele><time>2026-03-28T16:49:45.183Z</time></trkpt><trkpt lat="43.7405663" lon="11.1862929"><ele>69.39999999999999</ele><time>2026-03-28T16:49:46.183Z</time></trkpt><trkpt lat="43.7406202" lon="11.1861631"><ele>68.6</ele><time>2026-03-28T16:49:47.184Z</time></trkpt><trkpt lat="43.7406734" lon="11.1860382"><ele>67.8</ele><time>2026-03-28T16:49:48.183Z</time></trkpt><trkpt lat="43.7407361" lon="11.1859187"><ele>67.0</ele><time>2026-03-28T16:49:49.183Z</time></trkpt><trkpt lat="43.7407995" lon="11.1858051"><ele>67.0</ele><time>2026-03-28T16:49:50.184Z</time></trkpt><trkpt lat="43.7408703" lon="11.1856976"><ele>67.0</ele><time>2026-03-28T16:49:51.183Z</time></trkpt><trkpt lat="43.7409361" lon="11.1855875"><ele>67.0</ele><time>2026-03-28T16:49:52.183Z</time></trkpt><trkpt lat="43.7410024" lon="11.1854786"><ele>67.0</ele><time>2026-03-28T16:49:53.183Z</time></trkpt><trkpt lat="43.7410628" lon="11.1853573"><ele>67.0</ele><time>2026-03-28T16:49:54.183Z</time></trkpt><trkpt lat="43.741109" lon="11.1852289"><ele>65.0</ele><time>2026-03-28T16:49:55.184Z</time></trkpt><trkpt lat="43.7411414" lon="11.1850916"><ele>63.0</ele><time>2026-03-28T16:49:56.183Z</time></trkpt><trkpt lat="43.7411643" lon="11.184952"><ele>61.0</ele><time>2026-03-28T16:49:57.184Z</time></trkpt><trkpt lat="43.7411855" lon="11.1848166"><ele>59.0</ele><time>2026-03-28T16:49:58.183Z</time></trkpt><trkpt lat="43.7412046" lon="11.1846904"><ele>57.0</ele><time>2026-03-28T16:49:59.183Z</time></trkpt><trkpt lat="43.7412237" lon="11.1845635"><ele>56.833333333333336</ele><time>2026-03-28T16:50:00.184Z</time></trkpt><trkpt lat="43.7412415" lon="11.1844355"><ele>56.66666666666667</ele><time>2026-03-28T16:50:01.184Z</time></trkpt><trkpt lat="43.7412608" lon="11.1843083"><ele>56.5</ele><time>2026-03-28T16:50:02.183Z</time></trkpt><trkpt lat="43.7412824" lon="11.1841944"><ele>56.333333333333336</ele><time>2026-03-28T16:50:03.183Z</time></trkpt><trkpt lat="43.7413182" lon="11.1840905"><ele>56.16666666666667</ele><time>2026-03-28T16:50:04.183Z</time></trkpt><trkpt lat="43.741377" lon="11.1840026"><ele>56.0</ele><time>2026-03-28T16:50:05.183Z</time></trkpt><trkpt lat="43.7414571" lon="11.1839267"><ele>55.8</ele><time>2026-03-28T16:50:06.184Z</time></trkpt><trkpt lat="43.741548" lon="11.1838512"><ele>55.599999999999994</ele><time>2026-03-28T16:50:07.184Z</time></trkpt><trkpt lat="43.7416452" lon="11.1837788"><ele>55.4</ele><time>2026-03-28T16:50:08.183Z</time></trkpt><trkpt lat="43.7417331" lon="11.1837174"><ele>55.2</ele><time>2026-03-28T16:50:09.183Z</time></trkpt><trkpt lat="43.7418159" lon="11.1836627"><ele>55.0</ele><time>2026-03-28T16:50:10.183Z</time></trkpt><trkpt lat="43.7418962" lon="11.1836078"><ele>54.8</ele><time>2026-03-28T16:50:11.183Z</time></trkpt><trkpt lat="43.7419786" lon="11.1835422"><ele>54.6</ele><time>2026-03-28T16:50:12.182Z</time></trkpt><trkpt lat="43.7420573" lon="11.1834736"><ele>54.400000000000006</ele><time>2026-03-28T16:50:13.184Z</time></trkpt><trkpt lat="43.7421286" lon="11.1834098"><ele>54.2</ele><time>2026-03-28T16:50:14.184Z</time></trkpt><trkpt lat="43.7421977" lon="11.1833353"><ele>54.0</ele><time>2026-03-28T16:50:15.183Z</time></trkpt><trkpt lat="43.7422662" lon="11.1832484"><ele>54.0</ele><time>2026-03-28T16:50:16.183Z</time></trkpt><trkpt lat="43.7423232" lon="11.1831518"><ele>54.0</ele><time>2026-03-28T16:50:17.183Z</time></trkpt><trkpt lat="43.7423739" lon="11.1830601"><ele>54.0</ele><time>2026-03-28T16:50:18.183Z</time></trkpt><trkpt lat="43.7424294" lon="11.1829666"><ele>54.0</ele><time>2026-03-28T16:50:19.184Z</time></trkpt><trkpt lat="43.7424893" lon="11.1828689"><ele>54.0</ele><time>2026-03-28T16:50:20.184Z</time></trkpt><trkpt lat="43.7425484" lon="11.1827747"><ele>54.0</ele><time>2026-03-28T16:50:21.183Z</time></trkpt><trkpt lat="43.7426143" lon="11.1826806"><ele>54.0</ele><time>2026-03-28T16:50:22.183Z</time></trkpt><trkpt lat="43.7426868" lon="11.1825834"><ele>54.00000000000001</ele><time>2026-03-28T16:50:23.183Z</time></trkpt><trkpt lat="43.7427677" lon="11.1824909"><ele>54.00000000000001</ele><time>2026-03-28T16:50:24.183Z</time></trkpt><trkpt lat="43.7428571" lon="11.1824041"><ele>54.0</ele><time>2026-03-28T16:50:25.183Z</time></trkpt><trkpt lat="43.7429484" lon="11.1823171"><ele>54.0</ele><time>2026-03-28T16:50:26.184Z</time></trkpt><trkpt lat="43.7430343" lon="11.1822333"><ele>54.0</ele><time>2026-03-28T16:50:27.184Z</time></trkpt><trkpt lat="43.7431119" lon="11.1821549"><ele>54.0</ele><time>2026-03-28T16:50:28.184Z</time></trkpt><trkpt lat="43.743175" lon="11.1820728"><ele>54.0</ele><time>2026-03-28T16:50:29.184Z</time></trkpt><trkpt lat="43.743226" lon="11.1819862"><ele>54.0</ele><time>2026-03-28T16:50:30.184Z</time></trkpt><trkpt lat="43.7432658" lon="11.1818978"><ele>54.0</ele><time>2026-03-28T16:50:31.183Z</time></trkpt><trkpt lat="43.7433008" lon="11.1818138"><ele>54.0</ele><time>2026-03-28T16:50:32.184Z</time></trkpt><trkpt lat="43.7433319" lon="11.1817337"><ele>54.0</ele><time>2026-03-28T16:50:33.184Z</time></trkpt><trkpt lat="43.7433638" lon="11.181656"><ele>54.00000000000001</ele><time>2026-03-28T16:50:34.184Z</time></trkpt><trkpt lat="43.7434567" lon="11.1815496"><ele>54.00000000000001</ele><time>2026-03-28T16:50:36.184Z</time></trkpt><trkpt lat="43.7435771" lon="11.1815324"><ele>54.0</ele><time>2026-03-28T16:50:38.183Z</time></trkpt><trkpt lat="43.7436466" lon="11.1815816"><ele>54.0</ele><time>2026-03-28T16:50:39.183Z</time></trkpt><trkpt lat="43.743725" lon="11.1816433"><ele>54.0</ele><time>2026-03-28T16:50:40.183Z</time></trkpt><trkpt lat="43.7438119" lon="11.1817043"><ele>54.0</ele><time>2026-03-28T16:50:41.183Z</time></trkpt><trkpt lat="43.743898" lon="11.1817608"><ele>54.0</ele><time>2026-03-28T16:50:42.183Z</time></trkpt><trkpt lat="43.7439784" lon="11.1818055"><ele>54.0</ele><time>2026-03-28T16:50:43.184Z</time></trkpt><trkpt lat="43.7440567" lon="11.1818324"><ele>54.0</ele><time>2026-03-28T16:50:44.184Z</time></trkpt><trkpt lat="43.7441351" lon="11.1818359"><ele>54.0</ele><time>2026-03-28T16:50:45.183Z</time></trkpt><trkpt lat="43.7442113" lon="11.1818224"><ele>54.0</ele><time>2026-03-28T16:50:46.183Z</time></trkpt><trkpt lat="43.7442927" lon="11.1817953"><ele>54.00000000000001</ele><time>2026-03-28T16:50:47.182Z</time></trkpt><trkpt lat="43.7443778" lon="11.1817643"><ele>54.00000000000001</ele><time>2026-03-28T16:50:48.183Z</time></trkpt><trkpt lat="43.7444636" lon="11.181728"><ele>54.0</ele><time>2026-03-28T16:50:49.183Z</time></trkpt><trkpt lat="43.7445521" lon="11.1816863"><ele>54.0</ele><time>2026-03-28T16:50:50.184Z</time></trkpt><trkpt lat="43.7446436" lon="11.1816453"><ele>54.0</ele><time>2026-03-28T16:50:51.183Z</time></trkpt><trkpt lat="43.744738" lon="11.181597"><ele>54.00000000000001</ele><time>2026-03-28T16:50:52.183Z</time></trkpt><trkpt lat="43.7448373" lon="11.1815458"><ele>54.00000000000001</ele><time>2026-03-28T16:50:53.183Z</time></trkpt><trkpt lat="43.7449395" lon="11.1814921"><ele>54.0</ele><time>2026-03-28T16:50:54.184Z</time></trkpt><trkpt lat="43.7450423" lon="11.1814358"><ele>54.0</ele><time>2026-03-28T16:50:55.184Z</time></trkpt><trkpt lat="43.7451429" lon="11.1813764"><ele>53.800000000000004</ele><time>2026-03-28T16:50:56.183Z</time></trkpt><trkpt lat="43.7452385" lon="11.1813192"><ele>53.60000000000001</ele><time>2026-03-28T16:50:57.183Z</time></trkpt><trkpt lat="43.7453277" lon="11.1812651"><ele>53.4</ele><time>2026-03-28T16:50:58.183Z</time></trkpt><trkpt lat="43.7454118" lon="11.1812042"><ele>53.2</ele><time>2026-03-28T16:50:59.184Z</time></trkpt><trkpt lat="43.7454909" lon="11.1811456"><ele>53.0</ele><time>2026-03-28T16:51:00.183Z</time></trkpt><trkpt lat="43.7455636" lon="11.1810897"><ele>53.0</ele><time>2026-03-28T16:51:01.183Z</time></trkpt><trkpt lat="43.7456315" lon="11.1810452"><ele>53.0</ele><time>2026-03-28T16:51:02.184Z</time></trkpt><trkpt lat="43.7456976" lon="11.1810057"><ele>53.0</ele><time>2026-03-28T16:51:03.184Z</time></trkpt><trkpt lat="43.7457611" lon="11.1809626"><ele>53.0</ele><time>2026-03-28T16:51:04.184Z</time></trkpt><trkpt lat="43.7458245" lon="11.1809121"><ele>53.0</ele><time>2026-03-28T16:51:05.183Z</time></trkpt><trkpt lat="43.745884" lon="11.1808491"><ele>53.0</ele><time>2026-03-28T16:51:06.183Z</time></trkpt><trkpt lat="43.7459438" lon="11.1807756"><ele>53.0</ele><time>2026-03-28T16:51:07.183Z</time></trkpt><trkpt lat="43.7460029" lon="11.1807071"><ele>52.66666666666667</ele><time>2026-03-28T16:51:08.184Z</time></trkpt><trkpt lat="43.7460613" lon="11.180644"><ele>52.333333333333336</ele><time>2026-03-28T16:51:09.184Z</time></trkpt><trkpt lat="43.7461196" lon="11.1805901"><ele>52.0</ele><time>2026-03-28T16:51:10.184Z</time></trkpt><trkpt lat="43.7462095" lon="11.1804952"><ele>51.66666666666667</ele><time>2026-03-28T16:51:12.183Z</time></trkpt><trkpt lat="43.7462903" lon="11.180421"><ele>51.333333333333336</ele><time>2026-03-28T16:51:14.183Z</time></trkpt><trkpt lat="43.7463642" lon="11.1803974"><ele>51.0</ele><time>2026-03-28T16:51:16.183Z</time></trkpt><trkpt lat="43.7464624" lon="11.1804882"><ele>51.0</ele><time>2026-03-28T16:51:18.184Z</time></trkpt><trkpt lat="43.746522" lon="11.1805746"><ele>51.0</ele><time>2026-03-28T16:51:19.183Z</time></trkpt><trkpt lat="43.7465795" lon="11.1806748"><ele>51.0</ele><time>2026-03-28T16:51:20.183Z</time></trkpt><trkpt lat="43.7466428" lon="11.180777"><ele>51.0</ele><time>2026-03-28T16:51:21.184Z</time></trkpt><trkpt lat="43.7467188" lon="11.1808876"><ele>51.0</ele><time>2026-03-28T16:51:22.183Z</time></trkpt><trkpt lat="43.7467938" lon="11.1809916"><ele>51.0</ele><time>2026-03-28T16:51:23.182Z</time></trkpt><trkpt lat="43.7468746" lon="11.1810963"><ele>51.0</ele><time>2026-03-28T16:51:24.183Z</time></trkpt><trkpt lat="43.7469553" lon="11.1812065"><ele>51.0</ele><time>2026-03-28T16:51:25.184Z</time></trkpt><trkpt lat="43.7470311" lon="11.1813105"><ele>51.0</ele><time>2026-03-28T16:51:26.183Z</time></trkpt><trkpt lat="43.7471023" lon="11.1814144"><ele>51.0</ele><time>2026-03-28T16:51:27.183Z</time></trkpt><trkpt lat="43.7471759" lon="11.1815181"><ele>50.8</ele><time>2026-03-28T16:51:28.183Z</time></trkpt><trkpt lat="43.7472533" lon="11.1816224"><ele>50.599999999999994</ele><time>2026-03-28T16:51:29.184Z</time></trkpt><trkpt lat="43.7473256" lon="11.1817132"><ele>50.4</ele><time>2026-03-28T16:51:30.183Z</time></trkpt><trkpt lat="43.7473908" lon="11.181796"><ele>50.2</ele><time>2026-03-28T16:51:31.184Z</time></trkpt><trkpt lat="43.7474533" lon="11.1818769"><ele>50.0</ele><time>2026-03-28T16:51:32.184Z</time></trkpt><trkpt lat="43.7475169" lon="11.1819523"><ele>50.0</ele><time>2026-03-28T16:51:33.184Z</time></trkpt><trkpt lat="43.7475893" lon="11.182026"><ele>50.0</ele><time>2026-03-28T16:51:34.184Z</time></trkpt><trkpt lat="43.747662" lon="11.1821046"><ele>50.0</ele><time>2026-03-28T16:51:35.184Z</time></trkpt><trkpt lat="43.7477538" lon="11.1821779"><ele>50.0</ele><time>2026-03-28T16:51:36.183Z</time></trkpt><trkpt lat="43.7478443" lon="11.1822508"><ele>50.0</ele><time>2026-03-28T16:51:37.184Z</time></trkpt><trkpt lat="43.7479424" lon="11.1823233"><ele>50.0</ele><time>2026-03-28T16:51:38.183Z</time></trkpt><trkpt lat="43.7480422" lon="11.182399"><ele>50.0</ele><time>2026-03-28T16:51:39.183Z</time></trkpt><trkpt lat="43.7481363" lon="11.1824826"><ele>50.0</ele><time>2026-03-28T16:51:40.183Z</time></trkpt><trkpt lat="43.7482368" lon="11.1825615"><ele>50.0</ele><time>2026-03-28T16:51:41.183Z</time></trkpt><trkpt lat="43.7483316" lon="11.182635"><ele>50.0</ele><time>2026-03-28T16:51:42.183Z</time></trkpt><trkpt lat="43.7484166" lon="11.1827031"><ele>50.0</ele><time>2026-03-28T16:51:43.184Z</time></trkpt><trkpt lat="43.7484966" lon="11.182763"><ele>50.0</ele><time>2026-03-28T16:51:44.184Z</time></trkpt><trkpt lat="43.7485736" lon="11.1828271"><ele>50.0</ele><time>2026-03-28T16:51:45.184Z</time></trkpt><trkpt lat="43.7486545" lon="11.1828985"><ele>50.0</ele><time>2026-03-28T16:51:46.184Z</time></trkpt><trkpt lat="43.7487406" lon="11.1829762"><ele>50.0</ele><time>2026-03-28T16:51:47.183Z</time></trkpt><trkpt lat="43.7488248" lon="11.1830595"><ele>50.0</ele><time>2026-03-28T16:51:48.184Z</time></trkpt><trkpt lat="43.7489015" lon="11.1831531"><ele>50.0</ele><time>2026-03-28T16:51:49.184Z</time></trkpt></trkseg></trk></gpx>